<?xml version="1.0" encoding="UTF-8"?>
<gpx xmlns:xsi="http://www.w3.org/2001/XMLSchema-instance" xsi:schemaLocation="http://www.topografix.com/GPX/1/1 http://www.topografix.com/GPX/1/1/gpx.xsd" creator="StravaGPX" version="1.1" xmlns="http://www.topografix.com/GPX/1/1">
 <metadata>
  <time>2025-07-19T09:06:42Z</time>
 </metadata>
 <trk>
  <name>Table Mtn and Conavalla DWC leading</name>
  <type>walking</type>
  <trkseg>
   <trkpt lat="52.9879170" lon="-6.4126620">
    <ele>163.7</ele>
    <time>2025-07-19T09:06:42Z</time>
   </trkpt>
   <trkpt lat="52.9879610" lon="-6.4126900">
    <ele>163.7</ele>
    <time>2025-07-19T09:07:20Z</time>
   </trkpt>
   <trkpt lat="52.9879810" lon="-6.4127710">
    <ele>163.8</ele>
    <time>2025-07-19T09:09:02Z</time>
   </trkpt>
   <trkpt lat="52.9879970" lon="-6.4128440">
    <ele>163.8</ele>
    <time>2025-07-19T09:09:07Z</time>
   </trkpt>
   <trkpt lat="52.9880160" lon="-6.4129300">
    <ele>163.9</ele>
    <time>2025-07-19T09:09:12Z</time>
   </trkpt>
   <trkpt lat="52.9880400" lon="-6.4130120">
    <ele>163.9</ele>
    <time>2025-07-19T09:09:18Z</time>
   </trkpt>
   <trkpt lat="52.9880630" lon="-6.4130990">
    <ele>163.9</ele>
    <time>2025-07-19T09:09:23Z</time>
   </trkpt>
   <trkpt lat="52.9880790" lon="-6.4132000">
    <ele>163.9</ele>
    <time>2025-07-19T09:09:28Z</time>
   </trkpt>
   <trkpt lat="52.9880450" lon="-6.4132550">
    <ele>164.0</ele>
    <time>2025-07-19T09:09:36Z</time>
   </trkpt>
   <trkpt lat="52.9880190" lon="-6.4133180">
    <ele>164.0</ele>
    <time>2025-07-19T09:09:41Z</time>
   </trkpt>
   <trkpt lat="52.9879780" lon="-6.4133770">
    <ele>164.2</ele>
    <time>2025-07-19T09:09:46Z</time>
   </trkpt>
   <trkpt lat="52.9879440" lon="-6.4134480">
    <ele>164.4</ele>
    <time>2025-07-19T09:09:51Z</time>
   </trkpt>
   <trkpt lat="52.9879060" lon="-6.4135030">
    <ele>164.7</ele>
    <time>2025-07-19T09:09:56Z</time>
   </trkpt>
   <trkpt lat="52.9878660" lon="-6.4135880">
    <ele>165.1</ele>
    <time>2025-07-19T09:10:02Z</time>
   </trkpt>
   <trkpt lat="52.9878500" lon="-6.4136760">
    <ele>165.5</ele>
    <time>2025-07-19T09:10:07Z</time>
   </trkpt>
   <trkpt lat="52.9878840" lon="-6.4137920">
    <ele>165.8</ele>
    <time>2025-07-19T09:10:12Z</time>
   </trkpt>
   <trkpt lat="52.9879370" lon="-6.4138680">
    <ele>165.9</ele>
    <time>2025-07-19T09:10:17Z</time>
   </trkpt>
   <trkpt lat="52.9879890" lon="-6.4139320">
    <ele>165.9</ele>
    <time>2025-07-19T09:10:22Z</time>
   </trkpt>
   <trkpt lat="52.9880300" lon="-6.4140000">
    <ele>165.9</ele>
    <time>2025-07-19T09:10:28Z</time>
   </trkpt>
   <trkpt lat="52.9880580" lon="-6.4140890">
    <ele>165.9</ele>
    <time>2025-07-19T09:10:34Z</time>
   </trkpt>
   <trkpt lat="52.9880940" lon="-6.4141520">
    <ele>166.0</ele>
    <time>2025-07-19T09:10:39Z</time>
   </trkpt>
   <trkpt lat="52.9881390" lon="-6.4142440">
    <ele>166.1</ele>
    <time>2025-07-19T09:10:45Z</time>
   </trkpt>
   <trkpt lat="52.9881860" lon="-6.4143070">
    <ele>166.1</ele>
    <time>2025-07-19T09:10:50Z</time>
   </trkpt>
   <trkpt lat="52.9882210" lon="-6.4143830">
    <ele>166.2</ele>
    <time>2025-07-19T09:10:55Z</time>
   </trkpt>
   <trkpt lat="52.9882660" lon="-6.4144030">
    <ele>166.2</ele>
    <time>2025-07-19T09:11:07Z</time>
   </trkpt>
   <trkpt lat="52.9882940" lon="-6.4144700">
    <ele>166.3</ele>
    <time>2025-07-19T09:11:21Z</time>
   </trkpt>
   <trkpt lat="52.9883260" lon="-6.4145620">
    <ele>166.3</ele>
    <time>2025-07-19T09:11:26Z</time>
   </trkpt>
   <trkpt lat="52.9883290" lon="-6.4146390">
    <ele>166.4</ele>
    <time>2025-07-19T09:11:41Z</time>
   </trkpt>
   <trkpt lat="52.9883070" lon="-6.4147040">
    <ele>166.5</ele>
    <time>2025-07-19T09:11:48Z</time>
   </trkpt>
   <trkpt lat="52.9883030" lon="-6.4147830">
    <ele>166.6</ele>
    <time>2025-07-19T09:11:55Z</time>
   </trkpt>
   <trkpt lat="52.9883060" lon="-6.4148660">
    <ele>166.8</ele>
    <time>2025-07-19T09:12:02Z</time>
   </trkpt>
   <trkpt lat="52.9882810" lon="-6.4149340">
    <ele>166.9</ele>
    <time>2025-07-19T09:12:08Z</time>
   </trkpt>
   <trkpt lat="52.9882680" lon="-6.4150090">
    <ele>167.1</ele>
    <time>2025-07-19T09:12:13Z</time>
   </trkpt>
   <trkpt lat="52.9882710" lon="-6.4150890">
    <ele>167.3</ele>
    <time>2025-07-19T09:12:18Z</time>
   </trkpt>
   <trkpt lat="52.9882650" lon="-6.4151930">
    <ele>167.5</ele>
    <time>2025-07-19T09:12:24Z</time>
   </trkpt>
   <trkpt lat="52.9882440" lon="-6.4152700">
    <ele>167.7</ele>
    <time>2025-07-19T09:12:29Z</time>
   </trkpt>
   <trkpt lat="52.9882300" lon="-6.4153580">
    <ele>167.9</ele>
    <time>2025-07-19T09:12:35Z</time>
   </trkpt>
   <trkpt lat="52.9882450" lon="-6.4154350">
    <ele>168.2</ele>
    <time>2025-07-19T09:12:42Z</time>
   </trkpt>
   <trkpt lat="52.9882480" lon="-6.4155130">
    <ele>168.4</ele>
    <time>2025-07-19T09:12:49Z</time>
   </trkpt>
   <trkpt lat="52.9882540" lon="-6.4156150">
    <ele>168.5</ele>
    <time>2025-07-19T09:12:54Z</time>
   </trkpt>
   <trkpt lat="52.9882600" lon="-6.4157390">
    <ele>168.8</ele>
    <time>2025-07-19T09:13:00Z</time>
   </trkpt>
   <trkpt lat="52.9882610" lon="-6.4158260">
    <ele>169.1</ele>
    <time>2025-07-19T09:13:05Z</time>
   </trkpt>
   <trkpt lat="52.9882720" lon="-6.4159360">
    <ele>169.4</ele>
    <time>2025-07-19T09:13:11Z</time>
   </trkpt>
   <trkpt lat="52.9882560" lon="-6.4160280">
    <ele>169.8</ele>
    <time>2025-07-19T09:13:16Z</time>
   </trkpt>
   <trkpt lat="52.9882540" lon="-6.4161150">
    <ele>170.1</ele>
    <time>2025-07-19T09:13:21Z</time>
   </trkpt>
   <trkpt lat="52.9882590" lon="-6.4161970">
    <ele>170.5</ele>
    <time>2025-07-19T09:13:26Z</time>
   </trkpt>
   <trkpt lat="52.9882790" lon="-6.4162820">
    <ele>170.8</ele>
    <time>2025-07-19T09:13:31Z</time>
   </trkpt>
   <trkpt lat="52.9882780" lon="-6.4163640">
    <ele>171.2</ele>
    <time>2025-07-19T09:13:36Z</time>
   </trkpt>
   <trkpt lat="52.9882580" lon="-6.4164380">
    <ele>171.6</ele>
    <time>2025-07-19T09:13:42Z</time>
   </trkpt>
   <trkpt lat="52.9882420" lon="-6.4165160">
    <ele>172.1</ele>
    <time>2025-07-19T09:13:47Z</time>
   </trkpt>
   <trkpt lat="52.9882600" lon="-6.4165910">
    <ele>172.5</ele>
    <time>2025-07-19T09:13:52Z</time>
   </trkpt>
   <trkpt lat="52.9882780" lon="-6.4167080">
    <ele>173.0</ele>
    <time>2025-07-19T09:13:57Z</time>
   </trkpt>
   <trkpt lat="52.9882800" lon="-6.4168280">
    <ele>173.6</ele>
    <time>2025-07-19T09:14:02Z</time>
   </trkpt>
   <trkpt lat="52.9882730" lon="-6.4169230">
    <ele>174.3</ele>
    <time>2025-07-19T09:14:07Z</time>
   </trkpt>
   <trkpt lat="52.9882610" lon="-6.4170030">
    <ele>174.9</ele>
    <time>2025-07-19T09:14:12Z</time>
   </trkpt>
   <trkpt lat="52.9882500" lon="-6.4170890">
    <ele>175.6</ele>
    <time>2025-07-19T09:14:18Z</time>
   </trkpt>
   <trkpt lat="52.9882370" lon="-6.4171770">
    <ele>176.3</ele>
    <time>2025-07-19T09:14:23Z</time>
   </trkpt>
   <trkpt lat="52.9882290" lon="-6.4172670">
    <ele>177.1</ele>
    <time>2025-07-19T09:14:28Z</time>
   </trkpt>
   <trkpt lat="52.9882100" lon="-6.4173620">
    <ele>178.0</ele>
    <time>2025-07-19T09:14:33Z</time>
   </trkpt>
   <trkpt lat="52.9881900" lon="-6.4174630">
    <ele>179.1</ele>
    <time>2025-07-19T09:14:38Z</time>
   </trkpt>
   <trkpt lat="52.9881920" lon="-6.4175820">
    <ele>180.6</ele>
    <time>2025-07-19T09:14:44Z</time>
   </trkpt>
   <trkpt lat="52.9882020" lon="-6.4176590">
    <ele>181.9</ele>
    <time>2025-07-19T09:14:49Z</time>
   </trkpt>
   <trkpt lat="52.9882020" lon="-6.4177400">
    <ele>183.3</ele>
    <time>2025-07-19T09:14:55Z</time>
   </trkpt>
   <trkpt lat="52.9881970" lon="-6.4178300">
    <ele>184.7</ele>
    <time>2025-07-19T09:15:00Z</time>
   </trkpt>
   <trkpt lat="52.9882110" lon="-6.4179430">
    <ele>186.6</ele>
    <time>2025-07-19T09:15:05Z</time>
   </trkpt>
   <trkpt lat="52.9882210" lon="-6.4180560">
    <ele>188.6</ele>
    <time>2025-07-19T09:15:10Z</time>
   </trkpt>
   <trkpt lat="52.9882450" lon="-6.4181490">
    <ele>190.6</ele>
    <time>2025-07-19T09:15:16Z</time>
   </trkpt>
   <trkpt lat="52.9882580" lon="-6.4182360">
    <ele>192.3</ele>
    <time>2025-07-19T09:15:21Z</time>
   </trkpt>
   <trkpt lat="52.9882810" lon="-6.4183340">
    <ele>194.0</ele>
    <time>2025-07-19T09:15:27Z</time>
   </trkpt>
   <trkpt lat="52.9882940" lon="-6.4184360">
    <ele>195.8</ele>
    <time>2025-07-19T09:15:32Z</time>
   </trkpt>
   <trkpt lat="52.9883050" lon="-6.4185210">
    <ele>197.3</ele>
    <time>2025-07-19T09:15:37Z</time>
   </trkpt>
   <trkpt lat="52.9882890" lon="-6.4185920">
    <ele>198.9</ele>
    <time>2025-07-19T09:15:43Z</time>
   </trkpt>
   <trkpt lat="52.9882670" lon="-6.4185270">
    <ele>200.1</ele>
    <time>2025-07-19T09:15:55Z</time>
   </trkpt>
   <trkpt lat="52.9882370" lon="-6.4184670">
    <ele>199.6</ele>
    <time>2025-07-19T09:16:00Z</time>
   </trkpt>
   <trkpt lat="52.9882040" lon="-6.4184100">
    <ele>198.9</ele>
    <time>2025-07-19T09:16:08Z</time>
   </trkpt>
   <trkpt lat="52.9881800" lon="-6.4183440">
    <ele>198.1</ele>
    <time>2025-07-19T09:16:13Z</time>
   </trkpt>
   <trkpt lat="52.9881700" lon="-6.4182640">
    <ele>197.0</ele>
    <time>2025-07-19T09:16:19Z</time>
   </trkpt>
   <trkpt lat="52.9881520" lon="-6.4181680">
    <ele>195.6</ele>
    <time>2025-07-19T09:16:24Z</time>
   </trkpt>
   <trkpt lat="52.9881150" lon="-6.4180940">
    <ele>194.1</ele>
    <time>2025-07-19T09:16:29Z</time>
   </trkpt>
   <trkpt lat="52.9880770" lon="-6.4180130">
    <ele>192.8</ele>
    <time>2025-07-19T09:16:35Z</time>
   </trkpt>
   <trkpt lat="52.9880480" lon="-6.4179480">
    <ele>191.6</ele>
    <time>2025-07-19T09:16:40Z</time>
   </trkpt>
   <trkpt lat="52.9880440" lon="-6.4178710">
    <ele>190.3</ele>
    <time>2025-07-19T09:16:45Z</time>
   </trkpt>
   <trkpt lat="52.9880330" lon="-6.4177790">
    <ele>188.7</ele>
    <time>2025-07-19T09:16:51Z</time>
   </trkpt>
   <trkpt lat="52.9880260" lon="-6.4177010">
    <ele>187.0</ele>
    <time>2025-07-19T09:16:57Z</time>
   </trkpt>
   <trkpt lat="52.9880140" lon="-6.4176220">
    <ele>185.4</ele>
    <time>2025-07-19T09:17:04Z</time>
   </trkpt>
   <trkpt lat="52.9880020" lon="-6.4175430">
    <ele>184.1</ele>
    <time>2025-07-19T09:17:10Z</time>
   </trkpt>
   <trkpt lat="52.9879990" lon="-6.4174610">
    <ele>182.9</ele>
    <time>2025-07-19T09:17:17Z</time>
   </trkpt>
   <trkpt lat="52.9879880" lon="-6.4173750">
    <ele>181.8</ele>
    <time>2025-07-19T09:17:22Z</time>
   </trkpt>
   <trkpt lat="52.9879520" lon="-6.4173210">
    <ele>181.0</ele>
    <time>2025-07-19T09:17:28Z</time>
   </trkpt>
   <trkpt lat="52.9879150" lon="-6.4172730">
    <ele>180.5</ele>
    <time>2025-07-19T09:17:33Z</time>
   </trkpt>
   <trkpt lat="52.9878760" lon="-6.4173230">
    <ele>180.5</ele>
    <time>2025-07-19T09:17:50Z</time>
   </trkpt>
   <trkpt lat="52.9878320" lon="-6.4174100">
    <ele>181.2</ele>
    <time>2025-07-19T09:17:55Z</time>
   </trkpt>
   <trkpt lat="52.9877950" lon="-6.4174690">
    <ele>182.3</ele>
    <time>2025-07-19T09:18:01Z</time>
   </trkpt>
   <trkpt lat="52.9877740" lon="-6.4175480">
    <ele>183.5</ele>
    <time>2025-07-19T09:18:07Z</time>
   </trkpt>
   <trkpt lat="52.9877630" lon="-6.4176320">
    <ele>185.1</ele>
    <time>2025-07-19T09:18:14Z</time>
   </trkpt>
   <trkpt lat="52.9877620" lon="-6.4177280">
    <ele>186.7</ele>
    <time>2025-07-19T09:18:20Z</time>
   </trkpt>
   <trkpt lat="52.9877440" lon="-6.4178070">
    <ele>188.7</ele>
    <time>2025-07-19T09:18:27Z</time>
   </trkpt>
   <trkpt lat="52.9877180" lon="-6.4178710">
    <ele>190.6</ele>
    <time>2025-07-19T09:18:33Z</time>
   </trkpt>
   <trkpt lat="52.9877190" lon="-6.4179580">
    <ele>192.7</ele>
    <time>2025-07-19T09:18:43Z</time>
   </trkpt>
   <trkpt lat="52.9877210" lon="-6.4181080">
    <ele>195.0</ele>
    <time>2025-07-19T09:18:49Z</time>
   </trkpt>
   <trkpt lat="52.9877230" lon="-6.4182320">
    <ele>197.7</ele>
    <time>2025-07-19T09:18:54Z</time>
   </trkpt>
   <trkpt lat="52.9877160" lon="-6.4183450">
    <ele>200.5</ele>
    <time>2025-07-19T09:18:59Z</time>
   </trkpt>
   <trkpt lat="52.9877050" lon="-6.4184420">
    <ele>203.1</ele>
    <time>2025-07-19T09:19:05Z</time>
   </trkpt>
   <trkpt lat="52.9876870" lon="-6.4185150">
    <ele>205.6</ele>
    <time>2025-07-19T09:19:11Z</time>
   </trkpt>
   <trkpt lat="52.9876780" lon="-6.4185970">
    <ele>207.6</ele>
    <time>2025-07-19T09:19:17Z</time>
   </trkpt>
   <trkpt lat="52.9876690" lon="-6.4186710">
    <ele>210.1</ele>
    <time>2025-07-19T09:19:25Z</time>
   </trkpt>
   <trkpt lat="52.9876680" lon="-6.4187460">
    <ele>212.1</ele>
    <time>2025-07-19T09:19:36Z</time>
   </trkpt>
   <trkpt lat="52.9876870" lon="-6.4188300">
    <ele>213.4</ele>
    <time>2025-07-19T09:19:41Z</time>
   </trkpt>
   <trkpt lat="52.9877010" lon="-6.4189060">
    <ele>215.0</ele>
    <time>2025-07-19T09:19:48Z</time>
   </trkpt>
   <trkpt lat="52.9877120" lon="-6.4189830">
    <ele>216.7</ele>
    <time>2025-07-19T09:19:55Z</time>
   </trkpt>
   <trkpt lat="52.9877080" lon="-6.4190940">
    <ele>218.4</ele>
    <time>2025-07-19T09:20:01Z</time>
   </trkpt>
   <trkpt lat="52.9876960" lon="-6.4191940">
    <ele>220.4</ele>
    <time>2025-07-19T09:20:06Z</time>
   </trkpt>
   <trkpt lat="52.9876970" lon="-6.4192740">
    <ele>222.7</ele>
    <time>2025-07-19T09:20:11Z</time>
   </trkpt>
   <trkpt lat="52.9876920" lon="-6.4193540">
    <ele>224.7</ele>
    <time>2025-07-19T09:20:17Z</time>
   </trkpt>
   <trkpt lat="52.9876960" lon="-6.4194360">
    <ele>226.5</ele>
    <time>2025-07-19T09:20:22Z</time>
   </trkpt>
   <trkpt lat="52.9877020" lon="-6.4195110">
    <ele>228.3</ele>
    <time>2025-07-19T09:20:27Z</time>
   </trkpt>
   <trkpt lat="52.9877070" lon="-6.4195890">
    <ele>230.7</ele>
    <time>2025-07-19T09:20:36Z</time>
   </trkpt>
   <trkpt lat="52.9877260" lon="-6.4196640">
    <ele>232.0</ele>
    <time>2025-07-19T09:20:41Z</time>
   </trkpt>
   <trkpt lat="52.9877370" lon="-6.4197720">
    <ele>233.7</ele>
    <time>2025-07-19T09:20:47Z</time>
   </trkpt>
   <trkpt lat="52.9877560" lon="-6.4198860">
    <ele>235.6</ele>
    <time>2025-07-19T09:20:52Z</time>
   </trkpt>
   <trkpt lat="52.9877700" lon="-6.4199810">
    <ele>237.6</ele>
    <time>2025-07-19T09:20:58Z</time>
   </trkpt>
   <trkpt lat="52.9877660" lon="-6.4200760">
    <ele>239.5</ele>
    <time>2025-07-19T09:21:04Z</time>
   </trkpt>
   <trkpt lat="52.9877550" lon="-6.4201580">
    <ele>241.6</ele>
    <time>2025-07-19T09:21:09Z</time>
   </trkpt>
   <trkpt lat="52.9877880" lon="-6.4202180">
    <ele>243.2</ele>
    <time>2025-07-19T09:21:16Z</time>
   </trkpt>
   <trkpt lat="52.9878200" lon="-6.4202880">
    <ele>244.0</ele>
    <time>2025-07-19T09:21:22Z</time>
   </trkpt>
   <trkpt lat="52.9878590" lon="-6.4203280">
    <ele>244.5</ele>
    <time>2025-07-19T09:21:30Z</time>
   </trkpt>
   <trkpt lat="52.9878770" lon="-6.4204050">
    <ele>244.9</ele>
    <time>2025-07-19T09:21:38Z</time>
   </trkpt>
   <trkpt lat="52.9879030" lon="-6.4204720">
    <ele>245.5</ele>
    <time>2025-07-19T09:21:44Z</time>
   </trkpt>
   <trkpt lat="52.9879390" lon="-6.4205260">
    <ele>245.7</ele>
    <time>2025-07-19T09:21:51Z</time>
   </trkpt>
   <trkpt lat="52.9879640" lon="-6.4205940">
    <ele>246.0</ele>
    <time>2025-07-19T09:21:57Z</time>
   </trkpt>
   <trkpt lat="52.9879820" lon="-6.4206750">
    <ele>246.6</ele>
    <time>2025-07-19T09:22:03Z</time>
   </trkpt>
   <trkpt lat="52.9880150" lon="-6.4207470">
    <ele>247.2</ele>
    <time>2025-07-19T09:22:08Z</time>
   </trkpt>
   <trkpt lat="52.9880460" lon="-6.4208050">
    <ele>247.6</ele>
    <time>2025-07-19T09:22:14Z</time>
   </trkpt>
   <trkpt lat="52.9881000" lon="-6.4208940">
    <ele>247.9</ele>
    <time>2025-07-19T09:22:19Z</time>
   </trkpt>
   <trkpt lat="52.9881400" lon="-6.4209460">
    <ele>247.9</ele>
    <time>2025-07-19T09:22:24Z</time>
   </trkpt>
   <trkpt lat="52.9881740" lon="-6.4210190">
    <ele>248.2</ele>
    <time>2025-07-19T09:22:30Z</time>
   </trkpt>
   <trkpt lat="52.9881980" lon="-6.4210830">
    <ele>248.6</ele>
    <time>2025-07-19T09:22:38Z</time>
   </trkpt>
   <trkpt lat="52.9881460" lon="-6.4210740">
    <ele>249.6</ele>
    <time>2025-07-19T09:22:46Z</time>
   </trkpt>
   <trkpt lat="52.9880950" lon="-6.4210710">
    <ele>251.1</ele>
    <time>2025-07-19T09:23:00Z</time>
   </trkpt>
   <trkpt lat="52.9880320" lon="-6.4209960">
    <ele>251.8</ele>
    <time>2025-07-19T09:23:06Z</time>
   </trkpt>
   <trkpt lat="52.9879720" lon="-6.4209560">
    <ele>252.4</ele>
    <time>2025-07-19T09:23:11Z</time>
   </trkpt>
   <trkpt lat="52.9879220" lon="-6.4209360">
    <ele>253.3</ele>
    <time>2025-07-19T09:23:16Z</time>
   </trkpt>
   <trkpt lat="52.9878840" lon="-6.4208940">
    <ele>254.1</ele>
    <time>2025-07-19T09:23:21Z</time>
   </trkpt>
   <trkpt lat="52.9878420" lon="-6.4208470">
    <ele>254.8</ele>
    <time>2025-07-19T09:23:27Z</time>
   </trkpt>
   <trkpt lat="52.9878050" lon="-6.4207910">
    <ele>255.0</ele>
    <time>2025-07-19T09:23:32Z</time>
   </trkpt>
   <trkpt lat="52.9877500" lon="-6.4207410">
    <ele>255.4</ele>
    <time>2025-07-19T09:23:38Z</time>
   </trkpt>
   <trkpt lat="52.9877190" lon="-6.4206810">
    <ele>255.6</ele>
    <time>2025-07-19T09:23:44Z</time>
   </trkpt>
   <trkpt lat="52.9876860" lon="-6.4206200">
    <ele>255.5</ele>
    <time>2025-07-19T09:23:49Z</time>
   </trkpt>
   <trkpt lat="52.9876380" lon="-6.4205670">
    <ele>255.4</ele>
    <time>2025-07-19T09:23:54Z</time>
   </trkpt>
   <trkpt lat="52.9875900" lon="-6.4205160">
    <ele>255.6</ele>
    <time>2025-07-19T09:24:00Z</time>
   </trkpt>
   <trkpt lat="52.9875670" lon="-6.4204330">
    <ele>255.2</ele>
    <time>2025-07-19T09:24:05Z</time>
   </trkpt>
   <trkpt lat="52.9875340" lon="-6.4203700">
    <ele>254.5</ele>
    <time>2025-07-19T09:24:10Z</time>
   </trkpt>
   <trkpt lat="52.9874850" lon="-6.4203150">
    <ele>254.1</ele>
    <time>2025-07-19T09:24:15Z</time>
   </trkpt>
   <trkpt lat="52.9874550" lon="-6.4202570">
    <ele>253.6</ele>
    <time>2025-07-19T09:24:20Z</time>
   </trkpt>
   <trkpt lat="52.9874340" lon="-6.4201890">
    <ele>252.8</ele>
    <time>2025-07-19T09:24:25Z</time>
   </trkpt>
   <trkpt lat="52.9874020" lon="-6.4201320">
    <ele>252.0</ele>
    <time>2025-07-19T09:24:31Z</time>
   </trkpt>
   <trkpt lat="52.9873640" lon="-6.4200730">
    <ele>251.3</ele>
    <time>2025-07-19T09:24:36Z</time>
   </trkpt>
   <trkpt lat="52.9873170" lon="-6.4200240">
    <ele>250.9</ele>
    <time>2025-07-19T09:24:41Z</time>
   </trkpt>
   <trkpt lat="52.9872800" lon="-6.4199470">
    <ele>250.3</ele>
    <time>2025-07-19T09:24:46Z</time>
   </trkpt>
   <trkpt lat="52.9872430" lon="-6.4198790">
    <ele>249.5</ele>
    <time>2025-07-19T09:24:51Z</time>
   </trkpt>
   <trkpt lat="52.9872060" lon="-6.4197970">
    <ele>248.5</ele>
    <time>2025-07-19T09:24:57Z</time>
   </trkpt>
   <trkpt lat="52.9871780" lon="-6.4197240">
    <ele>247.4</ele>
    <time>2025-07-19T09:25:02Z</time>
   </trkpt>
   <trkpt lat="52.9871300" lon="-6.4196680">
    <ele>246.5</ele>
    <time>2025-07-19T09:25:07Z</time>
   </trkpt>
   <trkpt lat="52.9870900" lon="-6.4196230">
    <ele>245.9</ele>
    <time>2025-07-19T09:25:12Z</time>
   </trkpt>
   <trkpt lat="52.9870380" lon="-6.4196130">
    <ele>245.9</ele>
    <time>2025-07-19T09:25:17Z</time>
   </trkpt>
   <trkpt lat="52.9869810" lon="-6.4196080">
    <ele>246.4</ele>
    <time>2025-07-19T09:25:22Z</time>
   </trkpt>
   <trkpt lat="52.9869160" lon="-6.4196030">
    <ele>247.2</ele>
    <time>2025-07-19T09:25:27Z</time>
   </trkpt>
   <trkpt lat="52.9868550" lon="-6.4196150">
    <ele>248.3</ele>
    <time>2025-07-19T09:25:33Z</time>
   </trkpt>
   <trkpt lat="52.9868000" lon="-6.4196470">
    <ele>249.5</ele>
    <time>2025-07-19T09:25:38Z</time>
   </trkpt>
   <trkpt lat="52.9867470" lon="-6.4196860">
    <ele>250.9</ele>
    <time>2025-07-19T09:25:43Z</time>
   </trkpt>
   <trkpt lat="52.9866920" lon="-6.4197170">
    <ele>252.3</ele>
    <time>2025-07-19T09:25:48Z</time>
   </trkpt>
   <trkpt lat="52.9866360" lon="-6.4197520">
    <ele>253.6</ele>
    <time>2025-07-19T09:25:53Z</time>
   </trkpt>
   <trkpt lat="52.9865950" lon="-6.4197830">
    <ele>254.7</ele>
    <time>2025-07-19T09:25:58Z</time>
   </trkpt>
   <trkpt lat="52.9865480" lon="-6.4198240">
    <ele>255.7</ele>
    <time>2025-07-19T09:26:04Z</time>
   </trkpt>
   <trkpt lat="52.9864900" lon="-6.4198310">
    <ele>256.2</ele>
    <time>2025-07-19T09:26:09Z</time>
   </trkpt>
   <trkpt lat="52.9864360" lon="-6.4198570">
    <ele>256.5</ele>
    <time>2025-07-19T09:26:14Z</time>
   </trkpt>
   <trkpt lat="52.9863880" lon="-6.4198890">
    <ele>256.8</ele>
    <time>2025-07-19T09:26:19Z</time>
   </trkpt>
   <trkpt lat="52.9863380" lon="-6.4199190">
    <ele>256.9</ele>
    <time>2025-07-19T09:26:24Z</time>
   </trkpt>
   <trkpt lat="52.9862900" lon="-6.4199610">
    <ele>257.0</ele>
    <time>2025-07-19T09:26:29Z</time>
   </trkpt>
   <trkpt lat="52.9862390" lon="-6.4200250">
    <ele>257.3</ele>
    <time>2025-07-19T09:26:35Z</time>
   </trkpt>
   <trkpt lat="52.9861990" lon="-6.4200960">
    <ele>257.8</ele>
    <time>2025-07-19T09:26:40Z</time>
   </trkpt>
   <trkpt lat="52.9861520" lon="-6.4201400">
    <ele>258.1</ele>
    <time>2025-07-19T09:26:45Z</time>
   </trkpt>
   <trkpt lat="52.9861170" lon="-6.4202130">
    <ele>258.6</ele>
    <time>2025-07-19T09:26:50Z</time>
   </trkpt>
   <trkpt lat="52.9861000" lon="-6.4203040">
    <ele>259.4</ele>
    <time>2025-07-19T09:26:55Z</time>
   </trkpt>
   <trkpt lat="52.9860850" lon="-6.4203780">
    <ele>260.4</ele>
    <time>2025-07-19T09:27:01Z</time>
   </trkpt>
   <trkpt lat="52.9860550" lon="-6.4204590">
    <ele>261.3</ele>
    <time>2025-07-19T09:27:06Z</time>
   </trkpt>
   <trkpt lat="52.9860350" lon="-6.4205610">
    <ele>262.2</ele>
    <time>2025-07-19T09:27:12Z</time>
   </trkpt>
   <trkpt lat="52.9860340" lon="-6.4206620">
    <ele>263.4</ele>
    <time>2025-07-19T09:27:17Z</time>
   </trkpt>
   <trkpt lat="52.9860180" lon="-6.4207320">
    <ele>264.5</ele>
    <time>2025-07-19T09:27:22Z</time>
   </trkpt>
   <trkpt lat="52.9859890" lon="-6.4208090">
    <ele>265.1</ele>
    <time>2025-07-19T09:27:28Z</time>
   </trkpt>
   <trkpt lat="52.9859680" lon="-6.4208780">
    <ele>265.7</ele>
    <time>2025-07-19T09:27:34Z</time>
   </trkpt>
   <trkpt lat="52.9859480" lon="-6.4209470">
    <ele>266.1</ele>
    <time>2025-07-19T09:27:40Z</time>
   </trkpt>
   <trkpt lat="52.9859410" lon="-6.4210280">
    <ele>266.5</ele>
    <time>2025-07-19T09:27:46Z</time>
   </trkpt>
   <trkpt lat="52.9859380" lon="-6.4211380">
    <ele>267.1</ele>
    <time>2025-07-19T09:27:51Z</time>
   </trkpt>
   <trkpt lat="52.9859350" lon="-6.4212260">
    <ele>267.7</ele>
    <time>2025-07-19T09:27:56Z</time>
   </trkpt>
   <trkpt lat="52.9859320" lon="-6.4213190">
    <ele>268.4</ele>
    <time>2025-07-19T09:28:01Z</time>
   </trkpt>
   <trkpt lat="52.9859350" lon="-6.4214010">
    <ele>269.0</ele>
    <time>2025-07-19T09:28:07Z</time>
   </trkpt>
   <trkpt lat="52.9859520" lon="-6.4214900">
    <ele>269.7</ele>
    <time>2025-07-19T09:28:12Z</time>
   </trkpt>
   <trkpt lat="52.9859710" lon="-6.4215760">
    <ele>270.5</ele>
    <time>2025-07-19T09:28:17Z</time>
   </trkpt>
   <trkpt lat="52.9859840" lon="-6.4216580">
    <ele>271.4</ele>
    <time>2025-07-19T09:28:23Z</time>
   </trkpt>
   <trkpt lat="52.9860010" lon="-6.4217350">
    <ele>272.3</ele>
    <time>2025-07-19T09:28:28Z</time>
   </trkpt>
   <trkpt lat="52.9860150" lon="-6.4218090">
    <ele>273.2</ele>
    <time>2025-07-19T09:28:33Z</time>
   </trkpt>
   <trkpt lat="52.9860260" lon="-6.4218840">
    <ele>274.0</ele>
    <time>2025-07-19T09:28:38Z</time>
   </trkpt>
   <trkpt lat="52.9860520" lon="-6.4219770">
    <ele>275.0</ele>
    <time>2025-07-19T09:28:44Z</time>
   </trkpt>
   <trkpt lat="52.9860720" lon="-6.4220610">
    <ele>276.0</ele>
    <time>2025-07-19T09:28:49Z</time>
   </trkpt>
   <trkpt lat="52.9860870" lon="-6.4221510">
    <ele>277.1</ele>
    <time>2025-07-19T09:28:54Z</time>
   </trkpt>
   <trkpt lat="52.9860820" lon="-6.4222430">
    <ele>277.8</ele>
    <time>2025-07-19T09:28:59Z</time>
   </trkpt>
   <trkpt lat="52.9860840" lon="-6.4223300">
    <ele>278.4</ele>
    <time>2025-07-19T09:29:04Z</time>
   </trkpt>
   <trkpt lat="52.9860890" lon="-6.4224210">
    <ele>279.0</ele>
    <time>2025-07-19T09:29:09Z</time>
   </trkpt>
   <trkpt lat="52.9860830" lon="-6.4225140">
    <ele>279.6</ele>
    <time>2025-07-19T09:29:14Z</time>
   </trkpt>
   <trkpt lat="52.9860700" lon="-6.4226090">
    <ele>280.1</ele>
    <time>2025-07-19T09:29:20Z</time>
   </trkpt>
   <trkpt lat="52.9860700" lon="-6.4226860">
    <ele>280.6</ele>
    <time>2025-07-19T09:29:25Z</time>
   </trkpt>
   <trkpt lat="52.9860540" lon="-6.4227750">
    <ele>281.1</ele>
    <time>2025-07-19T09:29:30Z</time>
   </trkpt>
   <trkpt lat="52.9860320" lon="-6.4228630">
    <ele>281.4</ele>
    <time>2025-07-19T09:29:35Z</time>
   </trkpt>
   <trkpt lat="52.9860140" lon="-6.4229430">
    <ele>281.7</ele>
    <time>2025-07-19T09:29:40Z</time>
   </trkpt>
   <trkpt lat="52.9860050" lon="-6.4230270">
    <ele>282.2</ele>
    <time>2025-07-19T09:29:46Z</time>
   </trkpt>
   <trkpt lat="52.9859900" lon="-6.4231060">
    <ele>282.6</ele>
    <time>2025-07-19T09:29:51Z</time>
   </trkpt>
   <trkpt lat="52.9859860" lon="-6.4231870">
    <ele>283.2</ele>
    <time>2025-07-19T09:29:56Z</time>
   </trkpt>
   <trkpt lat="52.9859890" lon="-6.4232640">
    <ele>283.9</ele>
    <time>2025-07-19T09:30:01Z</time>
   </trkpt>
   <trkpt lat="52.9859610" lon="-6.4233430">
    <ele>284.4</ele>
    <time>2025-07-19T09:30:06Z</time>
   </trkpt>
   <trkpt lat="52.9859370" lon="-6.4234160">
    <ele>284.6</ele>
    <time>2025-07-19T09:30:12Z</time>
   </trkpt>
   <trkpt lat="52.9859230" lon="-6.4235100">
    <ele>284.9</ele>
    <time>2025-07-19T09:30:17Z</time>
   </trkpt>
   <trkpt lat="52.9859210" lon="-6.4235910">
    <ele>285.3</ele>
    <time>2025-07-19T09:30:22Z</time>
   </trkpt>
   <trkpt lat="52.9859160" lon="-6.4236810">
    <ele>285.8</ele>
    <time>2025-07-19T09:30:27Z</time>
   </trkpt>
   <trkpt lat="52.9859090" lon="-6.4237850">
    <ele>286.3</ele>
    <time>2025-07-19T09:30:32Z</time>
   </trkpt>
   <trkpt lat="52.9859270" lon="-6.4238780">
    <ele>287.0</ele>
    <time>2025-07-19T09:30:37Z</time>
   </trkpt>
   <trkpt lat="52.9859350" lon="-6.4239690">
    <ele>287.7</ele>
    <time>2025-07-19T09:30:42Z</time>
   </trkpt>
   <trkpt lat="52.9859320" lon="-6.4240470">
    <ele>288.4</ele>
    <time>2025-07-19T09:30:48Z</time>
   </trkpt>
   <trkpt lat="52.9859200" lon="-6.4241380">
    <ele>289.0</ele>
    <time>2025-07-19T09:30:53Z</time>
   </trkpt>
   <trkpt lat="52.9859070" lon="-6.4242220">
    <ele>289.6</ele>
    <time>2025-07-19T09:30:58Z</time>
   </trkpt>
   <trkpt lat="52.9859010" lon="-6.4243160">
    <ele>290.3</ele>
    <time>2025-07-19T09:31:03Z</time>
   </trkpt>
   <trkpt lat="52.9858800" lon="-6.4243860">
    <ele>291.0</ele>
    <time>2025-07-19T09:31:08Z</time>
   </trkpt>
   <trkpt lat="52.9858430" lon="-6.4244530">
    <ele>291.5</ele>
    <time>2025-07-19T09:31:13Z</time>
   </trkpt>
   <trkpt lat="52.9858210" lon="-6.4245360">
    <ele>292.1</ele>
    <time>2025-07-19T09:31:19Z</time>
   </trkpt>
   <trkpt lat="52.9858200" lon="-6.4246300">
    <ele>292.9</ele>
    <time>2025-07-19T09:31:24Z</time>
   </trkpt>
   <trkpt lat="52.9858430" lon="-6.4247090">
    <ele>293.9</ele>
    <time>2025-07-19T09:31:30Z</time>
   </trkpt>
   <trkpt lat="52.9858860" lon="-6.4247650">
    <ele>295.0</ele>
    <time>2025-07-19T09:31:35Z</time>
   </trkpt>
   <trkpt lat="52.9859380" lon="-6.4247770">
    <ele>296.1</ele>
    <time>2025-07-19T09:31:40Z</time>
   </trkpt>
   <trkpt lat="52.9860030" lon="-6.4247800">
    <ele>297.4</ele>
    <time>2025-07-19T09:31:45Z</time>
   </trkpt>
   <trkpt lat="52.9860410" lon="-6.4247380">
    <ele>299.2</ele>
    <time>2025-07-19T09:33:11Z</time>
   </trkpt>
   <trkpt lat="52.9860870" lon="-6.4247130">
    <ele>299.7</ele>
    <time>2025-07-19T09:33:18Z</time>
   </trkpt>
   <trkpt lat="52.9861450" lon="-6.4246950">
    <ele>300.7</ele>
    <time>2025-07-19T09:33:24Z</time>
   </trkpt>
   <trkpt lat="52.9861930" lon="-6.4246480">
    <ele>301.7</ele>
    <time>2025-07-19T09:33:30Z</time>
   </trkpt>
   <trkpt lat="52.9862340" lon="-6.4246000">
    <ele>302.5</ele>
    <time>2025-07-19T09:33:35Z</time>
   </trkpt>
   <trkpt lat="52.9862700" lon="-6.4245400">
    <ele>303.2</ele>
    <time>2025-07-19T09:33:40Z</time>
   </trkpt>
   <trkpt lat="52.9863060" lon="-6.4244820">
    <ele>303.7</ele>
    <time>2025-07-19T09:33:47Z</time>
   </trkpt>
   <trkpt lat="52.9863450" lon="-6.4244200">
    <ele>304.2</ele>
    <time>2025-07-19T09:33:52Z</time>
   </trkpt>
   <trkpt lat="52.9863820" lon="-6.4243630">
    <ele>304.7</ele>
    <time>2025-07-19T09:33:58Z</time>
   </trkpt>
   <trkpt lat="52.9864140" lon="-6.4243020">
    <ele>305.1</ele>
    <time>2025-07-19T09:34:04Z</time>
   </trkpt>
   <trkpt lat="52.9864480" lon="-6.4242400">
    <ele>305.5</ele>
    <time>2025-07-19T09:34:10Z</time>
   </trkpt>
   <trkpt lat="52.9864750" lon="-6.4241800">
    <ele>305.8</ele>
    <time>2025-07-19T09:34:15Z</time>
   </trkpt>
   <trkpt lat="52.9864930" lon="-6.4241070">
    <ele>305.9</ele>
    <time>2025-07-19T09:34:21Z</time>
   </trkpt>
   <trkpt lat="52.9865200" lon="-6.4240440">
    <ele>306.0</ele>
    <time>2025-07-19T09:34:27Z</time>
   </trkpt>
   <trkpt lat="52.9865430" lon="-6.4239760">
    <ele>306.2</ele>
    <time>2025-07-19T09:34:32Z</time>
   </trkpt>
   <trkpt lat="52.9865720" lon="-6.4239090">
    <ele>306.4</ele>
    <time>2025-07-19T09:34:38Z</time>
   </trkpt>
   <trkpt lat="52.9865900" lon="-6.4238300">
    <ele>306.6</ele>
    <time>2025-07-19T09:34:43Z</time>
   </trkpt>
   <trkpt lat="52.9866190" lon="-6.4237730">
    <ele>306.8</ele>
    <time>2025-07-19T09:34:48Z</time>
   </trkpt>
   <trkpt lat="52.9866530" lon="-6.4237030">
    <ele>307.2</ele>
    <time>2025-07-19T09:34:53Z</time>
   </trkpt>
   <trkpt lat="52.9866870" lon="-6.4236340">
    <ele>307.6</ele>
    <time>2025-07-19T09:34:59Z</time>
   </trkpt>
   <trkpt lat="52.9867230" lon="-6.4235570">
    <ele>307.9</ele>
    <time>2025-07-19T09:35:05Z</time>
   </trkpt>
   <trkpt lat="52.9867520" lon="-6.4234740">
    <ele>308.2</ele>
    <time>2025-07-19T09:35:10Z</time>
   </trkpt>
   <trkpt lat="52.9867750" lon="-6.4233930">
    <ele>308.3</ele>
    <time>2025-07-19T09:35:16Z</time>
   </trkpt>
   <trkpt lat="52.9868130" lon="-6.4233280">
    <ele>308.4</ele>
    <time>2025-07-19T09:35:21Z</time>
   </trkpt>
   <trkpt lat="52.9868470" lon="-6.4232710">
    <ele>308.5</ele>
    <time>2025-07-19T09:35:26Z</time>
   </trkpt>
   <trkpt lat="52.9868810" lon="-6.4232210">
    <ele>308.6</ele>
    <time>2025-07-19T09:35:32Z</time>
   </trkpt>
   <trkpt lat="52.9869230" lon="-6.4231540">
    <ele>308.7</ele>
    <time>2025-07-19T09:35:37Z</time>
   </trkpt>
   <trkpt lat="52.9869550" lon="-6.4230950">
    <ele>308.7</ele>
    <time>2025-07-19T09:35:42Z</time>
   </trkpt>
   <trkpt lat="52.9869780" lon="-6.4230280">
    <ele>308.5</ele>
    <time>2025-07-19T09:35:48Z</time>
   </trkpt>
   <trkpt lat="52.9870160" lon="-6.4229660">
    <ele>308.2</ele>
    <time>2025-07-19T09:35:53Z</time>
   </trkpt>
   <trkpt lat="52.9870650" lon="-6.4229120">
    <ele>307.9</ele>
    <time>2025-07-19T09:35:59Z</time>
   </trkpt>
   <trkpt lat="52.9871110" lon="-6.4229030">
    <ele>307.8</ele>
    <time>2025-07-19T09:36:04Z</time>
   </trkpt>
   <trkpt lat="52.9871490" lon="-6.4229610">
    <ele>308.1</ele>
    <time>2025-07-19T09:36:11Z</time>
   </trkpt>
   <trkpt lat="52.9871860" lon="-6.4230320">
    <ele>308.8</ele>
    <time>2025-07-19T09:36:16Z</time>
   </trkpt>
   <trkpt lat="52.9872200" lon="-6.4230880">
    <ele>309.6</ele>
    <time>2025-07-19T09:36:22Z</time>
   </trkpt>
   <trkpt lat="52.9872610" lon="-6.4231440">
    <ele>310.4</ele>
    <time>2025-07-19T09:36:28Z</time>
   </trkpt>
   <trkpt lat="52.9873000" lon="-6.4232200">
    <ele>311.4</ele>
    <time>2025-07-19T09:36:33Z</time>
   </trkpt>
   <trkpt lat="52.9873390" lon="-6.4233050">
    <ele>312.4</ele>
    <time>2025-07-19T09:36:38Z</time>
   </trkpt>
   <trkpt lat="52.9873590" lon="-6.4233880">
    <ele>313.5</ele>
    <time>2025-07-19T09:36:44Z</time>
   </trkpt>
   <trkpt lat="52.9874020" lon="-6.4234660">
    <ele>314.5</ele>
    <time>2025-07-19T09:36:49Z</time>
   </trkpt>
   <trkpt lat="52.9874390" lon="-6.4235360">
    <ele>315.5</ele>
    <time>2025-07-19T09:36:55Z</time>
   </trkpt>
   <trkpt lat="52.9874670" lon="-6.4235970">
    <ele>316.3</ele>
    <time>2025-07-19T09:37:00Z</time>
   </trkpt>
   <trkpt lat="52.9875050" lon="-6.4236570">
    <ele>317.0</ele>
    <time>2025-07-19T09:37:06Z</time>
   </trkpt>
   <trkpt lat="52.9875460" lon="-6.4237190">
    <ele>317.6</ele>
    <time>2025-07-19T09:37:11Z</time>
   </trkpt>
   <trkpt lat="52.9875850" lon="-6.4237640">
    <ele>318.1</ele>
    <time>2025-07-19T09:37:16Z</time>
   </trkpt>
   <trkpt lat="52.9876310" lon="-6.4238200">
    <ele>318.6</ele>
    <time>2025-07-19T09:37:22Z</time>
   </trkpt>
   <trkpt lat="52.9876750" lon="-6.4238620">
    <ele>319.0</ele>
    <time>2025-07-19T09:37:27Z</time>
   </trkpt>
   <trkpt lat="52.9877050" lon="-6.4239230">
    <ele>319.4</ele>
    <time>2025-07-19T09:37:33Z</time>
   </trkpt>
   <trkpt lat="52.9877360" lon="-6.4239880">
    <ele>319.9</ele>
    <time>2025-07-19T09:37:39Z</time>
   </trkpt>
   <trkpt lat="52.9877840" lon="-6.4240420">
    <ele>320.4</ele>
    <time>2025-07-19T09:37:44Z</time>
   </trkpt>
   <trkpt lat="52.9878210" lon="-6.4240940">
    <ele>320.9</ele>
    <time>2025-07-19T09:37:50Z</time>
   </trkpt>
   <trkpt lat="52.9878690" lon="-6.4241110">
    <ele>321.1</ele>
    <time>2025-07-19T09:37:56Z</time>
   </trkpt>
   <trkpt lat="52.9879200" lon="-6.4241600">
    <ele>321.2</ele>
    <time>2025-07-19T09:38:01Z</time>
   </trkpt>
   <trkpt lat="52.9879560" lon="-6.4242120">
    <ele>321.4</ele>
    <time>2025-07-19T09:38:06Z</time>
   </trkpt>
   <trkpt lat="52.9879900" lon="-6.4242800">
    <ele>321.8</ele>
    <time>2025-07-19T09:38:12Z</time>
   </trkpt>
   <trkpt lat="52.9880430" lon="-6.4243420">
    <ele>322.2</ele>
    <time>2025-07-19T09:38:17Z</time>
   </trkpt>
   <trkpt lat="52.9880780" lon="-6.4244040">
    <ele>322.6</ele>
    <time>2025-07-19T09:38:23Z</time>
   </trkpt>
   <trkpt lat="52.9881210" lon="-6.4244640">
    <ele>323.0</ele>
    <time>2025-07-19T09:38:29Z</time>
   </trkpt>
   <trkpt lat="52.9881000" lon="-6.4245330">
    <ele>324.3</ele>
    <time>2025-07-19T09:39:11Z</time>
   </trkpt>
   <trkpt lat="52.9881190" lon="-6.4246100">
    <ele>324.9</ele>
    <time>2025-07-19T09:39:45Z</time>
   </trkpt>
   <trkpt lat="52.9881460" lon="-6.4247070">
    <ele>325.5</ele>
    <time>2025-07-19T09:39:51Z</time>
   </trkpt>
   <trkpt lat="52.9881920" lon="-6.4247700">
    <ele>325.9</ele>
    <time>2025-07-19T09:39:56Z</time>
   </trkpt>
   <trkpt lat="52.9882210" lon="-6.4248430">
    <ele>326.3</ele>
    <time>2025-07-19T09:40:01Z</time>
   </trkpt>
   <trkpt lat="52.9882530" lon="-6.4249210">
    <ele>326.8</ele>
    <time>2025-07-19T09:40:06Z</time>
   </trkpt>
   <trkpt lat="52.9882730" lon="-6.4249960">
    <ele>327.3</ele>
    <time>2025-07-19T09:40:12Z</time>
   </trkpt>
   <trkpt lat="52.9882940" lon="-6.4250750">
    <ele>327.9</ele>
    <time>2025-07-19T09:40:17Z</time>
   </trkpt>
   <trkpt lat="52.9883020" lon="-6.4251740">
    <ele>328.6</ele>
    <time>2025-07-19T09:40:22Z</time>
   </trkpt>
   <trkpt lat="52.9883250" lon="-6.4252560">
    <ele>329.4</ele>
    <time>2025-07-19T09:40:28Z</time>
   </trkpt>
   <trkpt lat="52.9883690" lon="-6.4253240">
    <ele>329.9</ele>
    <time>2025-07-19T09:40:33Z</time>
   </trkpt>
   <trkpt lat="52.9884050" lon="-6.4254030">
    <ele>330.2</ele>
    <time>2025-07-19T09:40:38Z</time>
   </trkpt>
   <trkpt lat="52.9884310" lon="-6.4254710">
    <ele>330.6</ele>
    <time>2025-07-19T09:40:44Z</time>
   </trkpt>
   <trkpt lat="52.9884640" lon="-6.4255430">
    <ele>330.9</ele>
    <time>2025-07-19T09:40:49Z</time>
   </trkpt>
   <trkpt lat="52.9884840" lon="-6.4256190">
    <ele>331.3</ele>
    <time>2025-07-19T09:40:55Z</time>
   </trkpt>
   <trkpt lat="52.9885140" lon="-6.4256950">
    <ele>331.9</ele>
    <time>2025-07-19T09:41:00Z</time>
   </trkpt>
   <trkpt lat="52.9885520" lon="-6.4257720">
    <ele>332.3</ele>
    <time>2025-07-19T09:41:06Z</time>
   </trkpt>
   <trkpt lat="52.9885860" lon="-6.4258440">
    <ele>332.8</ele>
    <time>2025-07-19T09:41:11Z</time>
   </trkpt>
   <trkpt lat="52.9886130" lon="-6.4259190">
    <ele>333.3</ele>
    <time>2025-07-19T09:41:17Z</time>
   </trkpt>
   <trkpt lat="52.9886470" lon="-6.4259870">
    <ele>334.0</ele>
    <time>2025-07-19T09:41:22Z</time>
   </trkpt>
   <trkpt lat="52.9886750" lon="-6.4260560">
    <ele>334.6</ele>
    <time>2025-07-19T09:41:27Z</time>
   </trkpt>
   <trkpt lat="52.9887080" lon="-6.4261290">
    <ele>335.3</ele>
    <time>2025-07-19T09:41:33Z</time>
   </trkpt>
   <trkpt lat="52.9887320" lon="-6.4262080">
    <ele>336.2</ele>
    <time>2025-07-19T09:41:38Z</time>
   </trkpt>
   <trkpt lat="52.9887660" lon="-6.4262780">
    <ele>337.0</ele>
    <time>2025-07-19T09:41:44Z</time>
   </trkpt>
   <trkpt lat="52.9887930" lon="-6.4263550">
    <ele>338.0</ele>
    <time>2025-07-19T09:41:49Z</time>
   </trkpt>
   <trkpt lat="52.9888340" lon="-6.4264020">
    <ele>338.7</ele>
    <time>2025-07-19T09:41:55Z</time>
   </trkpt>
   <trkpt lat="52.9888660" lon="-6.4264640">
    <ele>339.4</ele>
    <time>2025-07-19T09:42:00Z</time>
   </trkpt>
   <trkpt lat="52.9889070" lon="-6.4265390">
    <ele>340.2</ele>
    <time>2025-07-19T09:42:06Z</time>
   </trkpt>
   <trkpt lat="52.9889350" lon="-6.4266230">
    <ele>341.2</ele>
    <time>2025-07-19T09:42:11Z</time>
   </trkpt>
   <trkpt lat="52.9889730" lon="-6.4266900">
    <ele>342.2</ele>
    <time>2025-07-19T09:42:16Z</time>
   </trkpt>
   <trkpt lat="52.9890070" lon="-6.4267610">
    <ele>343.1</ele>
    <time>2025-07-19T09:42:22Z</time>
   </trkpt>
   <trkpt lat="52.9890450" lon="-6.4268190">
    <ele>344.0</ele>
    <time>2025-07-19T09:42:27Z</time>
   </trkpt>
   <trkpt lat="52.9890970" lon="-6.4268670">
    <ele>344.7</ele>
    <time>2025-07-19T09:42:32Z</time>
   </trkpt>
   <trkpt lat="52.9891440" lon="-6.4269180">
    <ele>345.3</ele>
    <time>2025-07-19T09:42:38Z</time>
   </trkpt>
   <trkpt lat="52.9891810" lon="-6.4269830">
    <ele>346.1</ele>
    <time>2025-07-19T09:42:43Z</time>
   </trkpt>
   <trkpt lat="52.9892050" lon="-6.4270530">
    <ele>347.0</ele>
    <time>2025-07-19T09:42:49Z</time>
   </trkpt>
   <trkpt lat="52.9892410" lon="-6.4271260">
    <ele>348.1</ele>
    <time>2025-07-19T09:42:54Z</time>
   </trkpt>
   <trkpt lat="52.9892810" lon="-6.4271760">
    <ele>348.9</ele>
    <time>2025-07-19T09:42:59Z</time>
   </trkpt>
   <trkpt lat="52.9893090" lon="-6.4272570">
    <ele>349.9</ele>
    <time>2025-07-19T09:43:05Z</time>
   </trkpt>
   <trkpt lat="52.9893450" lon="-6.4273300">
    <ele>350.8</ele>
    <time>2025-07-19T09:43:10Z</time>
   </trkpt>
   <trkpt lat="52.9893770" lon="-6.4274080">
    <ele>351.8</ele>
    <time>2025-07-19T09:43:15Z</time>
   </trkpt>
   <trkpt lat="52.9894160" lon="-6.4274800">
    <ele>352.6</ele>
    <time>2025-07-19T09:43:21Z</time>
   </trkpt>
   <trkpt lat="52.9894550" lon="-6.4275260">
    <ele>353.3</ele>
    <time>2025-07-19T09:43:26Z</time>
   </trkpt>
   <trkpt lat="52.9894900" lon="-6.4275740">
    <ele>353.7</ele>
    <time>2025-07-19T09:43:32Z</time>
   </trkpt>
   <trkpt lat="52.9895370" lon="-6.4276250">
    <ele>354.1</ele>
    <time>2025-07-19T09:43:37Z</time>
   </trkpt>
   <trkpt lat="52.9895810" lon="-6.4276740">
    <ele>354.4</ele>
    <time>2025-07-19T09:43:43Z</time>
   </trkpt>
   <trkpt lat="52.9896250" lon="-6.4277170">
    <ele>354.7</ele>
    <time>2025-07-19T09:43:48Z</time>
   </trkpt>
   <trkpt lat="52.9896920" lon="-6.4277180">
    <ele>354.6</ele>
    <time>2025-07-19T09:43:54Z</time>
   </trkpt>
   <trkpt lat="52.9897480" lon="-6.4277580">
    <ele>354.6</ele>
    <time>2025-07-19T09:43:59Z</time>
   </trkpt>
   <trkpt lat="52.9898070" lon="-6.4277890">
    <ele>354.7</ele>
    <time>2025-07-19T09:44:04Z</time>
   </trkpt>
   <trkpt lat="52.9898630" lon="-6.4278170">
    <ele>354.8</ele>
    <time>2025-07-19T09:44:09Z</time>
   </trkpt>
   <trkpt lat="52.9899200" lon="-6.4278480">
    <ele>355.0</ele>
    <time>2025-07-19T09:44:14Z</time>
   </trkpt>
   <trkpt lat="52.9899660" lon="-6.4278750">
    <ele>355.2</ele>
    <time>2025-07-19T09:44:19Z</time>
   </trkpt>
   <trkpt lat="52.9900330" lon="-6.4278920">
    <ele>355.5</ele>
    <time>2025-07-19T09:44:25Z</time>
   </trkpt>
   <trkpt lat="52.9900970" lon="-6.4279390">
    <ele>356.0</ele>
    <time>2025-07-19T09:44:31Z</time>
   </trkpt>
   <trkpt lat="52.9901750" lon="-6.4279680">
    <ele>356.7</ele>
    <time>2025-07-19T09:44:36Z</time>
   </trkpt>
   <trkpt lat="52.9902470" lon="-6.4279620">
    <ele>357.4</ele>
    <time>2025-07-19T09:44:41Z</time>
   </trkpt>
   <trkpt lat="52.9903090" lon="-6.4279400">
    <ele>357.7</ele>
    <time>2025-07-19T09:44:46Z</time>
   </trkpt>
   <trkpt lat="52.9903600" lon="-6.4279570">
    <ele>358.2</ele>
    <time>2025-07-19T09:44:53Z</time>
   </trkpt>
   <trkpt lat="52.9904300" lon="-6.4279630">
    <ele>358.8</ele>
    <time>2025-07-19T09:44:58Z</time>
   </trkpt>
   <trkpt lat="52.9904970" lon="-6.4279640">
    <ele>359.5</ele>
    <time>2025-07-19T09:45:04Z</time>
   </trkpt>
   <trkpt lat="52.9905830" lon="-6.4279480">
    <ele>360.1</ele>
    <time>2025-07-19T09:45:09Z</time>
   </trkpt>
   <trkpt lat="52.9906500" lon="-6.4278830">
    <ele>360.1</ele>
    <time>2025-07-19T09:45:15Z</time>
   </trkpt>
   <trkpt lat="52.9906790" lon="-6.4278040">
    <ele>359.7</ele>
    <time>2025-07-19T09:45:20Z</time>
   </trkpt>
   <trkpt lat="52.9907150" lon="-6.4277160">
    <ele>358.7</ele>
    <time>2025-07-19T09:45:25Z</time>
   </trkpt>
   <trkpt lat="52.9907680" lon="-6.4276490">
    <ele>357.7</ele>
    <time>2025-07-19T09:45:30Z</time>
   </trkpt>
   <trkpt lat="52.9908040" lon="-6.4275780">
    <ele>356.7</ele>
    <time>2025-07-19T09:45:35Z</time>
   </trkpt>
   <trkpt lat="52.9908110" lon="-6.4274750">
    <ele>355.3</ele>
    <time>2025-07-19T09:45:40Z</time>
   </trkpt>
   <trkpt lat="52.9908260" lon="-6.4274040">
    <ele>353.9</ele>
    <time>2025-07-19T09:45:45Z</time>
   </trkpt>
   <trkpt lat="52.9908730" lon="-6.4273670">
    <ele>352.7</ele>
    <time>2025-07-19T09:45:51Z</time>
   </trkpt>
   <trkpt lat="52.9909270" lon="-6.4273440">
    <ele>351.9</ele>
    <time>2025-07-19T09:45:56Z</time>
   </trkpt>
   <trkpt lat="52.9909870" lon="-6.4273530">
    <ele>351.4</ele>
    <time>2025-07-19T09:46:01Z</time>
   </trkpt>
   <trkpt lat="52.9910440" lon="-6.4273730">
    <ele>351.3</ele>
    <time>2025-07-19T09:46:06Z</time>
   </trkpt>
   <trkpt lat="52.9910930" lon="-6.4274450">
    <ele>351.8</ele>
    <time>2025-07-19T09:46:11Z</time>
   </trkpt>
   <trkpt lat="52.9911310" lon="-6.4275250">
    <ele>352.9</ele>
    <time>2025-07-19T09:46:17Z</time>
   </trkpt>
   <trkpt lat="52.9911560" lon="-6.4275980">
    <ele>354.3</ele>
    <time>2025-07-19T09:46:23Z</time>
   </trkpt>
   <trkpt lat="52.9911880" lon="-6.4276710">
    <ele>355.6</ele>
    <time>2025-07-19T09:46:28Z</time>
   </trkpt>
   <trkpt lat="52.9912300" lon="-6.4277340">
    <ele>356.8</ele>
    <time>2025-07-19T09:46:33Z</time>
   </trkpt>
   <trkpt lat="52.9912710" lon="-6.4278060">
    <ele>358.0</ele>
    <time>2025-07-19T09:46:38Z</time>
   </trkpt>
   <trkpt lat="52.9913160" lon="-6.4278800">
    <ele>359.3</ele>
    <time>2025-07-19T09:46:44Z</time>
   </trkpt>
   <trkpt lat="52.9913570" lon="-6.4279710">
    <ele>360.6</ele>
    <time>2025-07-19T09:46:50Z</time>
   </trkpt>
   <trkpt lat="52.9913960" lon="-6.4280330">
    <ele>361.5</ele>
    <time>2025-07-19T09:46:55Z</time>
   </trkpt>
   <trkpt lat="52.9914320" lon="-6.4281180">
    <ele>362.5</ele>
    <time>2025-07-19T09:47:00Z</time>
   </trkpt>
   <trkpt lat="52.9914610" lon="-6.4281920">
    <ele>363.5</ele>
    <time>2025-07-19T09:47:05Z</time>
   </trkpt>
   <trkpt lat="52.9914940" lon="-6.4282570">
    <ele>364.3</ele>
    <time>2025-07-19T09:47:10Z</time>
   </trkpt>
   <trkpt lat="52.9915410" lon="-6.4283100">
    <ele>364.9</ele>
    <time>2025-07-19T09:47:15Z</time>
   </trkpt>
   <trkpt lat="52.9915930" lon="-6.4283830">
    <ele>365.3</ele>
    <time>2025-07-19T09:47:21Z</time>
   </trkpt>
   <trkpt lat="52.9916300" lon="-6.4284530">
    <ele>365.7</ele>
    <time>2025-07-19T09:47:26Z</time>
   </trkpt>
   <trkpt lat="52.9916540" lon="-6.4285340">
    <ele>366.2</ele>
    <time>2025-07-19T09:47:31Z</time>
   </trkpt>
   <trkpt lat="52.9916860" lon="-6.4285980">
    <ele>366.6</ele>
    <time>2025-07-19T09:47:36Z</time>
   </trkpt>
   <trkpt lat="52.9917230" lon="-6.4286720">
    <ele>366.9</ele>
    <time>2025-07-19T09:47:42Z</time>
   </trkpt>
   <trkpt lat="52.9917460" lon="-6.4287590">
    <ele>367.3</ele>
    <time>2025-07-19T09:47:47Z</time>
   </trkpt>
   <trkpt lat="52.9917720" lon="-6.4288500">
    <ele>367.7</ele>
    <time>2025-07-19T09:47:52Z</time>
   </trkpt>
   <trkpt lat="52.9918030" lon="-6.4289240">
    <ele>368.1</ele>
    <time>2025-07-19T09:47:57Z</time>
   </trkpt>
   <trkpt lat="52.9918340" lon="-6.4289800">
    <ele>368.3</ele>
    <time>2025-07-19T09:48:03Z</time>
   </trkpt>
   <trkpt lat="52.9918750" lon="-6.4290490">
    <ele>368.5</ele>
    <time>2025-07-19T09:48:08Z</time>
   </trkpt>
   <trkpt lat="52.9919030" lon="-6.4291280">
    <ele>368.8</ele>
    <time>2025-07-19T09:48:13Z</time>
   </trkpt>
   <trkpt lat="52.9919350" lon="-6.4292030">
    <ele>369.3</ele>
    <time>2025-07-19T09:48:19Z</time>
   </trkpt>
   <trkpt lat="52.9919780" lon="-6.4292540">
    <ele>369.6</ele>
    <time>2025-07-19T09:48:24Z</time>
   </trkpt>
   <trkpt lat="52.9920020" lon="-6.4293310">
    <ele>370.1</ele>
    <time>2025-07-19T09:48:29Z</time>
   </trkpt>
   <trkpt lat="52.9920320" lon="-6.4293980">
    <ele>370.8</ele>
    <time>2025-07-19T09:48:36Z</time>
   </trkpt>
   <trkpt lat="52.9920630" lon="-6.4294630">
    <ele>371.4</ele>
    <time>2025-07-19T09:48:41Z</time>
   </trkpt>
   <trkpt lat="52.9921070" lon="-6.4295350">
    <ele>372.0</ele>
    <time>2025-07-19T09:48:47Z</time>
   </trkpt>
   <trkpt lat="52.9921520" lon="-6.4295980">
    <ele>372.6</ele>
    <time>2025-07-19T09:48:52Z</time>
   </trkpt>
   <trkpt lat="52.9921880" lon="-6.4296690">
    <ele>373.2</ele>
    <time>2025-07-19T09:48:57Z</time>
   </trkpt>
   <trkpt lat="52.9922210" lon="-6.4297470">
    <ele>374.0</ele>
    <time>2025-07-19T09:49:03Z</time>
   </trkpt>
   <trkpt lat="52.9922530" lon="-6.4298120">
    <ele>374.8</ele>
    <time>2025-07-19T09:49:08Z</time>
   </trkpt>
   <trkpt lat="52.9922780" lon="-6.4298870">
    <ele>375.8</ele>
    <time>2025-07-19T09:49:13Z</time>
   </trkpt>
   <trkpt lat="52.9923070" lon="-6.4299540">
    <ele>376.7</ele>
    <time>2025-07-19T09:49:18Z</time>
   </trkpt>
   <trkpt lat="52.9923530" lon="-6.4300140">
    <ele>377.5</ele>
    <time>2025-07-19T09:49:24Z</time>
   </trkpt>
   <trkpt lat="52.9924000" lon="-6.4300610">
    <ele>378.1</ele>
    <time>2025-07-19T09:49:29Z</time>
   </trkpt>
   <trkpt lat="52.9924410" lon="-6.4301090">
    <ele>378.5</ele>
    <time>2025-07-19T09:49:34Z</time>
   </trkpt>
   <trkpt lat="52.9924730" lon="-6.4301770">
    <ele>379.2</ele>
    <time>2025-07-19T09:49:39Z</time>
   </trkpt>
   <trkpt lat="52.9925310" lon="-6.4302480">
    <ele>380.0</ele>
    <time>2025-07-19T09:49:45Z</time>
   </trkpt>
   <trkpt lat="52.9925880" lon="-6.4302880">
    <ele>380.3</ele>
    <time>2025-07-19T09:49:50Z</time>
   </trkpt>
   <trkpt lat="52.9926250" lon="-6.4303400">
    <ele>380.8</ele>
    <time>2025-07-19T09:49:56Z</time>
   </trkpt>
   <trkpt lat="52.9926610" lon="-6.4304290">
    <ele>381.6</ele>
    <time>2025-07-19T09:50:01Z</time>
   </trkpt>
   <trkpt lat="52.9926960" lon="-6.4304890">
    <ele>382.5</ele>
    <time>2025-07-19T09:50:07Z</time>
   </trkpt>
   <trkpt lat="52.9927290" lon="-6.4305460">
    <ele>383.3</ele>
    <time>2025-07-19T09:50:12Z</time>
   </trkpt>
   <trkpt lat="52.9927630" lon="-6.4306220">
    <ele>384.2</ele>
    <time>2025-07-19T09:50:17Z</time>
   </trkpt>
   <trkpt lat="52.9928110" lon="-6.4306950">
    <ele>385.1</ele>
    <time>2025-07-19T09:50:22Z</time>
   </trkpt>
   <trkpt lat="52.9928390" lon="-6.4307720">
    <ele>386.0</ele>
    <time>2025-07-19T09:50:27Z</time>
   </trkpt>
   <trkpt lat="52.9928730" lon="-6.4308500">
    <ele>387.0</ele>
    <time>2025-07-19T09:50:32Z</time>
   </trkpt>
   <trkpt lat="52.9929120" lon="-6.4309280">
    <ele>387.9</ele>
    <time>2025-07-19T09:50:37Z</time>
   </trkpt>
   <trkpt lat="52.9929490" lon="-6.4309870">
    <ele>388.6</ele>
    <time>2025-07-19T09:50:42Z</time>
   </trkpt>
   <trkpt lat="52.9929840" lon="-6.4310520">
    <ele>389.3</ele>
    <time>2025-07-19T09:50:48Z</time>
   </trkpt>
   <trkpt lat="52.9930170" lon="-6.4311270">
    <ele>389.9</ele>
    <time>2025-07-19T09:50:53Z</time>
   </trkpt>
   <trkpt lat="52.9930300" lon="-6.4312230">
    <ele>391.0</ele>
    <time>2025-07-19T09:50:59Z</time>
   </trkpt>
   <trkpt lat="52.9930530" lon="-6.4313130">
    <ele>392.0</ele>
    <time>2025-07-19T09:51:04Z</time>
   </trkpt>
   <trkpt lat="52.9930700" lon="-6.4313980">
    <ele>393.0</ele>
    <time>2025-07-19T09:51:09Z</time>
   </trkpt>
   <trkpt lat="52.9930700" lon="-6.4314990">
    <ele>394.4</ele>
    <time>2025-07-19T09:51:14Z</time>
   </trkpt>
   <trkpt lat="52.9930780" lon="-6.4315900">
    <ele>395.7</ele>
    <time>2025-07-19T09:51:19Z</time>
   </trkpt>
   <trkpt lat="52.9931020" lon="-6.4316720">
    <ele>396.9</ele>
    <time>2025-07-19T09:51:24Z</time>
   </trkpt>
   <trkpt lat="52.9931200" lon="-6.4317650">
    <ele>397.9</ele>
    <time>2025-07-19T09:51:29Z</time>
   </trkpt>
   <trkpt lat="52.9931490" lon="-6.4318530">
    <ele>398.8</ele>
    <time>2025-07-19T09:51:35Z</time>
   </trkpt>
   <trkpt lat="52.9931900" lon="-6.4319330">
    <ele>399.4</ele>
    <time>2025-07-19T09:51:40Z</time>
   </trkpt>
   <trkpt lat="52.9932340" lon="-6.4320010">
    <ele>399.6</ele>
    <time>2025-07-19T09:51:45Z</time>
   </trkpt>
   <trkpt lat="52.9932530" lon="-6.4320850">
    <ele>399.9</ele>
    <time>2025-07-19T09:51:50Z</time>
   </trkpt>
   <trkpt lat="52.9932590" lon="-6.4321820">
    <ele>400.6</ele>
    <time>2025-07-19T09:51:55Z</time>
   </trkpt>
   <trkpt lat="52.9932790" lon="-6.4322660">
    <ele>401.3</ele>
    <time>2025-07-19T09:52:00Z</time>
   </trkpt>
   <trkpt lat="52.9933020" lon="-6.4323550">
    <ele>402.0</ele>
    <time>2025-07-19T09:52:05Z</time>
   </trkpt>
   <trkpt lat="52.9933470" lon="-6.4324200">
    <ele>402.4</ele>
    <time>2025-07-19T09:52:10Z</time>
   </trkpt>
   <trkpt lat="52.9933900" lon="-6.4324860">
    <ele>402.5</ele>
    <time>2025-07-19T09:52:16Z</time>
   </trkpt>
   <trkpt lat="52.9934190" lon="-6.4325610">
    <ele>402.8</ele>
    <time>2025-07-19T09:52:21Z</time>
   </trkpt>
   <trkpt lat="52.9934650" lon="-6.4326460">
    <ele>403.1</ele>
    <time>2025-07-19T09:52:26Z</time>
   </trkpt>
   <trkpt lat="52.9935030" lon="-6.4327090">
    <ele>403.3</ele>
    <time>2025-07-19T09:52:31Z</time>
   </trkpt>
   <trkpt lat="52.9935340" lon="-6.4327840">
    <ele>403.6</ele>
    <time>2025-07-19T09:52:36Z</time>
   </trkpt>
   <trkpt lat="52.9935670" lon="-6.4328610">
    <ele>404.0</ele>
    <time>2025-07-19T09:52:41Z</time>
   </trkpt>
   <trkpt lat="52.9936060" lon="-6.4329620">
    <ele>404.5</ele>
    <time>2025-07-19T09:52:47Z</time>
   </trkpt>
   <trkpt lat="52.9936340" lon="-6.4330370">
    <ele>404.9</ele>
    <time>2025-07-19T09:52:52Z</time>
   </trkpt>
   <trkpt lat="52.9936580" lon="-6.4331170">
    <ele>405.3</ele>
    <time>2025-07-19T09:52:57Z</time>
   </trkpt>
   <trkpt lat="52.9936910" lon="-6.4331900">
    <ele>405.6</ele>
    <time>2025-07-19T09:53:02Z</time>
   </trkpt>
   <trkpt lat="52.9937410" lon="-6.4332630">
    <ele>405.6</ele>
    <time>2025-07-19T09:53:07Z</time>
   </trkpt>
   <trkpt lat="52.9937920" lon="-6.4333400">
    <ele>405.3</ele>
    <time>2025-07-19T09:53:13Z</time>
   </trkpt>
   <trkpt lat="52.9938110" lon="-6.4334480">
    <ele>405.2</ele>
    <time>2025-07-19T09:53:18Z</time>
   </trkpt>
   <trkpt lat="52.9938200" lon="-6.4335790">
    <ele>405.7</ele>
    <time>2025-07-19T09:53:24Z</time>
   </trkpt>
   <trkpt lat="52.9938620" lon="-6.4336700">
    <ele>405.9</ele>
    <time>2025-07-19T09:53:29Z</time>
   </trkpt>
   <trkpt lat="52.9939060" lon="-6.4337480">
    <ele>405.6</ele>
    <time>2025-07-19T09:53:35Z</time>
   </trkpt>
   <trkpt lat="52.9939260" lon="-6.4338550">
    <ele>405.4</ele>
    <time>2025-07-19T09:53:40Z</time>
   </trkpt>
   <trkpt lat="52.9939400" lon="-6.4339490">
    <ele>405.5</ele>
    <time>2025-07-19T09:53:46Z</time>
   </trkpt>
   <trkpt lat="52.9939580" lon="-6.4340470">
    <ele>405.6</ele>
    <time>2025-07-19T09:53:52Z</time>
   </trkpt>
   <trkpt lat="52.9939790" lon="-6.4341480">
    <ele>405.6</ele>
    <time>2025-07-19T09:53:57Z</time>
   </trkpt>
   <trkpt lat="52.9940010" lon="-6.4342490">
    <ele>405.5</ele>
    <time>2025-07-19T09:54:03Z</time>
   </trkpt>
   <trkpt lat="52.9940240" lon="-6.4343550">
    <ele>405.3</ele>
    <time>2025-07-19T09:54:08Z</time>
   </trkpt>
   <trkpt lat="52.9940430" lon="-6.4344580">
    <ele>405.0</ele>
    <time>2025-07-19T09:54:14Z</time>
   </trkpt>
   <trkpt lat="52.9940730" lon="-6.4345500">
    <ele>404.5</ele>
    <time>2025-07-19T09:54:19Z</time>
   </trkpt>
   <trkpt lat="52.9941270" lon="-6.4346310">
    <ele>403.5</ele>
    <time>2025-07-19T09:54:24Z</time>
   </trkpt>
   <trkpt lat="52.9941680" lon="-6.4347110">
    <ele>402.2</ele>
    <time>2025-07-19T09:54:29Z</time>
   </trkpt>
   <trkpt lat="52.9941860" lon="-6.4348170">
    <ele>401.4</ele>
    <time>2025-07-19T09:54:35Z</time>
   </trkpt>
   <trkpt lat="52.9941920" lon="-6.4349280">
    <ele>401.0</ele>
    <time>2025-07-19T09:54:40Z</time>
   </trkpt>
   <trkpt lat="52.9942130" lon="-6.4350340">
    <ele>400.8</ele>
    <time>2025-07-19T09:54:45Z</time>
   </trkpt>
   <trkpt lat="52.9942280" lon="-6.4351430">
    <ele>400.8</ele>
    <time>2025-07-19T09:54:50Z</time>
   </trkpt>
   <trkpt lat="52.9942430" lon="-6.4352490">
    <ele>400.9</ele>
    <time>2025-07-19T09:54:56Z</time>
   </trkpt>
   <trkpt lat="52.9942550" lon="-6.4353560">
    <ele>401.1</ele>
    <time>2025-07-19T09:55:01Z</time>
   </trkpt>
   <trkpt lat="52.9942720" lon="-6.4354610">
    <ele>401.4</ele>
    <time>2025-07-19T09:55:06Z</time>
   </trkpt>
   <trkpt lat="52.9942730" lon="-6.4355750">
    <ele>401.8</ele>
    <time>2025-07-19T09:55:12Z</time>
   </trkpt>
   <trkpt lat="52.9942820" lon="-6.4356910">
    <ele>402.4</ele>
    <time>2025-07-19T09:55:17Z</time>
   </trkpt>
   <trkpt lat="52.9942850" lon="-6.4358000">
    <ele>403.0</ele>
    <time>2025-07-19T09:55:22Z</time>
   </trkpt>
   <trkpt lat="52.9942880" lon="-6.4359000">
    <ele>403.5</ele>
    <time>2025-07-19T09:55:28Z</time>
   </trkpt>
   <trkpt lat="52.9943010" lon="-6.4360050">
    <ele>403.8</ele>
    <time>2025-07-19T09:55:33Z</time>
   </trkpt>
   <trkpt lat="52.9943120" lon="-6.4361180">
    <ele>404.0</ele>
    <time>2025-07-19T09:55:38Z</time>
   </trkpt>
   <trkpt lat="52.9943310" lon="-6.4362270">
    <ele>403.9</ele>
    <time>2025-07-19T09:55:43Z</time>
   </trkpt>
   <trkpt lat="52.9943360" lon="-6.4363470">
    <ele>404.0</ele>
    <time>2025-07-19T09:55:49Z</time>
   </trkpt>
   <trkpt lat="52.9943460" lon="-6.4364530">
    <ele>404.0</ele>
    <time>2025-07-19T09:55:54Z</time>
   </trkpt>
   <trkpt lat="52.9943630" lon="-6.4365490">
    <ele>403.9</ele>
    <time>2025-07-19T09:55:59Z</time>
   </trkpt>
   <trkpt lat="52.9943630" lon="-6.4366660">
    <ele>404.0</ele>
    <time>2025-07-19T09:56:04Z</time>
   </trkpt>
   <trkpt lat="52.9943770" lon="-6.4367710">
    <ele>404.1</ele>
    <time>2025-07-19T09:56:09Z</time>
   </trkpt>
   <trkpt lat="52.9943820" lon="-6.4368820">
    <ele>404.1</ele>
    <time>2025-07-19T09:56:15Z</time>
   </trkpt>
   <trkpt lat="52.9944040" lon="-6.4369860">
    <ele>404.1</ele>
    <time>2025-07-19T09:56:20Z</time>
   </trkpt>
   <trkpt lat="52.9944250" lon="-6.4370880">
    <ele>403.7</ele>
    <time>2025-07-19T09:56:25Z</time>
   </trkpt>
   <trkpt lat="52.9944420" lon="-6.4371980">
    <ele>403.3</ele>
    <time>2025-07-19T09:56:31Z</time>
   </trkpt>
   <trkpt lat="52.9944530" lon="-6.4373020">
    <ele>403.0</ele>
    <time>2025-07-19T09:56:36Z</time>
   </trkpt>
   <trkpt lat="52.9944540" lon="-6.4374240">
    <ele>403.0</ele>
    <time>2025-07-19T09:56:41Z</time>
   </trkpt>
   <trkpt lat="52.9944490" lon="-6.4375280">
    <ele>403.3</ele>
    <time>2025-07-19T09:56:47Z</time>
   </trkpt>
   <trkpt lat="52.9944630" lon="-6.4376320">
    <ele>403.4</ele>
    <time>2025-07-19T09:56:52Z</time>
   </trkpt>
   <trkpt lat="52.9944740" lon="-6.4377440">
    <ele>403.3</ele>
    <time>2025-07-19T09:56:57Z</time>
   </trkpt>
   <trkpt lat="52.9944820" lon="-6.4378490">
    <ele>403.2</ele>
    <time>2025-07-19T09:57:03Z</time>
   </trkpt>
   <trkpt lat="52.9944870" lon="-6.4379510">
    <ele>403.2</ele>
    <time>2025-07-19T09:57:08Z</time>
   </trkpt>
   <trkpt lat="52.9945060" lon="-6.4380710">
    <ele>403.0</ele>
    <time>2025-07-19T09:57:13Z</time>
   </trkpt>
   <trkpt lat="52.9945090" lon="-6.4381680">
    <ele>402.8</ele>
    <time>2025-07-19T09:57:18Z</time>
   </trkpt>
   <trkpt lat="52.9944800" lon="-6.4382930">
    <ele>403.5</ele>
    <time>2025-07-19T09:57:24Z</time>
   </trkpt>
   <trkpt lat="52.9944670" lon="-6.4383950">
    <ele>404.6</ele>
    <time>2025-07-19T09:57:29Z</time>
   </trkpt>
   <trkpt lat="52.9944590" lon="-6.4385060">
    <ele>405.5</ele>
    <time>2025-07-19T09:57:35Z</time>
   </trkpt>
   <trkpt lat="52.9944670" lon="-6.4386250">
    <ele>406.0</ele>
    <time>2025-07-19T09:57:40Z</time>
   </trkpt>
   <trkpt lat="52.9944730" lon="-6.4387340">
    <ele>406.2</ele>
    <time>2025-07-19T09:57:45Z</time>
   </trkpt>
   <trkpt lat="52.9944880" lon="-6.4388360">
    <ele>406.1</ele>
    <time>2025-07-19T09:57:50Z</time>
   </trkpt>
   <trkpt lat="52.9944850" lon="-6.4389580">
    <ele>406.2</ele>
    <time>2025-07-19T09:57:56Z</time>
   </trkpt>
   <trkpt lat="52.9944840" lon="-6.4390630">
    <ele>406.5</ele>
    <time>2025-07-19T09:58:01Z</time>
   </trkpt>
   <trkpt lat="52.9944730" lon="-6.4391680">
    <ele>407.2</ele>
    <time>2025-07-19T09:58:07Z</time>
   </trkpt>
   <trkpt lat="52.9944690" lon="-6.4392820">
    <ele>408.0</ele>
    <time>2025-07-19T09:58:12Z</time>
   </trkpt>
   <trkpt lat="52.9944690" lon="-6.4393880">
    <ele>408.7</ele>
    <time>2025-07-19T09:58:18Z</time>
   </trkpt>
   <trkpt lat="52.9944870" lon="-6.4394900">
    <ele>409.0</ele>
    <time>2025-07-19T09:58:23Z</time>
   </trkpt>
   <trkpt lat="52.9945000" lon="-6.4395910">
    <ele>408.9</ele>
    <time>2025-07-19T09:58:28Z</time>
   </trkpt>
   <trkpt lat="52.9945250" lon="-6.4396890">
    <ele>408.5</ele>
    <time>2025-07-19T09:58:33Z</time>
   </trkpt>
   <trkpt lat="52.9945390" lon="-6.4398030">
    <ele>408.0</ele>
    <time>2025-07-19T09:58:38Z</time>
   </trkpt>
   <trkpt lat="52.9945490" lon="-6.4399190">
    <ele>408.0</ele>
    <time>2025-07-19T09:58:44Z</time>
   </trkpt>
   <trkpt lat="52.9945720" lon="-6.4400180">
    <ele>407.5</ele>
    <time>2025-07-19T09:58:49Z</time>
   </trkpt>
   <trkpt lat="52.9946030" lon="-6.4401270">
    <ele>406.6</ele>
    <time>2025-07-19T09:58:54Z</time>
   </trkpt>
   <trkpt lat="52.9946190" lon="-6.4402310">
    <ele>405.8</ele>
    <time>2025-07-19T09:58:59Z</time>
   </trkpt>
   <trkpt lat="52.9946510" lon="-6.4403290">
    <ele>404.6</ele>
    <time>2025-07-19T09:59:05Z</time>
   </trkpt>
   <trkpt lat="52.9946790" lon="-6.4404250">
    <ele>403.3</ele>
    <time>2025-07-19T09:59:10Z</time>
   </trkpt>
   <trkpt lat="52.9946990" lon="-6.4405060">
    <ele>402.2</ele>
    <time>2025-07-19T09:59:15Z</time>
   </trkpt>
   <trkpt lat="52.9947010" lon="-6.4405880">
    <ele>401.6</ele>
    <time>2025-07-19T09:59:21Z</time>
   </trkpt>
   <trkpt lat="52.9947450" lon="-6.4406150">
    <ele>400.5</ele>
    <time>2025-07-19T10:00:22Z</time>
   </trkpt>
   <trkpt lat="52.9947680" lon="-6.4406850">
    <ele>399.3</ele>
    <time>2025-07-19T10:00:28Z</time>
   </trkpt>
   <trkpt lat="52.9947920" lon="-6.4407750">
    <ele>398.3</ele>
    <time>2025-07-19T10:00:33Z</time>
   </trkpt>
   <trkpt lat="52.9948230" lon="-6.4408650">
    <ele>397.4</ele>
    <time>2025-07-19T10:00:39Z</time>
   </trkpt>
   <trkpt lat="52.9948440" lon="-6.4409320">
    <ele>396.7</ele>
    <time>2025-07-19T10:00:44Z</time>
   </trkpt>
   <trkpt lat="52.9948740" lon="-6.4410080">
    <ele>396.0</ele>
    <time>2025-07-19T10:00:50Z</time>
   </trkpt>
   <trkpt lat="52.9949100" lon="-6.4410740">
    <ele>395.2</ele>
    <time>2025-07-19T10:00:55Z</time>
   </trkpt>
   <trkpt lat="52.9949430" lon="-6.4411470">
    <ele>394.3</ele>
    <time>2025-07-19T10:01:00Z</time>
   </trkpt>
   <trkpt lat="52.9949800" lon="-6.4412330">
    <ele>393.6</ele>
    <time>2025-07-19T10:01:05Z</time>
   </trkpt>
   <trkpt lat="52.9950100" lon="-6.4413230">
    <ele>393.3</ele>
    <time>2025-07-19T10:01:11Z</time>
   </trkpt>
   <trkpt lat="52.9950370" lon="-6.4414090">
    <ele>393.3</ele>
    <time>2025-07-19T10:01:16Z</time>
   </trkpt>
   <trkpt lat="52.9950610" lon="-6.4414730">
    <ele>393.4</ele>
    <time>2025-07-19T10:01:21Z</time>
   </trkpt>
   <trkpt lat="52.9950870" lon="-6.4415340">
    <ele>393.5</ele>
    <time>2025-07-19T10:01:27Z</time>
   </trkpt>
   <trkpt lat="52.9950990" lon="-6.4416110">
    <ele>394.0</ele>
    <time>2025-07-19T10:01:34Z</time>
   </trkpt>
   <trkpt lat="52.9951090" lon="-6.4416850">
    <ele>394.7</ele>
    <time>2025-07-19T10:01:40Z</time>
   </trkpt>
   <trkpt lat="52.9951510" lon="-6.4417300">
    <ele>395.3</ele>
    <time>2025-07-19T10:01:49Z</time>
   </trkpt>
   <trkpt lat="52.9951870" lon="-6.4418040">
    <ele>395.5</ele>
    <time>2025-07-19T10:01:54Z</time>
   </trkpt>
   <trkpt lat="52.9952160" lon="-6.4418850">
    <ele>396.2</ele>
    <time>2025-07-19T10:02:00Z</time>
   </trkpt>
   <trkpt lat="52.9952600" lon="-6.4419080">
    <ele>396.5</ele>
    <time>2025-07-19T10:02:27Z</time>
   </trkpt>
   <trkpt lat="52.9953050" lon="-6.4419520">
    <ele>396.5</ele>
    <time>2025-07-19T10:02:33Z</time>
   </trkpt>
   <trkpt lat="52.9953390" lon="-6.4420040">
    <ele>396.7</ele>
    <time>2025-07-19T10:02:38Z</time>
   </trkpt>
   <trkpt lat="52.9953720" lon="-6.4420620">
    <ele>397.3</ele>
    <time>2025-07-19T10:02:45Z</time>
   </trkpt>
   <trkpt lat="52.9954100" lon="-6.4421080">
    <ele>397.7</ele>
    <time>2025-07-19T10:02:50Z</time>
   </trkpt>
   <trkpt lat="52.9954520" lon="-6.4421570">
    <ele>398.2</ele>
    <time>2025-07-19T10:02:56Z</time>
   </trkpt>
   <trkpt lat="52.9954980" lon="-6.4422000">
    <ele>398.6</ele>
    <time>2025-07-19T10:03:01Z</time>
   </trkpt>
   <trkpt lat="52.9955360" lon="-6.4422460">
    <ele>399.1</ele>
    <time>2025-07-19T10:03:07Z</time>
   </trkpt>
   <trkpt lat="52.9955720" lon="-6.4422910">
    <ele>399.5</ele>
    <time>2025-07-19T10:03:13Z</time>
   </trkpt>
   <trkpt lat="52.9956210" lon="-6.4423120">
    <ele>399.7</ele>
    <time>2025-07-19T10:03:19Z</time>
   </trkpt>
   <trkpt lat="52.9956650" lon="-6.4423530">
    <ele>399.8</ele>
    <time>2025-07-19T10:03:24Z</time>
   </trkpt>
   <trkpt lat="52.9957080" lon="-6.4423960">
    <ele>400.1</ele>
    <time>2025-07-19T10:03:29Z</time>
   </trkpt>
   <trkpt lat="52.9957620" lon="-6.4424110">
    <ele>400.1</ele>
    <time>2025-07-19T10:03:34Z</time>
   </trkpt>
   <trkpt lat="52.9958260" lon="-6.4424110">
    <ele>399.6</ele>
    <time>2025-07-19T10:03:40Z</time>
   </trkpt>
   <trkpt lat="52.9958840" lon="-6.4424440">
    <ele>399.0</ele>
    <time>2025-07-19T10:03:45Z</time>
   </trkpt>
   <trkpt lat="52.9959430" lon="-6.4425140">
    <ele>399.1</ele>
    <time>2025-07-19T10:03:51Z</time>
   </trkpt>
   <trkpt lat="52.9959980" lon="-6.4425470">
    <ele>399.4</ele>
    <time>2025-07-19T10:03:56Z</time>
   </trkpt>
   <trkpt lat="52.9960580" lon="-6.4425820">
    <ele>399.5</ele>
    <time>2025-07-19T10:04:01Z</time>
   </trkpt>
   <trkpt lat="52.9961190" lon="-6.4426040">
    <ele>399.5</ele>
    <time>2025-07-19T10:04:07Z</time>
   </trkpt>
   <trkpt lat="52.9961810" lon="-6.4426210">
    <ele>399.3</ele>
    <time>2025-07-19T10:04:12Z</time>
   </trkpt>
   <trkpt lat="52.9962430" lon="-6.4426440">
    <ele>399.1</ele>
    <time>2025-07-19T10:04:17Z</time>
   </trkpt>
   <trkpt lat="52.9963150" lon="-6.4426620">
    <ele>398.9</ele>
    <time>2025-07-19T10:04:23Z</time>
   </trkpt>
   <trkpt lat="52.9963720" lon="-6.4426590">
    <ele>398.4</ele>
    <time>2025-07-19T10:04:28Z</time>
   </trkpt>
   <trkpt lat="52.9964490" lon="-6.4426610">
    <ele>397.7</ele>
    <time>2025-07-19T10:04:34Z</time>
   </trkpt>
   <trkpt lat="52.9964960" lon="-6.4426550">
    <ele>396.9</ele>
    <time>2025-07-19T10:04:39Z</time>
   </trkpt>
   <trkpt lat="52.9965560" lon="-6.4426390">
    <ele>396.1</ele>
    <time>2025-07-19T10:04:44Z</time>
   </trkpt>
   <trkpt lat="52.9966220" lon="-6.4426330">
    <ele>395.1</ele>
    <time>2025-07-19T10:04:50Z</time>
   </trkpt>
   <trkpt lat="52.9966900" lon="-6.4425890">
    <ele>393.6</ele>
    <time>2025-07-19T10:04:55Z</time>
   </trkpt>
   <trkpt lat="52.9967480" lon="-6.4425500">
    <ele>392.0</ele>
    <time>2025-07-19T10:05:00Z</time>
   </trkpt>
   <trkpt lat="52.9968120" lon="-6.4425130">
    <ele>390.3</ele>
    <time>2025-07-19T10:05:05Z</time>
   </trkpt>
   <trkpt lat="52.9968660" lon="-6.4424720">
    <ele>388.6</ele>
    <time>2025-07-19T10:05:11Z</time>
   </trkpt>
   <trkpt lat="52.9969110" lon="-6.4424220">
    <ele>387.1</ele>
    <time>2025-07-19T10:05:16Z</time>
   </trkpt>
   <trkpt lat="52.9969740" lon="-6.4423770">
    <ele>385.4</ele>
    <time>2025-07-19T10:05:21Z</time>
   </trkpt>
   <trkpt lat="52.9970400" lon="-6.4423700">
    <ele>384.1</ele>
    <time>2025-07-19T10:05:26Z</time>
   </trkpt>
   <trkpt lat="52.9971040" lon="-6.4424020">
    <ele>383.4</ele>
    <time>2025-07-19T10:05:31Z</time>
   </trkpt>
   <trkpt lat="52.9971650" lon="-6.4424690">
    <ele>383.4</ele>
    <time>2025-07-19T10:05:37Z</time>
   </trkpt>
   <trkpt lat="52.9972080" lon="-6.4425470">
    <ele>384.3</ele>
    <time>2025-07-19T10:05:42Z</time>
   </trkpt>
   <trkpt lat="52.9972520" lon="-6.4426120">
    <ele>385.3</ele>
    <time>2025-07-19T10:05:48Z</time>
   </trkpt>
   <trkpt lat="52.9972890" lon="-6.4426770">
    <ele>386.6</ele>
    <time>2025-07-19T10:05:53Z</time>
   </trkpt>
   <trkpt lat="52.9973380" lon="-6.4427210">
    <ele>387.6</ele>
    <time>2025-07-19T10:05:58Z</time>
   </trkpt>
   <trkpt lat="52.9973900" lon="-6.4427660">
    <ele>388.4</ele>
    <time>2025-07-19T10:06:03Z</time>
   </trkpt>
   <trkpt lat="52.9974310" lon="-6.4428380">
    <ele>389.6</ele>
    <time>2025-07-19T10:06:08Z</time>
   </trkpt>
   <trkpt lat="52.9974830" lon="-6.4428950">
    <ele>391.0</ele>
    <time>2025-07-19T10:06:14Z</time>
   </trkpt>
   <trkpt lat="52.9975380" lon="-6.4429340">
    <ele>391.9</ele>
    <time>2025-07-19T10:06:19Z</time>
   </trkpt>
   <trkpt lat="52.9975790" lon="-6.4429840">
    <ele>392.8</ele>
    <time>2025-07-19T10:06:24Z</time>
   </trkpt>
   <trkpt lat="52.9976170" lon="-6.4430330">
    <ele>393.8</ele>
    <time>2025-07-19T10:06:29Z</time>
   </trkpt>
   <trkpt lat="52.9976580" lon="-6.4430920">
    <ele>395.0</ele>
    <time>2025-07-19T10:06:35Z</time>
   </trkpt>
   <trkpt lat="52.9977100" lon="-6.4431370">
    <ele>396.0</ele>
    <time>2025-07-19T10:06:40Z</time>
   </trkpt>
   <trkpt lat="52.9977590" lon="-6.4431910">
    <ele>396.9</ele>
    <time>2025-07-19T10:06:45Z</time>
   </trkpt>
   <trkpt lat="52.9978040" lon="-6.4432360">
    <ele>397.8</ele>
    <time>2025-07-19T10:06:50Z</time>
   </trkpt>
   <trkpt lat="52.9978340" lon="-6.4432950">
    <ele>398.8</ele>
    <time>2025-07-19T10:06:56Z</time>
   </trkpt>
   <trkpt lat="52.9978840" lon="-6.4433340">
    <ele>399.7</ele>
    <time>2025-07-19T10:07:01Z</time>
   </trkpt>
   <trkpt lat="52.9979360" lon="-6.4433470">
    <ele>400.1</ele>
    <time>2025-07-19T10:07:06Z</time>
   </trkpt>
   <trkpt lat="52.9979980" lon="-6.4433610">
    <ele>400.1</ele>
    <time>2025-07-19T10:07:11Z</time>
   </trkpt>
   <trkpt lat="52.9980470" lon="-6.4434100">
    <ele>400.2</ele>
    <time>2025-07-19T10:07:17Z</time>
   </trkpt>
   <trkpt lat="52.9980850" lon="-6.4434750">
    <ele>401.0</ele>
    <time>2025-07-19T10:07:22Z</time>
   </trkpt>
   <trkpt lat="52.9981330" lon="-6.4435030">
    <ele>401.6</ele>
    <time>2025-07-19T10:07:27Z</time>
   </trkpt>
   <trkpt lat="52.9981830" lon="-6.4435300">
    <ele>401.9</ele>
    <time>2025-07-19T10:07:32Z</time>
   </trkpt>
   <trkpt lat="52.9982300" lon="-6.4435550">
    <ele>402.1</ele>
    <time>2025-07-19T10:07:37Z</time>
   </trkpt>
   <trkpt lat="52.9982870" lon="-6.4436130">
    <ele>402.6</ele>
    <time>2025-07-19T10:07:43Z</time>
   </trkpt>
   <trkpt lat="52.9983240" lon="-6.4436730">
    <ele>403.3</ele>
    <time>2025-07-19T10:07:49Z</time>
   </trkpt>
   <trkpt lat="52.9983790" lon="-6.4437450">
    <ele>404.4</ele>
    <time>2025-07-19T10:07:54Z</time>
   </trkpt>
   <trkpt lat="52.9984470" lon="-6.4437720">
    <ele>404.8</ele>
    <time>2025-07-19T10:07:59Z</time>
   </trkpt>
   <trkpt lat="52.9984950" lon="-6.4438180">
    <ele>405.1</ele>
    <time>2025-07-19T10:08:05Z</time>
   </trkpt>
   <trkpt lat="52.9985430" lon="-6.4438710">
    <ele>405.6</ele>
    <time>2025-07-19T10:08:10Z</time>
   </trkpt>
   <trkpt lat="52.9985960" lon="-6.4439230">
    <ele>406.0</ele>
    <time>2025-07-19T10:08:16Z</time>
   </trkpt>
   <trkpt lat="52.9986510" lon="-6.4439590">
    <ele>406.1</ele>
    <time>2025-07-19T10:08:21Z</time>
   </trkpt>
   <trkpt lat="52.9987070" lon="-6.4439710">
    <ele>405.9</ele>
    <time>2025-07-19T10:08:26Z</time>
   </trkpt>
   <trkpt lat="52.9987590" lon="-6.4439710">
    <ele>405.3</ele>
    <time>2025-07-19T10:08:31Z</time>
   </trkpt>
   <trkpt lat="52.9988190" lon="-6.4439660">
    <ele>404.5</ele>
    <time>2025-07-19T10:08:36Z</time>
   </trkpt>
   <trkpt lat="52.9989210" lon="-6.4439070">
    <ele>402.8</ele>
    <time>2025-07-19T10:08:42Z</time>
   </trkpt>
   <trkpt lat="52.9989780" lon="-6.4438380">
    <ele>400.8</ele>
    <time>2025-07-19T10:08:47Z</time>
   </trkpt>
   <trkpt lat="52.9990080" lon="-6.4437220">
    <ele>398.6</ele>
    <time>2025-07-19T10:08:52Z</time>
   </trkpt>
   <trkpt lat="52.9990440" lon="-6.4436310">
    <ele>396.5</ele>
    <time>2025-07-19T10:08:58Z</time>
   </trkpt>
   <trkpt lat="52.9990870" lon="-6.4435440">
    <ele>394.8</ele>
    <time>2025-07-19T10:09:03Z</time>
   </trkpt>
   <trkpt lat="52.9991260" lon="-6.4434470">
    <ele>393.1</ele>
    <time>2025-07-19T10:09:09Z</time>
   </trkpt>
   <trkpt lat="52.9991670" lon="-6.4433650">
    <ele>391.7</ele>
    <time>2025-07-19T10:09:14Z</time>
   </trkpt>
   <trkpt lat="52.9992100" lon="-6.4432880">
    <ele>390.5</ele>
    <time>2025-07-19T10:09:20Z</time>
   </trkpt>
   <trkpt lat="52.9992510" lon="-6.4432300">
    <ele>389.6</ele>
    <time>2025-07-19T10:09:25Z</time>
   </trkpt>
   <trkpt lat="52.9992850" lon="-6.4431520">
    <ele>388.7</ele>
    <time>2025-07-19T10:09:30Z</time>
   </trkpt>
   <trkpt lat="52.9993080" lon="-6.4430630">
    <ele>388.0</ele>
    <time>2025-07-19T10:09:35Z</time>
   </trkpt>
   <trkpt lat="52.9993480" lon="-6.4429990">
    <ele>387.4</ele>
    <time>2025-07-19T10:09:40Z</time>
   </trkpt>
   <trkpt lat="52.9994140" lon="-6.4430010">
    <ele>386.9</ele>
    <time>2025-07-19T10:09:46Z</time>
   </trkpt>
   <trkpt lat="52.9994590" lon="-6.4430460">
    <ele>386.7</ele>
    <time>2025-07-19T10:09:51Z</time>
   </trkpt>
   <trkpt lat="52.9995130" lon="-6.4431200">
    <ele>386.8</ele>
    <time>2025-07-19T10:09:57Z</time>
   </trkpt>
   <trkpt lat="52.9995730" lon="-6.4432000">
    <ele>387.1</ele>
    <time>2025-07-19T10:10:02Z</time>
   </trkpt>
   <trkpt lat="52.9996070" lon="-6.4432760">
    <ele>387.6</ele>
    <time>2025-07-19T10:10:07Z</time>
   </trkpt>
   <trkpt lat="52.9996290" lon="-6.4433610">
    <ele>388.2</ele>
    <time>2025-07-19T10:10:13Z</time>
   </trkpt>
   <trkpt lat="52.9996630" lon="-6.4434470">
    <ele>389.0</ele>
    <time>2025-07-19T10:10:18Z</time>
   </trkpt>
   <trkpt lat="52.9996920" lon="-6.4435370">
    <ele>389.9</ele>
    <time>2025-07-19T10:10:23Z</time>
   </trkpt>
   <trkpt lat="52.9997090" lon="-6.4436310">
    <ele>390.8</ele>
    <time>2025-07-19T10:10:28Z</time>
   </trkpt>
   <trkpt lat="52.9997100" lon="-6.4437400">
    <ele>391.9</ele>
    <time>2025-07-19T10:10:34Z</time>
   </trkpt>
   <trkpt lat="52.9997140" lon="-6.4438540">
    <ele>393.1</ele>
    <time>2025-07-19T10:10:39Z</time>
   </trkpt>
   <trkpt lat="52.9997140" lon="-6.4439530">
    <ele>394.4</ele>
    <time>2025-07-19T10:10:44Z</time>
   </trkpt>
   <trkpt lat="52.9997180" lon="-6.4440590">
    <ele>395.6</ele>
    <time>2025-07-19T10:10:50Z</time>
   </trkpt>
   <trkpt lat="52.9997430" lon="-6.4441660">
    <ele>396.9</ele>
    <time>2025-07-19T10:10:55Z</time>
   </trkpt>
   <trkpt lat="52.9997870" lon="-6.4442540">
    <ele>398.1</ele>
    <time>2025-07-19T10:11:00Z</time>
   </trkpt>
   <trkpt lat="52.9998390" lon="-6.4443160">
    <ele>399.0</ele>
    <time>2025-07-19T10:11:06Z</time>
   </trkpt>
   <trkpt lat="52.9998990" lon="-6.4443520">
    <ele>399.6</ele>
    <time>2025-07-19T10:11:11Z</time>
   </trkpt>
   <trkpt lat="52.9999660" lon="-6.4443770">
    <ele>399.8</ele>
    <time>2025-07-19T10:11:17Z</time>
   </trkpt>
   <trkpt lat="53.0000130" lon="-6.4443670">
    <ele>399.6</ele>
    <time>2025-07-19T10:11:22Z</time>
   </trkpt>
   <trkpt lat="53.0000800" lon="-6.4443920">
    <ele>399.3</ele>
    <time>2025-07-19T10:11:28Z</time>
   </trkpt>
   <trkpt lat="53.0001650" lon="-6.4443790">
    <ele>398.6</ele>
    <time>2025-07-19T10:11:33Z</time>
   </trkpt>
   <trkpt lat="53.0002340" lon="-6.4444190">
    <ele>397.8</ele>
    <time>2025-07-19T10:11:38Z</time>
   </trkpt>
   <trkpt lat="53.0002890" lon="-6.4444890">
    <ele>397.3</ele>
    <time>2025-07-19T10:11:44Z</time>
   </trkpt>
   <trkpt lat="53.0003320" lon="-6.4445580">
    <ele>397.0</ele>
    <time>2025-07-19T10:11:49Z</time>
   </trkpt>
   <trkpt lat="53.0003690" lon="-6.4446430">
    <ele>397.0</ele>
    <time>2025-07-19T10:11:54Z</time>
   </trkpt>
   <trkpt lat="53.0004100" lon="-6.4447310">
    <ele>397.1</ele>
    <time>2025-07-19T10:12:00Z</time>
   </trkpt>
   <trkpt lat="53.0004540" lon="-6.4448120">
    <ele>397.2</ele>
    <time>2025-07-19T10:12:05Z</time>
   </trkpt>
   <trkpt lat="53.0004970" lon="-6.4448900">
    <ele>397.3</ele>
    <time>2025-07-19T10:12:11Z</time>
   </trkpt>
   <trkpt lat="53.0005320" lon="-6.4449800">
    <ele>397.4</ele>
    <time>2025-07-19T10:12:16Z</time>
   </trkpt>
   <trkpt lat="53.0005580" lon="-6.4450760">
    <ele>397.9</ele>
    <time>2025-07-19T10:12:21Z</time>
   </trkpt>
   <trkpt lat="53.0005880" lon="-6.4451670">
    <ele>398.5</ele>
    <time>2025-07-19T10:12:27Z</time>
   </trkpt>
   <trkpt lat="53.0006350" lon="-6.4452570">
    <ele>399.1</ele>
    <time>2025-07-19T10:12:32Z</time>
   </trkpt>
   <trkpt lat="53.0006770" lon="-6.4453430">
    <ele>399.7</ele>
    <time>2025-07-19T10:12:37Z</time>
   </trkpt>
   <trkpt lat="53.0007140" lon="-6.4454280">
    <ele>400.4</ele>
    <time>2025-07-19T10:12:43Z</time>
   </trkpt>
   <trkpt lat="53.0007600" lon="-6.4455110">
    <ele>401.1</ele>
    <time>2025-07-19T10:12:48Z</time>
   </trkpt>
   <trkpt lat="53.0008070" lon="-6.4455970">
    <ele>401.9</ele>
    <time>2025-07-19T10:12:53Z</time>
   </trkpt>
   <trkpt lat="53.0008700" lon="-6.4456650">
    <ele>402.5</ele>
    <time>2025-07-19T10:12:58Z</time>
   </trkpt>
   <trkpt lat="53.0009060" lon="-6.4457460">
    <ele>403.1</ele>
    <time>2025-07-19T10:13:04Z</time>
   </trkpt>
   <trkpt lat="53.0009450" lon="-6.4458220">
    <ele>403.8</ele>
    <time>2025-07-19T10:13:09Z</time>
   </trkpt>
   <trkpt lat="53.0009840" lon="-6.4459140">
    <ele>404.4</ele>
    <time>2025-07-19T10:13:14Z</time>
   </trkpt>
   <trkpt lat="53.0010150" lon="-6.4460110">
    <ele>405.2</ele>
    <time>2025-07-19T10:13:19Z</time>
   </trkpt>
   <trkpt lat="53.0010490" lon="-6.4460980">
    <ele>405.9</ele>
    <time>2025-07-19T10:13:25Z</time>
   </trkpt>
   <trkpt lat="53.0010930" lon="-6.4461840">
    <ele>406.5</ele>
    <time>2025-07-19T10:13:30Z</time>
   </trkpt>
   <trkpt lat="53.0011300" lon="-6.4462840">
    <ele>407.0</ele>
    <time>2025-07-19T10:13:35Z</time>
   </trkpt>
   <trkpt lat="53.0011520" lon="-6.4463840">
    <ele>407.8</ele>
    <time>2025-07-19T10:13:41Z</time>
   </trkpt>
   <trkpt lat="53.0011860" lon="-6.4464800">
    <ele>408.4</ele>
    <time>2025-07-19T10:13:46Z</time>
   </trkpt>
   <trkpt lat="53.0012200" lon="-6.4465690">
    <ele>408.9</ele>
    <time>2025-07-19T10:13:52Z</time>
   </trkpt>
   <trkpt lat="53.0012670" lon="-6.4466490">
    <ele>409.2</ele>
    <time>2025-07-19T10:13:57Z</time>
   </trkpt>
   <trkpt lat="53.0013010" lon="-6.4467400">
    <ele>409.4</ele>
    <time>2025-07-19T10:14:03Z</time>
   </trkpt>
   <trkpt lat="53.0013330" lon="-6.4468360">
    <ele>409.7</ele>
    <time>2025-07-19T10:14:08Z</time>
   </trkpt>
   <trkpt lat="53.0013600" lon="-6.4469210">
    <ele>410.0</ele>
    <time>2025-07-19T10:14:14Z</time>
   </trkpt>
   <trkpt lat="53.0013990" lon="-6.4469990">
    <ele>410.2</ele>
    <time>2025-07-19T10:14:20Z</time>
   </trkpt>
   <trkpt lat="53.0014400" lon="-6.4470840">
    <ele>410.3</ele>
    <time>2025-07-19T10:14:25Z</time>
   </trkpt>
   <trkpt lat="53.0014410" lon="-6.4471590">
    <ele>410.7</ele>
    <time>2025-07-19T10:15:28Z</time>
   </trkpt>
   <trkpt lat="53.0014690" lon="-6.4472550">
    <ele>411.2</ele>
    <time>2025-07-19T10:15:34Z</time>
   </trkpt>
   <trkpt lat="53.0015060" lon="-6.4473680">
    <ele>411.8</ele>
    <time>2025-07-19T10:15:39Z</time>
   </trkpt>
   <trkpt lat="53.0015400" lon="-6.4474440">
    <ele>412.3</ele>
    <time>2025-07-19T10:15:45Z</time>
   </trkpt>
   <trkpt lat="53.0015570" lon="-6.4475240">
    <ele>412.9</ele>
    <time>2025-07-19T10:15:50Z</time>
   </trkpt>
   <trkpt lat="53.0015850" lon="-6.4476010">
    <ele>413.5</ele>
    <time>2025-07-19T10:15:55Z</time>
   </trkpt>
   <trkpt lat="53.0016140" lon="-6.4476800">
    <ele>414.2</ele>
    <time>2025-07-19T10:16:00Z</time>
   </trkpt>
   <trkpt lat="53.0016440" lon="-6.4477430">
    <ele>414.8</ele>
    <time>2025-07-19T10:16:05Z</time>
   </trkpt>
   <trkpt lat="53.0016610" lon="-6.4478120">
    <ele>415.5</ele>
    <time>2025-07-19T10:16:10Z</time>
   </trkpt>
   <trkpt lat="53.0016930" lon="-6.4478820">
    <ele>416.2</ele>
    <time>2025-07-19T10:16:16Z</time>
   </trkpt>
   <trkpt lat="53.0017280" lon="-6.4479760">
    <ele>417.0</ele>
    <time>2025-07-19T10:16:21Z</time>
   </trkpt>
   <trkpt lat="53.0017580" lon="-6.4480430">
    <ele>417.8</ele>
    <time>2025-07-19T10:16:27Z</time>
   </trkpt>
   <trkpt lat="53.0017910" lon="-6.4481210">
    <ele>418.5</ele>
    <time>2025-07-19T10:16:32Z</time>
   </trkpt>
   <trkpt lat="53.0018160" lon="-6.4482070">
    <ele>419.2</ele>
    <time>2025-07-19T10:16:37Z</time>
   </trkpt>
   <trkpt lat="53.0018270" lon="-6.4483050">
    <ele>420.4</ele>
    <time>2025-07-19T10:17:38Z</time>
   </trkpt>
   <trkpt lat="53.0018590" lon="-6.4483950">
    <ele>421.0</ele>
    <time>2025-07-19T10:17:43Z</time>
   </trkpt>
   <trkpt lat="53.0019050" lon="-6.4484840">
    <ele>421.6</ele>
    <time>2025-07-19T10:17:48Z</time>
   </trkpt>
   <trkpt lat="53.0019220" lon="-6.4485710">
    <ele>422.2</ele>
    <time>2025-07-19T10:17:53Z</time>
   </trkpt>
   <trkpt lat="53.0019400" lon="-6.4486600">
    <ele>422.8</ele>
    <time>2025-07-19T10:17:58Z</time>
   </trkpt>
   <trkpt lat="53.0019760" lon="-6.4487290">
    <ele>423.4</ele>
    <time>2025-07-19T10:18:10Z</time>
   </trkpt>
   <trkpt lat="53.0020160" lon="-6.4488440">
    <ele>423.7</ele>
    <time>2025-07-19T10:18:16Z</time>
   </trkpt>
   <trkpt lat="53.0020410" lon="-6.4489270">
    <ele>424.0</ele>
    <time>2025-07-19T10:18:21Z</time>
   </trkpt>
   <trkpt lat="53.0020570" lon="-6.4490320">
    <ele>424.6</ele>
    <time>2025-07-19T10:18:27Z</time>
   </trkpt>
   <trkpt lat="53.0020800" lon="-6.4491120">
    <ele>425.1</ele>
    <time>2025-07-19T10:18:32Z</time>
   </trkpt>
   <trkpt lat="53.0021210" lon="-6.4491700">
    <ele>425.3</ele>
    <time>2025-07-19T10:18:37Z</time>
   </trkpt>
   <trkpt lat="53.0021500" lon="-6.4492450">
    <ele>425.5</ele>
    <time>2025-07-19T10:18:42Z</time>
   </trkpt>
   <trkpt lat="53.0021670" lon="-6.4493530">
    <ele>426.0</ele>
    <time>2025-07-19T10:18:47Z</time>
   </trkpt>
   <trkpt lat="53.0021950" lon="-6.4494260">
    <ele>426.5</ele>
    <time>2025-07-19T10:18:52Z</time>
   </trkpt>
   <trkpt lat="53.0022300" lon="-6.4495030">
    <ele>426.8</ele>
    <time>2025-07-19T10:18:58Z</time>
   </trkpt>
   <trkpt lat="53.0022570" lon="-6.4495810">
    <ele>427.2</ele>
    <time>2025-07-19T10:19:03Z</time>
   </trkpt>
   <trkpt lat="53.0022700" lon="-6.4496600">
    <ele>427.7</ele>
    <time>2025-07-19T10:19:08Z</time>
   </trkpt>
   <trkpt lat="53.0022940" lon="-6.4497300">
    <ele>428.3</ele>
    <time>2025-07-19T10:19:13Z</time>
   </trkpt>
   <trkpt lat="53.0023290" lon="-6.4497940">
    <ele>428.8</ele>
    <time>2025-07-19T10:19:20Z</time>
   </trkpt>
   <trkpt lat="53.0023530" lon="-6.4498990">
    <ele>429.3</ele>
    <time>2025-07-19T10:19:26Z</time>
   </trkpt>
   <trkpt lat="53.0023820" lon="-6.4499910">
    <ele>429.9</ele>
    <time>2025-07-19T10:19:31Z</time>
   </trkpt>
   <trkpt lat="53.0024140" lon="-6.4500830">
    <ele>430.5</ele>
    <time>2025-07-19T10:19:36Z</time>
   </trkpt>
   <trkpt lat="53.0024290" lon="-6.4501650">
    <ele>431.1</ele>
    <time>2025-07-19T10:19:41Z</time>
   </trkpt>
   <trkpt lat="53.0024640" lon="-6.4502500">
    <ele>431.9</ele>
    <time>2025-07-19T10:19:47Z</time>
   </trkpt>
   <trkpt lat="53.0025060" lon="-6.4503210">
    <ele>432.3</ele>
    <time>2025-07-19T10:19:52Z</time>
   </trkpt>
   <trkpt lat="53.0025350" lon="-6.4504120">
    <ele>432.9</ele>
    <time>2025-07-19T10:19:57Z</time>
   </trkpt>
   <trkpt lat="53.0025520" lon="-6.4504950">
    <ele>433.5</ele>
    <time>2025-07-19T10:20:02Z</time>
   </trkpt>
   <trkpt lat="53.0025730" lon="-6.4505700">
    <ele>434.3</ele>
    <time>2025-07-19T10:20:08Z</time>
   </trkpt>
   <trkpt lat="53.0025980" lon="-6.4506490">
    <ele>435.0</ele>
    <time>2025-07-19T10:20:14Z</time>
   </trkpt>
   <trkpt lat="53.0026140" lon="-6.4507410">
    <ele>435.7</ele>
    <time>2025-07-19T10:20:19Z</time>
   </trkpt>
   <trkpt lat="53.0026290" lon="-6.4508270">
    <ele>436.4</ele>
    <time>2025-07-19T10:20:25Z</time>
   </trkpt>
   <trkpt lat="53.0026550" lon="-6.4509010">
    <ele>437.1</ele>
    <time>2025-07-19T10:20:30Z</time>
   </trkpt>
   <trkpt lat="53.0026730" lon="-6.4509800">
    <ele>437.6</ele>
    <time>2025-07-19T10:20:35Z</time>
   </trkpt>
   <trkpt lat="53.0026920" lon="-6.4510690">
    <ele>438.2</ele>
    <time>2025-07-19T10:20:41Z</time>
   </trkpt>
   <trkpt lat="53.0027250" lon="-6.4511480">
    <ele>438.6</ele>
    <time>2025-07-19T10:20:46Z</time>
   </trkpt>
   <trkpt lat="53.0027520" lon="-6.4512200">
    <ele>439.0</ele>
    <time>2025-07-19T10:20:51Z</time>
   </trkpt>
   <trkpt lat="53.0027680" lon="-6.4513110">
    <ele>439.4</ele>
    <time>2025-07-19T10:20:57Z</time>
   </trkpt>
   <trkpt lat="53.0027890" lon="-6.4513920">
    <ele>439.8</ele>
    <time>2025-07-19T10:21:03Z</time>
   </trkpt>
   <trkpt lat="53.0028290" lon="-6.4514580">
    <ele>440.1</ele>
    <time>2025-07-19T10:21:08Z</time>
   </trkpt>
   <trkpt lat="53.0028560" lon="-6.4515200">
    <ele>440.4</ele>
    <time>2025-07-19T10:21:13Z</time>
   </trkpt>
   <trkpt lat="53.0028850" lon="-6.4516030">
    <ele>440.6</ele>
    <time>2025-07-19T10:21:19Z</time>
   </trkpt>
   <trkpt lat="53.0029000" lon="-6.4516950">
    <ele>441.0</ele>
    <time>2025-07-19T10:21:24Z</time>
   </trkpt>
   <trkpt lat="53.0029220" lon="-6.4517710">
    <ele>441.5</ele>
    <time>2025-07-19T10:21:30Z</time>
   </trkpt>
   <trkpt lat="53.0029650" lon="-6.4518430">
    <ele>441.8</ele>
    <time>2025-07-19T10:21:35Z</time>
   </trkpt>
   <trkpt lat="53.0029880" lon="-6.4519310">
    <ele>442.1</ele>
    <time>2025-07-19T10:21:41Z</time>
   </trkpt>
   <trkpt lat="53.0030190" lon="-6.4519950">
    <ele>442.4</ele>
    <time>2025-07-19T10:21:59Z</time>
   </trkpt>
   <trkpt lat="53.0030530" lon="-6.4521180">
    <ele>442.9</ele>
    <time>2025-07-19T10:22:04Z</time>
   </trkpt>
   <trkpt lat="53.0030870" lon="-6.4521950">
    <ele>443.3</ele>
    <time>2025-07-19T10:22:09Z</time>
   </trkpt>
   <trkpt lat="53.0031240" lon="-6.4522780">
    <ele>443.6</ele>
    <time>2025-07-19T10:22:15Z</time>
   </trkpt>
   <trkpt lat="53.0031360" lon="-6.4523640">
    <ele>444.0</ele>
    <time>2025-07-19T10:22:20Z</time>
   </trkpt>
   <trkpt lat="53.0031320" lon="-6.4524490">
    <ele>444.6</ele>
    <time>2025-07-19T10:22:25Z</time>
   </trkpt>
   <trkpt lat="53.0031250" lon="-6.4525440">
    <ele>445.4</ele>
    <time>2025-07-19T10:22:30Z</time>
   </trkpt>
   <trkpt lat="53.0031230" lon="-6.4526470">
    <ele>446.3</ele>
    <time>2025-07-19T10:22:35Z</time>
   </trkpt>
   <trkpt lat="53.0031130" lon="-6.4527360">
    <ele>447.3</ele>
    <time>2025-07-19T10:22:41Z</time>
   </trkpt>
   <trkpt lat="53.0031000" lon="-6.4528180">
    <ele>448.2</ele>
    <time>2025-07-19T10:22:46Z</time>
   </trkpt>
   <trkpt lat="53.0030800" lon="-6.4529100">
    <ele>449.4</ele>
    <time>2025-07-19T10:22:51Z</time>
   </trkpt>
   <trkpt lat="53.0030750" lon="-6.4530010">
    <ele>450.5</ele>
    <time>2025-07-19T10:22:56Z</time>
   </trkpt>
   <trkpt lat="53.0030830" lon="-6.4530950">
    <ele>451.5</ele>
    <time>2025-07-19T10:23:01Z</time>
   </trkpt>
   <trkpt lat="53.0030810" lon="-6.4531860">
    <ele>452.5</ele>
    <time>2025-07-19T10:23:06Z</time>
   </trkpt>
   <trkpt lat="53.0030780" lon="-6.4532770">
    <ele>453.4</ele>
    <time>2025-07-19T10:23:11Z</time>
   </trkpt>
   <trkpt lat="53.0030650" lon="-6.4533690">
    <ele>454.4</ele>
    <time>2025-07-19T10:23:17Z</time>
   </trkpt>
   <trkpt lat="53.0030610" lon="-6.4534660">
    <ele>455.3</ele>
    <time>2025-07-19T10:23:22Z</time>
   </trkpt>
   <trkpt lat="53.0030620" lon="-6.4535540">
    <ele>456.0</ele>
    <time>2025-07-19T10:23:28Z</time>
   </trkpt>
   <trkpt lat="53.0030690" lon="-6.4536300">
    <ele>456.6</ele>
    <time>2025-07-19T10:23:33Z</time>
   </trkpt>
   <trkpt lat="53.0031130" lon="-6.4536700">
    <ele>456.5</ele>
    <time>2025-07-19T10:24:13Z</time>
   </trkpt>
   <trkpt lat="53.0031090" lon="-6.4537800">
    <ele>456.8</ele>
    <time>2025-07-19T10:24:19Z</time>
   </trkpt>
   <trkpt lat="53.0031430" lon="-6.4539050">
    <ele>457.1</ele>
    <time>2025-07-19T10:24:24Z</time>
   </trkpt>
   <trkpt lat="53.0031670" lon="-6.4540050">
    <ele>457.4</ele>
    <time>2025-07-19T10:24:30Z</time>
   </trkpt>
   <trkpt lat="53.0031910" lon="-6.4541120">
    <ele>457.6</ele>
    <time>2025-07-19T10:24:35Z</time>
   </trkpt>
   <trkpt lat="53.0032160" lon="-6.4542060">
    <ele>457.8</ele>
    <time>2025-07-19T10:24:41Z</time>
   </trkpt>
   <trkpt lat="53.0032350" lon="-6.4542990">
    <ele>458.0</ele>
    <time>2025-07-19T10:24:46Z</time>
   </trkpt>
   <trkpt lat="53.0032480" lon="-6.4543760">
    <ele>458.2</ele>
    <time>2025-07-19T10:24:52Z</time>
   </trkpt>
   <trkpt lat="53.0032580" lon="-6.4544560">
    <ele>458.4</ele>
    <time>2025-07-19T10:24:58Z</time>
   </trkpt>
   <trkpt lat="53.0032610" lon="-6.4545410">
    <ele>458.7</ele>
    <time>2025-07-19T10:25:03Z</time>
   </trkpt>
   <trkpt lat="53.0032730" lon="-6.4546140">
    <ele>459.2</ele>
    <time>2025-07-19T10:25:18Z</time>
   </trkpt>
   <trkpt lat="53.0032910" lon="-6.4547240">
    <ele>459.4</ele>
    <time>2025-07-19T10:25:23Z</time>
   </trkpt>
   <trkpt lat="53.0033010" lon="-6.4547990">
    <ele>459.6</ele>
    <time>2025-07-19T10:25:28Z</time>
   </trkpt>
   <trkpt lat="53.0033090" lon="-6.4548810">
    <ele>460.0</ele>
    <time>2025-07-19T10:25:34Z</time>
   </trkpt>
   <trkpt lat="53.0033010" lon="-6.4549670">
    <ele>460.5</ele>
    <time>2025-07-19T10:25:40Z</time>
   </trkpt>
   <trkpt lat="53.0032840" lon="-6.4550510">
    <ele>461.3</ele>
    <time>2025-07-19T10:25:45Z</time>
   </trkpt>
   <trkpt lat="53.0032760" lon="-6.4551280">
    <ele>461.9</ele>
    <time>2025-07-19T10:25:50Z</time>
   </trkpt>
   <trkpt lat="53.0032640" lon="-6.4552070">
    <ele>463.0</ele>
    <time>2025-07-19T10:25:57Z</time>
   </trkpt>
   <trkpt lat="53.0032600" lon="-6.4552940">
    <ele>463.9</ele>
    <time>2025-07-19T10:26:02Z</time>
   </trkpt>
   <trkpt lat="53.0032600" lon="-6.4553740">
    <ele>464.8</ele>
    <time>2025-07-19T10:26:08Z</time>
   </trkpt>
   <trkpt lat="53.0032500" lon="-6.4554610">
    <ele>465.7</ele>
    <time>2025-07-19T10:26:13Z</time>
   </trkpt>
   <trkpt lat="53.0032490" lon="-6.4555550">
    <ele>466.8</ele>
    <time>2025-07-19T10:26:18Z</time>
   </trkpt>
   <trkpt lat="53.0032660" lon="-6.4556430">
    <ele>467.8</ele>
    <time>2025-07-19T10:26:24Z</time>
   </trkpt>
   <trkpt lat="53.0032990" lon="-6.4557260">
    <ele>468.5</ele>
    <time>2025-07-19T10:26:29Z</time>
   </trkpt>
   <trkpt lat="53.0033260" lon="-6.4558140">
    <ele>469.1</ele>
    <time>2025-07-19T10:26:35Z</time>
   </trkpt>
   <trkpt lat="53.0033510" lon="-6.4559000">
    <ele>469.8</ele>
    <time>2025-07-19T10:26:40Z</time>
   </trkpt>
   <trkpt lat="53.0033830" lon="-6.4559630">
    <ele>470.4</ele>
    <time>2025-07-19T10:26:45Z</time>
   </trkpt>
   <trkpt lat="53.0034210" lon="-6.4560330">
    <ele>470.9</ele>
    <time>2025-07-19T10:26:50Z</time>
   </trkpt>
   <trkpt lat="53.0034400" lon="-6.4561170">
    <ele>471.6</ele>
    <time>2025-07-19T10:26:55Z</time>
   </trkpt>
   <trkpt lat="53.0034690" lon="-6.4561980">
    <ele>472.4</ele>
    <time>2025-07-19T10:27:01Z</time>
   </trkpt>
   <trkpt lat="53.0035130" lon="-6.4562390">
    <ele>472.9</ele>
    <time>2025-07-19T10:27:06Z</time>
   </trkpt>
   <trkpt lat="53.0035520" lon="-6.4563140">
    <ele>473.4</ele>
    <time>2025-07-19T10:27:11Z</time>
   </trkpt>
   <trkpt lat="53.0035790" lon="-6.4564140">
    <ele>474.2</ele>
    <time>2025-07-19T10:27:17Z</time>
   </trkpt>
   <trkpt lat="53.0036150" lon="-6.4565120">
    <ele>475.1</ele>
    <time>2025-07-19T10:27:22Z</time>
   </trkpt>
   <trkpt lat="53.0036320" lon="-6.4565900">
    <ele>475.9</ele>
    <time>2025-07-19T10:27:27Z</time>
   </trkpt>
   <trkpt lat="53.0036630" lon="-6.4566560">
    <ele>476.5</ele>
    <time>2025-07-19T10:27:33Z</time>
   </trkpt>
   <trkpt lat="53.0036990" lon="-6.4567340">
    <ele>477.1</ele>
    <time>2025-07-19T10:27:38Z</time>
   </trkpt>
   <trkpt lat="53.0037390" lon="-6.4567900">
    <ele>477.5</ele>
    <time>2025-07-19T10:27:43Z</time>
   </trkpt>
   <trkpt lat="53.0037910" lon="-6.4568420">
    <ele>477.8</ele>
    <time>2025-07-19T10:27:48Z</time>
   </trkpt>
   <trkpt lat="53.0038380" lon="-6.4568840">
    <ele>477.9</ele>
    <time>2025-07-19T10:27:54Z</time>
   </trkpt>
   <trkpt lat="53.0038860" lon="-6.4569230">
    <ele>478.0</ele>
    <time>2025-07-19T10:27:59Z</time>
   </trkpt>
   <trkpt lat="53.0039480" lon="-6.4569260">
    <ele>478.1</ele>
    <time>2025-07-19T10:28:04Z</time>
   </trkpt>
   <trkpt lat="53.0040120" lon="-6.4568850">
    <ele>477.8</ele>
    <time>2025-07-19T10:28:10Z</time>
   </trkpt>
   <trkpt lat="53.0040650" lon="-6.4568640">
    <ele>477.4</ele>
    <time>2025-07-19T10:28:15Z</time>
   </trkpt>
   <trkpt lat="53.0041290" lon="-6.4568300">
    <ele>477.0</ele>
    <time>2025-07-19T10:28:20Z</time>
   </trkpt>
   <trkpt lat="53.0041940" lon="-6.4567960">
    <ele>476.7</ele>
    <time>2025-07-19T10:28:25Z</time>
   </trkpt>
   <trkpt lat="53.0042430" lon="-6.4567740">
    <ele>476.6</ele>
    <time>2025-07-19T10:28:30Z</time>
   </trkpt>
   <trkpt lat="53.0043050" lon="-6.4567230">
    <ele>476.5</ele>
    <time>2025-07-19T10:28:36Z</time>
   </trkpt>
   <trkpt lat="53.0043490" lon="-6.4566770">
    <ele>476.6</ele>
    <time>2025-07-19T10:28:41Z</time>
   </trkpt>
   <trkpt lat="53.0043980" lon="-6.4566490">
    <ele>476.8</ele>
    <time>2025-07-19T10:28:46Z</time>
   </trkpt>
   <trkpt lat="53.0044440" lon="-6.4566140">
    <ele>477.0</ele>
    <time>2025-07-19T10:28:52Z</time>
   </trkpt>
   <trkpt lat="53.0044990" lon="-6.4565690">
    <ele>477.5</ele>
    <time>2025-07-19T10:28:57Z</time>
   </trkpt>
   <trkpt lat="53.0045440" lon="-6.4565280">
    <ele>477.9</ele>
    <time>2025-07-19T10:29:02Z</time>
   </trkpt>
   <trkpt lat="53.0045960" lon="-6.4564800">
    <ele>478.4</ele>
    <time>2025-07-19T10:29:07Z</time>
   </trkpt>
   <trkpt lat="53.0046400" lon="-6.4564290">
    <ele>478.9</ele>
    <time>2025-07-19T10:29:12Z</time>
   </trkpt>
   <trkpt lat="53.0046840" lon="-6.4563830">
    <ele>479.3</ele>
    <time>2025-07-19T10:29:18Z</time>
   </trkpt>
   <trkpt lat="53.0047370" lon="-6.4563440">
    <ele>479.8</ele>
    <time>2025-07-19T10:29:23Z</time>
   </trkpt>
   <trkpt lat="53.0047780" lon="-6.4563150">
    <ele>480.3</ele>
    <time>2025-07-19T10:29:28Z</time>
   </trkpt>
   <trkpt lat="53.0048160" lon="-6.4562690">
    <ele>480.8</ele>
    <time>2025-07-19T10:29:41Z</time>
   </trkpt>
   <trkpt lat="53.0048900" lon="-6.4562210">
    <ele>481.2</ele>
    <time>2025-07-19T10:29:46Z</time>
   </trkpt>
   <trkpt lat="53.0049420" lon="-6.4561900">
    <ele>481.7</ele>
    <time>2025-07-19T10:29:52Z</time>
   </trkpt>
   <trkpt lat="53.0050010" lon="-6.4561760">
    <ele>482.1</ele>
    <time>2025-07-19T10:29:57Z</time>
   </trkpt>
   <trkpt lat="53.0050530" lon="-6.4561800">
    <ele>482.7</ele>
    <time>2025-07-19T10:30:02Z</time>
   </trkpt>
   <trkpt lat="53.0051040" lon="-6.4561650">
    <ele>483.0</ele>
    <time>2025-07-19T10:30:07Z</time>
   </trkpt>
   <trkpt lat="53.0051700" lon="-6.4561690">
    <ele>483.4</ele>
    <time>2025-07-19T10:30:13Z</time>
   </trkpt>
   <trkpt lat="53.0052240" lon="-6.4562040">
    <ele>483.9</ele>
    <time>2025-07-19T10:30:18Z</time>
   </trkpt>
   <trkpt lat="53.0052650" lon="-6.4562570">
    <ele>484.4</ele>
    <time>2025-07-19T10:30:23Z</time>
   </trkpt>
   <trkpt lat="53.0053150" lon="-6.4562840">
    <ele>484.9</ele>
    <time>2025-07-19T10:30:28Z</time>
   </trkpt>
   <trkpt lat="53.0053650" lon="-6.4563130">
    <ele>485.2</ele>
    <time>2025-07-19T10:30:33Z</time>
   </trkpt>
   <trkpt lat="53.0054180" lon="-6.4563490">
    <ele>485.6</ele>
    <time>2025-07-19T10:30:38Z</time>
   </trkpt>
   <trkpt lat="53.0054740" lon="-6.4563730">
    <ele>485.9</ele>
    <time>2025-07-19T10:30:44Z</time>
   </trkpt>
   <trkpt lat="53.0055170" lon="-6.4563960">
    <ele>486.2</ele>
    <time>2025-07-19T10:30:49Z</time>
   </trkpt>
   <trkpt lat="53.0055610" lon="-6.4564540">
    <ele>486.5</ele>
    <time>2025-07-19T10:30:54Z</time>
   </trkpt>
   <trkpt lat="53.0056090" lon="-6.4565250">
    <ele>487.0</ele>
    <time>2025-07-19T10:31:00Z</time>
   </trkpt>
   <trkpt lat="53.0056610" lon="-6.4565900">
    <ele>487.5</ele>
    <time>2025-07-19T10:31:05Z</time>
   </trkpt>
   <trkpt lat="53.0057070" lon="-6.4566470">
    <ele>488.1</ele>
    <time>2025-07-19T10:31:10Z</time>
   </trkpt>
   <trkpt lat="53.0057340" lon="-6.4567140">
    <ele>488.6</ele>
    <time>2025-07-19T10:31:15Z</time>
   </trkpt>
   <trkpt lat="53.0057530" lon="-6.4567980">
    <ele>489.1</ele>
    <time>2025-07-19T10:31:21Z</time>
   </trkpt>
   <trkpt lat="53.0057630" lon="-6.4568830">
    <ele>489.5</ele>
    <time>2025-07-19T10:31:26Z</time>
   </trkpt>
   <trkpt lat="53.0057750" lon="-6.4569680">
    <ele>489.9</ele>
    <time>2025-07-19T10:31:31Z</time>
   </trkpt>
   <trkpt lat="53.0057820" lon="-6.4570440">
    <ele>490.3</ele>
    <time>2025-07-19T10:31:38Z</time>
   </trkpt>
   <trkpt lat="53.0057810" lon="-6.4571230">
    <ele>490.6</ele>
    <time>2025-07-19T10:31:44Z</time>
   </trkpt>
   <trkpt lat="53.0057760" lon="-6.4572190">
    <ele>490.9</ele>
    <time>2025-07-19T10:31:50Z</time>
   </trkpt>
   <trkpt lat="53.0057600" lon="-6.4573050">
    <ele>491.1</ele>
    <time>2025-07-19T10:31:55Z</time>
   </trkpt>
   <trkpt lat="53.0057480" lon="-6.4573770">
    <ele>491.4</ele>
    <time>2025-07-19T10:32:01Z</time>
   </trkpt>
   <trkpt lat="53.0057250" lon="-6.4574540">
    <ele>491.6</ele>
    <time>2025-07-19T10:32:06Z</time>
   </trkpt>
   <trkpt lat="53.0056890" lon="-6.4575220">
    <ele>491.9</ele>
    <time>2025-07-19T10:32:12Z</time>
   </trkpt>
   <trkpt lat="53.0056600" lon="-6.4576040">
    <ele>492.2</ele>
    <time>2025-07-19T10:32:17Z</time>
   </trkpt>
   <trkpt lat="53.0056300" lon="-6.4576830">
    <ele>492.6</ele>
    <time>2025-07-19T10:32:23Z</time>
   </trkpt>
   <trkpt lat="53.0056030" lon="-6.4577550">
    <ele>493.0</ele>
    <time>2025-07-19T10:32:28Z</time>
   </trkpt>
   <trkpt lat="53.0055750" lon="-6.4578160">
    <ele>493.5</ele>
    <time>2025-07-19T10:32:33Z</time>
   </trkpt>
   <trkpt lat="53.0055400" lon="-6.4578870">
    <ele>494.0</ele>
    <time>2025-07-19T10:32:39Z</time>
   </trkpt>
   <trkpt lat="53.0055030" lon="-6.4579500">
    <ele>494.5</ele>
    <time>2025-07-19T10:32:44Z</time>
   </trkpt>
   <trkpt lat="53.0054800" lon="-6.4580360">
    <ele>495.1</ele>
    <time>2025-07-19T10:32:49Z</time>
   </trkpt>
   <trkpt lat="53.0054590" lon="-6.4581190">
    <ele>495.8</ele>
    <time>2025-07-19T10:32:55Z</time>
   </trkpt>
   <trkpt lat="53.0054260" lon="-6.4581980">
    <ele>496.5</ele>
    <time>2025-07-19T10:33:00Z</time>
   </trkpt>
   <trkpt lat="53.0053920" lon="-6.4582520">
    <ele>497.0</ele>
    <time>2025-07-19T10:33:05Z</time>
   </trkpt>
   <trkpt lat="53.0053540" lon="-6.4583210">
    <ele>497.5</ele>
    <time>2025-07-19T10:33:11Z</time>
   </trkpt>
   <trkpt lat="53.0053230" lon="-6.4583830">
    <ele>498.0</ele>
    <time>2025-07-19T10:33:16Z</time>
   </trkpt>
   <trkpt lat="53.0052810" lon="-6.4584500">
    <ele>498.5</ele>
    <time>2025-07-19T10:33:21Z</time>
   </trkpt>
   <trkpt lat="53.0052340" lon="-6.4585110">
    <ele>498.9</ele>
    <time>2025-07-19T10:33:26Z</time>
   </trkpt>
   <trkpt lat="53.0051900" lon="-6.4585950">
    <ele>499.4</ele>
    <time>2025-07-19T10:33:32Z</time>
   </trkpt>
   <trkpt lat="53.0051450" lon="-6.4586650">
    <ele>499.8</ele>
    <time>2025-07-19T10:33:37Z</time>
   </trkpt>
   <trkpt lat="53.0051140" lon="-6.4587360">
    <ele>500.2</ele>
    <time>2025-07-19T10:33:42Z</time>
   </trkpt>
   <trkpt lat="53.0050810" lon="-6.4588160">
    <ele>500.7</ele>
    <time>2025-07-19T10:33:48Z</time>
   </trkpt>
   <trkpt lat="53.0050660" lon="-6.4589150">
    <ele>501.3</ele>
    <time>2025-07-19T10:33:53Z</time>
   </trkpt>
   <trkpt lat="53.0050790" lon="-6.4590170">
    <ele>502.0</ele>
    <time>2025-07-19T10:33:58Z</time>
   </trkpt>
   <trkpt lat="53.0050750" lon="-6.4591070">
    <ele>502.8</ele>
    <time>2025-07-19T10:34:03Z</time>
   </trkpt>
   <trkpt lat="53.0050880" lon="-6.4591800">
    <ele>504.3</ele>
    <time>2025-07-19T10:35:28Z</time>
   </trkpt>
   <trkpt lat="53.0051010" lon="-6.4592570">
    <ele>504.5</ele>
    <time>2025-07-19T10:35:34Z</time>
   </trkpt>
   <trkpt lat="53.0051330" lon="-6.4593190">
    <ele>505.0</ele>
    <time>2025-07-19T10:35:39Z</time>
   </trkpt>
   <trkpt lat="53.0051840" lon="-6.4593730">
    <ele>505.6</ele>
    <time>2025-07-19T10:35:44Z</time>
   </trkpt>
   <trkpt lat="53.0052430" lon="-6.4593940">
    <ele>506.2</ele>
    <time>2025-07-19T10:35:49Z</time>
   </trkpt>
   <trkpt lat="53.0053020" lon="-6.4594200">
    <ele>506.8</ele>
    <time>2025-07-19T10:35:54Z</time>
   </trkpt>
   <trkpt lat="53.0053570" lon="-6.4594220">
    <ele>507.2</ele>
    <time>2025-07-19T10:35:59Z</time>
   </trkpt>
   <trkpt lat="53.0054170" lon="-6.4593940">
    <ele>507.5</ele>
    <time>2025-07-19T10:36:04Z</time>
   </trkpt>
   <trkpt lat="53.0054690" lon="-6.4593800">
    <ele>507.7</ele>
    <time>2025-07-19T10:36:10Z</time>
   </trkpt>
   <trkpt lat="53.0055350" lon="-6.4593740">
    <ele>508.0</ele>
    <time>2025-07-19T10:36:15Z</time>
   </trkpt>
   <trkpt lat="53.0055920" lon="-6.4593870">
    <ele>508.3</ele>
    <time>2025-07-19T10:36:20Z</time>
   </trkpt>
   <trkpt lat="53.0056500" lon="-6.4594030">
    <ele>508.7</ele>
    <time>2025-07-19T10:36:25Z</time>
   </trkpt>
   <trkpt lat="53.0057050" lon="-6.4594270">
    <ele>509.2</ele>
    <time>2025-07-19T10:36:30Z</time>
   </trkpt>
   <trkpt lat="53.0057610" lon="-6.4594190">
    <ele>509.5</ele>
    <time>2025-07-19T10:36:36Z</time>
   </trkpt>
   <trkpt lat="53.0058090" lon="-6.4594290">
    <ele>509.8</ele>
    <time>2025-07-19T10:36:41Z</time>
   </trkpt>
   <trkpt lat="53.0058650" lon="-6.4594340">
    <ele>510.1</ele>
    <time>2025-07-19T10:36:46Z</time>
   </trkpt>
   <trkpt lat="53.0059210" lon="-6.4594470">
    <ele>510.4</ele>
    <time>2025-07-19T10:36:51Z</time>
   </trkpt>
   <trkpt lat="53.0059750" lon="-6.4594770">
    <ele>510.7</ele>
    <time>2025-07-19T10:36:56Z</time>
   </trkpt>
   <trkpt lat="53.0060380" lon="-6.4595070">
    <ele>511.0</ele>
    <time>2025-07-19T10:37:02Z</time>
   </trkpt>
   <trkpt lat="53.0060940" lon="-6.4595430">
    <ele>511.4</ele>
    <time>2025-07-19T10:37:07Z</time>
   </trkpt>
   <trkpt lat="53.0061510" lon="-6.4595580">
    <ele>511.8</ele>
    <time>2025-07-19T10:37:12Z</time>
   </trkpt>
   <trkpt lat="53.0062040" lon="-6.4595510">
    <ele>512.0</ele>
    <time>2025-07-19T10:37:17Z</time>
   </trkpt>
   <trkpt lat="53.0062700" lon="-6.4595410">
    <ele>512.1</ele>
    <time>2025-07-19T10:37:22Z</time>
   </trkpt>
   <trkpt lat="53.0063210" lon="-6.4595510">
    <ele>512.2</ele>
    <time>2025-07-19T10:37:27Z</time>
   </trkpt>
   <trkpt lat="53.0063400" lon="-6.4596320">
    <ele>512.9</ele>
    <time>2025-07-19T10:40:52Z</time>
   </trkpt>
   <trkpt lat="53.0063550" lon="-6.4597050">
    <ele>513.4</ele>
    <time>2025-07-19T10:40:59Z</time>
   </trkpt>
   <trkpt lat="53.0063700" lon="-6.4597810">
    <ele>514.0</ele>
    <time>2025-07-19T10:41:04Z</time>
   </trkpt>
   <trkpt lat="53.0063810" lon="-6.4598590">
    <ele>514.8</ele>
    <time>2025-07-19T10:41:10Z</time>
   </trkpt>
   <trkpt lat="53.0064110" lon="-6.4599240">
    <ele>515.7</ele>
    <time>2025-07-19T10:41:17Z</time>
   </trkpt>
   <trkpt lat="53.0064380" lon="-6.4599930">
    <ele>516.4</ele>
    <time>2025-07-19T10:41:24Z</time>
   </trkpt>
   <trkpt lat="53.0064710" lon="-6.4600740">
    <ele>517.2</ele>
    <time>2025-07-19T10:41:29Z</time>
   </trkpt>
   <trkpt lat="53.0064960" lon="-6.4601360">
    <ele>517.8</ele>
    <time>2025-07-19T10:41:35Z</time>
   </trkpt>
   <trkpt lat="53.0065260" lon="-6.4601930">
    <ele>518.5</ele>
    <time>2025-07-19T10:41:41Z</time>
   </trkpt>
   <trkpt lat="53.0065560" lon="-6.4602620">
    <ele>519.1</ele>
    <time>2025-07-19T10:41:47Z</time>
   </trkpt>
   <trkpt lat="53.0065910" lon="-6.4603170">
    <ele>519.7</ele>
    <time>2025-07-19T10:41:53Z</time>
   </trkpt>
   <trkpt lat="53.0066340" lon="-6.4603760">
    <ele>520.2</ele>
    <time>2025-07-19T10:41:58Z</time>
   </trkpt>
   <trkpt lat="53.0066800" lon="-6.4604250">
    <ele>520.7</ele>
    <time>2025-07-19T10:42:03Z</time>
   </trkpt>
   <trkpt lat="53.0067070" lon="-6.4604900">
    <ele>521.1</ele>
    <time>2025-07-19T10:42:08Z</time>
   </trkpt>
   <trkpt lat="53.0067390" lon="-6.4605440">
    <ele>521.6</ele>
    <time>2025-07-19T10:42:14Z</time>
   </trkpt>
   <trkpt lat="53.0067790" lon="-6.4606050">
    <ele>522.0</ele>
    <time>2025-07-19T10:42:20Z</time>
   </trkpt>
   <trkpt lat="53.0068120" lon="-6.4606710">
    <ele>522.5</ele>
    <time>2025-07-19T10:42:25Z</time>
   </trkpt>
   <trkpt lat="53.0068600" lon="-6.4607180">
    <ele>522.8</ele>
    <time>2025-07-19T10:42:31Z</time>
   </trkpt>
   <trkpt lat="53.0068920" lon="-6.4607970">
    <ele>523.3</ele>
    <time>2025-07-19T10:42:36Z</time>
   </trkpt>
   <trkpt lat="53.0069300" lon="-6.4608530">
    <ele>523.8</ele>
    <time>2025-07-19T10:42:43Z</time>
   </trkpt>
   <trkpt lat="53.0069720" lon="-6.4608910">
    <ele>524.1</ele>
    <time>2025-07-19T10:42:48Z</time>
   </trkpt>
   <trkpt lat="53.0070080" lon="-6.4609670">
    <ele>524.5</ele>
    <time>2025-07-19T10:42:53Z</time>
   </trkpt>
   <trkpt lat="53.0070370" lon="-6.4610400">
    <ele>525.0</ele>
    <time>2025-07-19T10:42:59Z</time>
   </trkpt>
   <trkpt lat="53.0070640" lon="-6.4611070">
    <ele>525.6</ele>
    <time>2025-07-19T10:43:04Z</time>
   </trkpt>
   <trkpt lat="53.0071000" lon="-6.4611590">
    <ele>526.3</ele>
    <time>2025-07-19T10:43:11Z</time>
   </trkpt>
   <trkpt lat="53.0071150" lon="-6.4612350">
    <ele>526.9</ele>
    <time>2025-07-19T10:43:18Z</time>
   </trkpt>
   <trkpt lat="53.0071510" lon="-6.4613000">
    <ele>527.5</ele>
    <time>2025-07-19T10:43:23Z</time>
   </trkpt>
   <trkpt lat="53.0071820" lon="-6.4613570">
    <ele>528.2</ele>
    <time>2025-07-19T10:43:28Z</time>
   </trkpt>
   <trkpt lat="53.0072180" lon="-6.4614220">
    <ele>528.8</ele>
    <time>2025-07-19T10:43:34Z</time>
   </trkpt>
   <trkpt lat="53.0072550" lon="-6.4614990">
    <ele>529.6</ele>
    <time>2025-07-19T10:43:40Z</time>
   </trkpt>
   <trkpt lat="53.0072860" lon="-6.4615560">
    <ele>530.3</ele>
    <time>2025-07-19T10:43:45Z</time>
   </trkpt>
   <trkpt lat="53.0073220" lon="-6.4616090">
    <ele>531.1</ele>
    <time>2025-07-19T10:43:51Z</time>
   </trkpt>
   <trkpt lat="53.0073460" lon="-6.4616770">
    <ele>531.8</ele>
    <time>2025-07-19T10:43:57Z</time>
   </trkpt>
   <trkpt lat="53.0073720" lon="-6.4617570">
    <ele>532.5</ele>
    <time>2025-07-19T10:44:03Z</time>
   </trkpt>
   <trkpt lat="53.0074030" lon="-6.4618310">
    <ele>533.2</ele>
    <time>2025-07-19T10:44:08Z</time>
   </trkpt>
   <trkpt lat="53.0074370" lon="-6.4619140">
    <ele>533.9</ele>
    <time>2025-07-19T10:44:14Z</time>
   </trkpt>
   <trkpt lat="53.0074720" lon="-6.4619670">
    <ele>534.5</ele>
    <time>2025-07-19T10:44:19Z</time>
   </trkpt>
   <trkpt lat="53.0075000" lon="-6.4620350">
    <ele>535.1</ele>
    <time>2025-07-19T10:44:25Z</time>
   </trkpt>
   <trkpt lat="53.0075300" lon="-6.4621020">
    <ele>535.6</ele>
    <time>2025-07-19T10:44:31Z</time>
   </trkpt>
   <trkpt lat="53.0075550" lon="-6.4621780">
    <ele>536.2</ele>
    <time>2025-07-19T10:44:37Z</time>
   </trkpt>
   <trkpt lat="53.0075900" lon="-6.4622440">
    <ele>536.8</ele>
    <time>2025-07-19T10:44:42Z</time>
   </trkpt>
   <trkpt lat="53.0076080" lon="-6.4623190">
    <ele>537.4</ele>
    <time>2025-07-19T10:44:48Z</time>
   </trkpt>
   <trkpt lat="53.0076190" lon="-6.4623920">
    <ele>538.2</ele>
    <time>2025-07-19T10:44:54Z</time>
   </trkpt>
   <trkpt lat="53.0076450" lon="-6.4624630">
    <ele>538.7</ele>
    <time>2025-07-19T10:45:00Z</time>
   </trkpt>
   <trkpt lat="53.0076630" lon="-6.4625430">
    <ele>539.4</ele>
    <time>2025-07-19T10:45:05Z</time>
   </trkpt>
   <trkpt lat="53.0076800" lon="-6.4626210">
    <ele>540.2</ele>
    <time>2025-07-19T10:45:11Z</time>
   </trkpt>
   <trkpt lat="53.0076860" lon="-6.4626990">
    <ele>540.8</ele>
    <time>2025-07-19T10:45:16Z</time>
   </trkpt>
   <trkpt lat="53.0077010" lon="-6.4627730">
    <ele>541.7</ele>
    <time>2025-07-19T10:45:23Z</time>
   </trkpt>
   <trkpt lat="53.0077450" lon="-6.4628140">
    <ele>542.4</ele>
    <time>2025-07-19T10:45:29Z</time>
   </trkpt>
   <trkpt lat="53.0077750" lon="-6.4628800">
    <ele>543.1</ele>
    <time>2025-07-19T10:45:35Z</time>
   </trkpt>
   <trkpt lat="53.0078050" lon="-6.4629500">
    <ele>543.9</ele>
    <time>2025-07-19T10:45:42Z</time>
   </trkpt>
   <trkpt lat="53.0078440" lon="-6.4630030">
    <ele>544.7</ele>
    <time>2025-07-19T10:45:48Z</time>
   </trkpt>
   <trkpt lat="53.0078830" lon="-6.4630510">
    <ele>545.3</ele>
    <time>2025-07-19T10:45:54Z</time>
   </trkpt>
   <trkpt lat="53.0079260" lon="-6.4631000">
    <ele>546.2</ele>
    <time>2025-07-19T10:46:00Z</time>
   </trkpt>
   <trkpt lat="53.0079480" lon="-6.4631840">
    <ele>547.0</ele>
    <time>2025-07-19T10:46:06Z</time>
   </trkpt>
   <trkpt lat="53.0079750" lon="-6.4632550">
    <ele>547.9</ele>
    <time>2025-07-19T10:46:12Z</time>
   </trkpt>
   <trkpt lat="53.0080110" lon="-6.4633230">
    <ele>548.8</ele>
    <time>2025-07-19T10:46:18Z</time>
   </trkpt>
   <trkpt lat="53.0080420" lon="-6.4633890">
    <ele>549.6</ele>
    <time>2025-07-19T10:46:24Z</time>
   </trkpt>
   <trkpt lat="53.0080600" lon="-6.4634630">
    <ele>550.5</ele>
    <time>2025-07-19T10:46:30Z</time>
   </trkpt>
   <trkpt lat="53.0080770" lon="-6.4635330">
    <ele>551.3</ele>
    <time>2025-07-19T10:46:35Z</time>
   </trkpt>
   <trkpt lat="53.0080970" lon="-6.4636080">
    <ele>552.0</ele>
    <time>2025-07-19T10:46:41Z</time>
   </trkpt>
   <trkpt lat="53.0081100" lon="-6.4636860">
    <ele>553.0</ele>
    <time>2025-07-19T10:46:49Z</time>
   </trkpt>
   <trkpt lat="53.0081310" lon="-6.4637540">
    <ele>553.7</ele>
    <time>2025-07-19T10:46:55Z</time>
   </trkpt>
   <trkpt lat="53.0081540" lon="-6.4638270">
    <ele>554.5</ele>
    <time>2025-07-19T10:47:02Z</time>
   </trkpt>
   <trkpt lat="53.0081790" lon="-6.4638930">
    <ele>555.3</ele>
    <time>2025-07-19T10:47:08Z</time>
   </trkpt>
   <trkpt lat="53.0082060" lon="-6.4639640">
    <ele>556.1</ele>
    <time>2025-07-19T10:47:14Z</time>
   </trkpt>
   <trkpt lat="53.0082240" lon="-6.4640380">
    <ele>556.8</ele>
    <time>2025-07-19T10:47:19Z</time>
   </trkpt>
   <trkpt lat="53.0082440" lon="-6.4641260">
    <ele>557.7</ele>
    <time>2025-07-19T10:47:24Z</time>
   </trkpt>
   <trkpt lat="53.0082550" lon="-6.4642040">
    <ele>558.5</ele>
    <time>2025-07-19T10:47:29Z</time>
   </trkpt>
   <trkpt lat="53.0082720" lon="-6.4642800">
    <ele>559.4</ele>
    <time>2025-07-19T10:47:36Z</time>
   </trkpt>
   <trkpt lat="53.0083090" lon="-6.4643280">
    <ele>560.3</ele>
    <time>2025-07-19T10:47:42Z</time>
   </trkpt>
   <trkpt lat="53.0083180" lon="-6.4644010">
    <ele>560.9</ele>
    <time>2025-07-19T10:47:48Z</time>
   </trkpt>
   <trkpt lat="53.0083340" lon="-6.4644710">
    <ele>561.7</ele>
    <time>2025-07-19T10:47:54Z</time>
   </trkpt>
   <trkpt lat="53.0083500" lon="-6.4645560">
    <ele>562.5</ele>
    <time>2025-07-19T10:47:59Z</time>
   </trkpt>
   <trkpt lat="53.0083690" lon="-6.4646280">
    <ele>563.4</ele>
    <time>2025-07-19T10:48:06Z</time>
   </trkpt>
   <trkpt lat="53.0083740" lon="-6.4647030">
    <ele>564.0</ele>
    <time>2025-07-19T10:48:11Z</time>
   </trkpt>
   <trkpt lat="53.0083790" lon="-6.4647780">
    <ele>564.7</ele>
    <time>2025-07-19T10:48:16Z</time>
   </trkpt>
   <trkpt lat="53.0083900" lon="-6.4648590">
    <ele>565.5</ele>
    <time>2025-07-19T10:48:22Z</time>
   </trkpt>
   <trkpt lat="53.0084140" lon="-6.4649250">
    <ele>566.3</ele>
    <time>2025-07-19T10:48:28Z</time>
   </trkpt>
   <trkpt lat="53.0084370" lon="-6.4649890">
    <ele>567.0</ele>
    <time>2025-07-19T10:48:33Z</time>
   </trkpt>
   <trkpt lat="53.0084500" lon="-6.4650690">
    <ele>567.8</ele>
    <time>2025-07-19T10:48:38Z</time>
   </trkpt>
   <trkpt lat="53.0084720" lon="-6.4651400">
    <ele>568.6</ele>
    <time>2025-07-19T10:48:44Z</time>
   </trkpt>
   <trkpt lat="53.0084840" lon="-6.4652130">
    <ele>569.4</ele>
    <time>2025-07-19T10:48:50Z</time>
   </trkpt>
   <trkpt lat="53.0084960" lon="-6.4652860">
    <ele>570.2</ele>
    <time>2025-07-19T10:48:56Z</time>
   </trkpt>
   <trkpt lat="53.0085220" lon="-6.4653560">
    <ele>571.0</ele>
    <time>2025-07-19T10:49:02Z</time>
   </trkpt>
   <trkpt lat="53.0085330" lon="-6.4654360">
    <ele>571.7</ele>
    <time>2025-07-19T10:49:07Z</time>
   </trkpt>
   <trkpt lat="53.0085590" lon="-6.4654990">
    <ele>572.5</ele>
    <time>2025-07-19T10:49:12Z</time>
   </trkpt>
   <trkpt lat="53.0086000" lon="-6.4655380">
    <ele>573.3</ele>
    <time>2025-07-19T10:49:19Z</time>
   </trkpt>
   <trkpt lat="53.0086150" lon="-6.4656110">
    <ele>574.1</ele>
    <time>2025-07-19T10:49:26Z</time>
   </trkpt>
   <trkpt lat="53.0086350" lon="-6.4656870">
    <ele>575.0</ele>
    <time>2025-07-19T10:49:34Z</time>
   </trkpt>
   <trkpt lat="53.0086450" lon="-6.4657650">
    <ele>575.7</ele>
    <time>2025-07-19T10:49:41Z</time>
   </trkpt>
   <trkpt lat="53.0086660" lon="-6.4658380">
    <ele>576.5</ele>
    <time>2025-07-19T10:49:49Z</time>
   </trkpt>
   <trkpt lat="53.0086790" lon="-6.4659110">
    <ele>577.2</ele>
    <time>2025-07-19T10:49:55Z</time>
   </trkpt>
   <trkpt lat="53.0087060" lon="-6.4659770">
    <ele>577.9</ele>
    <time>2025-07-19T10:50:01Z</time>
   </trkpt>
   <trkpt lat="53.0087280" lon="-6.4660420">
    <ele>578.5</ele>
    <time>2025-07-19T10:50:07Z</time>
   </trkpt>
   <trkpt lat="53.0087380" lon="-6.4661170">
    <ele>579.3</ele>
    <time>2025-07-19T10:50:12Z</time>
   </trkpt>
   <trkpt lat="53.0087490" lon="-6.4661980">
    <ele>579.9</ele>
    <time>2025-07-19T10:50:17Z</time>
   </trkpt>
   <trkpt lat="53.0087610" lon="-6.4662700">
    <ele>580.6</ele>
    <time>2025-07-19T10:50:23Z</time>
   </trkpt>
   <trkpt lat="53.0087940" lon="-6.4663210">
    <ele>581.3</ele>
    <time>2025-07-19T10:50:29Z</time>
   </trkpt>
   <trkpt lat="53.0088260" lon="-6.4663770">
    <ele>582.0</ele>
    <time>2025-07-19T10:50:35Z</time>
   </trkpt>
   <trkpt lat="53.0088410" lon="-6.4664530">
    <ele>582.8</ele>
    <time>2025-07-19T10:50:43Z</time>
   </trkpt>
   <trkpt lat="53.0088790" lon="-6.4665250">
    <ele>583.3</ele>
    <time>2025-07-19T10:50:48Z</time>
   </trkpt>
   <trkpt lat="53.0089170" lon="-6.4665860">
    <ele>584.0</ele>
    <time>2025-07-19T10:50:53Z</time>
   </trkpt>
   <trkpt lat="53.0089490" lon="-6.4666430">
    <ele>584.6</ele>
    <time>2025-07-19T10:50:59Z</time>
   </trkpt>
   <trkpt lat="53.0089890" lon="-6.4667020">
    <ele>585.2</ele>
    <time>2025-07-19T10:51:04Z</time>
   </trkpt>
   <trkpt lat="53.0090290" lon="-6.4667430">
    <ele>585.7</ele>
    <time>2025-07-19T10:51:09Z</time>
   </trkpt>
   <trkpt lat="53.0090690" lon="-6.4667940">
    <ele>586.2</ele>
    <time>2025-07-19T10:51:14Z</time>
   </trkpt>
   <trkpt lat="53.0091120" lon="-6.4668380">
    <ele>586.8</ele>
    <time>2025-07-19T10:51:20Z</time>
   </trkpt>
   <trkpt lat="53.0091350" lon="-6.4669180">
    <ele>587.3</ele>
    <time>2025-07-19T10:51:25Z</time>
   </trkpt>
   <trkpt lat="53.0091690" lon="-6.4669900">
    <ele>587.8</ele>
    <time>2025-07-19T10:51:31Z</time>
   </trkpt>
   <trkpt lat="53.0092090" lon="-6.4670500">
    <ele>588.3</ele>
    <time>2025-07-19T10:51:36Z</time>
   </trkpt>
   <trkpt lat="53.0092600" lon="-6.4671170">
    <ele>588.8</ele>
    <time>2025-07-19T10:51:42Z</time>
   </trkpt>
   <trkpt lat="53.0093040" lon="-6.4671760">
    <ele>589.3</ele>
    <time>2025-07-19T10:51:47Z</time>
   </trkpt>
   <trkpt lat="53.0093350" lon="-6.4672440">
    <ele>589.7</ele>
    <time>2025-07-19T10:51:52Z</time>
   </trkpt>
   <trkpt lat="53.0093440" lon="-6.4673380">
    <ele>590.0</ele>
    <time>2025-07-19T10:51:57Z</time>
   </trkpt>
   <trkpt lat="53.0093760" lon="-6.4674260">
    <ele>590.3</ele>
    <time>2025-07-19T10:52:03Z</time>
   </trkpt>
   <trkpt lat="53.0094180" lon="-6.4674930">
    <ele>590.6</ele>
    <time>2025-07-19T10:52:08Z</time>
   </trkpt>
   <trkpt lat="53.0094440" lon="-6.4675690">
    <ele>590.8</ele>
    <time>2025-07-19T10:52:13Z</time>
   </trkpt>
   <trkpt lat="53.0094550" lon="-6.4676520">
    <ele>591.0</ele>
    <time>2025-07-19T10:52:18Z</time>
   </trkpt>
   <trkpt lat="53.0094760" lon="-6.4677240">
    <ele>591.1</ele>
    <time>2025-07-19T10:52:24Z</time>
   </trkpt>
   <trkpt lat="53.0094980" lon="-6.4678200">
    <ele>591.2</ele>
    <time>2025-07-19T10:52:29Z</time>
   </trkpt>
   <trkpt lat="53.0095330" lon="-6.4678990">
    <ele>591.3</ele>
    <time>2025-07-19T10:52:34Z</time>
   </trkpt>
   <trkpt lat="53.0095250" lon="-6.4679800">
    <ele>591.4</ele>
    <time>2025-07-19T10:52:39Z</time>
   </trkpt>
   <trkpt lat="53.0095520" lon="-6.4680520">
    <ele>591.4</ele>
    <time>2025-07-19T10:52:45Z</time>
   </trkpt>
   <trkpt lat="53.0095770" lon="-6.4681260">
    <ele>591.5</ele>
    <time>2025-07-19T10:52:51Z</time>
   </trkpt>
   <trkpt lat="53.0095900" lon="-6.4682010">
    <ele>591.7</ele>
    <time>2025-07-19T10:53:17Z</time>
   </trkpt>
   <trkpt lat="53.0096300" lon="-6.4682550">
    <ele>591.8</ele>
    <time>2025-07-19T10:53:29Z</time>
   </trkpt>
   <trkpt lat="53.0096760" lon="-6.4683010">
    <ele>592.0</ele>
    <time>2025-07-19T10:53:34Z</time>
   </trkpt>
   <trkpt lat="53.0097030" lon="-6.4683710">
    <ele>592.2</ele>
    <time>2025-07-19T10:53:39Z</time>
   </trkpt>
   <trkpt lat="53.0097420" lon="-6.4684420">
    <ele>592.5</ele>
    <time>2025-07-19T10:53:45Z</time>
   </trkpt>
   <trkpt lat="53.0097940" lon="-6.4685020">
    <ele>592.7</ele>
    <time>2025-07-19T10:53:50Z</time>
   </trkpt>
   <trkpt lat="53.0098230" lon="-6.4685640">
    <ele>592.9</ele>
    <time>2025-07-19T10:53:56Z</time>
   </trkpt>
   <trkpt lat="53.0098230" lon="-6.4686470">
    <ele>593.0</ele>
    <time>2025-07-19T10:54:01Z</time>
   </trkpt>
   <trkpt lat="53.0098550" lon="-6.4687200">
    <ele>593.1</ele>
    <time>2025-07-19T10:54:07Z</time>
   </trkpt>
   <trkpt lat="53.0098980" lon="-6.4687840">
    <ele>593.2</ele>
    <time>2025-07-19T10:54:12Z</time>
   </trkpt>
   <trkpt lat="53.0099240" lon="-6.4688610">
    <ele>593.4</ele>
    <time>2025-07-19T10:54:17Z</time>
   </trkpt>
   <trkpt lat="53.0099620" lon="-6.4689410">
    <ele>593.5</ele>
    <time>2025-07-19T10:54:23Z</time>
   </trkpt>
   <trkpt lat="53.0100030" lon="-6.4690310">
    <ele>593.6</ele>
    <time>2025-07-19T10:54:28Z</time>
   </trkpt>
   <trkpt lat="53.0100300" lon="-6.4690990">
    <ele>593.8</ele>
    <time>2025-07-19T10:54:35Z</time>
   </trkpt>
   <trkpt lat="53.0100720" lon="-6.4691660">
    <ele>594.0</ele>
    <time>2025-07-19T10:54:40Z</time>
   </trkpt>
   <trkpt lat="53.0101080" lon="-6.4692510">
    <ele>594.3</ele>
    <time>2025-07-19T10:54:45Z</time>
   </trkpt>
   <trkpt lat="53.0101410" lon="-6.4693270">
    <ele>594.7</ele>
    <time>2025-07-19T10:54:50Z</time>
   </trkpt>
   <trkpt lat="53.0101840" lon="-6.4693800">
    <ele>595.1</ele>
    <time>2025-07-19T10:54:55Z</time>
   </trkpt>
   <trkpt lat="53.0102250" lon="-6.4694360">
    <ele>595.5</ele>
    <time>2025-07-19T10:55:01Z</time>
   </trkpt>
   <trkpt lat="53.0102620" lon="-6.4694900">
    <ele>596.1</ele>
    <time>2025-07-19T10:55:07Z</time>
   </trkpt>
   <trkpt lat="53.0102970" lon="-6.4695630">
    <ele>596.6</ele>
    <time>2025-07-19T10:55:12Z</time>
   </trkpt>
   <trkpt lat="53.0103270" lon="-6.4696280">
    <ele>597.2</ele>
    <time>2025-07-19T10:55:17Z</time>
   </trkpt>
   <trkpt lat="53.0103640" lon="-6.4697100">
    <ele>597.8</ele>
    <time>2025-07-19T10:55:23Z</time>
   </trkpt>
   <trkpt lat="53.0104100" lon="-6.4697590">
    <ele>598.6</ele>
    <time>2025-07-19T10:55:28Z</time>
   </trkpt>
   <trkpt lat="53.0104390" lon="-6.4698250">
    <ele>599.3</ele>
    <time>2025-07-19T10:55:33Z</time>
   </trkpt>
   <trkpt lat="53.0104580" lon="-6.4699020">
    <ele>600.1</ele>
    <time>2025-07-19T10:55:39Z</time>
   </trkpt>
   <trkpt lat="53.0104870" lon="-6.4699610">
    <ele>600.8</ele>
    <time>2025-07-19T10:55:44Z</time>
   </trkpt>
   <trkpt lat="53.0105310" lon="-6.4699860">
    <ele>601.5</ele>
    <time>2025-07-19T10:55:50Z</time>
   </trkpt>
   <trkpt lat="53.0105590" lon="-6.4700560">
    <ele>602.3</ele>
    <time>2025-07-19T10:55:56Z</time>
   </trkpt>
   <trkpt lat="53.0105980" lon="-6.4701060">
    <ele>603.1</ele>
    <time>2025-07-19T10:56:02Z</time>
   </trkpt>
   <trkpt lat="53.0106300" lon="-6.4701620">
    <ele>603.8</ele>
    <time>2025-07-19T10:56:08Z</time>
   </trkpt>
   <trkpt lat="53.0106610" lon="-6.4702200">
    <ele>604.8</ele>
    <time>2025-07-19T10:56:16Z</time>
   </trkpt>
   <trkpt lat="53.0106820" lon="-6.4702910">
    <ele>605.5</ele>
    <time>2025-07-19T10:56:23Z</time>
   </trkpt>
   <trkpt lat="53.0107310" lon="-6.4703130">
    <ele>606.3</ele>
    <time>2025-07-19T10:56:31Z</time>
   </trkpt>
   <trkpt lat="53.0107780" lon="-6.4703450">
    <ele>606.8</ele>
    <time>2025-07-19T10:56:37Z</time>
   </trkpt>
   <trkpt lat="53.0108140" lon="-6.4704190">
    <ele>607.7</ele>
    <time>2025-07-19T10:57:32Z</time>
   </trkpt>
   <trkpt lat="53.0108660" lon="-6.4704020">
    <ele>608.2</ele>
    <time>2025-07-19T10:57:38Z</time>
   </trkpt>
   <trkpt lat="53.0109190" lon="-6.4705130">
    <ele>608.8</ele>
    <time>2025-07-19T10:57:43Z</time>
   </trkpt>
   <trkpt lat="53.0109470" lon="-6.4705840">
    <ele>609.7</ele>
    <time>2025-07-19T10:57:50Z</time>
   </trkpt>
   <trkpt lat="53.0109650" lon="-6.4706530">
    <ele>610.2</ele>
    <time>2025-07-19T10:57:55Z</time>
   </trkpt>
   <trkpt lat="53.0110030" lon="-6.4707060">
    <ele>610.9</ele>
    <time>2025-07-19T10:58:02Z</time>
   </trkpt>
   <trkpt lat="53.0110460" lon="-6.4707630">
    <ele>611.5</ele>
    <time>2025-07-19T10:58:07Z</time>
   </trkpt>
   <trkpt lat="53.0110790" lon="-6.4708280">
    <ele>612.1</ele>
    <time>2025-07-19T10:58:13Z</time>
   </trkpt>
   <trkpt lat="53.0111160" lon="-6.4708720">
    <ele>612.8</ele>
    <time>2025-07-19T10:58:18Z</time>
   </trkpt>
   <trkpt lat="53.0111510" lon="-6.4709480">
    <ele>613.4</ele>
    <time>2025-07-19T10:58:24Z</time>
   </trkpt>
   <trkpt lat="53.0111950" lon="-6.4709930">
    <ele>614.1</ele>
    <time>2025-07-19T10:58:29Z</time>
   </trkpt>
   <trkpt lat="53.0112080" lon="-6.4710820">
    <ele>614.8</ele>
    <time>2025-07-19T10:58:35Z</time>
   </trkpt>
   <trkpt lat="53.0112320" lon="-6.4711570">
    <ele>615.4</ele>
    <time>2025-07-19T10:58:40Z</time>
   </trkpt>
   <trkpt lat="53.0112740" lon="-6.4712030">
    <ele>616.1</ele>
    <time>2025-07-19T10:58:46Z</time>
   </trkpt>
   <trkpt lat="53.0113160" lon="-6.4712530">
    <ele>616.7</ele>
    <time>2025-07-19T10:58:52Z</time>
   </trkpt>
   <trkpt lat="53.0113460" lon="-6.4713210">
    <ele>617.4</ele>
    <time>2025-07-19T10:58:57Z</time>
   </trkpt>
   <trkpt lat="53.0113750" lon="-6.4713870">
    <ele>618.0</ele>
    <time>2025-07-19T10:59:02Z</time>
   </trkpt>
   <trkpt lat="53.0114180" lon="-6.4714250">
    <ele>618.7</ele>
    <time>2025-07-19T10:59:08Z</time>
   </trkpt>
   <trkpt lat="53.0114490" lon="-6.4714930">
    <ele>619.3</ele>
    <time>2025-07-19T10:59:13Z</time>
   </trkpt>
   <trkpt lat="53.0114710" lon="-6.4715610">
    <ele>620.0</ele>
    <time>2025-07-19T10:59:18Z</time>
   </trkpt>
   <trkpt lat="53.0115110" lon="-6.4716110">
    <ele>620.7</ele>
    <time>2025-07-19T10:59:24Z</time>
   </trkpt>
   <trkpt lat="53.0115580" lon="-6.4715920">
    <ele>621.2</ele>
    <time>2025-07-19T10:59:29Z</time>
   </trkpt>
   <trkpt lat="53.0115930" lon="-6.4716420">
    <ele>621.6</ele>
    <time>2025-07-19T10:59:35Z</time>
   </trkpt>
   <trkpt lat="53.0116180" lon="-6.4717140">
    <ele>622.2</ele>
    <time>2025-07-19T10:59:41Z</time>
   </trkpt>
   <trkpt lat="53.0116620" lon="-6.4717570">
    <ele>623.0</ele>
    <time>2025-07-19T10:59:53Z</time>
   </trkpt>
   <trkpt lat="53.0116590" lon="-6.4718310">
    <ele>623.8</ele>
    <time>2025-07-19T11:00:03Z</time>
   </trkpt>
   <trkpt lat="53.0116840" lon="-6.4718940">
    <ele>624.3</ele>
    <time>2025-07-19T11:00:10Z</time>
   </trkpt>
   <trkpt lat="53.0117210" lon="-6.4719370">
    <ele>624.9</ele>
    <time>2025-07-19T11:00:17Z</time>
   </trkpt>
   <trkpt lat="53.0117570" lon="-6.4719880">
    <ele>625.5</ele>
    <time>2025-07-19T11:00:22Z</time>
   </trkpt>
   <trkpt lat="53.0117980" lon="-6.4720210">
    <ele>626.1</ele>
    <time>2025-07-19T11:00:29Z</time>
   </trkpt>
   <trkpt lat="53.0118040" lon="-6.4720960">
    <ele>626.7</ele>
    <time>2025-07-19T11:00:35Z</time>
   </trkpt>
   <trkpt lat="53.0118260" lon="-6.4721610">
    <ele>627.4</ele>
    <time>2025-07-19T11:00:42Z</time>
   </trkpt>
   <trkpt lat="53.0118700" lon="-6.4722110">
    <ele>628.1</ele>
    <time>2025-07-19T11:00:48Z</time>
   </trkpt>
   <trkpt lat="53.0118980" lon="-6.4722700">
    <ele>628.7</ele>
    <time>2025-07-19T11:00:55Z</time>
   </trkpt>
   <trkpt lat="53.0119430" lon="-6.4722900">
    <ele>629.3</ele>
    <time>2025-07-19T11:01:03Z</time>
   </trkpt>
   <trkpt lat="53.0119720" lon="-6.4723550">
    <ele>629.8</ele>
    <time>2025-07-19T11:01:09Z</time>
   </trkpt>
   <trkpt lat="53.0119830" lon="-6.4724290">
    <ele>630.4</ele>
    <time>2025-07-19T11:01:15Z</time>
   </trkpt>
   <trkpt lat="53.0120150" lon="-6.4724850">
    <ele>631.1</ele>
    <time>2025-07-19T11:01:21Z</time>
   </trkpt>
   <trkpt lat="53.0120400" lon="-6.4725500">
    <ele>631.7</ele>
    <time>2025-07-19T11:01:28Z</time>
   </trkpt>
   <trkpt lat="53.0120390" lon="-6.4726270">
    <ele>632.3</ele>
    <time>2025-07-19T11:01:34Z</time>
   </trkpt>
   <trkpt lat="53.0120570" lon="-6.4726990">
    <ele>633.0</ele>
    <time>2025-07-19T11:01:41Z</time>
   </trkpt>
   <trkpt lat="53.0120840" lon="-6.4727650">
    <ele>634.1</ele>
    <time>2025-07-19T11:01:55Z</time>
   </trkpt>
   <trkpt lat="53.0121100" lon="-6.4728300">
    <ele>634.5</ele>
    <time>2025-07-19T11:02:00Z</time>
   </trkpt>
   <trkpt lat="53.0121090" lon="-6.4729140">
    <ele>635.1</ele>
    <time>2025-07-19T11:02:06Z</time>
   </trkpt>
   <trkpt lat="53.0120990" lon="-6.4729880">
    <ele>636.1</ele>
    <time>2025-07-19T11:02:19Z</time>
   </trkpt>
   <trkpt lat="53.0121000" lon="-6.4730640">
    <ele>636.6</ele>
    <time>2025-07-19T11:02:29Z</time>
   </trkpt>
   <trkpt lat="53.0120960" lon="-6.4731450">
    <ele>637.2</ele>
    <time>2025-07-19T11:02:35Z</time>
   </trkpt>
   <trkpt lat="53.0121160" lon="-6.4732210">
    <ele>638.0</ele>
    <time>2025-07-19T11:02:43Z</time>
   </trkpt>
   <trkpt lat="53.0121040" lon="-6.4733010">
    <ele>638.6</ele>
    <time>2025-07-19T11:02:48Z</time>
   </trkpt>
   <trkpt lat="53.0121040" lon="-6.4733770">
    <ele>639.3</ele>
    <time>2025-07-19T11:02:53Z</time>
   </trkpt>
   <trkpt lat="53.0120910" lon="-6.4734530">
    <ele>640.0</ele>
    <time>2025-07-19T11:02:59Z</time>
   </trkpt>
   <trkpt lat="53.0120890" lon="-6.4735360">
    <ele>640.7</ele>
    <time>2025-07-19T11:03:05Z</time>
   </trkpt>
   <trkpt lat="53.0120670" lon="-6.4736120">
    <ele>641.3</ele>
    <time>2025-07-19T11:03:10Z</time>
   </trkpt>
   <trkpt lat="53.0120500" lon="-6.4736840">
    <ele>642.0</ele>
    <time>2025-07-19T11:03:18Z</time>
   </trkpt>
   <trkpt lat="53.0120730" lon="-6.4737520">
    <ele>642.6</ele>
    <time>2025-07-19T11:03:23Z</time>
   </trkpt>
   <trkpt lat="53.0120910" lon="-6.4738260">
    <ele>643.4</ele>
    <time>2025-07-19T11:03:29Z</time>
   </trkpt>
   <trkpt lat="53.0121180" lon="-6.4738890">
    <ele>644.2</ele>
    <time>2025-07-19T11:03:35Z</time>
   </trkpt>
   <trkpt lat="53.0121470" lon="-6.4739460">
    <ele>645.0</ele>
    <time>2025-07-19T11:03:41Z</time>
   </trkpt>
   <trkpt lat="53.0121740" lon="-6.4740170">
    <ele>645.8</ele>
    <time>2025-07-19T11:03:49Z</time>
   </trkpt>
   <trkpt lat="53.0121980" lon="-6.4740860">
    <ele>646.6</ele>
    <time>2025-07-19T11:03:57Z</time>
   </trkpt>
   <trkpt lat="53.0122230" lon="-6.4741550">
    <ele>647.3</ele>
    <time>2025-07-19T11:04:03Z</time>
   </trkpt>
   <trkpt lat="53.0122500" lon="-6.4742270">
    <ele>648.0</ele>
    <time>2025-07-19T11:04:09Z</time>
   </trkpt>
   <trkpt lat="53.0122680" lon="-6.4743070">
    <ele>648.9</ele>
    <time>2025-07-19T11:04:16Z</time>
   </trkpt>
   <trkpt lat="53.0122930" lon="-6.4743780">
    <ele>649.8</ele>
    <time>2025-07-19T11:04:23Z</time>
   </trkpt>
   <trkpt lat="53.0123070" lon="-6.4744520">
    <ele>650.5</ele>
    <time>2025-07-19T11:04:29Z</time>
   </trkpt>
   <trkpt lat="53.0123340" lon="-6.4745140">
    <ele>651.3</ele>
    <time>2025-07-19T11:04:36Z</time>
   </trkpt>
   <trkpt lat="53.0123500" lon="-6.4745850">
    <ele>652.1</ele>
    <time>2025-07-19T11:04:41Z</time>
   </trkpt>
   <trkpt lat="53.0123620" lon="-6.4746620">
    <ele>652.8</ele>
    <time>2025-07-19T11:04:47Z</time>
   </trkpt>
   <trkpt lat="53.0123990" lon="-6.4747170">
    <ele>653.7</ele>
    <time>2025-07-19T11:04:53Z</time>
   </trkpt>
   <trkpt lat="53.0124190" lon="-6.4747880">
    <ele>654.5</ele>
    <time>2025-07-19T11:04:59Z</time>
   </trkpt>
   <trkpt lat="53.0124330" lon="-6.4748610">
    <ele>655.3</ele>
    <time>2025-07-19T11:05:05Z</time>
   </trkpt>
   <trkpt lat="53.0124530" lon="-6.4749350">
    <ele>656.2</ele>
    <time>2025-07-19T11:05:12Z</time>
   </trkpt>
   <trkpt lat="53.0124360" lon="-6.4750180">
    <ele>656.9</ele>
    <time>2025-07-19T11:05:17Z</time>
   </trkpt>
   <trkpt lat="53.0124630" lon="-6.4750790">
    <ele>657.7</ele>
    <time>2025-07-19T11:05:24Z</time>
   </trkpt>
   <trkpt lat="53.0124790" lon="-6.4751540">
    <ele>658.4</ele>
    <time>2025-07-19T11:05:30Z</time>
   </trkpt>
   <trkpt lat="53.0124810" lon="-6.4752290">
    <ele>659.0</ele>
    <time>2025-07-19T11:05:35Z</time>
   </trkpt>
   <trkpt lat="53.0124810" lon="-6.4753040">
    <ele>659.8</ele>
    <time>2025-07-19T11:05:41Z</time>
   </trkpt>
   <trkpt lat="53.0125130" lon="-6.4753710">
    <ele>660.5</ele>
    <time>2025-07-19T11:05:47Z</time>
   </trkpt>
   <trkpt lat="53.0125170" lon="-6.4754470">
    <ele>661.2</ele>
    <time>2025-07-19T11:05:53Z</time>
   </trkpt>
   <trkpt lat="53.0125300" lon="-6.4755230">
    <ele>662.0</ele>
    <time>2025-07-19T11:06:00Z</time>
   </trkpt>
   <trkpt lat="53.0125290" lon="-6.4756110">
    <ele>662.7</ele>
    <time>2025-07-19T11:06:05Z</time>
   </trkpt>
   <trkpt lat="53.0125310" lon="-6.4757120">
    <ele>663.4</ele>
    <time>2025-07-19T11:06:10Z</time>
   </trkpt>
   <trkpt lat="53.0125280" lon="-6.4757950">
    <ele>664.1</ele>
    <time>2025-07-19T11:06:16Z</time>
   </trkpt>
   <trkpt lat="53.0125460" lon="-6.4758660">
    <ele>664.8</ele>
    <time>2025-07-19T11:06:22Z</time>
   </trkpt>
   <trkpt lat="53.0125800" lon="-6.4759210">
    <ele>665.4</ele>
    <time>2025-07-19T11:06:28Z</time>
   </trkpt>
   <trkpt lat="53.0126100" lon="-6.4759920">
    <ele>666.1</ele>
    <time>2025-07-19T11:06:33Z</time>
   </trkpt>
   <trkpt lat="53.0126490" lon="-6.4760460">
    <ele>666.8</ele>
    <time>2025-07-19T11:06:38Z</time>
   </trkpt>
   <trkpt lat="53.0126800" lon="-6.4761060">
    <ele>667.5</ele>
    <time>2025-07-19T11:06:45Z</time>
   </trkpt>
   <trkpt lat="53.0126820" lon="-6.4761910">
    <ele>668.0</ele>
    <time>2025-07-19T11:06:50Z</time>
   </trkpt>
   <trkpt lat="53.0126700" lon="-6.4762630">
    <ele>668.9</ele>
    <time>2025-07-19T11:07:03Z</time>
   </trkpt>
   <trkpt lat="53.0126890" lon="-6.4763390">
    <ele>669.5</ele>
    <time>2025-07-19T11:07:22Z</time>
   </trkpt>
   <trkpt lat="53.0126840" lon="-6.4764590">
    <ele>669.9</ele>
    <time>2025-07-19T11:07:28Z</time>
   </trkpt>
   <trkpt lat="53.0126980" lon="-6.4765460">
    <ele>670.5</ele>
    <time>2025-07-19T11:07:33Z</time>
   </trkpt>
   <trkpt lat="53.0127040" lon="-6.4766300">
    <ele>671.0</ele>
    <time>2025-07-19T11:07:39Z</time>
   </trkpt>
   <trkpt lat="53.0126840" lon="-6.4767200">
    <ele>671.6</ele>
    <time>2025-07-19T11:07:44Z</time>
   </trkpt>
   <trkpt lat="53.0126660" lon="-6.4767920">
    <ele>672.1</ele>
    <time>2025-07-19T11:07:50Z</time>
   </trkpt>
   <trkpt lat="53.0126590" lon="-6.4768710">
    <ele>672.5</ele>
    <time>2025-07-19T11:07:55Z</time>
   </trkpt>
   <trkpt lat="53.0126620" lon="-6.4769510">
    <ele>673.0</ele>
    <time>2025-07-19T11:08:00Z</time>
   </trkpt>
   <trkpt lat="53.0126620" lon="-6.4770400">
    <ele>673.5</ele>
    <time>2025-07-19T11:08:06Z</time>
   </trkpt>
   <trkpt lat="53.0126650" lon="-6.4771180">
    <ele>674.1</ele>
    <time>2025-07-19T11:08:11Z</time>
   </trkpt>
   <trkpt lat="53.0126870" lon="-6.4771990">
    <ele>674.7</ele>
    <time>2025-07-19T11:08:17Z</time>
   </trkpt>
   <trkpt lat="53.0126880" lon="-6.4772760">
    <ele>675.2</ele>
    <time>2025-07-19T11:08:22Z</time>
   </trkpt>
   <trkpt lat="53.0126560" lon="-6.4773830">
    <ele>675.8</ele>
    <time>2025-07-19T11:08:27Z</time>
   </trkpt>
   <trkpt lat="53.0126450" lon="-6.4774790">
    <ele>676.4</ele>
    <time>2025-07-19T11:08:33Z</time>
   </trkpt>
   <trkpt lat="53.0126210" lon="-6.4775600">
    <ele>676.9</ele>
    <time>2025-07-19T11:08:38Z</time>
   </trkpt>
   <trkpt lat="53.0125810" lon="-6.4775990">
    <ele>677.4</ele>
    <time>2025-07-19T11:08:43Z</time>
   </trkpt>
   <trkpt lat="53.0125410" lon="-6.4776810">
    <ele>677.8</ele>
    <time>2025-07-19T11:08:49Z</time>
   </trkpt>
   <trkpt lat="53.0125170" lon="-6.4777490">
    <ele>678.3</ele>
    <time>2025-07-19T11:08:54Z</time>
   </trkpt>
   <trkpt lat="53.0124850" lon="-6.4778060">
    <ele>678.8</ele>
    <time>2025-07-19T11:08:59Z</time>
   </trkpt>
   <trkpt lat="53.0124570" lon="-6.4778700">
    <ele>679.3</ele>
    <time>2025-07-19T11:09:05Z</time>
   </trkpt>
   <trkpt lat="53.0124310" lon="-6.4779410">
    <ele>679.8</ele>
    <time>2025-07-19T11:09:10Z</time>
   </trkpt>
   <trkpt lat="53.0124000" lon="-6.4780020">
    <ele>680.3</ele>
    <time>2025-07-19T11:09:16Z</time>
   </trkpt>
   <trkpt lat="53.0123760" lon="-6.4780700">
    <ele>680.9</ele>
    <time>2025-07-19T11:09:22Z</time>
   </trkpt>
   <trkpt lat="53.0123490" lon="-6.4781460">
    <ele>681.4</ele>
    <time>2025-07-19T11:09:28Z</time>
   </trkpt>
   <trkpt lat="53.0123270" lon="-6.4782140">
    <ele>682.0</ele>
    <time>2025-07-19T11:09:34Z</time>
   </trkpt>
   <trkpt lat="53.0122720" lon="-6.4782810">
    <ele>682.5</ele>
    <time>2025-07-19T11:09:40Z</time>
   </trkpt>
   <trkpt lat="53.0122470" lon="-6.4783460">
    <ele>683.0</ele>
    <time>2025-07-19T11:09:46Z</time>
   </trkpt>
   <trkpt lat="53.0122060" lon="-6.4784180">
    <ele>683.5</ele>
    <time>2025-07-19T11:09:51Z</time>
   </trkpt>
   <trkpt lat="53.0121760" lon="-6.4784820">
    <ele>684.0</ele>
    <time>2025-07-19T11:09:57Z</time>
   </trkpt>
   <trkpt lat="53.0121520" lon="-6.4785560">
    <ele>684.6</ele>
    <time>2025-07-19T11:10:03Z</time>
   </trkpt>
   <trkpt lat="53.0121290" lon="-6.4786340">
    <ele>685.1</ele>
    <time>2025-07-19T11:10:08Z</time>
   </trkpt>
   <trkpt lat="53.0121040" lon="-6.4787090">
    <ele>685.7</ele>
    <time>2025-07-19T11:10:14Z</time>
   </trkpt>
   <trkpt lat="53.0120740" lon="-6.4787790">
    <ele>686.3</ele>
    <time>2025-07-19T11:10:19Z</time>
   </trkpt>
   <trkpt lat="53.0120490" lon="-6.4788520">
    <ele>686.8</ele>
    <time>2025-07-19T11:10:25Z</time>
   </trkpt>
   <trkpt lat="53.0120230" lon="-6.4789180">
    <ele>687.4</ele>
    <time>2025-07-19T11:10:31Z</time>
   </trkpt>
   <trkpt lat="53.0119860" lon="-6.4789850">
    <ele>688.0</ele>
    <time>2025-07-19T11:10:36Z</time>
   </trkpt>
   <trkpt lat="53.0119620" lon="-6.4790650">
    <ele>688.5</ele>
    <time>2025-07-19T11:10:42Z</time>
   </trkpt>
   <trkpt lat="53.0119350" lon="-6.4791270">
    <ele>689.1</ele>
    <time>2025-07-19T11:10:47Z</time>
   </trkpt>
   <trkpt lat="53.0119020" lon="-6.4791830">
    <ele>689.5</ele>
    <time>2025-07-19T11:10:52Z</time>
   </trkpt>
   <trkpt lat="53.0118710" lon="-6.4792400">
    <ele>690.0</ele>
    <time>2025-07-19T11:10:57Z</time>
   </trkpt>
   <trkpt lat="53.0118350" lon="-6.4792940">
    <ele>690.5</ele>
    <time>2025-07-19T11:11:03Z</time>
   </trkpt>
   <trkpt lat="53.0118240" lon="-6.4793670">
    <ele>690.9</ele>
    <time>2025-07-19T11:11:09Z</time>
   </trkpt>
   <trkpt lat="53.0117830" lon="-6.4794230">
    <ele>691.3</ele>
    <time>2025-07-19T11:11:14Z</time>
   </trkpt>
   <trkpt lat="53.0117530" lon="-6.4795000">
    <ele>691.7</ele>
    <time>2025-07-19T11:11:20Z</time>
   </trkpt>
   <trkpt lat="53.0117210" lon="-6.4795670">
    <ele>692.1</ele>
    <time>2025-07-19T11:11:31Z</time>
   </trkpt>
   <trkpt lat="53.0116900" lon="-6.4796500">
    <ele>692.5</ele>
    <time>2025-07-19T11:11:36Z</time>
   </trkpt>
   <trkpt lat="53.0116580" lon="-6.4797410">
    <ele>692.7</ele>
    <time>2025-07-19T11:11:41Z</time>
   </trkpt>
   <trkpt lat="53.0116310" lon="-6.4798190">
    <ele>693.0</ele>
    <time>2025-07-19T11:11:47Z</time>
   </trkpt>
   <trkpt lat="53.0116050" lon="-6.4798840">
    <ele>693.3</ele>
    <time>2025-07-19T11:11:59Z</time>
   </trkpt>
   <trkpt lat="53.0115610" lon="-6.4799060">
    <ele>693.8</ele>
    <time>2025-07-19T11:13:25Z</time>
   </trkpt>
   <trkpt lat="53.0115250" lon="-6.4799540">
    <ele>694.1</ele>
    <time>2025-07-19T11:13:42Z</time>
   </trkpt>
   <trkpt lat="53.0115750" lon="-6.4799360">
    <ele>693.9</ele>
    <time>2025-07-19T11:43:19Z</time>
   </trkpt>
   <trkpt lat="53.0116230" lon="-6.4799470">
    <ele>693.5</ele>
    <time>2025-07-19T11:43:46Z</time>
   </trkpt>
   <trkpt lat="53.0116560" lon="-6.4800150">
    <ele>693.3</ele>
    <time>2025-07-19T11:43:51Z</time>
   </trkpt>
   <trkpt lat="53.0116970" lon="-6.4799840">
    <ele>692.9</ele>
    <time>2025-07-19T11:44:04Z</time>
   </trkpt>
   <trkpt lat="53.0117520" lon="-6.4799710">
    <ele>692.7</ele>
    <time>2025-07-19T11:44:12Z</time>
   </trkpt>
   <trkpt lat="53.0118280" lon="-6.4799720">
    <ele>692.3</ele>
    <time>2025-07-19T11:44:18Z</time>
   </trkpt>
   <trkpt lat="53.0118700" lon="-6.4800090">
    <ele>691.9</ele>
    <time>2025-07-19T11:44:24Z</time>
   </trkpt>
   <trkpt lat="53.0119290" lon="-6.4800760">
    <ele>691.5</ele>
    <time>2025-07-19T11:44:30Z</time>
   </trkpt>
   <trkpt lat="53.0119790" lon="-6.4800770">
    <ele>691.0</ele>
    <time>2025-07-19T11:44:48Z</time>
   </trkpt>
   <trkpt lat="53.0120550" lon="-6.4800870">
    <ele>690.7</ele>
    <time>2025-07-19T11:44:54Z</time>
   </trkpt>
   <trkpt lat="53.0121170" lon="-6.4800800">
    <ele>690.3</ele>
    <time>2025-07-19T11:44:59Z</time>
   </trkpt>
   <trkpt lat="53.0121640" lon="-6.4800880">
    <ele>690.0</ele>
    <time>2025-07-19T11:45:05Z</time>
   </trkpt>
   <trkpt lat="53.0122290" lon="-6.4800920">
    <ele>689.7</ele>
    <time>2025-07-19T11:45:10Z</time>
   </trkpt>
   <trkpt lat="53.0122720" lon="-6.4801380">
    <ele>689.4</ele>
    <time>2025-07-19T11:45:15Z</time>
   </trkpt>
   <trkpt lat="53.0123230" lon="-6.4801640">
    <ele>689.1</ele>
    <time>2025-07-19T11:45:22Z</time>
   </trkpt>
   <trkpt lat="53.0123800" lon="-6.4801510">
    <ele>688.8</ele>
    <time>2025-07-19T11:45:27Z</time>
   </trkpt>
   <trkpt lat="53.0124380" lon="-6.4801600">
    <ele>688.6</ele>
    <time>2025-07-19T11:45:32Z</time>
   </trkpt>
   <trkpt lat="53.0124810" lon="-6.4802060">
    <ele>688.3</ele>
    <time>2025-07-19T11:45:38Z</time>
   </trkpt>
   <trkpt lat="53.0125220" lon="-6.4802440">
    <ele>688.1</ele>
    <time>2025-07-19T11:45:44Z</time>
   </trkpt>
   <trkpt lat="53.0125560" lon="-6.4803130">
    <ele>687.9</ele>
    <time>2025-07-19T11:45:49Z</time>
   </trkpt>
   <trkpt lat="53.0126220" lon="-6.4803710">
    <ele>687.6</ele>
    <time>2025-07-19T11:45:55Z</time>
   </trkpt>
   <trkpt lat="53.0126700" lon="-6.4803600">
    <ele>687.4</ele>
    <time>2025-07-19T11:46:00Z</time>
   </trkpt>
   <trkpt lat="53.0127180" lon="-6.4803120">
    <ele>687.2</ele>
    <time>2025-07-19T11:46:05Z</time>
   </trkpt>
   <trkpt lat="53.0127690" lon="-6.4802730">
    <ele>687.1</ele>
    <time>2025-07-19T11:46:10Z</time>
   </trkpt>
   <trkpt lat="53.0128130" lon="-6.4802270">
    <ele>686.9</ele>
    <time>2025-07-19T11:46:17Z</time>
   </trkpt>
   <trkpt lat="53.0128550" lon="-6.4801730">
    <ele>686.8</ele>
    <time>2025-07-19T11:46:22Z</time>
   </trkpt>
   <trkpt lat="53.0128990" lon="-6.4801390">
    <ele>686.7</ele>
    <time>2025-07-19T11:46:27Z</time>
   </trkpt>
   <trkpt lat="53.0129440" lon="-6.4801020">
    <ele>686.6</ele>
    <time>2025-07-19T11:46:34Z</time>
   </trkpt>
   <trkpt lat="53.0130000" lon="-6.4801000">
    <ele>686.5</ele>
    <time>2025-07-19T11:46:39Z</time>
   </trkpt>
   <trkpt lat="53.0130450" lon="-6.4801060">
    <ele>686.3</ele>
    <time>2025-07-19T11:47:39Z</time>
   </trkpt>
   <trkpt lat="53.0131340" lon="-6.4801390">
    <ele>686.2</ele>
    <time>2025-07-19T11:47:45Z</time>
   </trkpt>
   <trkpt lat="53.0131810" lon="-6.4801600">
    <ele>686.2</ele>
    <time>2025-07-19T11:47:50Z</time>
   </trkpt>
   <trkpt lat="53.0132380" lon="-6.4801370">
    <ele>686.1</ele>
    <time>2025-07-19T11:47:56Z</time>
   </trkpt>
   <trkpt lat="53.0132970" lon="-6.4801700">
    <ele>686.0</ele>
    <time>2025-07-19T11:48:01Z</time>
   </trkpt>
   <trkpt lat="53.0133710" lon="-6.4801950">
    <ele>686.0</ele>
    <time>2025-07-19T11:48:07Z</time>
   </trkpt>
   <trkpt lat="53.0134240" lon="-6.4802280">
    <ele>686.0</ele>
    <time>2025-07-19T11:48:12Z</time>
   </trkpt>
   <trkpt lat="53.0134710" lon="-6.4802780">
    <ele>685.9</ele>
    <time>2025-07-19T11:48:18Z</time>
   </trkpt>
   <trkpt lat="53.0135320" lon="-6.4803090">
    <ele>685.9</ele>
    <time>2025-07-19T11:48:23Z</time>
   </trkpt>
   <trkpt lat="53.0135920" lon="-6.4803520">
    <ele>685.9</ele>
    <time>2025-07-19T11:48:28Z</time>
   </trkpt>
   <trkpt lat="53.0136630" lon="-6.4803520">
    <ele>685.9</ele>
    <time>2025-07-19T11:48:33Z</time>
   </trkpt>
   <trkpt lat="53.0137250" lon="-6.4803660">
    <ele>686.0</ele>
    <time>2025-07-19T11:48:39Z</time>
   </trkpt>
   <trkpt lat="53.0137910" lon="-6.4804260">
    <ele>686.0</ele>
    <time>2025-07-19T11:48:44Z</time>
   </trkpt>
   <trkpt lat="53.0138390" lon="-6.4804650">
    <ele>686.1</ele>
    <time>2025-07-19T11:48:50Z</time>
   </trkpt>
   <trkpt lat="53.0138940" lon="-6.4804810">
    <ele>686.1</ele>
    <time>2025-07-19T11:48:55Z</time>
   </trkpt>
   <trkpt lat="53.0139440" lon="-6.4805020">
    <ele>686.2</ele>
    <time>2025-07-19T11:49:00Z</time>
   </trkpt>
   <trkpt lat="53.0139660" lon="-6.4805720">
    <ele>686.2</ele>
    <time>2025-07-19T11:49:10Z</time>
   </trkpt>
   <trkpt lat="53.0140330" lon="-6.4805960">
    <ele>686.2</ele>
    <time>2025-07-19T11:49:15Z</time>
   </trkpt>
   <trkpt lat="53.0140730" lon="-6.4805630">
    <ele>686.4</ele>
    <time>2025-07-19T11:49:56Z</time>
   </trkpt>
   <trkpt lat="53.0141040" lon="-6.4805040">
    <ele>686.5</ele>
    <time>2025-07-19T11:50:02Z</time>
   </trkpt>
   <trkpt lat="53.0141320" lon="-6.4804230">
    <ele>686.7</ele>
    <time>2025-07-19T11:50:07Z</time>
   </trkpt>
   <trkpt lat="53.0141680" lon="-6.4803660">
    <ele>686.9</ele>
    <time>2025-07-19T11:50:12Z</time>
   </trkpt>
   <trkpt lat="53.0142130" lon="-6.4803560">
    <ele>687.3</ele>
    <time>2025-07-19T11:50:32Z</time>
   </trkpt>
   <trkpt lat="53.0142600" lon="-6.4803610">
    <ele>687.5</ele>
    <time>2025-07-19T11:50:39Z</time>
   </trkpt>
   <trkpt lat="53.0142990" lon="-6.4803130">
    <ele>687.7</ele>
    <time>2025-07-19T11:50:45Z</time>
   </trkpt>
   <trkpt lat="53.0143550" lon="-6.4802590">
    <ele>688.0</ele>
    <time>2025-07-19T11:50:50Z</time>
   </trkpt>
   <trkpt lat="53.0144140" lon="-6.4802500">
    <ele>688.3</ele>
    <time>2025-07-19T11:50:56Z</time>
   </trkpt>
   <trkpt lat="53.0144620" lon="-6.4802320">
    <ele>688.6</ele>
    <time>2025-07-19T11:51:01Z</time>
   </trkpt>
   <trkpt lat="53.0144850" lon="-6.4801540">
    <ele>689.2</ele>
    <time>2025-07-19T11:51:20Z</time>
   </trkpt>
   <trkpt lat="53.0145280" lon="-6.4801170">
    <ele>689.5</ele>
    <time>2025-07-19T11:51:34Z</time>
   </trkpt>
   <trkpt lat="53.0145690" lon="-6.4801520">
    <ele>689.7</ele>
    <time>2025-07-19T11:51:41Z</time>
   </trkpt>
   <trkpt lat="53.0146160" lon="-6.4801820">
    <ele>689.9</ele>
    <time>2025-07-19T11:51:47Z</time>
   </trkpt>
   <trkpt lat="53.0146590" lon="-6.4801570">
    <ele>690.2</ele>
    <time>2025-07-19T11:52:00Z</time>
   </trkpt>
   <trkpt lat="53.0147080" lon="-6.4801850">
    <ele>690.5</ele>
    <time>2025-07-19T11:52:09Z</time>
   </trkpt>
   <trkpt lat="53.0147510" lon="-6.4802680">
    <ele>690.6</ele>
    <time>2025-07-19T11:52:15Z</time>
   </trkpt>
   <trkpt lat="53.0147940" lon="-6.4803110">
    <ele>690.7</ele>
    <time>2025-07-19T11:52:20Z</time>
   </trkpt>
   <trkpt lat="53.0148390" lon="-6.4803920">
    <ele>690.8</ele>
    <time>2025-07-19T11:52:26Z</time>
   </trkpt>
   <trkpt lat="53.0148820" lon="-6.4804380">
    <ele>690.8</ele>
    <time>2025-07-19T11:52:31Z</time>
   </trkpt>
   <trkpt lat="53.0149190" lon="-6.4804870">
    <ele>690.9</ele>
    <time>2025-07-19T11:52:37Z</time>
   </trkpt>
   <trkpt lat="53.0149620" lon="-6.4805130">
    <ele>691.0</ele>
    <time>2025-07-19T11:52:43Z</time>
   </trkpt>
   <trkpt lat="53.0149740" lon="-6.4805850">
    <ele>691.0</ele>
    <time>2025-07-19T11:52:56Z</time>
   </trkpt>
   <trkpt lat="53.0149680" lon="-6.4806610">
    <ele>690.6</ele>
    <time>2025-07-19T11:53:19Z</time>
   </trkpt>
   <trkpt lat="53.0149830" lon="-6.4807820">
    <ele>690.4</ele>
    <time>2025-07-19T11:53:25Z</time>
   </trkpt>
   <trkpt lat="53.0149580" lon="-6.4808820">
    <ele>690.1</ele>
    <time>2025-07-19T11:53:31Z</time>
   </trkpt>
   <trkpt lat="53.0150010" lon="-6.4809190">
    <ele>689.7</ele>
    <time>2025-07-19T11:53:39Z</time>
   </trkpt>
   <trkpt lat="53.0150400" lon="-6.4809590">
    <ele>689.7</ele>
    <time>2025-07-19T11:53:45Z</time>
   </trkpt>
   <trkpt lat="53.0150850" lon="-6.4809740">
    <ele>689.8</ele>
    <time>2025-07-19T11:53:55Z</time>
   </trkpt>
   <trkpt lat="53.0151320" lon="-6.4810260">
    <ele>689.9</ele>
    <time>2025-07-19T11:54:00Z</time>
   </trkpt>
   <trkpt lat="53.0151820" lon="-6.4810620">
    <ele>690.1</ele>
    <time>2025-07-19T11:54:05Z</time>
   </trkpt>
   <trkpt lat="53.0152280" lon="-6.4810970">
    <ele>690.3</ele>
    <time>2025-07-19T11:54:10Z</time>
   </trkpt>
   <trkpt lat="53.0152730" lon="-6.4811260">
    <ele>690.5</ele>
    <time>2025-07-19T11:54:16Z</time>
   </trkpt>
   <trkpt lat="53.0153170" lon="-6.4811420">
    <ele>690.9</ele>
    <time>2025-07-19T11:54:30Z</time>
   </trkpt>
   <trkpt lat="53.0153620" lon="-6.4811620">
    <ele>691.1</ele>
    <time>2025-07-19T11:54:39Z</time>
   </trkpt>
   <trkpt lat="53.0154000" lon="-6.4812270">
    <ele>691.3</ele>
    <time>2025-07-19T11:54:50Z</time>
   </trkpt>
   <trkpt lat="53.0154440" lon="-6.4812480">
    <ele>691.4</ele>
    <time>2025-07-19T11:55:18Z</time>
   </trkpt>
   <trkpt lat="53.0154950" lon="-6.4812310">
    <ele>691.8</ele>
    <time>2025-07-19T11:55:25Z</time>
   </trkpt>
   <trkpt lat="53.0155440" lon="-6.4811930">
    <ele>692.2</ele>
    <time>2025-07-19T11:55:30Z</time>
   </trkpt>
   <trkpt lat="53.0155910" lon="-6.4811610">
    <ele>692.7</ele>
    <time>2025-07-19T11:55:36Z</time>
   </trkpt>
   <trkpt lat="53.0156380" lon="-6.4811330">
    <ele>693.2</ele>
    <time>2025-07-19T11:55:42Z</time>
   </trkpt>
   <trkpt lat="53.0156860" lon="-6.4811290">
    <ele>693.7</ele>
    <time>2025-07-19T11:55:48Z</time>
   </trkpt>
   <trkpt lat="53.0157320" lon="-6.4811540">
    <ele>694.0</ele>
    <time>2025-07-19T11:55:53Z</time>
   </trkpt>
   <trkpt lat="53.0157930" lon="-6.4811510">
    <ele>694.4</ele>
    <time>2025-07-19T11:55:59Z</time>
   </trkpt>
   <trkpt lat="53.0158360" lon="-6.4811790">
    <ele>694.7</ele>
    <time>2025-07-19T11:56:04Z</time>
   </trkpt>
   <trkpt lat="53.0158790" lon="-6.4812210">
    <ele>694.9</ele>
    <time>2025-07-19T11:56:12Z</time>
   </trkpt>
   <trkpt lat="53.0159160" lon="-6.4812800">
    <ele>695.2</ele>
    <time>2025-07-19T11:56:28Z</time>
   </trkpt>
   <trkpt lat="53.0159790" lon="-6.4813650">
    <ele>695.3</ele>
    <time>2025-07-19T11:56:34Z</time>
   </trkpt>
   <trkpt lat="53.0160270" lon="-6.4813720">
    <ele>695.3</ele>
    <time>2025-07-19T11:56:49Z</time>
   </trkpt>
   <trkpt lat="53.0160650" lon="-6.4813300">
    <ele>695.6</ele>
    <time>2025-07-19T11:56:54Z</time>
   </trkpt>
   <trkpt lat="53.0161120" lon="-6.4813730">
    <ele>696.1</ele>
    <time>2025-07-19T11:58:23Z</time>
   </trkpt>
   <trkpt lat="53.0161930" lon="-6.4813840">
    <ele>696.3</ele>
    <time>2025-07-19T11:58:28Z</time>
   </trkpt>
   <trkpt lat="53.0162450" lon="-6.4813790">
    <ele>696.6</ele>
    <time>2025-07-19T11:58:34Z</time>
   </trkpt>
   <trkpt lat="53.0162810" lon="-6.4814450">
    <ele>696.8</ele>
    <time>2025-07-19T11:58:40Z</time>
   </trkpt>
   <trkpt lat="53.0163370" lon="-6.4814780">
    <ele>697.0</ele>
    <time>2025-07-19T11:58:45Z</time>
   </trkpt>
   <trkpt lat="53.0163960" lon="-6.4814740">
    <ele>697.2</ele>
    <time>2025-07-19T11:58:51Z</time>
   </trkpt>
   <trkpt lat="53.0164560" lon="-6.4815270">
    <ele>697.4</ele>
    <time>2025-07-19T11:58:57Z</time>
   </trkpt>
   <trkpt lat="53.0165020" lon="-6.4815590">
    <ele>697.6</ele>
    <time>2025-07-19T11:59:02Z</time>
   </trkpt>
   <trkpt lat="53.0165560" lon="-6.4815890">
    <ele>697.7</ele>
    <time>2025-07-19T11:59:08Z</time>
   </trkpt>
   <trkpt lat="53.0165980" lon="-6.4816590">
    <ele>697.8</ele>
    <time>2025-07-19T11:59:13Z</time>
   </trkpt>
   <trkpt lat="53.0166540" lon="-6.4817050">
    <ele>697.8</ele>
    <time>2025-07-19T11:59:18Z</time>
   </trkpt>
   <trkpt lat="53.0167120" lon="-6.4817580">
    <ele>697.8</ele>
    <time>2025-07-19T11:59:24Z</time>
   </trkpt>
   <trkpt lat="53.0167760" lon="-6.4817530">
    <ele>697.9</ele>
    <time>2025-07-19T11:59:29Z</time>
   </trkpt>
   <trkpt lat="53.0168390" lon="-6.4817550">
    <ele>698.0</ele>
    <time>2025-07-19T11:59:35Z</time>
   </trkpt>
   <trkpt lat="53.0168420" lon="-6.4816690">
    <ele>698.3</ele>
    <time>2025-07-19T12:00:42Z</time>
   </trkpt>
   <trkpt lat="53.0168400" lon="-6.4815510">
    <ele>698.5</ele>
    <time>2025-07-19T12:00:47Z</time>
   </trkpt>
   <trkpt lat="53.0168300" lon="-6.4814200">
    <ele>698.7</ele>
    <time>2025-07-19T12:00:53Z</time>
   </trkpt>
   <trkpt lat="53.0168300" lon="-6.4813120">
    <ele>698.9</ele>
    <time>2025-07-19T12:00:58Z</time>
   </trkpt>
   <trkpt lat="53.0168580" lon="-6.4812100">
    <ele>699.1</ele>
    <time>2025-07-19T12:01:04Z</time>
   </trkpt>
   <trkpt lat="53.0168220" lon="-6.4811530">
    <ele>699.1</ele>
    <time>2025-07-19T12:01:09Z</time>
   </trkpt>
   <trkpt lat="53.0167450" lon="-6.4811170">
    <ele>699.2</ele>
    <time>2025-07-19T12:01:14Z</time>
   </trkpt>
   <trkpt lat="53.0167050" lon="-6.4810740">
    <ele>699.1</ele>
    <time>2025-07-19T12:01:20Z</time>
   </trkpt>
   <trkpt lat="53.0167000" lon="-6.4809940">
    <ele>699.1</ele>
    <time>2025-07-19T12:01:29Z</time>
   </trkpt>
   <trkpt lat="53.0166580" lon="-6.4809510">
    <ele>699.1</ele>
    <time>2025-07-19T12:01:36Z</time>
   </trkpt>
   <trkpt lat="53.0165950" lon="-6.4809100">
    <ele>699.0</ele>
    <time>2025-07-19T12:01:41Z</time>
   </trkpt>
   <trkpt lat="53.0165570" lon="-6.4808420">
    <ele>699.0</ele>
    <time>2025-07-19T12:01:47Z</time>
   </trkpt>
   <trkpt lat="53.0165200" lon="-6.4807970">
    <ele>698.9</ele>
    <time>2025-07-19T12:01:52Z</time>
   </trkpt>
   <trkpt lat="53.0165010" lon="-6.4807140">
    <ele>698.8</ele>
    <time>2025-07-19T12:01:57Z</time>
   </trkpt>
   <trkpt lat="53.0165170" lon="-6.4806230">
    <ele>698.7</ele>
    <time>2025-07-19T12:02:03Z</time>
   </trkpt>
   <trkpt lat="53.0164670" lon="-6.4806540">
    <ele>698.6</ele>
    <time>2025-07-19T12:02:48Z</time>
   </trkpt>
   <trkpt lat="53.0164120" lon="-6.4806180">
    <ele>698.5</ele>
    <time>2025-07-19T12:02:54Z</time>
   </trkpt>
   <trkpt lat="53.0163660" lon="-6.4806150">
    <ele>698.5</ele>
    <time>2025-07-19T12:03:03Z</time>
   </trkpt>
   <trkpt lat="53.0163390" lon="-6.4805470">
    <ele>698.3</ele>
    <time>2025-07-19T12:03:10Z</time>
   </trkpt>
   <trkpt lat="53.0163220" lon="-6.4804560">
    <ele>698.2</ele>
    <time>2025-07-19T12:03:15Z</time>
   </trkpt>
   <trkpt lat="53.0163380" lon="-6.4803750">
    <ele>698.1</ele>
    <time>2025-07-19T12:03:20Z</time>
   </trkpt>
   <trkpt lat="53.0163620" lon="-6.4803120">
    <ele>698.0</ele>
    <time>2025-07-19T12:04:53Z</time>
   </trkpt>
   <trkpt lat="53.0163740" lon="-6.4801690">
    <ele>697.8</ele>
    <time>2025-07-19T12:04:59Z</time>
   </trkpt>
   <trkpt lat="53.0163810" lon="-6.4800840">
    <ele>697.7</ele>
    <time>2025-07-19T12:05:04Z</time>
   </trkpt>
   <trkpt lat="53.0163890" lon="-6.4799850">
    <ele>697.5</ele>
    <time>2025-07-19T12:05:09Z</time>
   </trkpt>
   <trkpt lat="53.0164100" lon="-6.4798900">
    <ele>697.4</ele>
    <time>2025-07-19T12:05:15Z</time>
   </trkpt>
   <trkpt lat="53.0164140" lon="-6.4798130">
    <ele>697.2</ele>
    <time>2025-07-19T12:05:26Z</time>
   </trkpt>
   <trkpt lat="53.0164120" lon="-6.4797270">
    <ele>697.0</ele>
    <time>2025-07-19T12:05:31Z</time>
   </trkpt>
   <trkpt lat="53.0164270" lon="-6.4796270">
    <ele>696.9</ele>
    <time>2025-07-19T12:05:37Z</time>
   </trkpt>
   <trkpt lat="53.0164250" lon="-6.4795390">
    <ele>696.7</ele>
    <time>2025-07-19T12:05:48Z</time>
   </trkpt>
   <trkpt lat="53.0164340" lon="-6.4794210">
    <ele>696.6</ele>
    <time>2025-07-19T12:05:54Z</time>
   </trkpt>
   <trkpt lat="53.0164420" lon="-6.4793470">
    <ele>696.4</ele>
    <time>2025-07-19T12:05:59Z</time>
   </trkpt>
   <trkpt lat="53.0164420" lon="-6.4792710">
    <ele>696.2</ele>
    <time>2025-07-19T12:06:04Z</time>
   </trkpt>
   <trkpt lat="53.0164390" lon="-6.4791770">
    <ele>696.0</ele>
    <time>2025-07-19T12:06:10Z</time>
   </trkpt>
   <trkpt lat="53.0164320" lon="-6.4790910">
    <ele>695.8</ele>
    <time>2025-07-19T12:06:15Z</time>
   </trkpt>
   <trkpt lat="53.0164430" lon="-6.4790030">
    <ele>695.6</ele>
    <time>2025-07-19T12:06:21Z</time>
   </trkpt>
   <trkpt lat="53.0164320" lon="-6.4789300">
    <ele>695.4</ele>
    <time>2025-07-19T12:06:26Z</time>
   </trkpt>
   <trkpt lat="53.0164310" lon="-6.4788420">
    <ele>695.2</ele>
    <time>2025-07-19T12:06:31Z</time>
   </trkpt>
   <trkpt lat="53.0164440" lon="-6.4787390">
    <ele>694.9</ele>
    <time>2025-07-19T12:06:36Z</time>
   </trkpt>
   <trkpt lat="53.0164490" lon="-6.4786370">
    <ele>694.5</ele>
    <time>2025-07-19T12:06:41Z</time>
   </trkpt>
   <trkpt lat="53.0164520" lon="-6.4785210">
    <ele>694.1</ele>
    <time>2025-07-19T12:06:47Z</time>
   </trkpt>
   <trkpt lat="53.0164580" lon="-6.4784400">
    <ele>693.8</ele>
    <time>2025-07-19T12:06:53Z</time>
   </trkpt>
   <trkpt lat="53.0164700" lon="-6.4783410">
    <ele>693.5</ele>
    <time>2025-07-19T12:06:58Z</time>
   </trkpt>
   <trkpt lat="53.0164760" lon="-6.4782600">
    <ele>693.2</ele>
    <time>2025-07-19T12:07:03Z</time>
   </trkpt>
   <trkpt lat="53.0164870" lon="-6.4781640">
    <ele>693.0</ele>
    <time>2025-07-19T12:07:08Z</time>
   </trkpt>
   <trkpt lat="53.0164860" lon="-6.4780710">
    <ele>692.7</ele>
    <time>2025-07-19T12:07:14Z</time>
   </trkpt>
   <trkpt lat="53.0164870" lon="-6.4779830">
    <ele>692.5</ele>
    <time>2025-07-19T12:07:19Z</time>
   </trkpt>
   <trkpt lat="53.0165010" lon="-6.4778830">
    <ele>692.2</ele>
    <time>2025-07-19T12:07:25Z</time>
   </trkpt>
   <trkpt lat="53.0165150" lon="-6.4777990">
    <ele>692.0</ele>
    <time>2025-07-19T12:07:30Z</time>
   </trkpt>
   <trkpt lat="53.0165010" lon="-6.4777140">
    <ele>691.7</ele>
    <time>2025-07-19T12:07:41Z</time>
   </trkpt>
   <trkpt lat="53.0164860" lon="-6.4776120">
    <ele>691.6</ele>
    <time>2025-07-19T12:07:46Z</time>
   </trkpt>
   <trkpt lat="53.0165120" lon="-6.4775460">
    <ele>691.4</ele>
    <time>2025-07-19T12:07:56Z</time>
   </trkpt>
   <trkpt lat="53.0164850" lon="-6.4774840">
    <ele>691.2</ele>
    <time>2025-07-19T12:08:26Z</time>
   </trkpt>
   <trkpt lat="53.0164790" lon="-6.4773970">
    <ele>691.2</ele>
    <time>2025-07-19T12:08:36Z</time>
   </trkpt>
   <trkpt lat="53.0165170" lon="-6.4773260">
    <ele>690.9</ele>
    <time>2025-07-19T12:08:41Z</time>
   </trkpt>
   <trkpt lat="53.0165110" lon="-6.4772430">
    <ele>690.7</ele>
    <time>2025-07-19T12:08:48Z</time>
   </trkpt>
   <trkpt lat="53.0165030" lon="-6.4771310">
    <ele>690.5</ele>
    <time>2025-07-19T12:08:53Z</time>
   </trkpt>
   <trkpt lat="53.0165120" lon="-6.4770340">
    <ele>690.3</ele>
    <time>2025-07-19T12:08:59Z</time>
   </trkpt>
   <trkpt lat="53.0164910" lon="-6.4769670">
    <ele>690.0</ele>
    <time>2025-07-19T12:09:09Z</time>
   </trkpt>
   <trkpt lat="53.0164890" lon="-6.4768870">
    <ele>689.9</ele>
    <time>2025-07-19T12:09:16Z</time>
   </trkpt>
   <trkpt lat="53.0164920" lon="-6.4768120">
    <ele>689.7</ele>
    <time>2025-07-19T12:09:26Z</time>
   </trkpt>
   <trkpt lat="53.0165030" lon="-6.4766960">
    <ele>689.6</ele>
    <time>2025-07-19T12:09:32Z</time>
   </trkpt>
   <trkpt lat="53.0165120" lon="-6.4766090">
    <ele>689.3</ele>
    <time>2025-07-19T12:09:38Z</time>
   </trkpt>
   <trkpt lat="53.0165170" lon="-6.4765290">
    <ele>689.2</ele>
    <time>2025-07-19T12:09:43Z</time>
   </trkpt>
   <trkpt lat="53.0164660" lon="-6.4764980">
    <ele>689.1</ele>
    <time>2025-07-19T12:10:03Z</time>
   </trkpt>
   <trkpt lat="53.0164350" lon="-6.4764260">
    <ele>689.4</ele>
    <time>2025-07-19T12:10:17Z</time>
   </trkpt>
   <trkpt lat="53.0163930" lon="-6.4763870">
    <ele>689.5</ele>
    <time>2025-07-19T12:10:22Z</time>
   </trkpt>
   <trkpt lat="53.0163810" lon="-6.4763140">
    <ele>689.7</ele>
    <time>2025-07-19T12:10:35Z</time>
   </trkpt>
   <trkpt lat="53.0163370" lon="-6.4762810">
    <ele>689.8</ele>
    <time>2025-07-19T12:10:49Z</time>
   </trkpt>
   <trkpt lat="53.0163030" lon="-6.4762200">
    <ele>690.0</ele>
    <time>2025-07-19T12:10:57Z</time>
   </trkpt>
   <trkpt lat="53.0162900" lon="-6.4761150">
    <ele>690.0</ele>
    <time>2025-07-19T12:11:02Z</time>
   </trkpt>
   <trkpt lat="53.0162860" lon="-6.4760070">
    <ele>690.0</ele>
    <time>2025-07-19T12:11:07Z</time>
   </trkpt>
   <trkpt lat="53.0162570" lon="-6.4759380">
    <ele>690.0</ele>
    <time>2025-07-19T12:11:13Z</time>
   </trkpt>
   <trkpt lat="53.0162120" lon="-6.4759180">
    <ele>690.0</ele>
    <time>2025-07-19T12:11:22Z</time>
   </trkpt>
   <trkpt lat="53.0161970" lon="-6.4758360">
    <ele>690.0</ele>
    <time>2025-07-19T12:11:40Z</time>
   </trkpt>
   <trkpt lat="53.0161970" lon="-6.4757430">
    <ele>690.0</ele>
    <time>2025-07-19T12:11:46Z</time>
   </trkpt>
   <trkpt lat="53.0162030" lon="-6.4756630">
    <ele>689.8</ele>
    <time>2025-07-19T12:11:52Z</time>
   </trkpt>
   <trkpt lat="53.0161900" lon="-6.4755770">
    <ele>689.7</ele>
    <time>2025-07-19T12:11:57Z</time>
   </trkpt>
   <trkpt lat="53.0161690" lon="-6.4754990">
    <ele>689.6</ele>
    <time>2025-07-19T12:12:02Z</time>
   </trkpt>
   <trkpt lat="53.0161590" lon="-6.4754140">
    <ele>689.5</ele>
    <time>2025-07-19T12:12:08Z</time>
   </trkpt>
   <trkpt lat="53.0161970" lon="-6.4753630">
    <ele>689.3</ele>
    <time>2025-07-19T12:12:13Z</time>
   </trkpt>
   <trkpt lat="53.0161810" lon="-6.4752880">
    <ele>689.2</ele>
    <time>2025-07-19T12:12:20Z</time>
   </trkpt>
   <trkpt lat="53.0162010" lon="-6.4752190">
    <ele>689.0</ele>
    <time>2025-07-19T12:12:26Z</time>
   </trkpt>
   <trkpt lat="53.0162520" lon="-6.4751790">
    <ele>688.7</ele>
    <time>2025-07-19T12:12:31Z</time>
   </trkpt>
   <trkpt lat="53.0163050" lon="-6.4751230">
    <ele>688.2</ele>
    <time>2025-07-19T12:12:37Z</time>
   </trkpt>
   <trkpt lat="53.0163280" lon="-6.4750590">
    <ele>687.7</ele>
    <time>2025-07-19T12:12:45Z</time>
   </trkpt>
   <trkpt lat="53.0163560" lon="-6.4749950">
    <ele>687.3</ele>
    <time>2025-07-19T12:12:51Z</time>
   </trkpt>
   <trkpt lat="53.0164090" lon="-6.4749450">
    <ele>686.8</ele>
    <time>2025-07-19T12:12:56Z</time>
   </trkpt>
   <trkpt lat="53.0164600" lon="-6.4749030">
    <ele>686.1</ele>
    <time>2025-07-19T12:13:01Z</time>
   </trkpt>
   <trkpt lat="53.0164810" lon="-6.4748360">
    <ele>685.5</ele>
    <time>2025-07-19T12:13:07Z</time>
   </trkpt>
   <trkpt lat="53.0164970" lon="-6.4747520">
    <ele>685.0</ele>
    <time>2025-07-19T12:13:12Z</time>
   </trkpt>
   <trkpt lat="53.0165230" lon="-6.4746870">
    <ele>684.2</ele>
    <time>2025-07-19T12:13:20Z</time>
   </trkpt>
   <trkpt lat="53.0165680" lon="-6.4746590">
    <ele>683.4</ele>
    <time>2025-07-19T12:13:31Z</time>
   </trkpt>
   <trkpt lat="53.0165900" lon="-6.4745890">
    <ele>682.8</ele>
    <time>2025-07-19T12:13:55Z</time>
   </trkpt>
   <trkpt lat="53.0166140" lon="-6.4745180">
    <ele>682.3</ele>
    <time>2025-07-19T12:14:00Z</time>
   </trkpt>
   <trkpt lat="53.0166090" lon="-6.4744380">
    <ele>681.6</ele>
    <time>2025-07-19T12:14:10Z</time>
   </trkpt>
   <trkpt lat="53.0166200" lon="-6.4743240">
    <ele>681.0</ele>
    <time>2025-07-19T12:14:15Z</time>
   </trkpt>
   <trkpt lat="53.0166370" lon="-6.4742500">
    <ele>679.7</ele>
    <time>2025-07-19T12:14:57Z</time>
   </trkpt>
   <trkpt lat="53.0166310" lon="-6.4741650">
    <ele>678.8</ele>
    <time>2025-07-19T12:15:11Z</time>
   </trkpt>
   <trkpt lat="53.0166460" lon="-6.4740940">
    <ele>678.2</ele>
    <time>2025-07-19T12:15:20Z</time>
   </trkpt>
   <trkpt lat="53.0166730" lon="-6.4740280">
    <ele>677.0</ele>
    <time>2025-07-19T12:15:36Z</time>
   </trkpt>
   <trkpt lat="53.0166880" lon="-6.4739450">
    <ele>676.4</ele>
    <time>2025-07-19T12:15:41Z</time>
   </trkpt>
   <trkpt lat="53.0166970" lon="-6.4738720">
    <ele>675.5</ele>
    <time>2025-07-19T12:15:47Z</time>
   </trkpt>
   <trkpt lat="53.0166850" lon="-6.4737830">
    <ele>674.6</ele>
    <time>2025-07-19T12:15:52Z</time>
   </trkpt>
   <trkpt lat="53.0166940" lon="-6.4737090">
    <ele>673.5</ele>
    <time>2025-07-19T12:15:59Z</time>
   </trkpt>
   <trkpt lat="53.0166920" lon="-6.4736280">
    <ele>672.3</ele>
    <time>2025-07-19T12:16:10Z</time>
   </trkpt>
   <trkpt lat="53.0166730" lon="-6.4735480">
    <ele>671.5</ele>
    <time>2025-07-19T12:16:15Z</time>
   </trkpt>
   <trkpt lat="53.0166930" lon="-6.4734800">
    <ele>670.4</ele>
    <time>2025-07-19T12:16:40Z</time>
   </trkpt>
   <trkpt lat="53.0167020" lon="-6.4733710">
    <ele>669.5</ele>
    <time>2025-07-19T12:16:45Z</time>
   </trkpt>
   <trkpt lat="53.0167130" lon="-6.4732930">
    <ele>668.6</ele>
    <time>2025-07-19T12:16:51Z</time>
   </trkpt>
   <trkpt lat="53.0167490" lon="-6.4732300">
    <ele>667.5</ele>
    <time>2025-07-19T12:16:58Z</time>
   </trkpt>
   <trkpt lat="53.0167940" lon="-6.4731860">
    <ele>666.6</ele>
    <time>2025-07-19T12:17:03Z</time>
   </trkpt>
   <trkpt lat="53.0168110" lon="-6.4731110">
    <ele>665.6</ele>
    <time>2025-07-19T12:17:09Z</time>
   </trkpt>
   <trkpt lat="53.0167760" lon="-6.4730290">
    <ele>664.8</ele>
    <time>2025-07-19T12:17:14Z</time>
   </trkpt>
   <trkpt lat="53.0167720" lon="-6.4729550">
    <ele>663.5</ele>
    <time>2025-07-19T12:17:40Z</time>
   </trkpt>
   <trkpt lat="53.0167420" lon="-6.4728370">
    <ele>662.7</ele>
    <time>2025-07-19T12:17:45Z</time>
   </trkpt>
   <trkpt lat="53.0167230" lon="-6.4727260">
    <ele>661.7</ele>
    <time>2025-07-19T12:17:51Z</time>
   </trkpt>
   <trkpt lat="53.0166960" lon="-6.4726410">
    <ele>660.7</ele>
    <time>2025-07-19T12:17:56Z</time>
   </trkpt>
   <trkpt lat="53.0166790" lon="-6.4725690">
    <ele>659.9</ele>
    <time>2025-07-19T12:18:01Z</time>
   </trkpt>
   <trkpt lat="53.0167080" lon="-6.4725010">
    <ele>658.8</ele>
    <time>2025-07-19T12:18:12Z</time>
   </trkpt>
   <trkpt lat="53.0167190" lon="-6.4723790">
    <ele>657.8</ele>
    <time>2025-07-19T12:18:18Z</time>
   </trkpt>
   <trkpt lat="53.0167360" lon="-6.4723040">
    <ele>656.9</ele>
    <time>2025-07-19T12:18:23Z</time>
   </trkpt>
   <trkpt lat="53.0167580" lon="-6.4722370">
    <ele>655.8</ele>
    <time>2025-07-19T12:18:29Z</time>
   </trkpt>
   <trkpt lat="53.0167860" lon="-6.4721740">
    <ele>655.1</ele>
    <time>2025-07-19T12:18:36Z</time>
   </trkpt>
   <trkpt lat="53.0168120" lon="-6.4720930">
    <ele>654.4</ele>
    <time>2025-07-19T12:18:42Z</time>
   </trkpt>
   <trkpt lat="53.0168250" lon="-6.4720190">
    <ele>653.5</ele>
    <time>2025-07-19T12:18:49Z</time>
   </trkpt>
   <trkpt lat="53.0168310" lon="-6.4719350">
    <ele>652.4</ele>
    <time>2025-07-19T12:19:07Z</time>
   </trkpt>
   <trkpt lat="53.0168610" lon="-6.4718370">
    <ele>651.7</ele>
    <time>2025-07-19T12:19:13Z</time>
   </trkpt>
   <trkpt lat="53.0168610" lon="-6.4717450">
    <ele>650.8</ele>
    <time>2025-07-19T12:19:18Z</time>
   </trkpt>
   <trkpt lat="53.0168580" lon="-6.4716600">
    <ele>649.9</ele>
    <time>2025-07-19T12:19:24Z</time>
   </trkpt>
   <trkpt lat="53.0168510" lon="-6.4715690">
    <ele>648.9</ele>
    <time>2025-07-19T12:19:30Z</time>
   </trkpt>
   <trkpt lat="53.0168710" lon="-6.4714980">
    <ele>647.9</ele>
    <time>2025-07-19T12:19:37Z</time>
   </trkpt>
   <trkpt lat="53.0168510" lon="-6.4714270">
    <ele>647.0</ele>
    <time>2025-07-19T12:19:44Z</time>
   </trkpt>
   <trkpt lat="53.0169020" lon="-6.4714300">
    <ele>646.6</ele>
    <time>2025-07-19T12:19:50Z</time>
   </trkpt>
   <trkpt lat="53.0169450" lon="-6.4713880">
    <ele>646.1</ele>
    <time>2025-07-19T12:20:07Z</time>
   </trkpt>
   <trkpt lat="53.0169910" lon="-6.4713640">
    <ele>645.7</ele>
    <time>2025-07-19T12:21:53Z</time>
   </trkpt>
   <trkpt lat="53.0169820" lon="-6.4712690">
    <ele>645.1</ele>
    <time>2025-07-19T12:22:05Z</time>
   </trkpt>
   <trkpt lat="53.0169530" lon="-6.4711520">
    <ele>644.1</ele>
    <time>2025-07-19T12:22:10Z</time>
   </trkpt>
   <trkpt lat="53.0169190" lon="-6.4710910">
    <ele>643.3</ele>
    <time>2025-07-19T12:22:16Z</time>
   </trkpt>
   <trkpt lat="53.0168880" lon="-6.4710260">
    <ele>642.5</ele>
    <time>2025-07-19T12:22:21Z</time>
   </trkpt>
   <trkpt lat="53.0168650" lon="-6.4709290">
    <ele>641.5</ele>
    <time>2025-07-19T12:22:27Z</time>
   </trkpt>
   <trkpt lat="53.0168570" lon="-6.4708500">
    <ele>640.3</ele>
    <time>2025-07-19T12:22:36Z</time>
   </trkpt>
   <trkpt lat="53.0168870" lon="-6.4707870">
    <ele>639.6</ele>
    <time>2025-07-19T12:22:42Z</time>
   </trkpt>
   <trkpt lat="53.0169040" lon="-6.4707110">
    <ele>638.9</ele>
    <time>2025-07-19T12:22:49Z</time>
   </trkpt>
   <trkpt lat="53.0169260" lon="-6.4706290">
    <ele>637.7</ele>
    <time>2025-07-19T12:23:03Z</time>
   </trkpt>
   <trkpt lat="53.0169340" lon="-6.4705530">
    <ele>637.1</ele>
    <time>2025-07-19T12:23:09Z</time>
   </trkpt>
   <trkpt lat="53.0169300" lon="-6.4704730">
    <ele>636.2</ele>
    <time>2025-07-19T12:23:16Z</time>
   </trkpt>
   <trkpt lat="53.0169110" lon="-6.4703910">
    <ele>635.6</ele>
    <time>2025-07-19T12:23:21Z</time>
   </trkpt>
   <trkpt lat="53.0169120" lon="-6.4703000">
    <ele>634.3</ele>
    <time>2025-07-19T12:23:33Z</time>
   </trkpt>
   <trkpt lat="53.0169040" lon="-6.4701740">
    <ele>633.3</ele>
    <time>2025-07-19T12:23:39Z</time>
   </trkpt>
   <trkpt lat="53.0168930" lon="-6.4700810">
    <ele>632.2</ele>
    <time>2025-07-19T12:23:44Z</time>
   </trkpt>
   <trkpt lat="53.0168920" lon="-6.4700030">
    <ele>630.8</ele>
    <time>2025-07-19T12:24:05Z</time>
   </trkpt>
   <trkpt lat="53.0168510" lon="-6.4699740">
    <ele>629.7</ele>
    <time>2025-07-19T12:24:54Z</time>
   </trkpt>
   <trkpt lat="53.0168770" lon="-6.4699080">
    <ele>629.3</ele>
    <time>2025-07-19T12:26:08Z</time>
   </trkpt>
   <trkpt lat="53.0169110" lon="-6.4698550">
    <ele>629.1</ele>
    <time>2025-07-19T12:26:15Z</time>
   </trkpt>
   <trkpt lat="53.0169510" lon="-6.4698210">
    <ele>628.9</ele>
    <time>2025-07-19T12:26:33Z</time>
   </trkpt>
   <trkpt lat="53.0169450" lon="-6.4697400">
    <ele>628.5</ele>
    <time>2025-07-19T12:26:39Z</time>
   </trkpt>
   <trkpt lat="53.0169870" lon="-6.4696940">
    <ele>628.1</ele>
    <time>2025-07-19T12:26:45Z</time>
   </trkpt>
   <trkpt lat="53.0170300" lon="-6.4696560">
    <ele>627.9</ele>
    <time>2025-07-19T12:26:51Z</time>
   </trkpt>
   <trkpt lat="53.0170610" lon="-6.4695930">
    <ele>627.6</ele>
    <time>2025-07-19T12:26:57Z</time>
   </trkpt>
   <trkpt lat="53.0170820" lon="-6.4695190">
    <ele>627.3</ele>
    <time>2025-07-19T12:27:02Z</time>
   </trkpt>
   <trkpt lat="53.0170850" lon="-6.4694420">
    <ele>626.3</ele>
    <time>2025-07-19T12:27:29Z</time>
   </trkpt>
   <trkpt lat="53.0171140" lon="-6.4693620">
    <ele>625.8</ele>
    <time>2025-07-19T12:27:38Z</time>
   </trkpt>
   <trkpt lat="53.0171550" lon="-6.4692780">
    <ele>625.3</ele>
    <time>2025-07-19T12:27:44Z</time>
   </trkpt>
   <trkpt lat="53.0171960" lon="-6.4692440">
    <ele>625.0</ele>
    <time>2025-07-19T12:27:49Z</time>
   </trkpt>
   <trkpt lat="53.0172360" lon="-6.4691900">
    <ele>624.7</ele>
    <time>2025-07-19T12:27:55Z</time>
   </trkpt>
   <trkpt lat="53.0172740" lon="-6.4691390">
    <ele>624.3</ele>
    <time>2025-07-19T12:28:01Z</time>
   </trkpt>
   <trkpt lat="53.0172970" lon="-6.4690730">
    <ele>623.8</ele>
    <time>2025-07-19T12:28:07Z</time>
   </trkpt>
   <trkpt lat="53.0173450" lon="-6.4690370">
    <ele>623.4</ele>
    <time>2025-07-19T12:28:12Z</time>
   </trkpt>
   <trkpt lat="53.0173770" lon="-6.4689810">
    <ele>622.8</ele>
    <time>2025-07-19T12:28:23Z</time>
   </trkpt>
   <trkpt lat="53.0174330" lon="-6.4689180">
    <ele>622.6</ele>
    <time>2025-07-19T12:28:28Z</time>
   </trkpt>
   <trkpt lat="53.0174860" lon="-6.4688470">
    <ele>622.1</ele>
    <time>2025-07-19T12:28:34Z</time>
   </trkpt>
   <trkpt lat="53.0175200" lon="-6.4687970">
    <ele>621.7</ele>
    <time>2025-07-19T12:28:40Z</time>
   </trkpt>
   <trkpt lat="53.0175550" lon="-6.4687490">
    <ele>621.2</ele>
    <time>2025-07-19T12:28:46Z</time>
   </trkpt>
   <trkpt lat="53.0175900" lon="-6.4687030">
    <ele>620.8</ele>
    <time>2025-07-19T12:28:51Z</time>
   </trkpt>
   <trkpt lat="53.0176240" lon="-6.4686430">
    <ele>620.2</ele>
    <time>2025-07-19T12:28:59Z</time>
   </trkpt>
   <trkpt lat="53.0176610" lon="-6.4685930">
    <ele>619.8</ele>
    <time>2025-07-19T12:29:05Z</time>
   </trkpt>
   <trkpt lat="53.0176860" lon="-6.4685270">
    <ele>619.2</ele>
    <time>2025-07-19T12:29:23Z</time>
   </trkpt>
   <trkpt lat="53.0177080" lon="-6.4684200">
    <ele>618.6</ele>
    <time>2025-07-19T12:29:28Z</time>
   </trkpt>
   <trkpt lat="53.0177500" lon="-6.4683830">
    <ele>617.7</ele>
    <time>2025-07-19T12:30:01Z</time>
   </trkpt>
   <trkpt lat="53.0177940" lon="-6.4683550">
    <ele>617.6</ele>
    <time>2025-07-19T12:30:08Z</time>
   </trkpt>
   <trkpt lat="53.0178390" lon="-6.4682780">
    <ele>617.3</ele>
    <time>2025-07-19T12:30:14Z</time>
   </trkpt>
   <trkpt lat="53.0178620" lon="-6.4682140">
    <ele>616.7</ele>
    <time>2025-07-19T12:31:12Z</time>
   </trkpt>
   <trkpt lat="53.0178960" lon="-6.4681540">
    <ele>616.2</ele>
    <time>2025-07-19T12:31:23Z</time>
   </trkpt>
   <trkpt lat="53.0179310" lon="-6.4680680">
    <ele>615.8</ele>
    <time>2025-07-19T12:31:29Z</time>
   </trkpt>
   <trkpt lat="53.0179400" lon="-6.4679840">
    <ele>615.2</ele>
    <time>2025-07-19T12:31:35Z</time>
   </trkpt>
   <trkpt lat="53.0179360" lon="-6.4678960">
    <ele>614.2</ele>
    <time>2025-07-19T12:31:43Z</time>
   </trkpt>
   <trkpt lat="53.0179500" lon="-6.4678210">
    <ele>613.6</ele>
    <time>2025-07-19T12:31:48Z</time>
   </trkpt>
   <trkpt lat="53.0179650" lon="-6.4677480">
    <ele>612.8</ele>
    <time>2025-07-19T12:32:00Z</time>
   </trkpt>
   <trkpt lat="53.0180030" lon="-6.4676920">
    <ele>612.3</ele>
    <time>2025-07-19T12:32:05Z</time>
   </trkpt>
   <trkpt lat="53.0180290" lon="-6.4676240">
    <ele>611.8</ele>
    <time>2025-07-19T12:32:11Z</time>
   </trkpt>
   <trkpt lat="53.0180740" lon="-6.4675720">
    <ele>611.4</ele>
    <time>2025-07-19T12:32:17Z</time>
   </trkpt>
   <trkpt lat="53.0181200" lon="-6.4675610">
    <ele>611.1</ele>
    <time>2025-07-19T12:32:22Z</time>
   </trkpt>
   <trkpt lat="53.0181580" lon="-6.4675080">
    <ele>610.9</ele>
    <time>2025-07-19T12:32:32Z</time>
   </trkpt>
   <trkpt lat="53.0181830" lon="-6.4674420">
    <ele>610.5</ele>
    <time>2025-07-19T12:32:38Z</time>
   </trkpt>
   <trkpt lat="53.0182190" lon="-6.4673950">
    <ele>610.1</ele>
    <time>2025-07-19T12:32:46Z</time>
   </trkpt>
   <trkpt lat="53.0182500" lon="-6.4673240">
    <ele>609.7</ele>
    <time>2025-07-19T12:32:53Z</time>
   </trkpt>
   <trkpt lat="53.0182870" lon="-6.4672410">
    <ele>609.2</ele>
    <time>2025-07-19T12:32:59Z</time>
   </trkpt>
   <trkpt lat="53.0183240" lon="-6.4671820">
    <ele>608.8</ele>
    <time>2025-07-19T12:33:05Z</time>
   </trkpt>
   <trkpt lat="53.0183590" lon="-6.4671300">
    <ele>608.5</ele>
    <time>2025-07-19T12:33:11Z</time>
   </trkpt>
   <trkpt lat="53.0183590" lon="-6.4670480">
    <ele>607.9</ele>
    <time>2025-07-19T12:33:25Z</time>
   </trkpt>
   <trkpt lat="53.0183850" lon="-6.4669850">
    <ele>607.6</ele>
    <time>2025-07-19T12:33:30Z</time>
   </trkpt>
   <trkpt lat="53.0184200" lon="-6.4669300">
    <ele>607.3</ele>
    <time>2025-07-19T12:33:38Z</time>
   </trkpt>
   <trkpt lat="53.0184440" lon="-6.4668620">
    <ele>606.8</ele>
    <time>2025-07-19T12:33:59Z</time>
   </trkpt>
   <trkpt lat="53.0184770" lon="-6.4668000">
    <ele>606.6</ele>
    <time>2025-07-19T12:34:09Z</time>
   </trkpt>
   <trkpt lat="53.0185130" lon="-6.4667510">
    <ele>606.4</ele>
    <time>2025-07-19T12:34:15Z</time>
   </trkpt>
   <trkpt lat="53.0185570" lon="-6.4667150">
    <ele>606.3</ele>
    <time>2025-07-19T12:34:30Z</time>
   </trkpt>
   <trkpt lat="53.0185930" lon="-6.4666610">
    <ele>606.3</ele>
    <time>2025-07-19T12:34:40Z</time>
   </trkpt>
   <trkpt lat="53.0186190" lon="-6.4665990">
    <ele>606.2</ele>
    <time>2025-07-19T12:34:47Z</time>
   </trkpt>
   <trkpt lat="53.0186330" lon="-6.4665190">
    <ele>606.0</ele>
    <time>2025-07-19T12:34:52Z</time>
   </trkpt>
   <trkpt lat="53.0186510" lon="-6.4664410">
    <ele>605.8</ele>
    <time>2025-07-19T12:34:59Z</time>
   </trkpt>
   <trkpt lat="53.0186890" lon="-6.4663870">
    <ele>605.7</ele>
    <time>2025-07-19T12:35:19Z</time>
   </trkpt>
   <trkpt lat="53.0187020" lon="-6.4663060">
    <ele>605.7</ele>
    <time>2025-07-19T12:36:01Z</time>
   </trkpt>
   <trkpt lat="53.0187060" lon="-6.4662230">
    <ele>605.5</ele>
    <time>2025-07-19T12:36:21Z</time>
   </trkpt>
   <trkpt lat="53.0187100" lon="-6.4661280">
    <ele>605.4</ele>
    <time>2025-07-19T12:36:27Z</time>
   </trkpt>
   <trkpt lat="53.0187390" lon="-6.4660640">
    <ele>605.4</ele>
    <time>2025-07-19T12:36:39Z</time>
   </trkpt>
   <trkpt lat="53.0187720" lon="-6.4660070">
    <ele>605.5</ele>
    <time>2025-07-19T12:36:46Z</time>
   </trkpt>
   <trkpt lat="53.0187950" lon="-6.4659300">
    <ele>605.7</ele>
    <time>2025-07-19T12:36:52Z</time>
   </trkpt>
   <trkpt lat="53.0188340" lon="-6.4658820">
    <ele>606.0</ele>
    <time>2025-07-19T12:37:02Z</time>
   </trkpt>
   <trkpt lat="53.0188820" lon="-6.4658650">
    <ele>606.3</ele>
    <time>2025-07-19T12:37:10Z</time>
   </trkpt>
   <trkpt lat="53.0189220" lon="-6.4658260">
    <ele>606.6</ele>
    <time>2025-07-19T12:37:18Z</time>
   </trkpt>
   <trkpt lat="53.0189570" lon="-6.4657730">
    <ele>607.1</ele>
    <time>2025-07-19T12:37:27Z</time>
   </trkpt>
   <trkpt lat="53.0190040" lon="-6.4657300">
    <ele>607.4</ele>
    <time>2025-07-19T12:37:39Z</time>
   </trkpt>
   <trkpt lat="53.0190480" lon="-6.4656790">
    <ele>608.0</ele>
    <time>2025-07-19T12:37:49Z</time>
   </trkpt>
   <trkpt lat="53.0190810" lon="-6.4656200">
    <ele>608.3</ele>
    <time>2025-07-19T12:37:54Z</time>
   </trkpt>
   <trkpt lat="53.0191330" lon="-6.4655810">
    <ele>608.9</ele>
    <time>2025-07-19T12:38:40Z</time>
   </trkpt>
   <trkpt lat="53.0191850" lon="-6.4655490">
    <ele>609.3</ele>
    <time>2025-07-19T12:38:46Z</time>
   </trkpt>
   <trkpt lat="53.0192230" lon="-6.4654970">
    <ele>609.8</ele>
    <time>2025-07-19T12:38:53Z</time>
   </trkpt>
   <trkpt lat="53.0192770" lon="-6.4654880">
    <ele>610.3</ele>
    <time>2025-07-19T12:39:02Z</time>
   </trkpt>
   <trkpt lat="53.0193160" lon="-6.4654380">
    <ele>610.8</ele>
    <time>2025-07-19T12:39:07Z</time>
   </trkpt>
   <trkpt lat="53.0193610" lon="-6.4654530">
    <ele>611.4</ele>
    <time>2025-07-19T12:39:15Z</time>
   </trkpt>
   <trkpt lat="53.0194030" lon="-6.4654190">
    <ele>611.9</ele>
    <time>2025-07-19T12:39:22Z</time>
   </trkpt>
   <trkpt lat="53.0194320" lon="-6.4653550">
    <ele>612.4</ele>
    <time>2025-07-19T12:39:28Z</time>
   </trkpt>
   <trkpt lat="53.0194740" lon="-6.4653090">
    <ele>613.0</ele>
    <time>2025-07-19T12:39:34Z</time>
   </trkpt>
   <trkpt lat="53.0195160" lon="-6.4652800">
    <ele>613.6</ele>
    <time>2025-07-19T12:39:40Z</time>
   </trkpt>
   <trkpt lat="53.0195620" lon="-6.4652520">
    <ele>614.5</ele>
    <time>2025-07-19T12:39:49Z</time>
   </trkpt>
   <trkpt lat="53.0195970" lon="-6.4652020">
    <ele>615.2</ele>
    <time>2025-07-19T12:39:55Z</time>
   </trkpt>
   <trkpt lat="53.0196010" lon="-6.4651240">
    <ele>615.9</ele>
    <time>2025-07-19T12:40:02Z</time>
   </trkpt>
   <trkpt lat="53.0196330" lon="-6.4650700">
    <ele>616.6</ele>
    <time>2025-07-19T12:40:08Z</time>
   </trkpt>
   <trkpt lat="53.0196740" lon="-6.4650200">
    <ele>617.3</ele>
    <time>2025-07-19T12:40:14Z</time>
   </trkpt>
   <trkpt lat="53.0197170" lon="-6.4649830">
    <ele>618.2</ele>
    <time>2025-07-19T12:40:21Z</time>
   </trkpt>
   <trkpt lat="53.0197420" lon="-6.4649160">
    <ele>619.1</ele>
    <time>2025-07-19T12:40:28Z</time>
   </trkpt>
   <trkpt lat="53.0197840" lon="-6.4648820">
    <ele>619.9</ele>
    <time>2025-07-19T12:40:36Z</time>
   </trkpt>
   <trkpt lat="53.0198210" lon="-6.4648370">
    <ele>620.6</ele>
    <time>2025-07-19T12:40:42Z</time>
   </trkpt>
   <trkpt lat="53.0198550" lon="-6.4647890">
    <ele>621.3</ele>
    <time>2025-07-19T12:40:48Z</time>
   </trkpt>
   <trkpt lat="53.0198810" lon="-6.4647190">
    <ele>622.2</ele>
    <time>2025-07-19T12:40:56Z</time>
   </trkpt>
   <trkpt lat="53.0199090" lon="-6.4646500">
    <ele>622.9</ele>
    <time>2025-07-19T12:41:03Z</time>
   </trkpt>
   <trkpt lat="53.0199520" lon="-6.4646150">
    <ele>623.6</ele>
    <time>2025-07-19T12:41:09Z</time>
   </trkpt>
   <trkpt lat="53.0199940" lon="-6.4645730">
    <ele>624.4</ele>
    <time>2025-07-19T12:41:16Z</time>
   </trkpt>
   <trkpt lat="53.0200400" lon="-6.4645330">
    <ele>625.0</ele>
    <time>2025-07-19T12:41:23Z</time>
   </trkpt>
   <trkpt lat="53.0200820" lon="-6.4645050">
    <ele>625.6</ele>
    <time>2025-07-19T12:41:31Z</time>
   </trkpt>
   <trkpt lat="53.0201200" lon="-6.4644630">
    <ele>626.1</ele>
    <time>2025-07-19T12:41:38Z</time>
   </trkpt>
   <trkpt lat="53.0201570" lon="-6.4644130">
    <ele>626.8</ele>
    <time>2025-07-19T12:41:45Z</time>
   </trkpt>
   <trkpt lat="53.0201790" lon="-6.4643470">
    <ele>627.7</ele>
    <time>2025-07-19T12:42:05Z</time>
   </trkpt>
   <trkpt lat="53.0201860" lon="-6.4642520">
    <ele>628.1</ele>
    <time>2025-07-19T12:42:11Z</time>
   </trkpt>
   <trkpt lat="53.0202160" lon="-6.4641800">
    <ele>629.0</ele>
    <time>2025-07-19T12:42:27Z</time>
   </trkpt>
   <trkpt lat="53.0202370" lon="-6.4641020">
    <ele>629.4</ele>
    <time>2025-07-19T12:42:32Z</time>
   </trkpt>
   <trkpt lat="53.0202830" lon="-6.4640770">
    <ele>630.0</ele>
    <time>2025-07-19T12:42:39Z</time>
   </trkpt>
   <trkpt lat="53.0203120" lon="-6.4640200">
    <ele>630.6</ele>
    <time>2025-07-19T12:42:46Z</time>
   </trkpt>
   <trkpt lat="53.0203560" lon="-6.4639760">
    <ele>631.2</ele>
    <time>2025-07-19T12:42:54Z</time>
   </trkpt>
   <trkpt lat="53.0203910" lon="-6.4639220">
    <ele>631.7</ele>
    <time>2025-07-19T12:43:00Z</time>
   </trkpt>
   <trkpt lat="53.0204340" lon="-6.4638740">
    <ele>632.2</ele>
    <time>2025-07-19T12:43:07Z</time>
   </trkpt>
   <trkpt lat="53.0204770" lon="-6.4638420">
    <ele>632.6</ele>
    <time>2025-07-19T12:43:12Z</time>
   </trkpt>
   <trkpt lat="53.0205120" lon="-6.4637860">
    <ele>633.2</ele>
    <time>2025-07-19T12:43:20Z</time>
   </trkpt>
   <trkpt lat="53.0205550" lon="-6.4637590">
    <ele>633.6</ele>
    <time>2025-07-19T12:43:27Z</time>
   </trkpt>
   <trkpt lat="53.0205740" lon="-6.4636860">
    <ele>634.1</ele>
    <time>2025-07-19T12:43:35Z</time>
   </trkpt>
   <trkpt lat="53.0206100" lon="-6.4636350">
    <ele>634.6</ele>
    <time>2025-07-19T12:43:42Z</time>
   </trkpt>
   <trkpt lat="53.0206490" lon="-6.4635910">
    <ele>635.1</ele>
    <time>2025-07-19T12:43:50Z</time>
   </trkpt>
   <trkpt lat="53.0206440" lon="-6.4635140">
    <ele>636.0</ele>
    <time>2025-07-19T12:45:54Z</time>
   </trkpt>
   <trkpt lat="53.0206030" lon="-6.4634660">
    <ele>636.2</ele>
    <time>2025-07-19T12:46:14Z</time>
   </trkpt>
   <trkpt lat="53.0205840" lon="-6.4633900">
    <ele>636.5</ele>
    <time>2025-07-19T12:46:20Z</time>
   </trkpt>
   <trkpt lat="53.0205700" lon="-6.4633090">
    <ele>637.0</ele>
    <time>2025-07-19T12:46:26Z</time>
   </trkpt>
   <trkpt lat="53.0205720" lon="-6.4632200">
    <ele>638.0</ele>
    <time>2025-07-19T12:46:43Z</time>
   </trkpt>
   <trkpt lat="53.0205650" lon="-6.4631440">
    <ele>638.6</ele>
    <time>2025-07-19T12:46:53Z</time>
   </trkpt>
   <trkpt lat="53.0205650" lon="-6.4630480">
    <ele>639.2</ele>
    <time>2025-07-19T12:46:58Z</time>
   </trkpt>
   <trkpt lat="53.0205540" lon="-6.4629720">
    <ele>640.0</ele>
    <time>2025-07-19T12:47:05Z</time>
   </trkpt>
   <trkpt lat="53.0205670" lon="-6.4628910">
    <ele>640.9</ele>
    <time>2025-07-19T12:47:14Z</time>
   </trkpt>
   <trkpt lat="53.0205580" lon="-6.4628150">
    <ele>641.8</ele>
    <time>2025-07-19T12:47:22Z</time>
   </trkpt>
   <trkpt lat="53.0205680" lon="-6.4627400">
    <ele>642.6</ele>
    <time>2025-07-19T12:47:30Z</time>
   </trkpt>
   <trkpt lat="53.0205820" lon="-6.4626680">
    <ele>643.8</ele>
    <time>2025-07-19T12:47:50Z</time>
   </trkpt>
   <trkpt lat="53.0205970" lon="-6.4625820">
    <ele>644.2</ele>
    <time>2025-07-19T12:47:55Z</time>
   </trkpt>
   <trkpt lat="53.0205930" lon="-6.4625050">
    <ele>645.2</ele>
    <time>2025-07-19T12:48:04Z</time>
   </trkpt>
   <trkpt lat="53.0205770" lon="-6.4624320">
    <ele>645.8</ele>
    <time>2025-07-19T12:48:10Z</time>
   </trkpt>
   <trkpt lat="53.0205570" lon="-6.4623620">
    <ele>646.7</ele>
    <time>2025-07-19T12:48:22Z</time>
   </trkpt>
   <trkpt lat="53.0205450" lon="-6.4622870">
    <ele>647.3</ele>
    <time>2025-07-19T12:48:28Z</time>
   </trkpt>
   <trkpt lat="53.0205180" lon="-6.4622220">
    <ele>648.0</ele>
    <time>2025-07-19T12:48:36Z</time>
   </trkpt>
   <trkpt lat="53.0204840" lon="-6.4621530">
    <ele>648.6</ele>
    <time>2025-07-19T12:48:42Z</time>
   </trkpt>
   <trkpt lat="53.0204570" lon="-6.4620800">
    <ele>649.3</ele>
    <time>2025-07-19T12:48:49Z</time>
   </trkpt>
   <trkpt lat="53.0204350" lon="-6.4620090">
    <ele>650.0</ele>
    <time>2025-07-19T12:48:56Z</time>
   </trkpt>
   <trkpt lat="53.0204080" lon="-6.4619440">
    <ele>650.8</ele>
    <time>2025-07-19T12:49:03Z</time>
   </trkpt>
   <trkpt lat="53.0204020" lon="-6.4618630">
    <ele>651.3</ele>
    <time>2025-07-19T12:49:09Z</time>
   </trkpt>
   <trkpt lat="53.0203750" lon="-6.4617950">
    <ele>652.4</ele>
    <time>2025-07-19T12:49:19Z</time>
   </trkpt>
   <trkpt lat="53.0203290" lon="-6.4618160">
    <ele>652.5</ele>
    <time>2025-07-19T12:49:24Z</time>
   </trkpt>
   <trkpt lat="53.0202950" lon="-6.4617590">
    <ele>652.8</ele>
    <time>2025-07-19T12:50:29Z</time>
   </trkpt>
   <trkpt lat="53.0202860" lon="-6.4616860">
    <ele>653.3</ele>
    <time>2025-07-19T12:50:38Z</time>
   </trkpt>
   <trkpt lat="53.0202830" lon="-6.4615740">
    <ele>653.9</ele>
    <time>2025-07-19T12:50:44Z</time>
   </trkpt>
   <trkpt lat="53.0202580" lon="-6.4615030">
    <ele>654.6</ele>
    <time>2025-07-19T12:50:50Z</time>
   </trkpt>
   <trkpt lat="53.0202210" lon="-6.4614570">
    <ele>655.3</ele>
    <time>2025-07-19T12:50:56Z</time>
   </trkpt>
   <trkpt lat="53.0202120" lon="-6.4613800">
    <ele>656.3</ele>
    <time>2025-07-19T12:51:07Z</time>
   </trkpt>
   <trkpt lat="53.0201740" lon="-6.4613360">
    <ele>656.7</ele>
    <time>2025-07-19T12:51:12Z</time>
   </trkpt>
   <trkpt lat="53.0201340" lon="-6.4612950">
    <ele>657.1</ele>
    <time>2025-07-19T12:51:19Z</time>
   </trkpt>
   <trkpt lat="53.0200870" lon="-6.4612710">
    <ele>657.4</ele>
    <time>2025-07-19T12:51:25Z</time>
   </trkpt>
   <trkpt lat="53.0200660" lon="-6.4612000">
    <ele>657.9</ele>
    <time>2025-07-19T12:51:32Z</time>
   </trkpt>
   <trkpt lat="53.0200410" lon="-6.4611370">
    <ele>658.4</ele>
    <time>2025-07-19T12:51:38Z</time>
   </trkpt>
   <trkpt lat="53.0200090" lon="-6.4610840">
    <ele>659.0</ele>
    <time>2025-07-19T12:51:46Z</time>
   </trkpt>
   <trkpt lat="53.0199940" lon="-6.4610100">
    <ele>659.8</ele>
    <time>2025-07-19T12:51:58Z</time>
   </trkpt>
   <trkpt lat="53.0199600" lon="-6.4609530">
    <ele>660.3</ele>
    <time>2025-07-19T12:52:08Z</time>
   </trkpt>
   <trkpt lat="53.0199150" lon="-6.4608840">
    <ele>660.8</ele>
    <time>2025-07-19T12:52:14Z</time>
   </trkpt>
   <trkpt lat="53.0198930" lon="-6.4608160">
    <ele>661.8</ele>
    <time>2025-07-19T12:52:34Z</time>
   </trkpt>
   <trkpt lat="53.0198770" lon="-6.4607450">
    <ele>662.2</ele>
    <time>2025-07-19T12:52:44Z</time>
   </trkpt>
   <trkpt lat="53.0198440" lon="-6.4606470">
    <ele>662.7</ele>
    <time>2025-07-19T12:52:49Z</time>
   </trkpt>
   <trkpt lat="53.0198060" lon="-6.4605910">
    <ele>663.2</ele>
    <time>2025-07-19T12:52:55Z</time>
   </trkpt>
   <trkpt lat="53.0197740" lon="-6.4605330">
    <ele>663.7</ele>
    <time>2025-07-19T12:53:01Z</time>
   </trkpt>
   <trkpt lat="53.0197500" lon="-6.4604660">
    <ele>664.2</ele>
    <time>2025-07-19T12:53:07Z</time>
   </trkpt>
   <trkpt lat="53.0197210" lon="-6.4604030">
    <ele>664.7</ele>
    <time>2025-07-19T12:53:14Z</time>
   </trkpt>
   <trkpt lat="53.0197020" lon="-6.4603190">
    <ele>665.2</ele>
    <time>2025-07-19T12:53:19Z</time>
   </trkpt>
   <trkpt lat="53.0196850" lon="-6.4602240">
    <ele>665.9</ele>
    <time>2025-07-19T12:53:25Z</time>
   </trkpt>
   <trkpt lat="53.0196770" lon="-6.4601410">
    <ele>666.7</ele>
    <time>2025-07-19T12:53:31Z</time>
   </trkpt>
   <trkpt lat="53.0196690" lon="-6.4600630">
    <ele>667.4</ele>
    <time>2025-07-19T12:53:38Z</time>
   </trkpt>
   <trkpt lat="53.0196700" lon="-6.4599850">
    <ele>668.0</ele>
    <time>2025-07-19T12:53:45Z</time>
   </trkpt>
   <trkpt lat="53.0196730" lon="-6.4598970">
    <ele>668.6</ele>
    <time>2025-07-19T12:53:50Z</time>
   </trkpt>
   <trkpt lat="53.0196800" lon="-6.4598190">
    <ele>669.6</ele>
    <time>2025-07-19T12:54:02Z</time>
   </trkpt>
   <trkpt lat="53.0196600" lon="-6.4597410">
    <ele>670.1</ele>
    <time>2025-07-19T12:54:08Z</time>
   </trkpt>
   <trkpt lat="53.0196110" lon="-6.4597410">
    <ele>670.8</ele>
    <time>2025-07-19T12:54:24Z</time>
   </trkpt>
   <trkpt lat="53.0195870" lon="-6.4596660">
    <ele>671.1</ele>
    <time>2025-07-19T12:54:56Z</time>
   </trkpt>
   <trkpt lat="53.0195530" lon="-6.4596050">
    <ele>671.5</ele>
    <time>2025-07-19T12:55:02Z</time>
   </trkpt>
   <trkpt lat="53.0195300" lon="-6.4595400">
    <ele>672.2</ele>
    <time>2025-07-19T12:55:09Z</time>
   </trkpt>
   <trkpt lat="53.0194910" lon="-6.4594890">
    <ele>672.8</ele>
    <time>2025-07-19T12:55:18Z</time>
   </trkpt>
   <trkpt lat="53.0194750" lon="-6.4594160">
    <ele>673.6</ele>
    <time>2025-07-19T12:55:56Z</time>
   </trkpt>
   <trkpt lat="53.0194510" lon="-6.4593520">
    <ele>674.1</ele>
    <time>2025-07-19T12:56:03Z</time>
   </trkpt>
   <trkpt lat="53.0194250" lon="-6.4592680">
    <ele>674.6</ele>
    <time>2025-07-19T12:56:08Z</time>
   </trkpt>
   <trkpt lat="53.0194540" lon="-6.4592100">
    <ele>675.6</ele>
    <time>2025-07-19T12:56:35Z</time>
   </trkpt>
   <trkpt lat="53.0194570" lon="-6.4591110">
    <ele>676.0</ele>
    <time>2025-07-19T12:56:50Z</time>
   </trkpt>
   <trkpt lat="53.0194480" lon="-6.4590070">
    <ele>676.7</ele>
    <time>2025-07-19T12:56:56Z</time>
   </trkpt>
   <trkpt lat="53.0194120" lon="-6.4589530">
    <ele>677.5</ele>
    <time>2025-07-19T12:57:02Z</time>
   </trkpt>
   <trkpt lat="53.0193890" lon="-6.4588880">
    <ele>678.1</ele>
    <time>2025-07-19T12:57:07Z</time>
   </trkpt>
   <trkpt lat="53.0193750" lon="-6.4588160">
    <ele>678.8</ele>
    <time>2025-07-19T12:57:15Z</time>
   </trkpt>
   <trkpt lat="53.0193370" lon="-6.4587630">
    <ele>679.5</ele>
    <time>2025-07-19T12:57:22Z</time>
   </trkpt>
   <trkpt lat="53.0193190" lon="-6.4586850">
    <ele>680.0</ele>
    <time>2025-07-19T12:57:28Z</time>
   </trkpt>
   <trkpt lat="53.0192950" lon="-6.4586170">
    <ele>680.7</ele>
    <time>2025-07-19T12:57:34Z</time>
   </trkpt>
   <trkpt lat="53.0192530" lon="-6.4585730">
    <ele>681.4</ele>
    <time>2025-07-19T12:57:42Z</time>
   </trkpt>
   <trkpt lat="53.0192230" lon="-6.4585130">
    <ele>681.9</ele>
    <time>2025-07-19T12:57:48Z</time>
   </trkpt>
   <trkpt lat="53.0192030" lon="-6.4584410">
    <ele>682.4</ele>
    <time>2025-07-19T12:57:54Z</time>
   </trkpt>
   <trkpt lat="53.0191910" lon="-6.4583670">
    <ele>683.0</ele>
    <time>2025-07-19T12:58:00Z</time>
   </trkpt>
   <trkpt lat="53.0191410" lon="-6.4583450">
    <ele>683.9</ele>
    <time>2025-07-19T12:58:23Z</time>
   </trkpt>
   <trkpt lat="53.0191120" lon="-6.4582810">
    <ele>684.1</ele>
    <time>2025-07-19T12:58:30Z</time>
   </trkpt>
   <trkpt lat="53.0190720" lon="-6.4582280">
    <ele>684.5</ele>
    <time>2025-07-19T12:58:36Z</time>
   </trkpt>
   <trkpt lat="53.0190780" lon="-6.4581540">
    <ele>685.1</ele>
    <time>2025-07-19T12:58:46Z</time>
   </trkpt>
   <trkpt lat="53.0190490" lon="-6.4580960">
    <ele>685.6</ele>
    <time>2025-07-19T12:58:54Z</time>
   </trkpt>
   <trkpt lat="53.0190140" lon="-6.4580410">
    <ele>685.9</ele>
    <time>2025-07-19T12:59:00Z</time>
   </trkpt>
   <trkpt lat="53.0189730" lon="-6.4580090">
    <ele>686.3</ele>
    <time>2025-07-19T12:59:05Z</time>
   </trkpt>
   <trkpt lat="53.0189290" lon="-6.4579700">
    <ele>686.6</ele>
    <time>2025-07-19T12:59:11Z</time>
   </trkpt>
   <trkpt lat="53.0188980" lon="-6.4579150">
    <ele>687.1</ele>
    <time>2025-07-19T12:59:17Z</time>
   </trkpt>
   <trkpt lat="53.0188720" lon="-6.4578450">
    <ele>687.5</ele>
    <time>2025-07-19T12:59:24Z</time>
   </trkpt>
   <trkpt lat="53.0188620" lon="-6.4577620">
    <ele>688.0</ele>
    <time>2025-07-19T12:59:29Z</time>
   </trkpt>
   <trkpt lat="53.0188520" lon="-6.4576840">
    <ele>688.7</ele>
    <time>2025-07-19T12:59:41Z</time>
   </trkpt>
   <trkpt lat="53.0188110" lon="-6.4575990">
    <ele>689.3</ele>
    <time>2025-07-19T12:59:47Z</time>
   </trkpt>
   <trkpt lat="53.0187680" lon="-6.4575600">
    <ele>689.8</ele>
    <time>2025-07-19T12:59:53Z</time>
   </trkpt>
   <trkpt lat="53.0187450" lon="-6.4574890">
    <ele>690.5</ele>
    <time>2025-07-19T12:59:59Z</time>
   </trkpt>
   <trkpt lat="53.0187350" lon="-6.4574130">
    <ele>691.4</ele>
    <time>2025-07-19T13:00:14Z</time>
   </trkpt>
   <trkpt lat="53.0187260" lon="-6.4573350">
    <ele>692.0</ele>
    <time>2025-07-19T13:00:26Z</time>
   </trkpt>
   <trkpt lat="53.0186960" lon="-6.4572760">
    <ele>692.5</ele>
    <time>2025-07-19T13:00:31Z</time>
   </trkpt>
   <trkpt lat="53.0186490" lon="-6.4572530">
    <ele>693.0</ele>
    <time>2025-07-19T13:00:36Z</time>
   </trkpt>
   <trkpt lat="53.0186070" lon="-6.4572060">
    <ele>693.6</ele>
    <time>2025-07-19T13:00:43Z</time>
   </trkpt>
   <trkpt lat="53.0185900" lon="-6.4571270">
    <ele>694.5</ele>
    <time>2025-07-19T13:00:54Z</time>
   </trkpt>
   <trkpt lat="53.0185610" lon="-6.4570530">
    <ele>695.1</ele>
    <time>2025-07-19T13:00:59Z</time>
   </trkpt>
   <trkpt lat="53.0185280" lon="-6.4570000">
    <ele>696.0</ele>
    <time>2025-07-19T13:01:06Z</time>
   </trkpt>
   <trkpt lat="53.0185040" lon="-6.4569350">
    <ele>696.9</ele>
    <time>2025-07-19T13:01:14Z</time>
   </trkpt>
   <trkpt lat="53.0184940" lon="-6.4568600">
    <ele>698.0</ele>
    <time>2025-07-19T13:01:36Z</time>
   </trkpt>
   <trkpt lat="53.0184550" lon="-6.4568230">
    <ele>698.7</ele>
    <time>2025-07-19T13:02:05Z</time>
   </trkpt>
   <trkpt lat="53.0184170" lon="-6.4567810">
    <ele>699.0</ele>
    <time>2025-07-19T13:02:10Z</time>
   </trkpt>
   <trkpt lat="53.0183790" lon="-6.4567310">
    <ele>699.5</ele>
    <time>2025-07-19T13:02:16Z</time>
   </trkpt>
   <trkpt lat="53.0183490" lon="-6.4566730">
    <ele>700.1</ele>
    <time>2025-07-19T13:02:22Z</time>
   </trkpt>
   <trkpt lat="53.0183030" lon="-6.4566560">
    <ele>700.7</ele>
    <time>2025-07-19T13:02:29Z</time>
   </trkpt>
   <trkpt lat="53.0182790" lon="-6.4565900">
    <ele>701.2</ele>
    <time>2025-07-19T13:02:35Z</time>
   </trkpt>
   <trkpt lat="53.0182650" lon="-6.4565130">
    <ele>702.0</ele>
    <time>2025-07-19T13:02:46Z</time>
   </trkpt>
   <trkpt lat="53.0182230" lon="-6.4564740">
    <ele>702.6</ele>
    <time>2025-07-19T13:02:52Z</time>
   </trkpt>
   <trkpt lat="53.0181960" lon="-6.4564090">
    <ele>703.1</ele>
    <time>2025-07-19T13:02:58Z</time>
   </trkpt>
   <trkpt lat="53.0181680" lon="-6.4563480">
    <ele>703.8</ele>
    <time>2025-07-19T13:03:04Z</time>
   </trkpt>
   <trkpt lat="53.0181330" lon="-6.4562970">
    <ele>704.4</ele>
    <time>2025-07-19T13:03:10Z</time>
   </trkpt>
   <trkpt lat="53.0180940" lon="-6.4562560">
    <ele>705.2</ele>
    <time>2025-07-19T13:03:20Z</time>
   </trkpt>
   <trkpt lat="53.0180510" lon="-6.4562220">
    <ele>705.7</ele>
    <time>2025-07-19T13:03:26Z</time>
   </trkpt>
   <trkpt lat="53.0180240" lon="-6.4561570">
    <ele>706.4</ele>
    <time>2025-07-19T13:03:34Z</time>
   </trkpt>
   <trkpt lat="53.0180070" lon="-6.4560840">
    <ele>707.1</ele>
    <time>2025-07-19T13:03:41Z</time>
   </trkpt>
   <trkpt lat="53.0179890" lon="-6.4560140">
    <ele>707.9</ele>
    <time>2025-07-19T13:03:50Z</time>
   </trkpt>
   <trkpt lat="53.0179650" lon="-6.4559430">
    <ele>708.7</ele>
    <time>2025-07-19T13:04:00Z</time>
   </trkpt>
   <trkpt lat="53.0179500" lon="-6.4558680">
    <ele>709.3</ele>
    <time>2025-07-19T13:04:05Z</time>
   </trkpt>
   <trkpt lat="53.0179150" lon="-6.4558160">
    <ele>710.0</ele>
    <time>2025-07-19T13:04:11Z</time>
   </trkpt>
   <trkpt lat="53.0178820" lon="-6.4557540">
    <ele>710.9</ele>
    <time>2025-07-19T13:04:20Z</time>
   </trkpt>
   <trkpt lat="53.0178510" lon="-6.4556890">
    <ele>711.6</ele>
    <time>2025-07-19T13:04:27Z</time>
   </trkpt>
   <trkpt lat="53.0178280" lon="-6.4556190">
    <ele>712.4</ele>
    <time>2025-07-19T13:04:35Z</time>
   </trkpt>
   <trkpt lat="53.0178060" lon="-6.4555540">
    <ele>713.2</ele>
    <time>2025-07-19T13:04:43Z</time>
   </trkpt>
   <trkpt lat="53.0177670" lon="-6.4555130">
    <ele>713.7</ele>
    <time>2025-07-19T13:04:48Z</time>
   </trkpt>
   <trkpt lat="53.0177240" lon="-6.4554790">
    <ele>714.6</ele>
    <time>2025-07-19T13:04:59Z</time>
   </trkpt>
   <trkpt lat="53.0176930" lon="-6.4554230">
    <ele>715.2</ele>
    <time>2025-07-19T13:05:08Z</time>
   </trkpt>
   <trkpt lat="53.0176730" lon="-6.4553410">
    <ele>715.9</ele>
    <time>2025-07-19T13:05:21Z</time>
   </trkpt>
   <trkpt lat="53.0176480" lon="-6.4552740">
    <ele>716.6</ele>
    <time>2025-07-19T13:05:28Z</time>
   </trkpt>
   <trkpt lat="53.0176340" lon="-6.4551980">
    <ele>717.2</ele>
    <time>2025-07-19T13:05:33Z</time>
   </trkpt>
   <trkpt lat="53.0176050" lon="-6.4551370">
    <ele>717.8</ele>
    <time>2025-07-19T13:05:39Z</time>
   </trkpt>
   <trkpt lat="53.0175930" lon="-6.4550570">
    <ele>718.5</ele>
    <time>2025-07-19T13:05:47Z</time>
   </trkpt>
   <trkpt lat="53.0175550" lon="-6.4550070">
    <ele>719.1</ele>
    <time>2025-07-19T13:05:55Z</time>
   </trkpt>
   <trkpt lat="53.0175140" lon="-6.4549560">
    <ele>719.6</ele>
    <time>2025-07-19T13:06:01Z</time>
   </trkpt>
   <trkpt lat="53.0174810" lon="-6.4548960">
    <ele>720.1</ele>
    <time>2025-07-19T13:06:07Z</time>
   </trkpt>
   <trkpt lat="53.0174710" lon="-6.4548230">
    <ele>720.8</ele>
    <time>2025-07-19T13:06:19Z</time>
   </trkpt>
   <trkpt lat="53.0174540" lon="-6.4547480">
    <ele>721.2</ele>
    <time>2025-07-19T13:06:29Z</time>
   </trkpt>
   <trkpt lat="53.0174140" lon="-6.4547050">
    <ele>721.5</ele>
    <time>2025-07-19T13:06:37Z</time>
   </trkpt>
   <trkpt lat="53.0173660" lon="-6.4546790">
    <ele>721.9</ele>
    <time>2025-07-19T13:06:46Z</time>
   </trkpt>
   <trkpt lat="53.0173340" lon="-6.4546220">
    <ele>722.3</ele>
    <time>2025-07-19T13:06:58Z</time>
   </trkpt>
   <trkpt lat="53.0172910" lon="-6.4545830">
    <ele>722.5</ele>
    <time>2025-07-19T13:07:05Z</time>
   </trkpt>
   <trkpt lat="53.0172700" lon="-6.4545060">
    <ele>722.8</ele>
    <time>2025-07-19T13:07:10Z</time>
   </trkpt>
   <trkpt lat="53.0172770" lon="-6.4544300">
    <ele>723.0</ele>
    <time>2025-07-19T13:07:16Z</time>
   </trkpt>
   <trkpt lat="53.0172610" lon="-6.4543550">
    <ele>723.3</ele>
    <time>2025-07-19T13:07:22Z</time>
   </trkpt>
   <trkpt lat="53.0172330" lon="-6.4542970">
    <ele>723.6</ele>
    <time>2025-07-19T13:07:28Z</time>
   </trkpt>
   <trkpt lat="53.0172230" lon="-6.4542180">
    <ele>723.9</ele>
    <time>2025-07-19T13:07:33Z</time>
   </trkpt>
   <trkpt lat="53.0171820" lon="-6.4541710">
    <ele>724.2</ele>
    <time>2025-07-19T13:07:39Z</time>
   </trkpt>
   <trkpt lat="53.0171660" lon="-6.4540810">
    <ele>724.4</ele>
    <time>2025-07-19T13:07:44Z</time>
   </trkpt>
   <trkpt lat="53.0171450" lon="-6.4540010">
    <ele>724.7</ele>
    <time>2025-07-19T13:07:49Z</time>
   </trkpt>
   <trkpt lat="53.0171250" lon="-6.4539110">
    <ele>725.0</ele>
    <time>2025-07-19T13:07:54Z</time>
   </trkpt>
   <trkpt lat="53.0170990" lon="-6.4538220">
    <ele>725.3</ele>
    <time>2025-07-19T13:08:00Z</time>
   </trkpt>
   <trkpt lat="53.0170890" lon="-6.4537390">
    <ele>725.5</ele>
    <time>2025-07-19T13:08:05Z</time>
   </trkpt>
   <trkpt lat="53.0170550" lon="-6.4536730">
    <ele>725.8</ele>
    <time>2025-07-19T13:08:10Z</time>
   </trkpt>
   <trkpt lat="53.0170190" lon="-6.4536040">
    <ele>726.0</ele>
    <time>2025-07-19T13:08:16Z</time>
   </trkpt>
   <trkpt lat="53.0169790" lon="-6.4535380">
    <ele>726.3</ele>
    <time>2025-07-19T13:08:21Z</time>
   </trkpt>
   <trkpt lat="53.0169520" lon="-6.4534750">
    <ele>726.5</ele>
    <time>2025-07-19T13:08:27Z</time>
   </trkpt>
   <trkpt lat="53.0169110" lon="-6.4533900">
    <ele>726.8</ele>
    <time>2025-07-19T13:08:32Z</time>
   </trkpt>
   <trkpt lat="53.0168650" lon="-6.4533510">
    <ele>727.1</ele>
    <time>2025-07-19T13:08:37Z</time>
   </trkpt>
   <trkpt lat="53.0168240" lon="-6.4532890">
    <ele>727.5</ele>
    <time>2025-07-19T13:08:50Z</time>
   </trkpt>
   <trkpt lat="53.0167720" lon="-6.4532070">
    <ele>727.8</ele>
    <time>2025-07-19T13:08:55Z</time>
   </trkpt>
   <trkpt lat="53.0167280" lon="-6.4531610">
    <ele>728.0</ele>
    <time>2025-07-19T13:09:00Z</time>
   </trkpt>
   <trkpt lat="53.0166800" lon="-6.4531160">
    <ele>728.3</ele>
    <time>2025-07-19T13:09:05Z</time>
   </trkpt>
   <trkpt lat="53.0166440" lon="-6.4530620">
    <ele>728.6</ele>
    <time>2025-07-19T13:09:10Z</time>
   </trkpt>
   <trkpt lat="53.0166100" lon="-6.4529900">
    <ele>728.9</ele>
    <time>2025-07-19T13:09:16Z</time>
   </trkpt>
   <trkpt lat="53.0165750" lon="-6.4529210">
    <ele>729.2</ele>
    <time>2025-07-19T13:09:21Z</time>
   </trkpt>
   <trkpt lat="53.0165360" lon="-6.4528560">
    <ele>729.4</ele>
    <time>2025-07-19T13:09:26Z</time>
   </trkpt>
   <trkpt lat="53.0165130" lon="-6.4527850">
    <ele>729.7</ele>
    <time>2025-07-19T13:09:31Z</time>
   </trkpt>
   <trkpt lat="53.0164730" lon="-6.4527450">
    <ele>729.9</ele>
    <time>2025-07-19T13:09:37Z</time>
   </trkpt>
   <trkpt lat="53.0164400" lon="-6.4526750">
    <ele>730.1</ele>
    <time>2025-07-19T13:09:43Z</time>
   </trkpt>
   <trkpt lat="53.0164080" lon="-6.4526160">
    <ele>730.3</ele>
    <time>2025-07-19T13:09:48Z</time>
   </trkpt>
   <trkpt lat="53.0163720" lon="-6.4525460">
    <ele>730.5</ele>
    <time>2025-07-19T13:09:54Z</time>
   </trkpt>
   <trkpt lat="53.0163420" lon="-6.4524660">
    <ele>730.7</ele>
    <time>2025-07-19T13:09:59Z</time>
   </trkpt>
   <trkpt lat="53.0163080" lon="-6.4524090">
    <ele>730.8</ele>
    <time>2025-07-19T13:10:05Z</time>
   </trkpt>
   <trkpt lat="53.0162640" lon="-6.4523780">
    <ele>730.9</ele>
    <time>2025-07-19T13:10:10Z</time>
   </trkpt>
   <trkpt lat="53.0162210" lon="-6.4523440">
    <ele>731.0</ele>
    <time>2025-07-19T13:10:16Z</time>
   </trkpt>
   <trkpt lat="53.0161780" lon="-6.4523070">
    <ele>731.2</ele>
    <time>2025-07-19T13:10:30Z</time>
   </trkpt>
   <trkpt lat="53.0161290" lon="-6.4522730">
    <ele>731.2</ele>
    <time>2025-07-19T13:10:35Z</time>
   </trkpt>
   <trkpt lat="53.0160880" lon="-6.4522210">
    <ele>731.3</ele>
    <time>2025-07-19T13:10:40Z</time>
   </trkpt>
   <trkpt lat="53.0160490" lon="-6.4521770">
    <ele>731.3</ele>
    <time>2025-07-19T13:10:47Z</time>
   </trkpt>
   <trkpt lat="53.0160050" lon="-6.4521310">
    <ele>731.4</ele>
    <time>2025-07-19T13:10:52Z</time>
   </trkpt>
   <trkpt lat="53.0159540" lon="-6.4520710">
    <ele>731.5</ele>
    <time>2025-07-19T13:10:58Z</time>
   </trkpt>
   <trkpt lat="53.0159060" lon="-6.4520110">
    <ele>731.5</ele>
    <time>2025-07-19T13:11:03Z</time>
   </trkpt>
   <trkpt lat="53.0158670" lon="-6.4519580">
    <ele>731.6</ele>
    <time>2025-07-19T13:11:09Z</time>
   </trkpt>
   <trkpt lat="53.0158050" lon="-6.4519160">
    <ele>731.7</ele>
    <time>2025-07-19T13:11:15Z</time>
   </trkpt>
   <trkpt lat="53.0157690" lon="-6.4518660">
    <ele>731.8</ele>
    <time>2025-07-19T13:11:20Z</time>
   </trkpt>
   <trkpt lat="53.0157250" lon="-6.4518070">
    <ele>731.9</ele>
    <time>2025-07-19T13:11:25Z</time>
   </trkpt>
   <trkpt lat="53.0156760" lon="-6.4517560">
    <ele>732.0</ele>
    <time>2025-07-19T13:11:30Z</time>
   </trkpt>
   <trkpt lat="53.0156360" lon="-6.4517090">
    <ele>732.1</ele>
    <time>2025-07-19T13:11:36Z</time>
   </trkpt>
   <trkpt lat="53.0155880" lon="-6.4516720">
    <ele>732.3</ele>
    <time>2025-07-19T13:11:55Z</time>
   </trkpt>
   <trkpt lat="53.0155390" lon="-6.4515840">
    <ele>732.4</ele>
    <time>2025-07-19T13:12:00Z</time>
   </trkpt>
   <trkpt lat="53.0154870" lon="-6.4514980">
    <ele>732.6</ele>
    <time>2025-07-19T13:12:05Z</time>
   </trkpt>
   <trkpt lat="53.0154570" lon="-6.4514180">
    <ele>732.8</ele>
    <time>2025-07-19T13:12:11Z</time>
   </trkpt>
   <trkpt lat="53.0154190" lon="-6.4513510">
    <ele>733.0</ele>
    <time>2025-07-19T13:12:16Z</time>
   </trkpt>
   <trkpt lat="53.0153730" lon="-6.4512750">
    <ele>733.1</ele>
    <time>2025-07-19T13:12:21Z</time>
   </trkpt>
   <trkpt lat="53.0153340" lon="-6.4512170">
    <ele>733.2</ele>
    <time>2025-07-19T13:12:26Z</time>
   </trkpt>
   <trkpt lat="53.0152720" lon="-6.4511560">
    <ele>733.3</ele>
    <time>2025-07-19T13:12:32Z</time>
   </trkpt>
   <trkpt lat="53.0152250" lon="-6.4511720">
    <ele>733.4</ele>
    <time>2025-07-19T13:13:14Z</time>
   </trkpt>
   <trkpt lat="53.0151830" lon="-6.4512780">
    <ele>733.3</ele>
    <time>2025-07-19T13:13:19Z</time>
   </trkpt>
   <trkpt lat="53.0151540" lon="-6.4513840">
    <ele>733.1</ele>
    <time>2025-07-19T13:13:24Z</time>
   </trkpt>
   <trkpt lat="53.0151400" lon="-6.4514950">
    <ele>732.9</ele>
    <time>2025-07-19T13:13:30Z</time>
   </trkpt>
   <trkpt lat="53.0151000" lon="-6.4515290">
    <ele>732.5</ele>
    <time>2025-07-19T13:14:21Z</time>
   </trkpt>
   <trkpt lat="53.0150850" lon="-6.4514590">
    <ele>732.6</ele>
    <time>2025-07-19T13:15:14Z</time>
   </trkpt>
   <trkpt lat="53.0150650" lon="-6.4513520">
    <ele>732.7</ele>
    <time>2025-07-19T13:15:19Z</time>
   </trkpt>
   <trkpt lat="53.0150780" lon="-6.4512470">
    <ele>732.9</ele>
    <time>2025-07-19T13:15:24Z</time>
   </trkpt>
   <trkpt lat="53.0150770" lon="-6.4511720">
    <ele>733.0</ele>
    <time>2025-07-19T13:15:54Z</time>
   </trkpt>
   <trkpt lat="53.0150890" lon="-6.4510980">
    <ele>733.1</ele>
    <time>2025-07-19T13:16:00Z</time>
   </trkpt>
   <trkpt lat="53.0150920" lon="-6.4510210">
    <ele>733.2</ele>
    <time>2025-07-19T13:16:06Z</time>
   </trkpt>
   <trkpt lat="53.0150460" lon="-6.4509950">
    <ele>733.2</ele>
    <time>2025-07-19T13:26:40Z</time>
   </trkpt>
   <trkpt lat="53.0149780" lon="-6.4509810">
    <ele>733.2</ele>
    <time>2025-07-19T13:26:46Z</time>
   </trkpt>
   <trkpt lat="53.0149320" lon="-6.4509600">
    <ele>733.1</ele>
    <time>2025-07-19T13:26:51Z</time>
   </trkpt>
   <trkpt lat="53.0148850" lon="-6.4509530">
    <ele>733.0</ele>
    <time>2025-07-19T13:26:56Z</time>
   </trkpt>
   <trkpt lat="53.0148500" lon="-6.4509030">
    <ele>732.8</ele>
    <time>2025-07-19T13:27:28Z</time>
   </trkpt>
   <trkpt lat="53.0147770" lon="-6.4508430">
    <ele>732.7</ele>
    <time>2025-07-19T13:27:33Z</time>
   </trkpt>
   <trkpt lat="53.0147250" lon="-6.4508230">
    <ele>732.6</ele>
    <time>2025-07-19T13:27:38Z</time>
   </trkpt>
   <trkpt lat="53.0146720" lon="-6.4508060">
    <ele>732.4</ele>
    <time>2025-07-19T13:27:44Z</time>
   </trkpt>
   <trkpt lat="53.0146310" lon="-6.4507690">
    <ele>732.3</ele>
    <time>2025-07-19T13:27:49Z</time>
   </trkpt>
   <trkpt lat="53.0145840" lon="-6.4507410">
    <ele>732.1</ele>
    <time>2025-07-19T13:27:55Z</time>
   </trkpt>
   <trkpt lat="53.0145370" lon="-6.4507370">
    <ele>731.9</ele>
    <time>2025-07-19T13:28:01Z</time>
   </trkpt>
   <trkpt lat="53.0145010" lon="-6.4506800">
    <ele>731.6</ele>
    <time>2025-07-19T13:28:07Z</time>
   </trkpt>
   <trkpt lat="53.0144570" lon="-6.4506090">
    <ele>731.3</ele>
    <time>2025-07-19T13:28:13Z</time>
   </trkpt>
   <trkpt lat="53.0144040" lon="-6.4505590">
    <ele>730.9</ele>
    <time>2025-07-19T13:28:18Z</time>
   </trkpt>
   <trkpt lat="53.0143540" lon="-6.4505090">
    <ele>730.5</ele>
    <time>2025-07-19T13:28:23Z</time>
   </trkpt>
   <trkpt lat="53.0143090" lon="-6.4504810">
    <ele>730.1</ele>
    <time>2025-07-19T13:28:28Z</time>
   </trkpt>
   <trkpt lat="53.0142620" lon="-6.4504450">
    <ele>729.6</ele>
    <time>2025-07-19T13:28:34Z</time>
   </trkpt>
   <trkpt lat="53.0142230" lon="-6.4503820">
    <ele>729.1</ele>
    <time>2025-07-19T13:28:39Z</time>
   </trkpt>
   <trkpt lat="53.0141730" lon="-6.4503390">
    <ele>728.7</ele>
    <time>2025-07-19T13:28:44Z</time>
   </trkpt>
   <trkpt lat="53.0141230" lon="-6.4502790">
    <ele>728.1</ele>
    <time>2025-07-19T13:28:50Z</time>
   </trkpt>
   <trkpt lat="53.0140700" lon="-6.4502180">
    <ele>727.4</ele>
    <time>2025-07-19T13:28:55Z</time>
   </trkpt>
   <trkpt lat="53.0140100" lon="-6.4501920">
    <ele>726.8</ele>
    <time>2025-07-19T13:29:00Z</time>
   </trkpt>
   <trkpt lat="53.0139530" lon="-6.4501650">
    <ele>726.3</ele>
    <time>2025-07-19T13:29:06Z</time>
   </trkpt>
   <trkpt lat="53.0139070" lon="-6.4501210">
    <ele>725.8</ele>
    <time>2025-07-19T13:29:11Z</time>
   </trkpt>
   <trkpt lat="53.0138540" lon="-6.4500790">
    <ele>725.3</ele>
    <time>2025-07-19T13:29:16Z</time>
   </trkpt>
   <trkpt lat="53.0138010" lon="-6.4500370">
    <ele>724.9</ele>
    <time>2025-07-19T13:29:22Z</time>
   </trkpt>
   <trkpt lat="53.0137530" lon="-6.4500190">
    <ele>724.4</ele>
    <time>2025-07-19T13:29:27Z</time>
   </trkpt>
   <trkpt lat="53.0137000" lon="-6.4499700">
    <ele>723.9</ele>
    <time>2025-07-19T13:29:32Z</time>
   </trkpt>
   <trkpt lat="53.0136390" lon="-6.4499170">
    <ele>723.4</ele>
    <time>2025-07-19T13:29:38Z</time>
   </trkpt>
   <trkpt lat="53.0135860" lon="-6.4498680">
    <ele>722.9</ele>
    <time>2025-07-19T13:29:43Z</time>
   </trkpt>
   <trkpt lat="53.0135300" lon="-6.4498090">
    <ele>722.3</ele>
    <time>2025-07-19T13:29:49Z</time>
   </trkpt>
   <trkpt lat="53.0134810" lon="-6.4497490">
    <ele>721.7</ele>
    <time>2025-07-19T13:29:55Z</time>
   </trkpt>
   <trkpt lat="53.0134320" lon="-6.4496890">
    <ele>721.1</ele>
    <time>2025-07-19T13:30:00Z</time>
   </trkpt>
   <trkpt lat="53.0133810" lon="-6.4496620">
    <ele>720.4</ele>
    <time>2025-07-19T13:30:06Z</time>
   </trkpt>
   <trkpt lat="53.0133400" lon="-6.4496020">
    <ele>719.8</ele>
    <time>2025-07-19T13:30:11Z</time>
   </trkpt>
   <trkpt lat="53.0132870" lon="-6.4495610">
    <ele>719.1</ele>
    <time>2025-07-19T13:30:17Z</time>
   </trkpt>
   <trkpt lat="53.0132460" lon="-6.4495000">
    <ele>718.4</ele>
    <time>2025-07-19T13:30:22Z</time>
   </trkpt>
   <trkpt lat="53.0131960" lon="-6.4494450">
    <ele>717.6</ele>
    <time>2025-07-19T13:30:28Z</time>
   </trkpt>
   <trkpt lat="53.0131550" lon="-6.4493920">
    <ele>716.9</ele>
    <time>2025-07-19T13:30:33Z</time>
   </trkpt>
   <trkpt lat="53.0131160" lon="-6.4493430">
    <ele>716.1</ele>
    <time>2025-07-19T13:30:41Z</time>
   </trkpt>
   <trkpt lat="53.0130760" lon="-6.4492550">
    <ele>715.5</ele>
    <time>2025-07-19T13:30:46Z</time>
   </trkpt>
   <trkpt lat="53.0130480" lon="-6.4491690">
    <ele>714.7</ele>
    <time>2025-07-19T13:30:51Z</time>
   </trkpt>
   <trkpt lat="53.0130250" lon="-6.4490880">
    <ele>714.0</ele>
    <time>2025-07-19T13:30:57Z</time>
   </trkpt>
   <trkpt lat="53.0130060" lon="-6.4489970">
    <ele>713.2</ele>
    <time>2025-07-19T13:31:02Z</time>
   </trkpt>
   <trkpt lat="53.0129910" lon="-6.4489080">
    <ele>712.4</ele>
    <time>2025-07-19T13:31:08Z</time>
   </trkpt>
   <trkpt lat="53.0129680" lon="-6.4488270">
    <ele>711.6</ele>
    <time>2025-07-19T13:31:13Z</time>
   </trkpt>
   <trkpt lat="53.0129470" lon="-6.4487600">
    <ele>711.0</ele>
    <time>2025-07-19T13:31:18Z</time>
   </trkpt>
   <trkpt lat="53.0129250" lon="-6.4486860">
    <ele>710.2</ele>
    <time>2025-07-19T13:31:24Z</time>
   </trkpt>
   <trkpt lat="53.0129230" lon="-6.4485840">
    <ele>709.4</ele>
    <time>2025-07-19T13:31:29Z</time>
   </trkpt>
   <trkpt lat="53.0129010" lon="-6.4485090">
    <ele>708.6</ele>
    <time>2025-07-19T13:31:35Z</time>
   </trkpt>
   <trkpt lat="53.0128710" lon="-6.4484300">
    <ele>707.8</ele>
    <time>2025-07-19T13:31:40Z</time>
   </trkpt>
   <trkpt lat="53.0128350" lon="-6.4483790">
    <ele>707.0</ele>
    <time>2025-07-19T13:31:46Z</time>
   </trkpt>
   <trkpt lat="53.0128020" lon="-6.4483150">
    <ele>706.2</ele>
    <time>2025-07-19T13:31:52Z</time>
   </trkpt>
   <trkpt lat="53.0127610" lon="-6.4482640">
    <ele>705.5</ele>
    <time>2025-07-19T13:31:58Z</time>
   </trkpt>
   <trkpt lat="53.0127240" lon="-6.4481940">
    <ele>704.8</ele>
    <time>2025-07-19T13:32:03Z</time>
   </trkpt>
   <trkpt lat="53.0126900" lon="-6.4481410">
    <ele>704.2</ele>
    <time>2025-07-19T13:32:08Z</time>
   </trkpt>
   <trkpt lat="53.0126550" lon="-6.4480850">
    <ele>703.6</ele>
    <time>2025-07-19T13:32:13Z</time>
   </trkpt>
   <trkpt lat="53.0126090" lon="-6.4480470">
    <ele>703.0</ele>
    <time>2025-07-19T13:32:19Z</time>
   </trkpt>
   <trkpt lat="53.0125720" lon="-6.4479900">
    <ele>702.5</ele>
    <time>2025-07-19T13:32:25Z</time>
   </trkpt>
   <trkpt lat="53.0125350" lon="-6.4479460">
    <ele>702.0</ele>
    <time>2025-07-19T13:32:31Z</time>
   </trkpt>
   <trkpt lat="53.0125150" lon="-6.4478510">
    <ele>701.5</ele>
    <time>2025-07-19T13:32:36Z</time>
   </trkpt>
   <trkpt lat="53.0124720" lon="-6.4477770">
    <ele>700.9</ele>
    <time>2025-07-19T13:32:42Z</time>
   </trkpt>
   <trkpt lat="53.0124480" lon="-6.4477130">
    <ele>700.5</ele>
    <time>2025-07-19T13:32:47Z</time>
   </trkpt>
   <trkpt lat="53.0124140" lon="-6.4476520">
    <ele>700.0</ele>
    <time>2025-07-19T13:32:52Z</time>
   </trkpt>
   <trkpt lat="53.0123790" lon="-6.4475830">
    <ele>699.4</ele>
    <time>2025-07-19T13:32:57Z</time>
   </trkpt>
   <trkpt lat="53.0123420" lon="-6.4475400">
    <ele>698.8</ele>
    <time>2025-07-19T13:33:03Z</time>
   </trkpt>
   <trkpt lat="53.0123140" lon="-6.4474620">
    <ele>698.2</ele>
    <time>2025-07-19T13:33:09Z</time>
   </trkpt>
   <trkpt lat="53.0122890" lon="-6.4473900">
    <ele>697.5</ele>
    <time>2025-07-19T13:33:16Z</time>
   </trkpt>
   <trkpt lat="53.0122550" lon="-6.4472990">
    <ele>696.8</ele>
    <time>2025-07-19T13:33:21Z</time>
   </trkpt>
   <trkpt lat="53.0122310" lon="-6.4472250">
    <ele>696.2</ele>
    <time>2025-07-19T13:33:26Z</time>
   </trkpt>
   <trkpt lat="53.0122130" lon="-6.4471500">
    <ele>695.4</ele>
    <time>2025-07-19T13:33:32Z</time>
   </trkpt>
   <trkpt lat="53.0121850" lon="-6.4470820">
    <ele>694.7</ele>
    <time>2025-07-19T13:33:38Z</time>
   </trkpt>
   <trkpt lat="53.0121450" lon="-6.4470070">
    <ele>694.1</ele>
    <time>2025-07-19T13:33:43Z</time>
   </trkpt>
   <trkpt lat="53.0121150" lon="-6.4469460">
    <ele>693.0</ele>
    <time>2025-07-19T13:33:56Z</time>
   </trkpt>
   <trkpt lat="53.0120850" lon="-6.4468090">
    <ele>692.1</ele>
    <time>2025-07-19T13:34:01Z</time>
   </trkpt>
   <trkpt lat="53.0120770" lon="-6.4467140">
    <ele>691.1</ele>
    <time>2025-07-19T13:34:07Z</time>
   </trkpt>
   <trkpt lat="53.0120540" lon="-6.4466270">
    <ele>690.1</ele>
    <time>2025-07-19T13:34:12Z</time>
   </trkpt>
   <trkpt lat="53.0120440" lon="-6.4465530">
    <ele>688.6</ele>
    <time>2025-07-19T13:34:40Z</time>
   </trkpt>
   <trkpt lat="53.0120090" lon="-6.4464600">
    <ele>688.0</ele>
    <time>2025-07-19T13:34:46Z</time>
   </trkpt>
   <trkpt lat="53.0119770" lon="-6.4463960">
    <ele>687.1</ele>
    <time>2025-07-19T13:34:51Z</time>
   </trkpt>
   <trkpt lat="53.0119570" lon="-6.4463260">
    <ele>686.0</ele>
    <time>2025-07-19T13:34:58Z</time>
   </trkpt>
   <trkpt lat="53.0119410" lon="-6.4462540">
    <ele>685.3</ele>
    <time>2025-07-19T13:35:04Z</time>
   </trkpt>
   <trkpt lat="53.0119150" lon="-6.4461760">
    <ele>684.3</ele>
    <time>2025-07-19T13:35:09Z</time>
   </trkpt>
   <trkpt lat="53.0118930" lon="-6.4460950">
    <ele>683.3</ele>
    <time>2025-07-19T13:35:15Z</time>
   </trkpt>
   <trkpt lat="53.0118670" lon="-6.4460180">
    <ele>682.3</ele>
    <time>2025-07-19T13:35:20Z</time>
   </trkpt>
   <trkpt lat="53.0118350" lon="-6.4459430">
    <ele>681.2</ele>
    <time>2025-07-19T13:35:25Z</time>
   </trkpt>
   <trkpt lat="53.0118060" lon="-6.4458720">
    <ele>679.7</ele>
    <time>2025-07-19T13:35:34Z</time>
   </trkpt>
   <trkpt lat="53.0117920" lon="-6.4457970">
    <ele>678.7</ele>
    <time>2025-07-19T13:35:39Z</time>
   </trkpt>
   <trkpt lat="53.0118040" lon="-6.4457180">
    <ele>677.8</ele>
    <time>2025-07-19T13:35:44Z</time>
   </trkpt>
   <trkpt lat="53.0117680" lon="-6.4456520">
    <ele>676.6</ele>
    <time>2025-07-19T13:35:50Z</time>
   </trkpt>
   <trkpt lat="53.0117260" lon="-6.4456140">
    <ele>675.0</ele>
    <time>2025-07-19T13:36:02Z</time>
   </trkpt>
   <trkpt lat="53.0116810" lon="-6.4455660">
    <ele>674.3</ele>
    <time>2025-07-19T13:36:07Z</time>
   </trkpt>
   <trkpt lat="53.0116350" lon="-6.4455040">
    <ele>673.3</ele>
    <time>2025-07-19T13:36:13Z</time>
   </trkpt>
   <trkpt lat="53.0115960" lon="-6.4454620">
    <ele>671.8</ele>
    <time>2025-07-19T13:36:19Z</time>
   </trkpt>
   <trkpt lat="53.0115580" lon="-6.4454220">
    <ele>670.7</ele>
    <time>2025-07-19T13:36:30Z</time>
   </trkpt>
   <trkpt lat="53.0115090" lon="-6.4453590">
    <ele>669.7</ele>
    <time>2025-07-19T13:36:35Z</time>
   </trkpt>
   <trkpt lat="53.0114650" lon="-6.4453400">
    <ele>668.0</ele>
    <time>2025-07-19T13:39:04Z</time>
   </trkpt>
   <trkpt lat="53.0114180" lon="-6.4453140">
    <ele>667.6</ele>
    <time>2025-07-19T13:40:18Z</time>
   </trkpt>
   <trkpt lat="53.0113770" lon="-6.4452520">
    <ele>666.8</ele>
    <time>2025-07-19T13:40:30Z</time>
   </trkpt>
   <trkpt lat="53.0113250" lon="-6.4451860">
    <ele>665.7</ele>
    <time>2025-07-19T13:40:35Z</time>
   </trkpt>
   <trkpt lat="53.0112690" lon="-6.4451510">
    <ele>664.6</ele>
    <time>2025-07-19T13:40:40Z</time>
   </trkpt>
   <trkpt lat="53.0112250" lon="-6.4451160">
    <ele>663.4</ele>
    <time>2025-07-19T13:40:47Z</time>
   </trkpt>
   <trkpt lat="53.0111800" lon="-6.4450510">
    <ele>662.3</ele>
    <time>2025-07-19T13:40:53Z</time>
   </trkpt>
   <trkpt lat="53.0111490" lon="-6.4449960">
    <ele>661.2</ele>
    <time>2025-07-19T13:41:00Z</time>
   </trkpt>
   <trkpt lat="53.0111130" lon="-6.4449350">
    <ele>659.7</ele>
    <time>2025-07-19T13:41:11Z</time>
   </trkpt>
   <trkpt lat="53.0110770" lon="-6.4448870">
    <ele>658.4</ele>
    <time>2025-07-19T13:41:32Z</time>
   </trkpt>
   <trkpt lat="53.0110240" lon="-6.4448090">
    <ele>657.7</ele>
    <time>2025-07-19T13:41:37Z</time>
   </trkpt>
   <trkpt lat="53.0109810" lon="-6.4447680">
    <ele>656.5</ele>
    <time>2025-07-19T13:41:45Z</time>
   </trkpt>
   <trkpt lat="53.0109320" lon="-6.4447200">
    <ele>655.6</ele>
    <time>2025-07-19T13:41:50Z</time>
   </trkpt>
   <trkpt lat="53.0108950" lon="-6.4446750">
    <ele>654.6</ele>
    <time>2025-07-19T13:41:58Z</time>
   </trkpt>
   <trkpt lat="53.0108540" lon="-6.4446290">
    <ele>653.5</ele>
    <time>2025-07-19T13:42:05Z</time>
   </trkpt>
   <trkpt lat="53.0108230" lon="-6.4445680">
    <ele>652.6</ele>
    <time>2025-07-19T13:42:10Z</time>
   </trkpt>
   <trkpt lat="53.0107750" lon="-6.4445660">
    <ele>651.6</ele>
    <time>2025-07-19T13:42:18Z</time>
   </trkpt>
   <trkpt lat="53.0107390" lon="-6.4445030">
    <ele>650.8</ele>
    <time>2025-07-19T13:42:25Z</time>
   </trkpt>
   <trkpt lat="53.0107130" lon="-6.4444410">
    <ele>649.7</ele>
    <time>2025-07-19T13:42:31Z</time>
   </trkpt>
   <trkpt lat="53.0106790" lon="-6.4443880">
    <ele>648.7</ele>
    <time>2025-07-19T13:42:36Z</time>
   </trkpt>
   <trkpt lat="53.0106450" lon="-6.4443310">
    <ele>647.4</ele>
    <time>2025-07-19T13:42:43Z</time>
   </trkpt>
   <trkpt lat="53.0106160" lon="-6.4442670">
    <ele>645.9</ele>
    <time>2025-07-19T13:44:04Z</time>
   </trkpt>
   <trkpt lat="53.0105740" lon="-6.4442090">
    <ele>644.7</ele>
    <time>2025-07-19T13:44:10Z</time>
   </trkpt>
   <trkpt lat="53.0105660" lon="-6.4441290">
    <ele>643.1</ele>
    <time>2025-07-19T13:44:25Z</time>
   </trkpt>
   <trkpt lat="53.0105530" lon="-6.4440560">
    <ele>641.7</ele>
    <time>2025-07-19T13:44:33Z</time>
   </trkpt>
   <trkpt lat="53.0105220" lon="-6.4439940">
    <ele>640.5</ele>
    <time>2025-07-19T13:44:39Z</time>
   </trkpt>
   <trkpt lat="53.0105010" lon="-6.4439250">
    <ele>639.0</ele>
    <time>2025-07-19T13:44:46Z</time>
   </trkpt>
   <trkpt lat="53.0104800" lon="-6.4438540">
    <ele>637.3</ele>
    <time>2025-07-19T13:44:52Z</time>
   </trkpt>
   <trkpt lat="53.0104420" lon="-6.4438060">
    <ele>634.5</ele>
    <time>2025-07-19T13:45:14Z</time>
   </trkpt>
   <trkpt lat="53.0103910" lon="-6.4437530">
    <ele>633.6</ele>
    <time>2025-07-19T13:45:19Z</time>
   </trkpt>
   <trkpt lat="53.0103550" lon="-6.4436940">
    <ele>631.7</ele>
    <time>2025-07-19T13:45:37Z</time>
   </trkpt>
   <trkpt lat="53.0103120" lon="-6.4436530">
    <ele>630.4</ele>
    <time>2025-07-19T13:45:42Z</time>
   </trkpt>
   <trkpt lat="53.0102830" lon="-6.4435890">
    <ele>628.1</ele>
    <time>2025-07-19T13:45:52Z</time>
   </trkpt>
   <trkpt lat="53.0102430" lon="-6.4435460">
    <ele>626.7</ele>
    <time>2025-07-19T13:45:58Z</time>
   </trkpt>
   <trkpt lat="53.0101960" lon="-6.4435160">
    <ele>624.7</ele>
    <time>2025-07-19T13:46:10Z</time>
   </trkpt>
   <trkpt lat="53.0101500" lon="-6.4435290">
    <ele>624.1</ele>
    <time>2025-07-19T13:46:16Z</time>
   </trkpt>
   <trkpt lat="53.0101250" lon="-6.4434670">
    <ele>622.8</ele>
    <time>2025-07-19T13:46:23Z</time>
   </trkpt>
   <trkpt lat="53.0100850" lon="-6.4434230">
    <ele>620.6</ele>
    <time>2025-07-19T13:46:44Z</time>
   </trkpt>
   <trkpt lat="53.0100480" lon="-6.4433770">
    <ele>619.3</ele>
    <time>2025-07-19T13:46:55Z</time>
   </trkpt>
   <trkpt lat="53.0100010" lon="-6.4433740">
    <ele>618.5</ele>
    <time>2025-07-19T13:47:01Z</time>
   </trkpt>
   <trkpt lat="53.0099570" lon="-6.4433950">
    <ele>618.0</ele>
    <time>2025-07-19T13:47:11Z</time>
   </trkpt>
   <trkpt lat="53.0099360" lon="-6.4433290">
    <ele>617.3</ele>
    <time>2025-07-19T13:47:17Z</time>
   </trkpt>
   <trkpt lat="53.0098890" lon="-6.4433330">
    <ele>616.2</ele>
    <time>2025-07-19T13:47:24Z</time>
   </trkpt>
   <trkpt lat="53.0098470" lon="-6.4432990">
    <ele>614.9</ele>
    <time>2025-07-19T13:47:36Z</time>
   </trkpt>
   <trkpt lat="53.0098010" lon="-6.4432810">
    <ele>614.0</ele>
    <time>2025-07-19T13:47:47Z</time>
   </trkpt>
   <trkpt lat="53.0097660" lon="-6.4432230">
    <ele>613.1</ele>
    <time>2025-07-19T13:47:54Z</time>
   </trkpt>
   <trkpt lat="53.0097610" lon="-6.4431490">
    <ele>611.0</ele>
    <time>2025-07-19T13:48:35Z</time>
   </trkpt>
   <trkpt lat="53.0097270" lon="-6.4430590">
    <ele>609.8</ele>
    <time>2025-07-19T13:48:41Z</time>
   </trkpt>
   <trkpt lat="53.0096940" lon="-6.4429990">
    <ele>608.2</ele>
    <time>2025-07-19T13:48:46Z</time>
   </trkpt>
   <trkpt lat="53.0096780" lon="-6.4429280">
    <ele>606.0</ele>
    <time>2025-07-19T13:48:56Z</time>
   </trkpt>
   <trkpt lat="53.0096560" lon="-6.4428590">
    <ele>604.5</ele>
    <time>2025-07-19T13:49:06Z</time>
   </trkpt>
   <trkpt lat="53.0096180" lon="-6.4428120">
    <ele>603.3</ele>
    <time>2025-07-19T13:49:12Z</time>
   </trkpt>
   <trkpt lat="53.0096000" lon="-6.4427310">
    <ele>602.0</ele>
    <time>2025-07-19T13:49:17Z</time>
   </trkpt>
   <trkpt lat="53.0095740" lon="-6.4426700">
    <ele>600.4</ele>
    <time>2025-07-19T13:49:23Z</time>
   </trkpt>
   <trkpt lat="53.0095370" lon="-6.4426030">
    <ele>598.3</ele>
    <time>2025-07-19T13:49:37Z</time>
   </trkpt>
   <trkpt lat="53.0094920" lon="-6.4425930">
    <ele>596.8</ele>
    <time>2025-07-19T13:49:55Z</time>
   </trkpt>
   <trkpt lat="53.0094810" lon="-6.4425180">
    <ele>596.3</ele>
    <time>2025-07-19T13:50:01Z</time>
   </trkpt>
   <trkpt lat="53.0094480" lon="-6.4424610">
    <ele>595.0</ele>
    <time>2025-07-19T13:50:07Z</time>
   </trkpt>
   <trkpt lat="53.0094200" lon="-6.4423980">
    <ele>593.5</ele>
    <time>2025-07-19T13:50:14Z</time>
   </trkpt>
   <trkpt lat="53.0094140" lon="-6.4423230">
    <ele>592.4</ele>
    <time>2025-07-19T13:50:19Z</time>
   </trkpt>
   <trkpt lat="53.0093820" lon="-6.4422630">
    <ele>590.9</ele>
    <time>2025-07-19T13:50:26Z</time>
   </trkpt>
   <trkpt lat="53.0093650" lon="-6.4421800">
    <ele>589.6</ele>
    <time>2025-07-19T13:50:32Z</time>
   </trkpt>
   <trkpt lat="53.0093500" lon="-6.4421000">
    <ele>587.3</ele>
    <time>2025-07-19T13:50:53Z</time>
   </trkpt>
   <trkpt lat="53.0093350" lon="-6.4420260">
    <ele>585.9</ele>
    <time>2025-07-19T13:51:10Z</time>
   </trkpt>
   <trkpt lat="53.0093210" lon="-6.4419420">
    <ele>584.9</ele>
    <time>2025-07-19T13:51:15Z</time>
   </trkpt>
   <trkpt lat="53.0092860" lon="-6.4418950">
    <ele>583.3</ele>
    <time>2025-07-19T13:51:28Z</time>
   </trkpt>
   <trkpt lat="53.0092540" lon="-6.4419500">
    <ele>583.0</ele>
    <time>2025-07-19T13:52:19Z</time>
   </trkpt>
   <trkpt lat="53.0092100" lon="-6.4419070">
    <ele>582.6</ele>
    <time>2025-07-19T13:52:24Z</time>
   </trkpt>
   <trkpt lat="53.0091640" lon="-6.4419080">
    <ele>581.9</ele>
    <time>2025-07-19T13:52:35Z</time>
   </trkpt>
   <trkpt lat="53.0091220" lon="-6.4419410">
    <ele>581.6</ele>
    <time>2025-07-19T13:52:42Z</time>
   </trkpt>
   <trkpt lat="53.0090810" lon="-6.4419770">
    <ele>581.6</ele>
    <time>2025-07-19T13:52:50Z</time>
   </trkpt>
   <trkpt lat="53.0090510" lon="-6.4420430">
    <ele>582.0</ele>
    <time>2025-07-19T13:52:58Z</time>
   </trkpt>
   <trkpt lat="53.0090180" lon="-6.4421020">
    <ele>582.4</ele>
    <time>2025-07-19T13:53:03Z</time>
   </trkpt>
   <trkpt lat="53.0089650" lon="-6.4421150">
    <ele>582.9</ele>
    <time>2025-07-19T13:53:18Z</time>
   </trkpt>
   <trkpt lat="53.0089100" lon="-6.4420830">
    <ele>582.4</ele>
    <time>2025-07-19T13:53:23Z</time>
   </trkpt>
   <trkpt lat="53.0088630" lon="-6.4421050">
    <ele>581.6</ele>
    <time>2025-07-19T13:53:30Z</time>
   </trkpt>
   <trkpt lat="53.0088190" lon="-6.4421360">
    <ele>581.3</ele>
    <time>2025-07-19T13:53:42Z</time>
   </trkpt>
   <trkpt lat="53.0087760" lon="-6.4421610">
    <ele>581.1</ele>
    <time>2025-07-19T13:53:47Z</time>
   </trkpt>
   <trkpt lat="53.0087360" lon="-6.4421250">
    <ele>580.0</ele>
    <time>2025-07-19T13:54:17Z</time>
   </trkpt>
   <trkpt lat="53.0086910" lon="-6.4421320">
    <ele>579.4</ele>
    <time>2025-07-19T13:54:41Z</time>
   </trkpt>
   <trkpt lat="53.0086480" lon="-6.4421610">
    <ele>579.1</ele>
    <time>2025-07-19T13:55:20Z</time>
   </trkpt>
   <trkpt lat="53.0086050" lon="-6.4422080">
    <ele>579.1</ele>
    <time>2025-07-19T13:55:34Z</time>
   </trkpt>
   <trkpt lat="53.0085630" lon="-6.4422760">
    <ele>579.4</ele>
    <time>2025-07-19T13:55:39Z</time>
   </trkpt>
   <trkpt lat="53.0085320" lon="-6.4423400">
    <ele>580.3</ele>
    <time>2025-07-19T13:55:51Z</time>
   </trkpt>
   <trkpt lat="53.0084870" lon="-6.4423550">
    <ele>580.5</ele>
    <time>2025-07-19T13:55:56Z</time>
   </trkpt>
   <trkpt lat="53.0084380" lon="-6.4423580">
    <ele>580.2</ele>
    <time>2025-07-19T13:56:04Z</time>
   </trkpt>
   <trkpt lat="53.0083960" lon="-6.4423870">
    <ele>579.8</ele>
    <time>2025-07-19T13:56:31Z</time>
   </trkpt>
   <trkpt lat="53.0083440" lon="-6.4424060">
    <ele>579.6</ele>
    <time>2025-07-19T13:56:37Z</time>
   </trkpt>
   <trkpt lat="53.0082980" lon="-6.4424220">
    <ele>579.2</ele>
    <time>2025-07-19T13:56:48Z</time>
   </trkpt>
   <trkpt lat="53.0082350" lon="-6.4424260">
    <ele>578.6</ele>
    <time>2025-07-19T13:56:53Z</time>
   </trkpt>
   <trkpt lat="53.0081850" lon="-6.4424340">
    <ele>577.8</ele>
    <time>2025-07-19T13:57:01Z</time>
   </trkpt>
   <trkpt lat="53.0081410" lon="-6.4424470">
    <ele>577.3</ele>
    <time>2025-07-19T13:57:08Z</time>
   </trkpt>
   <trkpt lat="53.0081050" lon="-6.4424920">
    <ele>577.1</ele>
    <time>2025-07-19T13:57:13Z</time>
   </trkpt>
   <trkpt lat="53.0080560" lon="-6.4424980">
    <ele>576.8</ele>
    <time>2025-07-19T13:57:25Z</time>
   </trkpt>
   <trkpt lat="53.0079890" lon="-6.4425070">
    <ele>576.2</ele>
    <time>2025-07-19T13:57:30Z</time>
   </trkpt>
   <trkpt lat="53.0079410" lon="-6.4425130">
    <ele>575.4</ele>
    <time>2025-07-19T13:57:36Z</time>
   </trkpt>
   <trkpt lat="53.0078930" lon="-6.4425500">
    <ele>575.0</ele>
    <time>2025-07-19T13:57:41Z</time>
   </trkpt>
   <trkpt lat="53.0078530" lon="-6.4425910">
    <ele>574.8</ele>
    <time>2025-07-19T13:57:59Z</time>
   </trkpt>
   <trkpt lat="53.0078060" lon="-6.4425640">
    <ele>574.2</ele>
    <time>2025-07-19T13:58:08Z</time>
   </trkpt>
   <trkpt lat="53.0077540" lon="-6.4425950">
    <ele>573.6</ele>
    <time>2025-07-19T13:58:13Z</time>
   </trkpt>
   <trkpt lat="53.0076910" lon="-6.4426040">
    <ele>572.7</ele>
    <time>2025-07-19T13:58:19Z</time>
   </trkpt>
   <trkpt lat="53.0076480" lon="-6.4426240">
    <ele>571.3</ele>
    <time>2025-07-19T13:59:16Z</time>
   </trkpt>
   <trkpt lat="53.0075930" lon="-6.4426560">
    <ele>571.1</ele>
    <time>2025-07-19T13:59:22Z</time>
   </trkpt>
   <trkpt lat="53.0075490" lon="-6.4426800">
    <ele>570.7</ele>
    <time>2025-07-19T13:59:27Z</time>
   </trkpt>
   <trkpt lat="53.0075010" lon="-6.4426910">
    <ele>569.9</ele>
    <time>2025-07-19T13:59:35Z</time>
   </trkpt>
   <trkpt lat="53.0074510" lon="-6.4426810">
    <ele>569.0</ele>
    <time>2025-07-19T13:59:40Z</time>
   </trkpt>
   <trkpt lat="53.0074040" lon="-6.4427010">
    <ele>567.7</ele>
    <time>2025-07-19T13:59:46Z</time>
   </trkpt>
   <trkpt lat="53.0073590" lon="-6.4426940">
    <ele>566.5</ele>
    <time>2025-07-19T13:59:53Z</time>
   </trkpt>
   <trkpt lat="53.0073090" lon="-6.4426940">
    <ele>564.9</ele>
    <time>2025-07-19T14:00:02Z</time>
   </trkpt>
   <trkpt lat="53.0072530" lon="-6.4427070">
    <ele>563.8</ele>
    <time>2025-07-19T14:00:09Z</time>
   </trkpt>
   <trkpt lat="53.0072110" lon="-6.4427370">
    <ele>562.3</ele>
    <time>2025-07-19T14:00:16Z</time>
   </trkpt>
   <trkpt lat="53.0071670" lon="-6.4427660">
    <ele>561.1</ele>
    <time>2025-07-19T14:00:36Z</time>
   </trkpt>
   <trkpt lat="53.0071240" lon="-6.4428050">
    <ele>560.6</ele>
    <time>2025-07-19T14:00:42Z</time>
   </trkpt>
   <trkpt lat="53.0070830" lon="-6.4428390">
    <ele>560.0</ele>
    <time>2025-07-19T14:00:47Z</time>
   </trkpt>
   <trkpt lat="53.0070520" lon="-6.4428980">
    <ele>559.7</ele>
    <time>2025-07-19T14:00:53Z</time>
   </trkpt>
   <trkpt lat="53.0069980" lon="-6.4428920">
    <ele>558.7</ele>
    <time>2025-07-19T14:00:58Z</time>
   </trkpt>
   <trkpt lat="53.0069460" lon="-6.4428990">
    <ele>556.4</ele>
    <time>2025-07-19T14:01:13Z</time>
   </trkpt>
   <trkpt lat="53.0068860" lon="-6.4429230">
    <ele>555.2</ele>
    <time>2025-07-19T14:01:18Z</time>
   </trkpt>
   <trkpt lat="53.0068430" lon="-6.4429500">
    <ele>553.9</ele>
    <time>2025-07-19T14:01:24Z</time>
   </trkpt>
   <trkpt lat="53.0067980" lon="-6.4429700">
    <ele>553.0</ele>
    <time>2025-07-19T14:01:29Z</time>
   </trkpt>
   <trkpt lat="53.0067550" lon="-6.4429990">
    <ele>550.9</ele>
    <time>2025-07-19T14:02:12Z</time>
   </trkpt>
   <trkpt lat="53.0067060" lon="-6.4430310">
    <ele>550.2</ele>
    <time>2025-07-19T14:02:17Z</time>
   </trkpt>
   <trkpt lat="53.0066270" lon="-6.4430840">
    <ele>549.0</ele>
    <time>2025-07-19T14:02:22Z</time>
   </trkpt>
   <trkpt lat="53.0065920" lon="-6.4431360">
    <ele>547.6</ele>
    <time>2025-07-19T14:02:31Z</time>
   </trkpt>
   <trkpt lat="53.0065600" lon="-6.4432040">
    <ele>547.1</ele>
    <time>2025-07-19T14:02:36Z</time>
   </trkpt>
   <trkpt lat="53.0065320" lon="-6.4432670">
    <ele>546.8</ele>
    <time>2025-07-19T14:02:46Z</time>
   </trkpt>
   <trkpt lat="53.0065020" lon="-6.4433240">
    <ele>546.5</ele>
    <time>2025-07-19T14:02:53Z</time>
   </trkpt>
   <trkpt lat="53.0064670" lon="-6.4433820">
    <ele>546.0</ele>
    <time>2025-07-19T14:02:58Z</time>
   </trkpt>
   <trkpt lat="53.0064510" lon="-6.4434670">
    <ele>545.8</ele>
    <time>2025-07-19T14:03:03Z</time>
   </trkpt>
   <trkpt lat="53.0064220" lon="-6.4435250">
    <ele>545.6</ele>
    <time>2025-07-19T14:03:15Z</time>
   </trkpt>
   <trkpt lat="53.0063930" lon="-6.4435840">
    <ele>545.3</ele>
    <time>2025-07-19T14:03:20Z</time>
   </trkpt>
   <trkpt lat="53.0063490" lon="-6.4435600">
    <ele>544.2</ele>
    <time>2025-07-19T14:03:29Z</time>
   </trkpt>
   <trkpt lat="53.0063280" lon="-6.4436290">
    <ele>543.1</ele>
    <time>2025-07-19T14:03:34Z</time>
   </trkpt>
   <trkpt lat="53.0062940" lon="-6.4436840">
    <ele>542.0</ele>
    <time>2025-07-19T14:03:46Z</time>
   </trkpt>
   <trkpt lat="53.0062460" lon="-6.4437350">
    <ele>540.9</ele>
    <time>2025-07-19T14:03:51Z</time>
   </trkpt>
   <trkpt lat="53.0062170" lon="-6.4437930">
    <ele>539.0</ele>
    <time>2025-07-19T14:04:04Z</time>
   </trkpt>
   <trkpt lat="53.0061720" lon="-6.4437950">
    <ele>538.0</ele>
    <time>2025-07-19T14:04:11Z</time>
   </trkpt>
   <trkpt lat="53.0061620" lon="-6.4437220">
    <ele>536.7</ele>
    <time>2025-07-19T14:04:17Z</time>
   </trkpt>
   <trkpt lat="53.0061340" lon="-6.4437840">
    <ele>535.1</ele>
    <time>2025-07-19T14:04:32Z</time>
   </trkpt>
   <trkpt lat="53.0061160" lon="-6.4438590">
    <ele>534.8</ele>
    <time>2025-07-19T14:04:37Z</time>
   </trkpt>
   <trkpt lat="53.0060820" lon="-6.4439440">
    <ele>534.0</ele>
    <time>2025-07-19T14:04:43Z</time>
   </trkpt>
   <trkpt lat="53.0060620" lon="-6.4440330">
    <ele>533.4</ele>
    <time>2025-07-19T14:04:48Z</time>
   </trkpt>
   <trkpt lat="53.0060400" lon="-6.4441040">
    <ele>532.8</ele>
    <time>2025-07-19T14:04:54Z</time>
   </trkpt>
   <trkpt lat="53.0060210" lon="-6.4441760">
    <ele>532.3</ele>
    <time>2025-07-19T14:05:00Z</time>
   </trkpt>
   <trkpt lat="53.0060200" lon="-6.4442510">
    <ele>532.1</ele>
    <time>2025-07-19T14:05:20Z</time>
   </trkpt>
   <trkpt lat="53.0060040" lon="-6.4443360">
    <ele>532.0</ele>
    <time>2025-07-19T14:06:02Z</time>
   </trkpt>
   <trkpt lat="53.0059690" lon="-6.4444480">
    <ele>531.4</ele>
    <time>2025-07-19T14:06:08Z</time>
   </trkpt>
   <trkpt lat="53.0059540" lon="-6.4445440">
    <ele>530.7</ele>
    <time>2025-07-19T14:06:13Z</time>
   </trkpt>
   <trkpt lat="53.0059160" lon="-6.4445890">
    <ele>529.7</ele>
    <time>2025-07-19T14:06:19Z</time>
   </trkpt>
   <trkpt lat="53.0058860" lon="-6.4446610">
    <ele>528.6</ele>
    <time>2025-07-19T14:06:24Z</time>
   </trkpt>
   <trkpt lat="53.0058600" lon="-6.4447220">
    <ele>527.4</ele>
    <time>2025-07-19T14:06:31Z</time>
   </trkpt>
   <trkpt lat="53.0058260" lon="-6.4447750">
    <ele>526.1</ele>
    <time>2025-07-19T14:06:40Z</time>
   </trkpt>
   <trkpt lat="53.0057950" lon="-6.4448470">
    <ele>525.1</ele>
    <time>2025-07-19T14:06:45Z</time>
   </trkpt>
   <trkpt lat="53.0057680" lon="-6.4449230">
    <ele>524.1</ele>
    <time>2025-07-19T14:06:51Z</time>
   </trkpt>
   <trkpt lat="53.0057380" lon="-6.4449780">
    <ele>523.0</ele>
    <time>2025-07-19T14:06:57Z</time>
   </trkpt>
   <trkpt lat="53.0057030" lon="-6.4450350">
    <ele>521.5</ele>
    <time>2025-07-19T14:07:06Z</time>
   </trkpt>
   <trkpt lat="53.0056810" lon="-6.4451100">
    <ele>520.7</ele>
    <time>2025-07-19T14:07:12Z</time>
   </trkpt>
   <trkpt lat="53.0056490" lon="-6.4451680">
    <ele>519.6</ele>
    <time>2025-07-19T14:07:18Z</time>
   </trkpt>
   <trkpt lat="53.0056330" lon="-6.4452380">
    <ele>518.2</ele>
    <time>2025-07-19T14:07:33Z</time>
   </trkpt>
   <trkpt lat="53.0056040" lon="-6.4453010">
    <ele>517.6</ele>
    <time>2025-07-19T14:07:39Z</time>
   </trkpt>
   <trkpt lat="53.0056300" lon="-6.4453770">
    <ele>517.4</ele>
    <time>2025-07-19T14:07:47Z</time>
   </trkpt>
   <trkpt lat="53.0056620" lon="-6.4454320">
    <ele>518.5</ele>
    <time>2025-07-19T14:07:55Z</time>
   </trkpt>
   <trkpt lat="53.0056410" lon="-6.4455220">
    <ele>518.6</ele>
    <time>2025-07-19T14:08:00Z</time>
   </trkpt>
   <trkpt lat="53.0056200" lon="-6.4455910">
    <ele>518.1</ele>
    <time>2025-07-19T14:13:09Z</time>
   </trkpt>
   <trkpt lat="53.0056210" lon="-6.4456730">
    <ele>517.7</ele>
    <time>2025-07-19T14:13:41Z</time>
   </trkpt>
   <trkpt lat="53.0056210" lon="-6.4457680">
    <ele>517.6</ele>
    <time>2025-07-19T14:13:47Z</time>
   </trkpt>
   <trkpt lat="53.0056140" lon="-6.4458760">
    <ele>517.5</ele>
    <time>2025-07-19T14:13:52Z</time>
   </trkpt>
   <trkpt lat="53.0056100" lon="-6.4459610">
    <ele>517.2</ele>
    <time>2025-07-19T14:13:58Z</time>
   </trkpt>
   <trkpt lat="53.0055830" lon="-6.4460390">
    <ele>516.7</ele>
    <time>2025-07-19T14:14:03Z</time>
   </trkpt>
   <trkpt lat="53.0055940" lon="-6.4461210">
    <ele>516.4</ele>
    <time>2025-07-19T14:14:08Z</time>
   </trkpt>
   <trkpt lat="53.0055960" lon="-6.4461960">
    <ele>516.3</ele>
    <time>2025-07-19T14:14:16Z</time>
   </trkpt>
   <trkpt lat="53.0055920" lon="-6.4462750">
    <ele>516.3</ele>
    <time>2025-07-19T14:14:22Z</time>
   </trkpt>
   <trkpt lat="53.0055870" lon="-6.4463510">
    <ele>516.1</ele>
    <time>2025-07-19T14:14:28Z</time>
   </trkpt>
   <trkpt lat="53.0055800" lon="-6.4464300">
    <ele>515.8</ele>
    <time>2025-07-19T14:14:33Z</time>
   </trkpt>
   <trkpt lat="53.0055890" lon="-6.4465120">
    <ele>515.6</ele>
    <time>2025-07-19T14:14:40Z</time>
   </trkpt>
   <trkpt lat="53.0055620" lon="-6.4465880">
    <ele>515.1</ele>
    <time>2025-07-19T14:14:46Z</time>
   </trkpt>
   <trkpt lat="53.0055720" lon="-6.4466920">
    <ele>514.6</ele>
    <time>2025-07-19T14:14:51Z</time>
   </trkpt>
   <trkpt lat="53.0055610" lon="-6.4467830">
    <ele>514.3</ele>
    <time>2025-07-19T14:14:56Z</time>
   </trkpt>
   <trkpt lat="53.0055590" lon="-6.4468800">
    <ele>513.7</ele>
    <time>2025-07-19T14:15:02Z</time>
   </trkpt>
   <trkpt lat="53.0055590" lon="-6.4469770">
    <ele>513.3</ele>
    <time>2025-07-19T14:15:07Z</time>
   </trkpt>
   <trkpt lat="53.0055450" lon="-6.4470580">
    <ele>512.6</ele>
    <time>2025-07-19T14:15:13Z</time>
   </trkpt>
   <trkpt lat="53.0055300" lon="-6.4471430">
    <ele>511.7</ele>
    <time>2025-07-19T14:15:19Z</time>
   </trkpt>
   <trkpt lat="53.0055260" lon="-6.4472280">
    <ele>510.7</ele>
    <time>2025-07-19T14:15:25Z</time>
   </trkpt>
   <trkpt lat="53.0055500" lon="-6.4473370">
    <ele>510.5</ele>
    <time>2025-07-19T14:15:31Z</time>
   </trkpt>
   <trkpt lat="53.0055750" lon="-6.4474300">
    <ele>510.9</ele>
    <time>2025-07-19T14:15:36Z</time>
   </trkpt>
   <trkpt lat="53.0055850" lon="-6.4475190">
    <ele>511.2</ele>
    <time>2025-07-19T14:15:42Z</time>
   </trkpt>
   <trkpt lat="53.0055950" lon="-6.4476390">
    <ele>511.3</ele>
    <time>2025-07-19T14:15:47Z</time>
   </trkpt>
   <trkpt lat="53.0056060" lon="-6.4477470">
    <ele>511.3</ele>
    <time>2025-07-19T14:15:53Z</time>
   </trkpt>
   <trkpt lat="53.0056130" lon="-6.4478570">
    <ele>511.1</ele>
    <time>2025-07-19T14:15:58Z</time>
   </trkpt>
   <trkpt lat="53.0056160" lon="-6.4479350">
    <ele>510.9</ele>
    <time>2025-07-19T14:16:03Z</time>
   </trkpt>
   <trkpt lat="53.0056260" lon="-6.4480200">
    <ele>510.9</ele>
    <time>2025-07-19T14:16:26Z</time>
   </trkpt>
   <trkpt lat="53.0056310" lon="-6.4481620">
    <ele>510.6</ele>
    <time>2025-07-19T14:16:31Z</time>
   </trkpt>
   <trkpt lat="53.0056350" lon="-6.4482710">
    <ele>510.2</ele>
    <time>2025-07-19T14:16:36Z</time>
   </trkpt>
   <trkpt lat="53.0056360" lon="-6.4483640">
    <ele>509.9</ele>
    <time>2025-07-19T14:16:42Z</time>
   </trkpt>
   <trkpt lat="53.0056350" lon="-6.4484500">
    <ele>509.4</ele>
    <time>2025-07-19T14:16:47Z</time>
   </trkpt>
   <trkpt lat="53.0056380" lon="-6.4485310">
    <ele>509.2</ele>
    <time>2025-07-19T14:16:52Z</time>
   </trkpt>
   <trkpt lat="53.0056470" lon="-6.4486140">
    <ele>509.1</ele>
    <time>2025-07-19T14:16:58Z</time>
   </trkpt>
   <trkpt lat="53.0056510" lon="-6.4487220">
    <ele>509.1</ele>
    <time>2025-07-19T14:17:03Z</time>
   </trkpt>
   <trkpt lat="53.0056560" lon="-6.4488250">
    <ele>509.1</ele>
    <time>2025-07-19T14:17:09Z</time>
   </trkpt>
   <trkpt lat="53.0056500" lon="-6.4489330">
    <ele>508.8</ele>
    <time>2025-07-19T14:17:14Z</time>
   </trkpt>
   <trkpt lat="53.0056480" lon="-6.4490470">
    <ele>508.5</ele>
    <time>2025-07-19T14:17:20Z</time>
   </trkpt>
   <trkpt lat="53.0056390" lon="-6.4491420">
    <ele>507.9</ele>
    <time>2025-07-19T14:17:26Z</time>
   </trkpt>
   <trkpt lat="53.0056430" lon="-6.4492360">
    <ele>507.4</ele>
    <time>2025-07-19T14:17:31Z</time>
   </trkpt>
   <trkpt lat="53.0056570" lon="-6.4493100">
    <ele>507.5</ele>
    <time>2025-07-19T14:17:39Z</time>
   </trkpt>
   <trkpt lat="53.0056450" lon="-6.4494020">
    <ele>507.3</ele>
    <time>2025-07-19T14:17:45Z</time>
   </trkpt>
   <trkpt lat="53.0056460" lon="-6.4494870">
    <ele>506.8</ele>
    <time>2025-07-19T14:17:57Z</time>
   </trkpt>
   <trkpt lat="53.0056650" lon="-6.4495790">
    <ele>506.9</ele>
    <time>2025-07-19T14:18:02Z</time>
   </trkpt>
   <trkpt lat="53.0056780" lon="-6.4496580">
    <ele>507.4</ele>
    <time>2025-07-19T14:18:08Z</time>
   </trkpt>
   <trkpt lat="53.0056850" lon="-6.4497510">
    <ele>507.7</ele>
    <time>2025-07-19T14:18:13Z</time>
   </trkpt>
   <trkpt lat="53.0056880" lon="-6.4498580">
    <ele>507.8</ele>
    <time>2025-07-19T14:18:19Z</time>
   </trkpt>
   <trkpt lat="53.0057040" lon="-6.4499540">
    <ele>508.0</ele>
    <time>2025-07-19T14:18:24Z</time>
   </trkpt>
   <trkpt lat="53.0057090" lon="-6.4500600">
    <ele>508.1</ele>
    <time>2025-07-19T14:18:30Z</time>
   </trkpt>
   <trkpt lat="53.0057060" lon="-6.4501450">
    <ele>507.8</ele>
    <time>2025-07-19T14:18:35Z</time>
   </trkpt>
   <trkpt lat="53.0057170" lon="-6.4502330">
    <ele>507.4</ele>
    <time>2025-07-19T14:18:40Z</time>
   </trkpt>
   <trkpt lat="53.0057340" lon="-6.4503380">
    <ele>507.3</ele>
    <time>2025-07-19T14:18:46Z</time>
   </trkpt>
   <trkpt lat="53.0057440" lon="-6.4504320">
    <ele>507.1</ele>
    <time>2025-07-19T14:18:51Z</time>
   </trkpt>
   <trkpt lat="53.0057620" lon="-6.4505160">
    <ele>507.1</ele>
    <time>2025-07-19T14:18:56Z</time>
   </trkpt>
   <trkpt lat="53.0057660" lon="-6.4506010">
    <ele>507.0</ele>
    <time>2025-07-19T14:19:02Z</time>
   </trkpt>
   <trkpt lat="53.0057680" lon="-6.4506890">
    <ele>506.6</ele>
    <time>2025-07-19T14:19:07Z</time>
   </trkpt>
   <trkpt lat="53.0057660" lon="-6.4508020">
    <ele>505.9</ele>
    <time>2025-07-19T14:19:12Z</time>
   </trkpt>
   <trkpt lat="53.0057710" lon="-6.4509070">
    <ele>505.1</ele>
    <time>2025-07-19T14:19:17Z</time>
   </trkpt>
   <trkpt lat="53.0057860" lon="-6.4510150">
    <ele>504.9</ele>
    <time>2025-07-19T14:19:22Z</time>
   </trkpt>
   <trkpt lat="53.0057930" lon="-6.4511190">
    <ele>504.9</ele>
    <time>2025-07-19T14:19:28Z</time>
   </trkpt>
   <trkpt lat="53.0057980" lon="-6.4512290">
    <ele>504.6</ele>
    <time>2025-07-19T14:19:33Z</time>
   </trkpt>
   <trkpt lat="53.0058100" lon="-6.4513340">
    <ele>504.5</ele>
    <time>2025-07-19T14:19:38Z</time>
   </trkpt>
   <trkpt lat="53.0058230" lon="-6.4514350">
    <ele>504.7</ele>
    <time>2025-07-19T14:19:43Z</time>
   </trkpt>
   <trkpt lat="53.0058380" lon="-6.4515510">
    <ele>504.8</ele>
    <time>2025-07-19T14:19:48Z</time>
   </trkpt>
   <trkpt lat="53.0058620" lon="-6.4516550">
    <ele>505.2</ele>
    <time>2025-07-19T14:19:54Z</time>
   </trkpt>
   <trkpt lat="53.0058820" lon="-6.4517630">
    <ele>505.7</ele>
    <time>2025-07-19T14:19:59Z</time>
   </trkpt>
   <trkpt lat="53.0058880" lon="-6.4518660">
    <ele>506.0</ele>
    <time>2025-07-19T14:20:04Z</time>
   </trkpt>
   <trkpt lat="53.0058930" lon="-6.4519610">
    <ele>505.8</ele>
    <time>2025-07-19T14:20:09Z</time>
   </trkpt>
   <trkpt lat="53.0059130" lon="-6.4520470">
    <ele>505.9</ele>
    <time>2025-07-19T14:20:15Z</time>
   </trkpt>
   <trkpt lat="53.0059220" lon="-6.4521570">
    <ele>506.0</ele>
    <time>2025-07-19T14:20:20Z</time>
   </trkpt>
   <trkpt lat="53.0059410" lon="-6.4522670">
    <ele>506.1</ele>
    <time>2025-07-19T14:20:25Z</time>
   </trkpt>
   <trkpt lat="53.0059660" lon="-6.4523580">
    <ele>506.7</ele>
    <time>2025-07-19T14:20:31Z</time>
   </trkpt>
   <trkpt lat="53.0059820" lon="-6.4524580">
    <ele>507.1</ele>
    <time>2025-07-19T14:20:36Z</time>
   </trkpt>
   <trkpt lat="53.0060030" lon="-6.4525750">
    <ele>507.5</ele>
    <time>2025-07-19T14:20:41Z</time>
   </trkpt>
   <trkpt lat="53.0060140" lon="-6.4526820">
    <ele>507.7</ele>
    <time>2025-07-19T14:20:46Z</time>
   </trkpt>
   <trkpt lat="53.0060310" lon="-6.4527830">
    <ele>507.8</ele>
    <time>2025-07-19T14:20:51Z</time>
   </trkpt>
   <trkpt lat="53.0060480" lon="-6.4528910">
    <ele>508.0</ele>
    <time>2025-07-19T14:20:57Z</time>
   </trkpt>
   <trkpt lat="53.0060550" lon="-6.4530060">
    <ele>508.0</ele>
    <time>2025-07-19T14:21:02Z</time>
   </trkpt>
   <trkpt lat="53.0060630" lon="-6.4531040">
    <ele>507.7</ele>
    <time>2025-07-19T14:21:07Z</time>
   </trkpt>
   <trkpt lat="53.0060880" lon="-6.4532020">
    <ele>507.9</ele>
    <time>2025-07-19T14:21:12Z</time>
   </trkpt>
   <trkpt lat="53.0061000" lon="-6.4533190">
    <ele>508.0</ele>
    <time>2025-07-19T14:21:18Z</time>
   </trkpt>
   <trkpt lat="53.0061090" lon="-6.4534120">
    <ele>507.9</ele>
    <time>2025-07-19T14:21:23Z</time>
   </trkpt>
   <trkpt lat="53.0061220" lon="-6.4535150">
    <ele>507.9</ele>
    <time>2025-07-19T14:21:28Z</time>
   </trkpt>
   <trkpt lat="53.0061330" lon="-6.4536250">
    <ele>507.8</ele>
    <time>2025-07-19T14:21:33Z</time>
   </trkpt>
   <trkpt lat="53.0061510" lon="-6.4537280">
    <ele>507.8</ele>
    <time>2025-07-19T14:21:38Z</time>
   </trkpt>
   <trkpt lat="53.0061780" lon="-6.4538210">
    <ele>508.0</ele>
    <time>2025-07-19T14:21:44Z</time>
   </trkpt>
   <trkpt lat="53.0061990" lon="-6.4539250">
    <ele>508.4</ele>
    <time>2025-07-19T14:21:50Z</time>
   </trkpt>
   <trkpt lat="53.0062100" lon="-6.4540250">
    <ele>508.5</ele>
    <time>2025-07-19T14:21:55Z</time>
   </trkpt>
   <trkpt lat="53.0062290" lon="-6.4541240">
    <ele>508.5</ele>
    <time>2025-07-19T14:22:00Z</time>
   </trkpt>
   <trkpt lat="53.0062360" lon="-6.4542180">
    <ele>508.4</ele>
    <time>2025-07-19T14:22:06Z</time>
   </trkpt>
   <trkpt lat="53.0062420" lon="-6.4543270">
    <ele>507.9</ele>
    <time>2025-07-19T14:22:11Z</time>
   </trkpt>
   <trkpt lat="53.0062610" lon="-6.4544230">
    <ele>507.5</ele>
    <time>2025-07-19T14:22:17Z</time>
   </trkpt>
   <trkpt lat="53.0062740" lon="-6.4545100">
    <ele>507.2</ele>
    <time>2025-07-19T14:22:22Z</time>
   </trkpt>
   <trkpt lat="53.0062930" lon="-6.4546190">
    <ele>507.0</ele>
    <time>2025-07-19T14:22:27Z</time>
   </trkpt>
   <trkpt lat="53.0063040" lon="-6.4547230">
    <ele>506.6</ele>
    <time>2025-07-19T14:22:32Z</time>
   </trkpt>
   <trkpt lat="53.0063240" lon="-6.4548260">
    <ele>506.4</ele>
    <time>2025-07-19T14:22:38Z</time>
   </trkpt>
   <trkpt lat="53.0063420" lon="-6.4549300">
    <ele>506.3</ele>
    <time>2025-07-19T14:22:43Z</time>
   </trkpt>
   <trkpt lat="53.0063790" lon="-6.4550430">
    <ele>506.6</ele>
    <time>2025-07-19T14:22:48Z</time>
   </trkpt>
   <trkpt lat="53.0064050" lon="-6.4551280">
    <ele>507.3</ele>
    <time>2025-07-19T14:22:53Z</time>
   </trkpt>
   <trkpt lat="53.0064290" lon="-6.4552200">
    <ele>507.8</ele>
    <time>2025-07-19T14:22:58Z</time>
   </trkpt>
   <trkpt lat="53.0064550" lon="-6.4552960">
    <ele>508.5</ele>
    <time>2025-07-19T14:23:04Z</time>
   </trkpt>
   <trkpt lat="53.0064720" lon="-6.4553680">
    <ele>509.0</ele>
    <time>2025-07-19T14:23:09Z</time>
   </trkpt>
   <trkpt lat="53.0064940" lon="-6.4554610">
    <ele>509.6</ele>
    <time>2025-07-19T14:23:14Z</time>
   </trkpt>
   <trkpt lat="53.0065110" lon="-6.4555640">
    <ele>510.0</ele>
    <time>2025-07-19T14:23:20Z</time>
   </trkpt>
   <trkpt lat="53.0065310" lon="-6.4556620">
    <ele>510.3</ele>
    <time>2025-07-19T14:23:25Z</time>
   </trkpt>
   <trkpt lat="53.0065580" lon="-6.4557570">
    <ele>510.7</ele>
    <time>2025-07-19T14:23:30Z</time>
   </trkpt>
   <trkpt lat="53.0065850" lon="-6.4558610">
    <ele>511.2</ele>
    <time>2025-07-19T14:23:36Z</time>
   </trkpt>
   <trkpt lat="53.0066150" lon="-6.4559530">
    <ele>511.7</ele>
    <time>2025-07-19T14:23:42Z</time>
   </trkpt>
   <trkpt lat="53.0066480" lon="-6.4560360">
    <ele>512.2</ele>
    <time>2025-07-19T14:23:47Z</time>
   </trkpt>
   <trkpt lat="53.0066780" lon="-6.4561380">
    <ele>512.7</ele>
    <time>2025-07-19T14:23:52Z</time>
   </trkpt>
   <trkpt lat="53.0067140" lon="-6.4562120">
    <ele>513.2</ele>
    <time>2025-07-19T14:23:58Z</time>
   </trkpt>
   <trkpt lat="53.0067590" lon="-6.4562840">
    <ele>514.0</ele>
    <time>2025-07-19T14:24:03Z</time>
   </trkpt>
   <trkpt lat="53.0067950" lon="-6.4563590">
    <ele>514.8</ele>
    <time>2025-07-19T14:24:08Z</time>
   </trkpt>
   <trkpt lat="53.0068310" lon="-6.4564210">
    <ele>515.6</ele>
    <time>2025-07-19T14:24:13Z</time>
   </trkpt>
   <trkpt lat="53.0068580" lon="-6.4564850">
    <ele>516.2</ele>
    <time>2025-07-19T14:24:19Z</time>
   </trkpt>
   <trkpt lat="53.0068580" lon="-6.4565870">
    <ele>516.3</ele>
    <time>2025-07-19T14:24:24Z</time>
   </trkpt>
   <trkpt lat="53.0068810" lon="-6.4566800">
    <ele>516.2</ele>
    <time>2025-07-19T14:24:29Z</time>
   </trkpt>
   <trkpt lat="53.0069120" lon="-6.4567680">
    <ele>516.3</ele>
    <time>2025-07-19T14:24:34Z</time>
   </trkpt>
   <trkpt lat="53.0069370" lon="-6.4568660">
    <ele>516.6</ele>
    <time>2025-07-19T14:24:40Z</time>
   </trkpt>
   <trkpt lat="53.0069690" lon="-6.4569300">
    <ele>516.9</ele>
    <time>2025-07-19T14:24:46Z</time>
   </trkpt>
   <trkpt lat="53.0069950" lon="-6.4570050">
    <ele>517.4</ele>
    <time>2025-07-19T14:24:51Z</time>
   </trkpt>
   <trkpt lat="53.0070190" lon="-6.4571060">
    <ele>517.7</ele>
    <time>2025-07-19T14:24:56Z</time>
   </trkpt>
   <trkpt lat="53.0070460" lon="-6.4572060">
    <ele>517.9</ele>
    <time>2025-07-19T14:25:02Z</time>
   </trkpt>
   <trkpt lat="53.0070740" lon="-6.4572740">
    <ele>518.2</ele>
    <time>2025-07-19T14:25:07Z</time>
   </trkpt>
   <trkpt lat="53.0071030" lon="-6.4573640">
    <ele>518.7</ele>
    <time>2025-07-19T14:25:12Z</time>
   </trkpt>
   <trkpt lat="53.0071240" lon="-6.4574670">
    <ele>519.0</ele>
    <time>2025-07-19T14:25:18Z</time>
   </trkpt>
   <trkpt lat="53.0071480" lon="-6.4575550">
    <ele>519.2</ele>
    <time>2025-07-19T14:25:23Z</time>
   </trkpt>
   <trkpt lat="53.0071780" lon="-6.4576460">
    <ele>519.5</ele>
    <time>2025-07-19T14:25:29Z</time>
   </trkpt>
   <trkpt lat="53.0072030" lon="-6.4577430">
    <ele>519.8</ele>
    <time>2025-07-19T14:25:34Z</time>
   </trkpt>
   <trkpt lat="53.0072250" lon="-6.4578440">
    <ele>520.1</ele>
    <time>2025-07-19T14:25:39Z</time>
   </trkpt>
   <trkpt lat="53.0072410" lon="-6.4579540">
    <ele>520.3</ele>
    <time>2025-07-19T14:25:45Z</time>
   </trkpt>
   <trkpt lat="53.0072620" lon="-6.4580570">
    <ele>520.3</ele>
    <time>2025-07-19T14:25:50Z</time>
   </trkpt>
   <trkpt lat="53.0072890" lon="-6.4581470">
    <ele>520.6</ele>
    <time>2025-07-19T14:25:56Z</time>
   </trkpt>
   <trkpt lat="53.0073110" lon="-6.4582500">
    <ele>520.8</ele>
    <time>2025-07-19T14:26:01Z</time>
   </trkpt>
   <trkpt lat="53.0073350" lon="-6.4583380">
    <ele>521.1</ele>
    <time>2025-07-19T14:26:06Z</time>
   </trkpt>
   <trkpt lat="53.0073700" lon="-6.4584320">
    <ele>521.4</ele>
    <time>2025-07-19T14:26:12Z</time>
   </trkpt>
   <trkpt lat="53.0073820" lon="-6.4585300">
    <ele>521.5</ele>
    <time>2025-07-19T14:26:18Z</time>
   </trkpt>
   <trkpt lat="53.0074070" lon="-6.4586160">
    <ele>521.6</ele>
    <time>2025-07-19T14:26:23Z</time>
   </trkpt>
   <trkpt lat="53.0074420" lon="-6.4586980">
    <ele>521.8</ele>
    <time>2025-07-19T14:26:29Z</time>
   </trkpt>
   <trkpt lat="53.0074650" lon="-6.4588100">
    <ele>522.0</ele>
    <time>2025-07-19T14:26:34Z</time>
   </trkpt>
   <trkpt lat="53.0074770" lon="-6.4589120">
    <ele>521.8</ele>
    <time>2025-07-19T14:26:40Z</time>
   </trkpt>
   <trkpt lat="53.0075070" lon="-6.4590010">
    <ele>521.8</ele>
    <time>2025-07-19T14:26:45Z</time>
   </trkpt>
   <trkpt lat="53.0075290" lon="-6.4590860">
    <ele>521.9</ele>
    <time>2025-07-19T14:26:50Z</time>
   </trkpt>
   <trkpt lat="53.0075570" lon="-6.4591500">
    <ele>522.0</ele>
    <time>2025-07-19T14:26:55Z</time>
   </trkpt>
   <trkpt lat="53.0075840" lon="-6.4592280">
    <ele>522.3</ele>
    <time>2025-07-19T14:27:00Z</time>
   </trkpt>
   <trkpt lat="53.0076040" lon="-6.4593330">
    <ele>522.5</ele>
    <time>2025-07-19T14:27:06Z</time>
   </trkpt>
   <trkpt lat="53.0076300" lon="-6.4593980">
    <ele>522.7</ele>
    <time>2025-07-19T14:27:11Z</time>
   </trkpt>
   <trkpt lat="53.0076600" lon="-6.4594790">
    <ele>522.9</ele>
    <time>2025-07-19T14:27:17Z</time>
   </trkpt>
   <trkpt lat="53.0076600" lon="-6.4595720">
    <ele>523.0</ele>
    <time>2025-07-19T14:27:22Z</time>
   </trkpt>
   <trkpt lat="53.0076370" lon="-6.4596400">
    <ele>522.7</ele>
    <time>2025-07-19T14:27:27Z</time>
   </trkpt>
   <trkpt lat="53.0076060" lon="-6.4597050">
    <ele>522.1</ele>
    <time>2025-07-19T14:27:34Z</time>
   </trkpt>
   <trkpt lat="53.0075720" lon="-6.4597580">
    <ele>521.5</ele>
    <time>2025-07-19T14:27:39Z</time>
   </trkpt>
   <trkpt lat="53.0075160" lon="-6.4597700">
    <ele>520.8</ele>
    <time>2025-07-19T14:27:45Z</time>
   </trkpt>
   <trkpt lat="53.0074550" lon="-6.4597780">
    <ele>520.0</ele>
    <time>2025-07-19T14:27:50Z</time>
   </trkpt>
   <trkpt lat="53.0074070" lon="-6.4597770">
    <ele>519.3</ele>
    <time>2025-07-19T14:27:55Z</time>
   </trkpt>
   <trkpt lat="53.0073560" lon="-6.4597770">
    <ele>518.7</ele>
    <time>2025-07-19T14:28:01Z</time>
   </trkpt>
   <trkpt lat="53.0072860" lon="-6.4597350">
    <ele>518.1</ele>
    <time>2025-07-19T14:28:06Z</time>
   </trkpt>
   <trkpt lat="53.0072240" lon="-6.4596910">
    <ele>517.6</ele>
    <time>2025-07-19T14:28:11Z</time>
   </trkpt>
   <trkpt lat="53.0071720" lon="-6.4596540">
    <ele>517.1</ele>
    <time>2025-07-19T14:28:17Z</time>
   </trkpt>
   <trkpt lat="53.0071230" lon="-6.4596640">
    <ele>516.6</ele>
    <time>2025-07-19T14:28:32Z</time>
   </trkpt>
   <trkpt lat="53.0070440" lon="-6.4596180">
    <ele>516.2</ele>
    <time>2025-07-19T14:28:37Z</time>
   </trkpt>
   <trkpt lat="53.0069670" lon="-6.4595580">
    <ele>515.6</ele>
    <time>2025-07-19T14:28:43Z</time>
   </trkpt>
   <trkpt lat="53.0068900" lon="-6.4595060">
    <ele>515.0</ele>
    <time>2025-07-19T14:28:48Z</time>
   </trkpt>
   <trkpt lat="53.0068240" lon="-6.4594680">
    <ele>514.2</ele>
    <time>2025-07-19T14:28:54Z</time>
   </trkpt>
   <trkpt lat="53.0067600" lon="-6.4594730">
    <ele>513.8</ele>
    <time>2025-07-19T14:28:59Z</time>
   </trkpt>
   <trkpt lat="53.0066950" lon="-6.4594630">
    <ele>513.3</ele>
    <time>2025-07-19T14:29:04Z</time>
   </trkpt>
   <trkpt lat="53.0066270" lon="-6.4594910">
    <ele>513.0</ele>
    <time>2025-07-19T14:29:10Z</time>
   </trkpt>
   <trkpt lat="53.0065570" lon="-6.4594780">
    <ele>512.7</ele>
    <time>2025-07-19T14:29:15Z</time>
   </trkpt>
   <trkpt lat="53.0064810" lon="-6.4594740">
    <ele>512.3</ele>
    <time>2025-07-19T14:29:20Z</time>
   </trkpt>
   <trkpt lat="53.0064290" lon="-6.4594860">
    <ele>512.1</ele>
    <time>2025-07-19T14:29:25Z</time>
   </trkpt>
   <trkpt lat="53.0063680" lon="-6.4594880">
    <ele>512.0</ele>
    <time>2025-07-19T14:29:30Z</time>
   </trkpt>
   <trkpt lat="53.0063240" lon="-6.4594500">
    <ele>511.7</ele>
    <time>2025-07-19T14:29:35Z</time>
   </trkpt>
   <trkpt lat="53.0062880" lon="-6.4593880">
    <ele>511.3</ele>
    <time>2025-07-19T14:30:32Z</time>
   </trkpt>
   <trkpt lat="53.0062700" lon="-6.4592790">
    <ele>510.5</ele>
    <time>2025-07-19T14:30:37Z</time>
   </trkpt>
   <trkpt lat="53.0062460" lon="-6.4591870">
    <ele>509.6</ele>
    <time>2025-07-19T14:30:43Z</time>
   </trkpt>
   <trkpt lat="53.0062320" lon="-6.4591120">
    <ele>508.9</ele>
    <time>2025-07-19T14:30:48Z</time>
   </trkpt>
   <trkpt lat="53.0061970" lon="-6.4590280">
    <ele>508.1</ele>
    <time>2025-07-19T14:30:53Z</time>
   </trkpt>
   <trkpt lat="53.0061700" lon="-6.4589360">
    <ele>507.2</ele>
    <time>2025-07-19T14:30:59Z</time>
   </trkpt>
   <trkpt lat="53.0061490" lon="-6.4588430">
    <ele>506.3</ele>
    <time>2025-07-19T14:31:04Z</time>
   </trkpt>
   <trkpt lat="53.0061340" lon="-6.4587490">
    <ele>505.5</ele>
    <time>2025-07-19T14:31:09Z</time>
   </trkpt>
   <trkpt lat="53.0061280" lon="-6.4586590">
    <ele>504.6</ele>
    <time>2025-07-19T14:31:15Z</time>
   </trkpt>
   <trkpt lat="53.0061050" lon="-6.4585590">
    <ele>503.7</ele>
    <time>2025-07-19T14:31:20Z</time>
   </trkpt>
   <trkpt lat="53.0060850" lon="-6.4584650">
    <ele>502.9</ele>
    <time>2025-07-19T14:31:25Z</time>
   </trkpt>
   <trkpt lat="53.0060750" lon="-6.4583770">
    <ele>502.1</ele>
    <time>2025-07-19T14:31:31Z</time>
   </trkpt>
   <trkpt lat="53.0060590" lon="-6.4582770">
    <ele>501.2</ele>
    <time>2025-07-19T14:31:36Z</time>
   </trkpt>
   <trkpt lat="53.0060390" lon="-6.4581800">
    <ele>500.3</ele>
    <time>2025-07-19T14:31:41Z</time>
   </trkpt>
   <trkpt lat="53.0060210" lon="-6.4580820">
    <ele>499.5</ele>
    <time>2025-07-19T14:31:47Z</time>
   </trkpt>
   <trkpt lat="53.0059950" lon="-6.4579980">
    <ele>498.7</ele>
    <time>2025-07-19T14:31:52Z</time>
   </trkpt>
   <trkpt lat="53.0059930" lon="-6.4579220">
    <ele>497.9</ele>
    <time>2025-07-19T14:31:59Z</time>
   </trkpt>
   <trkpt lat="53.0059460" lon="-6.4578900">
    <ele>496.9</ele>
    <time>2025-07-19T14:32:14Z</time>
   </trkpt>
   <trkpt lat="53.0058890" lon="-6.4578170">
    <ele>496.5</ele>
    <time>2025-07-19T14:32:20Z</time>
   </trkpt>
   <trkpt lat="53.0059130" lon="-6.4577380">
    <ele>495.7</ele>
    <time>2025-07-19T14:32:33Z</time>
   </trkpt>
   <trkpt lat="53.0058860" lon="-6.4576210">
    <ele>495.0</ele>
    <time>2025-07-19T14:32:39Z</time>
   </trkpt>
   <trkpt lat="53.0058870" lon="-6.4575420">
    <ele>494.3</ele>
    <time>2025-07-19T14:32:44Z</time>
   </trkpt>
   <trkpt lat="53.0058910" lon="-6.4574310">
    <ele>493.7</ele>
    <time>2025-07-19T14:32:50Z</time>
   </trkpt>
   <trkpt lat="53.0059040" lon="-6.4573460">
    <ele>493.3</ele>
    <time>2025-07-19T14:32:55Z</time>
   </trkpt>
   <trkpt lat="53.0059090" lon="-6.4572350">
    <ele>492.9</ele>
    <time>2025-07-19T14:33:00Z</time>
   </trkpt>
   <trkpt lat="53.0059120" lon="-6.4571320">
    <ele>492.6</ele>
    <time>2025-07-19T14:33:06Z</time>
   </trkpt>
   <trkpt lat="53.0058820" lon="-6.4570420">
    <ele>492.2</ele>
    <time>2025-07-19T14:33:11Z</time>
   </trkpt>
   <trkpt lat="53.0058280" lon="-6.4569420">
    <ele>491.5</ele>
    <time>2025-07-19T14:33:16Z</time>
   </trkpt>
   <trkpt lat="53.0058070" lon="-6.4568330">
    <ele>490.9</ele>
    <time>2025-07-19T14:33:21Z</time>
   </trkpt>
   <trkpt lat="53.0057790" lon="-6.4567320">
    <ele>490.3</ele>
    <time>2025-07-19T14:33:26Z</time>
   </trkpt>
   <trkpt lat="53.0057490" lon="-6.4566450">
    <ele>489.6</ele>
    <time>2025-07-19T14:33:31Z</time>
   </trkpt>
   <trkpt lat="53.0057040" lon="-6.4565470">
    <ele>488.9</ele>
    <time>2025-07-19T14:33:36Z</time>
   </trkpt>
   <trkpt lat="53.0056570" lon="-6.4564830">
    <ele>488.2</ele>
    <time>2025-07-19T14:33:42Z</time>
   </trkpt>
   <trkpt lat="53.0056190" lon="-6.4564280">
    <ele>487.6</ele>
    <time>2025-07-19T14:33:47Z</time>
   </trkpt>
   <trkpt lat="53.0055790" lon="-6.4563950">
    <ele>487.1</ele>
    <time>2025-07-19T14:33:52Z</time>
   </trkpt>
   <trkpt lat="53.0055250" lon="-6.4563520">
    <ele>486.7</ele>
    <time>2025-07-19T14:33:58Z</time>
   </trkpt>
   <trkpt lat="53.0054980" lon="-6.4562920">
    <ele>486.1</ele>
    <time>2025-07-19T14:34:06Z</time>
   </trkpt>
   <trkpt lat="53.0054850" lon="-6.4562180">
    <ele>485.7</ele>
    <time>2025-07-19T14:34:11Z</time>
   </trkpt>
   <trkpt lat="53.0054910" lon="-6.4561190">
    <ele>485.1</ele>
    <time>2025-07-19T14:34:16Z</time>
   </trkpt>
   <trkpt lat="53.0054780" lon="-6.4560380">
    <ele>484.4</ele>
    <time>2025-07-19T14:34:22Z</time>
   </trkpt>
   <trkpt lat="53.0054330" lon="-6.4559740">
    <ele>483.8</ele>
    <time>2025-07-19T14:34:28Z</time>
   </trkpt>
   <trkpt lat="53.0053960" lon="-6.4559030">
    <ele>483.1</ele>
    <time>2025-07-19T14:34:33Z</time>
   </trkpt>
   <trkpt lat="53.0053510" lon="-6.4558660">
    <ele>482.5</ele>
    <time>2025-07-19T14:34:39Z</time>
   </trkpt>
   <trkpt lat="53.0053150" lon="-6.4558220">
    <ele>482.0</ele>
    <time>2025-07-19T14:34:44Z</time>
   </trkpt>
   <trkpt lat="53.0052750" lon="-6.4557530">
    <ele>481.3</ele>
    <time>2025-07-19T14:34:49Z</time>
   </trkpt>
   <trkpt lat="53.0052350" lon="-6.4556830">
    <ele>480.4</ele>
    <time>2025-07-19T14:34:55Z</time>
   </trkpt>
   <trkpt lat="53.0052120" lon="-6.4556170">
    <ele>479.4</ele>
    <time>2025-07-19T14:35:01Z</time>
   </trkpt>
   <trkpt lat="53.0051660" lon="-6.4555630">
    <ele>478.6</ele>
    <time>2025-07-19T14:35:06Z</time>
   </trkpt>
   <trkpt lat="53.0051270" lon="-6.4554790">
    <ele>477.5</ele>
    <time>2025-07-19T14:35:11Z</time>
   </trkpt>
   <trkpt lat="53.0050920" lon="-6.4554040">
    <ele>476.2</ele>
    <time>2025-07-19T14:35:16Z</time>
   </trkpt>
   <trkpt lat="53.0050520" lon="-6.4553570">
    <ele>474.9</ele>
    <time>2025-07-19T14:35:22Z</time>
   </trkpt>
   <trkpt lat="53.0050180" lon="-6.4552470">
    <ele>473.6</ele>
    <time>2025-07-19T14:35:28Z</time>
   </trkpt>
   <trkpt lat="53.0049960" lon="-6.4551650">
    <ele>472.1</ele>
    <time>2025-07-19T14:35:33Z</time>
   </trkpt>
   <trkpt lat="53.0049800" lon="-6.4550940">
    <ele>470.8</ele>
    <time>2025-07-19T14:35:39Z</time>
   </trkpt>
   <trkpt lat="53.0049430" lon="-6.4550020">
    <ele>469.5</ele>
    <time>2025-07-19T14:35:44Z</time>
   </trkpt>
   <trkpt lat="53.0049160" lon="-6.4549190">
    <ele>468.1</ele>
    <time>2025-07-19T14:35:49Z</time>
   </trkpt>
   <trkpt lat="53.0048880" lon="-6.4548510">
    <ele>466.9</ele>
    <time>2025-07-19T14:35:55Z</time>
   </trkpt>
   <trkpt lat="53.0048740" lon="-6.4547740">
    <ele>465.8</ele>
    <time>2025-07-19T14:36:00Z</time>
   </trkpt>
   <trkpt lat="53.0048480" lon="-6.4546990">
    <ele>464.8</ele>
    <time>2025-07-19T14:36:05Z</time>
   </trkpt>
   <trkpt lat="53.0048190" lon="-6.4546210">
    <ele>463.6</ele>
    <time>2025-07-19T14:36:11Z</time>
   </trkpt>
   <trkpt lat="53.0048020" lon="-6.4545310">
    <ele>462.5</ele>
    <time>2025-07-19T14:36:16Z</time>
   </trkpt>
   <trkpt lat="53.0047700" lon="-6.4544530">
    <ele>461.4</ele>
    <time>2025-07-19T14:36:21Z</time>
   </trkpt>
   <trkpt lat="53.0047620" lon="-6.4543630">
    <ele>460.4</ele>
    <time>2025-07-19T14:36:27Z</time>
   </trkpt>
   <trkpt lat="53.0047280" lon="-6.4542740">
    <ele>459.5</ele>
    <time>2025-07-19T14:36:32Z</time>
   </trkpt>
   <trkpt lat="53.0046890" lon="-6.4542130">
    <ele>458.5</ele>
    <time>2025-07-19T14:36:38Z</time>
   </trkpt>
   <trkpt lat="53.0046660" lon="-6.4541410">
    <ele>457.7</ele>
    <time>2025-07-19T14:36:43Z</time>
   </trkpt>
   <trkpt lat="53.0046540" lon="-6.4540550">
    <ele>457.0</ele>
    <time>2025-07-19T14:36:48Z</time>
   </trkpt>
   <trkpt lat="53.0046160" lon="-6.4539870">
    <ele>456.4</ele>
    <time>2025-07-19T14:36:53Z</time>
   </trkpt>
   <trkpt lat="53.0045750" lon="-6.4539140">
    <ele>455.8</ele>
    <time>2025-07-19T14:36:59Z</time>
   </trkpt>
   <trkpt lat="53.0045400" lon="-6.4538260">
    <ele>455.3</ele>
    <time>2025-07-19T14:37:04Z</time>
   </trkpt>
   <trkpt lat="53.0045030" lon="-6.4537410">
    <ele>454.9</ele>
    <time>2025-07-19T14:37:09Z</time>
   </trkpt>
   <trkpt lat="53.0044770" lon="-6.4536510">
    <ele>454.5</ele>
    <time>2025-07-19T14:37:16Z</time>
   </trkpt>
   <trkpt lat="53.0044490" lon="-6.4535800">
    <ele>454.2</ele>
    <time>2025-07-19T14:37:21Z</time>
   </trkpt>
   <trkpt lat="53.0044250" lon="-6.4535070">
    <ele>453.8</ele>
    <time>2025-07-19T14:37:31Z</time>
   </trkpt>
   <trkpt lat="53.0043970" lon="-6.4534310">
    <ele>453.5</ele>
    <time>2025-07-19T14:37:37Z</time>
   </trkpt>
   <trkpt lat="53.0043740" lon="-6.4533410">
    <ele>453.1</ele>
    <time>2025-07-19T14:37:42Z</time>
   </trkpt>
   <trkpt lat="53.0043350" lon="-6.4532580">
    <ele>452.6</ele>
    <time>2025-07-19T14:37:48Z</time>
   </trkpt>
   <trkpt lat="53.0042900" lon="-6.4531730">
    <ele>452.0</ele>
    <time>2025-07-19T14:37:53Z</time>
   </trkpt>
   <trkpt lat="53.0042490" lon="-6.4531260">
    <ele>451.3</ele>
    <time>2025-07-19T14:37:58Z</time>
   </trkpt>
   <trkpt lat="53.0042090" lon="-6.4530900">
    <ele>450.7</ele>
    <time>2025-07-19T14:38:04Z</time>
   </trkpt>
   <trkpt lat="53.0041700" lon="-6.4530350">
    <ele>449.8</ele>
    <time>2025-07-19T14:40:39Z</time>
   </trkpt>
   <trkpt lat="53.0041350" lon="-6.4529760">
    <ele>449.3</ele>
    <time>2025-07-19T14:40:45Z</time>
   </trkpt>
   <trkpt lat="53.0040900" lon="-6.4529400">
    <ele>448.8</ele>
    <time>2025-07-19T14:40:58Z</time>
   </trkpt>
   <trkpt lat="53.0040360" lon="-6.4528750">
    <ele>448.1</ele>
    <time>2025-07-19T14:41:04Z</time>
   </trkpt>
   <trkpt lat="53.0039960" lon="-6.4528070">
    <ele>447.4</ele>
    <time>2025-07-19T14:41:09Z</time>
   </trkpt>
   <trkpt lat="53.0039460" lon="-6.4527620">
    <ele>446.7</ele>
    <time>2025-07-19T14:41:14Z</time>
   </trkpt>
   <trkpt lat="53.0038870" lon="-6.4527220">
    <ele>446.0</ele>
    <time>2025-07-19T14:41:19Z</time>
   </trkpt>
   <trkpt lat="53.0038270" lon="-6.4526690">
    <ele>445.4</ele>
    <time>2025-07-19T14:41:25Z</time>
   </trkpt>
   <trkpt lat="53.0037650" lon="-6.4526120">
    <ele>444.8</ele>
    <time>2025-07-19T14:41:30Z</time>
   </trkpt>
   <trkpt lat="53.0037170" lon="-6.4525730">
    <ele>444.2</ele>
    <time>2025-07-19T14:41:35Z</time>
   </trkpt>
   <trkpt lat="53.0036670" lon="-6.4525050">
    <ele>443.7</ele>
    <time>2025-07-19T14:41:40Z</time>
   </trkpt>
   <trkpt lat="53.0036070" lon="-6.4524140">
    <ele>443.1</ele>
    <time>2025-07-19T14:41:45Z</time>
   </trkpt>
   <trkpt lat="53.0035540" lon="-6.4523400">
    <ele>442.5</ele>
    <time>2025-07-19T14:41:50Z</time>
   </trkpt>
   <trkpt lat="53.0034880" lon="-6.4523370">
    <ele>442.2</ele>
    <time>2025-07-19T14:41:57Z</time>
   </trkpt>
   <trkpt lat="53.0034500" lon="-6.4522930">
    <ele>442.1</ele>
    <time>2025-07-19T14:42:08Z</time>
   </trkpt>
   <trkpt lat="53.0034140" lon="-6.4522400">
    <ele>441.8</ele>
    <time>2025-07-19T14:42:51Z</time>
   </trkpt>
   <trkpt lat="53.0033520" lon="-6.4521820">
    <ele>441.7</ele>
    <time>2025-07-19T14:42:56Z</time>
   </trkpt>
   <trkpt lat="53.0033210" lon="-6.4521280">
    <ele>441.5</ele>
    <time>2025-07-19T14:43:02Z</time>
   </trkpt>
   <trkpt lat="53.0032910" lon="-6.4520580">
    <ele>441.3</ele>
    <time>2025-07-19T14:43:08Z</time>
   </trkpt>
   <trkpt lat="53.0032520" lon="-6.4520150">
    <ele>441.0</ele>
    <time>2025-07-19T14:43:31Z</time>
   </trkpt>
   <trkpt lat="53.0032290" lon="-6.4519510">
    <ele>440.8</ele>
    <time>2025-07-19T14:43:43Z</time>
   </trkpt>
   <trkpt lat="53.0032010" lon="-6.4518780">
    <ele>440.5</ele>
    <time>2025-07-19T14:43:55Z</time>
   </trkpt>
   <trkpt lat="53.0031700" lon="-6.4518070">
    <ele>440.3</ele>
    <time>2025-07-19T14:44:01Z</time>
   </trkpt>
   <trkpt lat="53.0031730" lon="-6.4517300">
    <ele>439.7</ele>
    <time>2025-07-19T14:44:29Z</time>
   </trkpt>
   <trkpt lat="53.0031490" lon="-6.4516280">
    <ele>439.3</ele>
    <time>2025-07-19T14:44:34Z</time>
   </trkpt>
   <trkpt lat="53.0031220" lon="-6.4515530">
    <ele>438.8</ele>
    <time>2025-07-19T14:44:39Z</time>
   </trkpt>
   <trkpt lat="53.0030950" lon="-6.4514820">
    <ele>438.5</ele>
    <time>2025-07-19T14:44:44Z</time>
   </trkpt>
   <trkpt lat="53.0030610" lon="-6.4514020">
    <ele>438.1</ele>
    <time>2025-07-19T14:44:49Z</time>
   </trkpt>
   <trkpt lat="53.0030400" lon="-6.4513320">
    <ele>437.7</ele>
    <time>2025-07-19T14:44:55Z</time>
   </trkpt>
   <trkpt lat="53.0030130" lon="-6.4512680">
    <ele>437.4</ele>
    <time>2025-07-19T14:45:02Z</time>
   </trkpt>
   <trkpt lat="53.0029890" lon="-6.4511670">
    <ele>437.0</ele>
    <time>2025-07-19T14:45:08Z</time>
   </trkpt>
   <trkpt lat="53.0029630" lon="-6.4510750">
    <ele>436.5</ele>
    <time>2025-07-19T14:45:13Z</time>
   </trkpt>
   <trkpt lat="53.0029300" lon="-6.4510170">
    <ele>436.2</ele>
    <time>2025-07-19T14:45:19Z</time>
   </trkpt>
   <trkpt lat="53.0028980" lon="-6.4509570">
    <ele>435.9</ele>
    <time>2025-07-19T14:45:24Z</time>
   </trkpt>
   <trkpt lat="53.0028820" lon="-6.4508830">
    <ele>435.5</ele>
    <time>2025-07-19T14:45:34Z</time>
   </trkpt>
   <trkpt lat="53.0028610" lon="-6.4507610">
    <ele>434.9</ele>
    <time>2025-07-19T14:45:39Z</time>
   </trkpt>
   <trkpt lat="53.0028360" lon="-6.4506990">
    <ele>434.0</ele>
    <time>2025-07-19T14:45:52Z</time>
   </trkpt>
   <trkpt lat="53.0027590" lon="-6.4506160">
    <ele>433.8</ele>
    <time>2025-07-19T14:45:57Z</time>
   </trkpt>
   <trkpt lat="53.0027210" lon="-6.4505230">
    <ele>433.4</ele>
    <time>2025-07-19T14:46:03Z</time>
   </trkpt>
   <trkpt lat="53.0026770" lon="-6.4504440">
    <ele>432.8</ele>
    <time>2025-07-19T14:46:08Z</time>
   </trkpt>
   <trkpt lat="53.0026360" lon="-6.4503330">
    <ele>432.2</ele>
    <time>2025-07-19T14:46:13Z</time>
   </trkpt>
   <trkpt lat="53.0026350" lon="-6.4502220">
    <ele>431.2</ele>
    <time>2025-07-19T14:46:18Z</time>
   </trkpt>
   <trkpt lat="53.0026340" lon="-6.4501480">
    <ele>429.5</ele>
    <time>2025-07-19T14:46:42Z</time>
   </trkpt>
   <trkpt lat="53.0026120" lon="-6.4500780">
    <ele>428.9</ele>
    <time>2025-07-19T14:46:57Z</time>
   </trkpt>
   <trkpt lat="53.0025990" lon="-6.4500040">
    <ele>428.5</ele>
    <time>2025-07-19T14:47:03Z</time>
   </trkpt>
   <trkpt lat="53.0025340" lon="-6.4498170">
    <ele>427.5</ele>
    <time>2025-07-19T14:47:09Z</time>
   </trkpt>
   <trkpt lat="53.0025100" lon="-6.4497520">
    <ele>426.7</ele>
    <time>2025-07-19T14:47:15Z</time>
   </trkpt>
   <trkpt lat="53.0024720" lon="-6.4497090">
    <ele>426.1</ele>
    <time>2025-07-19T14:47:27Z</time>
   </trkpt>
   <trkpt lat="53.0024390" lon="-6.4496210">
    <ele>425.8</ele>
    <time>2025-07-19T14:47:32Z</time>
   </trkpt>
   <trkpt lat="53.0024280" lon="-6.4495440">
    <ele>425.3</ele>
    <time>2025-07-19T14:47:38Z</time>
   </trkpt>
   <trkpt lat="53.0024210" lon="-6.4494540">
    <ele>424.4</ele>
    <time>2025-07-19T14:47:52Z</time>
   </trkpt>
   <trkpt lat="53.0023810" lon="-6.4493910">
    <ele>424.0</ele>
    <time>2025-07-19T14:47:58Z</time>
   </trkpt>
   <trkpt lat="53.0023540" lon="-6.4493280">
    <ele>423.7</ele>
    <time>2025-07-19T14:48:11Z</time>
   </trkpt>
   <trkpt lat="53.0023370" lon="-6.4492530">
    <ele>423.3</ele>
    <time>2025-07-19T14:48:17Z</time>
   </trkpt>
   <trkpt lat="53.0023340" lon="-6.4491700">
    <ele>422.7</ele>
    <time>2025-07-19T14:48:22Z</time>
   </trkpt>
   <trkpt lat="53.0022850" lon="-6.4491550">
    <ele>422.4</ele>
    <time>2025-07-19T14:48:31Z</time>
   </trkpt>
   <trkpt lat="53.0022650" lon="-6.4490680">
    <ele>422.3</ele>
    <time>2025-07-19T14:48:36Z</time>
   </trkpt>
   <trkpt lat="53.0022370" lon="-6.4490070">
    <ele>422.1</ele>
    <time>2025-07-19T14:48:45Z</time>
   </trkpt>
   <trkpt lat="53.0022250" lon="-6.4489320">
    <ele>421.9</ele>
    <time>2025-07-19T14:48:51Z</time>
   </trkpt>
   <trkpt lat="53.0021920" lon="-6.4488630">
    <ele>421.6</ele>
    <time>2025-07-19T14:48:57Z</time>
   </trkpt>
   <trkpt lat="53.0021650" lon="-6.4487770">
    <ele>421.3</ele>
    <time>2025-07-19T14:49:16Z</time>
   </trkpt>
   <trkpt lat="53.0021350" lon="-6.4486670">
    <ele>421.0</ele>
    <time>2025-07-19T14:49:21Z</time>
   </trkpt>
   <trkpt lat="53.0021100" lon="-6.4485740">
    <ele>420.6</ele>
    <time>2025-07-19T14:49:27Z</time>
   </trkpt>
   <trkpt lat="53.0020950" lon="-6.4485020">
    <ele>420.2</ele>
    <time>2025-07-19T14:49:32Z</time>
   </trkpt>
   <trkpt lat="53.0020760" lon="-6.4484090">
    <ele>419.7</ele>
    <time>2025-07-19T14:49:38Z</time>
   </trkpt>
   <trkpt lat="53.0020580" lon="-6.4483220">
    <ele>419.0</ele>
    <time>2025-07-19T14:49:43Z</time>
   </trkpt>
   <trkpt lat="53.0020370" lon="-6.4482530">
    <ele>418.5</ele>
    <time>2025-07-19T14:49:48Z</time>
   </trkpt>
   <trkpt lat="53.0020060" lon="-6.4481760">
    <ele>418.1</ele>
    <time>2025-07-19T14:49:53Z</time>
   </trkpt>
   <trkpt lat="53.0019790" lon="-6.4480990">
    <ele>417.5</ele>
    <time>2025-07-19T14:49:59Z</time>
   </trkpt>
   <trkpt lat="53.0019420" lon="-6.4480230">
    <ele>416.9</ele>
    <time>2025-07-19T14:50:04Z</time>
   </trkpt>
   <trkpt lat="53.0019230" lon="-6.4479340">
    <ele>416.2</ele>
    <time>2025-07-19T14:50:09Z</time>
   </trkpt>
   <trkpt lat="53.0018970" lon="-6.4478420">
    <ele>415.4</ele>
    <time>2025-07-19T14:50:14Z</time>
   </trkpt>
   <trkpt lat="53.0018540" lon="-6.4477430">
    <ele>414.5</ele>
    <time>2025-07-19T14:50:20Z</time>
   </trkpt>
   <trkpt lat="53.0018340" lon="-6.4476470">
    <ele>413.5</ele>
    <time>2025-07-19T14:50:25Z</time>
   </trkpt>
   <trkpt lat="53.0018150" lon="-6.4475660">
    <ele>412.6</ele>
    <time>2025-07-19T14:50:30Z</time>
   </trkpt>
   <trkpt lat="53.0017890" lon="-6.4474790">
    <ele>411.7</ele>
    <time>2025-07-19T14:50:36Z</time>
   </trkpt>
   <trkpt lat="53.0017630" lon="-6.4473890">
    <ele>410.8</ele>
    <time>2025-07-19T14:50:41Z</time>
   </trkpt>
   <trkpt lat="53.0017310" lon="-6.4473200">
    <ele>410.1</ele>
    <time>2025-07-19T14:50:46Z</time>
   </trkpt>
   <trkpt lat="53.0017110" lon="-6.4472510">
    <ele>409.6</ele>
    <time>2025-07-19T14:50:52Z</time>
   </trkpt>
   <trkpt lat="53.0016910" lon="-6.4471810">
    <ele>409.0</ele>
    <time>2025-07-19T14:50:57Z</time>
   </trkpt>
   <trkpt lat="53.0016830" lon="-6.4471010">
    <ele>408.3</ele>
    <time>2025-07-19T14:51:03Z</time>
   </trkpt>
   <trkpt lat="53.0016550" lon="-6.4470420">
    <ele>407.8</ele>
    <time>2025-07-19T14:51:08Z</time>
   </trkpt>
   <trkpt lat="53.0016120" lon="-6.4469850">
    <ele>407.5</ele>
    <time>2025-07-19T14:51:13Z</time>
   </trkpt>
   <trkpt lat="53.0015910" lon="-6.4469150">
    <ele>407.2</ele>
    <time>2025-07-19T14:51:20Z</time>
   </trkpt>
   <trkpt lat="53.0015660" lon="-6.4468460">
    <ele>406.9</ele>
    <time>2025-07-19T14:51:26Z</time>
   </trkpt>
   <trkpt lat="53.0015470" lon="-6.4467620">
    <ele>406.5</ele>
    <time>2025-07-19T14:51:31Z</time>
   </trkpt>
   <trkpt lat="53.0015190" lon="-6.4466640">
    <ele>406.1</ele>
    <time>2025-07-19T14:51:37Z</time>
   </trkpt>
   <trkpt lat="53.0014940" lon="-6.4465860">
    <ele>405.5</ele>
    <time>2025-07-19T14:51:42Z</time>
   </trkpt>
   <trkpt lat="53.0014540" lon="-6.4465240">
    <ele>405.3</ele>
    <time>2025-07-19T14:51:48Z</time>
   </trkpt>
   <trkpt lat="53.0014480" lon="-6.4464410">
    <ele>404.9</ele>
    <time>2025-07-19T14:51:53Z</time>
   </trkpt>
   <trkpt lat="53.0014340" lon="-6.4463520">
    <ele>404.4</ele>
    <time>2025-07-19T14:51:58Z</time>
   </trkpt>
   <trkpt lat="53.0014050" lon="-6.4462820">
    <ele>403.9</ele>
    <time>2025-07-19T14:52:04Z</time>
   </trkpt>
   <trkpt lat="53.0013670" lon="-6.4462260">
    <ele>403.6</ele>
    <time>2025-07-19T14:52:10Z</time>
   </trkpt>
   <trkpt lat="53.0013540" lon="-6.4461340">
    <ele>403.2</ele>
    <time>2025-07-19T14:52:16Z</time>
   </trkpt>
   <trkpt lat="53.0013300" lon="-6.4460580">
    <ele>402.8</ele>
    <time>2025-07-19T14:52:21Z</time>
   </trkpt>
   <trkpt lat="53.0013040" lon="-6.4459710">
    <ele>402.2</ele>
    <time>2025-07-19T14:52:27Z</time>
   </trkpt>
   <trkpt lat="53.0012850" lon="-6.4458950">
    <ele>401.7</ele>
    <time>2025-07-19T14:52:32Z</time>
   </trkpt>
   <trkpt lat="53.0012440" lon="-6.4458290">
    <ele>401.3</ele>
    <time>2025-07-19T14:52:38Z</time>
   </trkpt>
   <trkpt lat="53.0012240" lon="-6.4457580">
    <ele>400.9</ele>
    <time>2025-07-19T14:52:44Z</time>
   </trkpt>
   <trkpt lat="53.0012120" lon="-6.4456810">
    <ele>400.3</ele>
    <time>2025-07-19T14:52:49Z</time>
   </trkpt>
   <trkpt lat="53.0011790" lon="-6.4456240">
    <ele>399.7</ele>
    <time>2025-07-19T14:52:55Z</time>
   </trkpt>
   <trkpt lat="53.0011540" lon="-6.4455550">
    <ele>399.1</ele>
    <time>2025-07-19T14:53:01Z</time>
   </trkpt>
   <trkpt lat="53.0011340" lon="-6.4454770">
    <ele>398.5</ele>
    <time>2025-07-19T14:53:06Z</time>
   </trkpt>
   <trkpt lat="53.0011030" lon="-6.4454170">
    <ele>397.9</ele>
    <time>2025-07-19T14:53:12Z</time>
   </trkpt>
   <trkpt lat="53.0010670" lon="-6.4453370">
    <ele>397.2</ele>
    <time>2025-07-19T14:53:17Z</time>
   </trkpt>
   <trkpt lat="53.0010580" lon="-6.4452360">
    <ele>396.2</ele>
    <time>2025-07-19T14:53:22Z</time>
   </trkpt>
   <trkpt lat="53.0010350" lon="-6.4451420">
    <ele>395.2</ele>
    <time>2025-07-19T14:53:28Z</time>
   </trkpt>
   <trkpt lat="53.0010520" lon="-6.4450670">
    <ele>394.4</ele>
    <time>2025-07-19T14:53:33Z</time>
   </trkpt>
   <trkpt lat="53.0010050" lon="-6.4450780">
    <ele>393.7</ele>
    <time>2025-07-19T14:56:45Z</time>
   </trkpt>
   <trkpt lat="53.0009480" lon="-6.4450030">
    <ele>393.6</ele>
    <time>2025-07-19T14:56:50Z</time>
   </trkpt>
   <trkpt lat="53.0009380" lon="-6.4449170">
    <ele>393.2</ele>
    <time>2025-07-19T14:56:55Z</time>
   </trkpt>
   <trkpt lat="53.0009200" lon="-6.4448270">
    <ele>392.7</ele>
    <time>2025-07-19T14:57:00Z</time>
   </trkpt>
   <trkpt lat="53.0008750" lon="-6.4447330">
    <ele>392.2</ele>
    <time>2025-07-19T14:57:05Z</time>
   </trkpt>
   <trkpt lat="53.0008340" lon="-6.4446320">
    <ele>391.7</ele>
    <time>2025-07-19T14:57:11Z</time>
   </trkpt>
   <trkpt lat="53.0008020" lon="-6.4445770">
    <ele>391.4</ele>
    <time>2025-07-19T14:57:28Z</time>
   </trkpt>
   <trkpt lat="53.0008030" lon="-6.4445000">
    <ele>391.1</ele>
    <time>2025-07-19T14:57:40Z</time>
   </trkpt>
   <trkpt lat="53.0007620" lon="-6.4443330">
    <ele>390.8</ele>
    <time>2025-07-19T14:57:45Z</time>
   </trkpt>
   <trkpt lat="53.0007170" lon="-6.4442510">
    <ele>390.6</ele>
    <time>2025-07-19T14:57:50Z</time>
   </trkpt>
   <trkpt lat="53.0006910" lon="-6.4441770">
    <ele>390.5</ele>
    <time>2025-07-19T14:57:56Z</time>
   </trkpt>
   <trkpt lat="53.0006510" lon="-6.4441010">
    <ele>390.4</ele>
    <time>2025-07-19T14:58:01Z</time>
   </trkpt>
   <trkpt lat="53.0005980" lon="-6.4440370">
    <ele>390.4</ele>
    <time>2025-07-19T14:58:06Z</time>
   </trkpt>
   <trkpt lat="53.0005540" lon="-6.4439650">
    <ele>390.5</ele>
    <time>2025-07-19T14:58:12Z</time>
   </trkpt>
   <trkpt lat="53.0004900" lon="-6.4439180">
    <ele>390.6</ele>
    <time>2025-07-19T14:58:17Z</time>
   </trkpt>
   <trkpt lat="53.0004390" lon="-6.4438840">
    <ele>390.9</ele>
    <time>2025-07-19T14:58:22Z</time>
   </trkpt>
   <trkpt lat="53.0004020" lon="-6.4438360">
    <ele>391.0</ele>
    <time>2025-07-19T14:58:29Z</time>
   </trkpt>
   <trkpt lat="53.0003540" lon="-6.4437700">
    <ele>391.1</ele>
    <time>2025-07-19T14:58:34Z</time>
   </trkpt>
   <trkpt lat="53.0003280" lon="-6.4436640">
    <ele>391.0</ele>
    <time>2025-07-19T14:58:39Z</time>
   </trkpt>
   <trkpt lat="53.0003040" lon="-6.4435700">
    <ele>390.8</ele>
    <time>2025-07-19T14:58:44Z</time>
   </trkpt>
   <trkpt lat="53.0002740" lon="-6.4434870">
    <ele>390.5</ele>
    <time>2025-07-19T14:58:50Z</time>
   </trkpt>
   <trkpt lat="53.0002420" lon="-6.4434290">
    <ele>390.1</ele>
    <time>2025-07-19T14:58:55Z</time>
   </trkpt>
   <trkpt lat="53.0002310" lon="-6.4433300">
    <ele>389.5</ele>
    <time>2025-07-19T14:59:00Z</time>
   </trkpt>
   <trkpt lat="53.0002200" lon="-6.4432450">
    <ele>388.8</ele>
    <time>2025-07-19T14:59:05Z</time>
   </trkpt>
   <trkpt lat="53.0001970" lon="-6.4431790">
    <ele>388.0</ele>
    <time>2025-07-19T14:59:10Z</time>
   </trkpt>
   <trkpt lat="53.0001670" lon="-6.4431090">
    <ele>387.3</ele>
    <time>2025-07-19T14:59:15Z</time>
   </trkpt>
   <trkpt lat="53.0001270" lon="-6.4430440">
    <ele>386.4</ele>
    <time>2025-07-19T14:59:20Z</time>
   </trkpt>
   <trkpt lat="53.0000900" lon="-6.4429920">
    <ele>384.8</ele>
    <time>2025-07-19T14:59:47Z</time>
   </trkpt>
   <trkpt lat="53.0000510" lon="-6.4429260">
    <ele>384.3</ele>
    <time>2025-07-19T14:59:53Z</time>
   </trkpt>
   <trkpt lat="53.0000050" lon="-6.4428860">
    <ele>383.2</ele>
    <time>2025-07-19T15:00:11Z</time>
   </trkpt>
   <trkpt lat="52.9999430" lon="-6.4428130">
    <ele>382.5</ele>
    <time>2025-07-19T15:00:16Z</time>
   </trkpt>
   <trkpt lat="52.9998850" lon="-6.4427550">
    <ele>382.1</ele>
    <time>2025-07-19T15:00:21Z</time>
   </trkpt>
   <trkpt lat="52.9998490" lon="-6.4426980">
    <ele>381.5</ele>
    <time>2025-07-19T15:00:32Z</time>
   </trkpt>
   <trkpt lat="52.9997920" lon="-6.4426400">
    <ele>381.3</ele>
    <time>2025-07-19T15:00:38Z</time>
   </trkpt>
   <trkpt lat="52.9997340" lon="-6.4425790">
    <ele>381.1</ele>
    <time>2025-07-19T15:00:43Z</time>
   </trkpt>
   <trkpt lat="52.9996720" lon="-6.4424990">
    <ele>381.0</ele>
    <time>2025-07-19T15:00:48Z</time>
   </trkpt>
   <trkpt lat="52.9996170" lon="-6.4424220">
    <ele>380.7</ele>
    <time>2025-07-19T15:00:53Z</time>
   </trkpt>
   <trkpt lat="52.9995610" lon="-6.4423830">
    <ele>380.6</ele>
    <time>2025-07-19T15:00:59Z</time>
   </trkpt>
   <trkpt lat="52.9995000" lon="-6.4423540">
    <ele>380.6</ele>
    <time>2025-07-19T15:01:04Z</time>
   </trkpt>
   <trkpt lat="52.9994260" lon="-6.4423310">
    <ele>380.9</ele>
    <time>2025-07-19T15:01:09Z</time>
   </trkpt>
   <trkpt lat="52.9993670" lon="-6.4423350">
    <ele>381.1</ele>
    <time>2025-07-19T15:01:15Z</time>
   </trkpt>
   <trkpt lat="52.9993090" lon="-6.4423530">
    <ele>381.5</ele>
    <time>2025-07-19T15:01:20Z</time>
   </trkpt>
   <trkpt lat="52.9992480" lon="-6.4423560">
    <ele>381.9</ele>
    <time>2025-07-19T15:01:25Z</time>
   </trkpt>
   <trkpt lat="52.9991920" lon="-6.4423570">
    <ele>382.2</ele>
    <time>2025-07-19T15:01:30Z</time>
   </trkpt>
   <trkpt lat="52.9991300" lon="-6.4423760">
    <ele>382.5</ele>
    <time>2025-07-19T15:01:35Z</time>
   </trkpt>
   <trkpt lat="52.9990800" lon="-6.4423460">
    <ele>382.4</ele>
    <time>2025-07-19T15:01:41Z</time>
   </trkpt>
   <trkpt lat="52.9990240" lon="-6.4423210">
    <ele>382.2</ele>
    <time>2025-07-19T15:01:46Z</time>
   </trkpt>
   <trkpt lat="52.9989660" lon="-6.4422800">
    <ele>381.7</ele>
    <time>2025-07-19T15:01:51Z</time>
   </trkpt>
   <trkpt lat="52.9989270" lon="-6.4421900">
    <ele>380.8</ele>
    <time>2025-07-19T15:01:56Z</time>
   </trkpt>
   <trkpt lat="52.9988740" lon="-6.4421150">
    <ele>379.6</ele>
    <time>2025-07-19T15:02:01Z</time>
   </trkpt>
   <trkpt lat="52.9988290" lon="-6.4420390">
    <ele>378.2</ele>
    <time>2025-07-19T15:02:07Z</time>
   </trkpt>
   <trkpt lat="52.9987800" lon="-6.4419730">
    <ele>376.8</ele>
    <time>2025-07-19T15:02:12Z</time>
   </trkpt>
   <trkpt lat="52.9987230" lon="-6.4419170">
    <ele>375.5</ele>
    <time>2025-07-19T15:02:17Z</time>
   </trkpt>
   <trkpt lat="52.9986650" lon="-6.4418840">
    <ele>374.2</ele>
    <time>2025-07-19T15:02:23Z</time>
   </trkpt>
   <trkpt lat="52.9986090" lon="-6.4418650">
    <ele>373.3</ele>
    <time>2025-07-19T15:02:28Z</time>
   </trkpt>
   <trkpt lat="52.9985380" lon="-6.4418540">
    <ele>372.4</ele>
    <time>2025-07-19T15:02:33Z</time>
   </trkpt>
   <trkpt lat="52.9984770" lon="-6.4418680">
    <ele>371.8</ele>
    <time>2025-07-19T15:02:38Z</time>
   </trkpt>
   <trkpt lat="52.9984350" lon="-6.4419320">
    <ele>371.8</ele>
    <time>2025-07-19T15:02:43Z</time>
   </trkpt>
   <trkpt lat="52.9983760" lon="-6.4419490">
    <ele>372.0</ele>
    <time>2025-07-19T15:02:48Z</time>
   </trkpt>
   <trkpt lat="52.9983150" lon="-6.4419350">
    <ele>371.9</ele>
    <time>2025-07-19T15:02:54Z</time>
   </trkpt>
   <trkpt lat="52.9982720" lon="-6.4419010">
    <ele>371.6</ele>
    <time>2025-07-19T15:02:59Z</time>
   </trkpt>
   <trkpt lat="52.9982680" lon="-6.4418050">
    <ele>370.8</ele>
    <time>2025-07-19T15:03:04Z</time>
   </trkpt>
   <trkpt lat="52.9982750" lon="-6.4417310">
    <ele>369.8</ele>
    <time>2025-07-19T15:03:10Z</time>
   </trkpt>
   <trkpt lat="52.9982870" lon="-6.4416410">
    <ele>368.8</ele>
    <time>2025-07-19T15:03:15Z</time>
   </trkpt>
   <trkpt lat="52.9983440" lon="-6.4416050">
    <ele>368.0</ele>
    <time>2025-07-19T15:03:20Z</time>
   </trkpt>
   <trkpt lat="52.9983480" lon="-6.4415180">
    <ele>367.0</ele>
    <time>2025-07-19T15:03:29Z</time>
   </trkpt>
   <trkpt lat="52.9983720" lon="-6.4414310">
    <ele>366.2</ele>
    <time>2025-07-19T15:03:35Z</time>
   </trkpt>
   <trkpt lat="52.9983950" lon="-6.4413420">
    <ele>365.4</ele>
    <time>2025-07-19T15:03:40Z</time>
   </trkpt>
   <trkpt lat="52.9984110" lon="-6.4412550">
    <ele>364.6</ele>
    <time>2025-07-19T15:03:46Z</time>
   </trkpt>
   <trkpt lat="52.9984270" lon="-6.4411860">
    <ele>363.9</ele>
    <time>2025-07-19T15:03:51Z</time>
   </trkpt>
   <trkpt lat="52.9984190" lon="-6.4411010">
    <ele>363.1</ele>
    <time>2025-07-19T15:03:56Z</time>
   </trkpt>
   <trkpt lat="52.9984090" lon="-6.4410250">
    <ele>362.4</ele>
    <time>2025-07-19T15:04:01Z</time>
   </trkpt>
   <trkpt lat="52.9984150" lon="-6.4409360">
    <ele>361.6</ele>
    <time>2025-07-19T15:04:07Z</time>
   </trkpt>
   <trkpt lat="52.9984190" lon="-6.4408540">
    <ele>360.7</ele>
    <time>2025-07-19T15:04:12Z</time>
   </trkpt>
   <trkpt lat="52.9984100" lon="-6.4407620">
    <ele>359.9</ele>
    <time>2025-07-19T15:04:18Z</time>
   </trkpt>
   <trkpt lat="52.9984230" lon="-6.4406760">
    <ele>359.1</ele>
    <time>2025-07-19T15:04:23Z</time>
   </trkpt>
   <trkpt lat="52.9984250" lon="-6.4405920">
    <ele>358.2</ele>
    <time>2025-07-19T15:04:28Z</time>
   </trkpt>
   <trkpt lat="52.9984220" lon="-6.4405010">
    <ele>357.3</ele>
    <time>2025-07-19T15:04:34Z</time>
   </trkpt>
   <trkpt lat="52.9984210" lon="-6.4404110">
    <ele>356.3</ele>
    <time>2025-07-19T15:04:39Z</time>
   </trkpt>
   <trkpt lat="52.9984030" lon="-6.4403260">
    <ele>355.5</ele>
    <time>2025-07-19T15:04:45Z</time>
   </trkpt>
   <trkpt lat="52.9984000" lon="-6.4402360">
    <ele>354.6</ele>
    <time>2025-07-19T15:04:50Z</time>
   </trkpt>
   <trkpt lat="52.9984010" lon="-6.4401580">
    <ele>353.5</ele>
    <time>2025-07-19T15:05:07Z</time>
   </trkpt>
   <trkpt lat="52.9983940" lon="-6.4400260">
    <ele>352.8</ele>
    <time>2025-07-19T15:05:12Z</time>
   </trkpt>
   <trkpt lat="52.9983920" lon="-6.4399210">
    <ele>351.8</ele>
    <time>2025-07-19T15:05:17Z</time>
   </trkpt>
   <trkpt lat="52.9983840" lon="-6.4398290">
    <ele>350.9</ele>
    <time>2025-07-19T15:05:22Z</time>
   </trkpt>
   <trkpt lat="52.9983740" lon="-6.4397280">
    <ele>350.2</ele>
    <time>2025-07-19T15:05:28Z</time>
   </trkpt>
   <trkpt lat="52.9983770" lon="-6.4396250">
    <ele>349.5</ele>
    <time>2025-07-19T15:05:33Z</time>
   </trkpt>
   <trkpt lat="52.9983930" lon="-6.4395350">
    <ele>348.6</ele>
    <time>2025-07-19T15:05:38Z</time>
   </trkpt>
   <trkpt lat="52.9984000" lon="-6.4394540">
    <ele>347.7</ele>
    <time>2025-07-19T15:05:43Z</time>
   </trkpt>
   <trkpt lat="52.9984020" lon="-6.4393610">
    <ele>346.8</ele>
    <time>2025-07-19T15:05:49Z</time>
   </trkpt>
   <trkpt lat="52.9983960" lon="-6.4392750">
    <ele>346.0</ele>
    <time>2025-07-19T15:05:54Z</time>
   </trkpt>
   <trkpt lat="52.9983740" lon="-6.4391830">
    <ele>345.3</ele>
    <time>2025-07-19T15:05:59Z</time>
   </trkpt>
   <trkpt lat="52.9983630" lon="-6.4390810">
    <ele>344.4</ele>
    <time>2025-07-19T15:06:05Z</time>
   </trkpt>
   <trkpt lat="52.9983530" lon="-6.4390000">
    <ele>343.4</ele>
    <time>2025-07-19T15:06:10Z</time>
   </trkpt>
   <trkpt lat="52.9983720" lon="-6.4389300">
    <ele>342.3</ele>
    <time>2025-07-19T15:06:16Z</time>
   </trkpt>
   <trkpt lat="52.9983590" lon="-6.4388580">
    <ele>340.9</ele>
    <time>2025-07-19T15:06:26Z</time>
   </trkpt>
   <trkpt lat="52.9983560" lon="-6.4387700">
    <ele>339.9</ele>
    <time>2025-07-19T15:06:31Z</time>
   </trkpt>
   <trkpt lat="52.9983540" lon="-6.4386640">
    <ele>338.7</ele>
    <time>2025-07-19T15:06:37Z</time>
   </trkpt>
   <trkpt lat="52.9983400" lon="-6.4385730">
    <ele>337.4</ele>
    <time>2025-07-19T15:06:42Z</time>
   </trkpt>
   <trkpt lat="52.9983320" lon="-6.4384830">
    <ele>335.9</ele>
    <time>2025-07-19T15:06:48Z</time>
   </trkpt>
   <trkpt lat="52.9983140" lon="-6.4383920">
    <ele>334.6</ele>
    <time>2025-07-19T15:06:53Z</time>
   </trkpt>
   <trkpt lat="52.9983070" lon="-6.4382970">
    <ele>333.3</ele>
    <time>2025-07-19T15:06:58Z</time>
   </trkpt>
   <trkpt lat="52.9983050" lon="-6.4382140">
    <ele>331.8</ele>
    <time>2025-07-19T15:07:04Z</time>
   </trkpt>
   <trkpt lat="52.9982940" lon="-6.4381400">
    <ele>330.7</ele>
    <time>2025-07-19T15:07:10Z</time>
   </trkpt>
   <trkpt lat="52.9982890" lon="-6.4380620">
    <ele>329.5</ele>
    <time>2025-07-19T15:07:16Z</time>
   </trkpt>
   <trkpt lat="52.9982880" lon="-6.4379750">
    <ele>328.0</ele>
    <time>2025-07-19T15:07:24Z</time>
   </trkpt>
   <trkpt lat="52.9982750" lon="-6.4378550">
    <ele>326.6</ele>
    <time>2025-07-19T15:07:29Z</time>
   </trkpt>
   <trkpt lat="52.9982690" lon="-6.4377770">
    <ele>325.1</ele>
    <time>2025-07-19T15:07:35Z</time>
   </trkpt>
   <trkpt lat="52.9982530" lon="-6.4377060">
    <ele>324.1</ele>
    <time>2025-07-19T15:07:40Z</time>
   </trkpt>
   <trkpt lat="52.9982670" lon="-6.4376320">
    <ele>322.7</ele>
    <time>2025-07-19T15:07:46Z</time>
   </trkpt>
   <trkpt lat="52.9982390" lon="-6.4375570">
    <ele>321.6</ele>
    <time>2025-07-19T15:07:51Z</time>
   </trkpt>
   <trkpt lat="52.9982250" lon="-6.4374800">
    <ele>320.6</ele>
    <time>2025-07-19T15:07:57Z</time>
   </trkpt>
   <trkpt lat="52.9981920" lon="-6.4374280">
    <ele>320.1</ele>
    <time>2025-07-19T15:08:02Z</time>
   </trkpt>
   <trkpt lat="52.9981990" lon="-6.4373520">
    <ele>319.2</ele>
    <time>2025-07-19T15:08:07Z</time>
   </trkpt>
   <trkpt lat="52.9982080" lon="-6.4372750">
    <ele>317.9</ele>
    <time>2025-07-19T15:08:43Z</time>
   </trkpt>
   <trkpt lat="52.9981800" lon="-6.4371810">
    <ele>316.6</ele>
    <time>2025-07-19T15:08:48Z</time>
   </trkpt>
   <trkpt lat="52.9981530" lon="-6.4371010">
    <ele>315.6</ele>
    <time>2025-07-19T15:08:54Z</time>
   </trkpt>
   <trkpt lat="52.9981290" lon="-6.4370320">
    <ele>314.8</ele>
    <time>2025-07-19T15:09:00Z</time>
   </trkpt>
   <trkpt lat="52.9981120" lon="-6.4369560">
    <ele>314.3</ele>
    <time>2025-07-19T15:09:08Z</time>
   </trkpt>
   <trkpt lat="52.9980800" lon="-6.4368580">
    <ele>313.8</ele>
    <time>2025-07-19T15:09:13Z</time>
   </trkpt>
   <trkpt lat="52.9980580" lon="-6.4367910">
    <ele>313.2</ele>
    <time>2025-07-19T15:09:23Z</time>
   </trkpt>
   <trkpt lat="52.9980410" lon="-6.4367170">
    <ele>312.9</ele>
    <time>2025-07-19T15:09:29Z</time>
   </trkpt>
   <trkpt lat="52.9980230" lon="-6.4366430">
    <ele>312.5</ele>
    <time>2025-07-19T15:09:34Z</time>
   </trkpt>
   <trkpt lat="52.9979950" lon="-6.4365300">
    <ele>312.1</ele>
    <time>2025-07-19T15:09:40Z</time>
   </trkpt>
   <trkpt lat="52.9979850" lon="-6.4364520">
    <ele>311.3</ele>
    <time>2025-07-19T15:09:45Z</time>
   </trkpt>
   <trkpt lat="52.9979820" lon="-6.4363730">
    <ele>310.1</ele>
    <time>2025-07-19T15:09:50Z</time>
   </trkpt>
   <trkpt lat="52.9979580" lon="-6.4362900">
    <ele>309.2</ele>
    <time>2025-07-19T15:09:56Z</time>
   </trkpt>
   <trkpt lat="52.9979460" lon="-6.4362160">
    <ele>308.5</ele>
    <time>2025-07-19T15:10:01Z</time>
   </trkpt>
   <trkpt lat="52.9979380" lon="-6.4361320">
    <ele>307.1</ele>
    <time>2025-07-19T15:10:07Z</time>
   </trkpt>
   <trkpt lat="52.9979070" lon="-6.4360570">
    <ele>306.7</ele>
    <time>2025-07-19T15:10:12Z</time>
   </trkpt>
   <trkpt lat="52.9978960" lon="-6.4359800">
    <ele>306.1</ele>
    <time>2025-07-19T15:10:17Z</time>
   </trkpt>
   <trkpt lat="52.9978840" lon="-6.4358970">
    <ele>305.5</ele>
    <time>2025-07-19T15:10:23Z</time>
   </trkpt>
   <trkpt lat="52.9978740" lon="-6.4358150">
    <ele>304.5</ele>
    <time>2025-07-19T15:10:28Z</time>
   </trkpt>
   <trkpt lat="52.9978520" lon="-6.4357470">
    <ele>304.0</ele>
    <time>2025-07-19T15:10:35Z</time>
   </trkpt>
   <trkpt lat="52.9978410" lon="-6.4356740">
    <ele>303.6</ele>
    <time>2025-07-19T15:10:40Z</time>
   </trkpt>
   <trkpt lat="52.9978260" lon="-6.4355860">
    <ele>303.0</ele>
    <time>2025-07-19T15:10:45Z</time>
   </trkpt>
   <trkpt lat="52.9977890" lon="-6.4355360">
    <ele>303.6</ele>
    <time>2025-07-19T15:11:38Z</time>
   </trkpt>
   <trkpt lat="52.9977710" lon="-6.4353980">
    <ele>302.8</ele>
    <time>2025-07-19T15:11:43Z</time>
   </trkpt>
   <trkpt lat="52.9977720" lon="-6.4353120">
    <ele>300.7</ele>
    <time>2025-07-19T15:12:01Z</time>
   </trkpt>
   <trkpt lat="52.9977600" lon="-6.4352050">
    <ele>299.7</ele>
    <time>2025-07-19T15:12:06Z</time>
   </trkpt>
   <trkpt lat="52.9977460" lon="-6.4351220">
    <ele>298.6</ele>
    <time>2025-07-19T15:12:11Z</time>
   </trkpt>
   <trkpt lat="52.9977220" lon="-6.4350530">
    <ele>297.8</ele>
    <time>2025-07-19T15:12:17Z</time>
   </trkpt>
   <trkpt lat="52.9977020" lon="-6.4349750">
    <ele>297.0</ele>
    <time>2025-07-19T15:12:24Z</time>
   </trkpt>
   <trkpt lat="52.9976860" lon="-6.4348930">
    <ele>296.3</ele>
    <time>2025-07-19T15:12:30Z</time>
   </trkpt>
   <trkpt lat="52.9976620" lon="-6.4348030">
    <ele>295.2</ele>
    <time>2025-07-19T15:12:35Z</time>
   </trkpt>
   <trkpt lat="52.9976470" lon="-6.4347330">
    <ele>294.1</ele>
    <time>2025-07-19T15:12:40Z</time>
   </trkpt>
   <trkpt lat="52.9976300" lon="-6.4346640">
    <ele>293.0</ele>
    <time>2025-07-19T15:12:46Z</time>
   </trkpt>
   <trkpt lat="52.9976060" lon="-6.4345800">
    <ele>291.8</ele>
    <time>2025-07-19T15:12:51Z</time>
   </trkpt>
   <trkpt lat="52.9975750" lon="-6.4345020">
    <ele>290.6</ele>
    <time>2025-07-19T15:12:57Z</time>
   </trkpt>
   <trkpt lat="52.9975440" lon="-6.4344190">
    <ele>289.5</ele>
    <time>2025-07-19T15:13:02Z</time>
   </trkpt>
   <trkpt lat="52.9975100" lon="-6.4343570">
    <ele>288.3</ele>
    <time>2025-07-19T15:13:09Z</time>
   </trkpt>
   <trkpt lat="52.9974930" lon="-6.4342750">
    <ele>287.3</ele>
    <time>2025-07-19T15:13:14Z</time>
   </trkpt>
   <trkpt lat="52.9974760" lon="-6.4342050">
    <ele>286.3</ele>
    <time>2025-07-19T15:13:19Z</time>
   </trkpt>
   <trkpt lat="52.9974550" lon="-6.4341340">
    <ele>285.1</ele>
    <time>2025-07-19T15:13:37Z</time>
   </trkpt>
   <trkpt lat="52.9973860" lon="-6.4340230">
    <ele>284.6</ele>
    <time>2025-07-19T15:13:42Z</time>
   </trkpt>
   <trkpt lat="52.9973690" lon="-6.4339400">
    <ele>283.9</ele>
    <time>2025-07-19T15:13:47Z</time>
   </trkpt>
   <trkpt lat="52.9973470" lon="-6.4338570">
    <ele>283.2</ele>
    <time>2025-07-19T15:13:52Z</time>
   </trkpt>
   <trkpt lat="52.9973290" lon="-6.4337570">
    <ele>282.2</ele>
    <time>2025-07-19T15:13:58Z</time>
   </trkpt>
   <trkpt lat="52.9973170" lon="-6.4336780">
    <ele>281.2</ele>
    <time>2025-07-19T15:14:03Z</time>
   </trkpt>
   <trkpt lat="52.9972890" lon="-6.4335980">
    <ele>280.5</ele>
    <time>2025-07-19T15:14:08Z</time>
   </trkpt>
   <trkpt lat="52.9972780" lon="-6.4335080">
    <ele>279.6</ele>
    <time>2025-07-19T15:14:14Z</time>
   </trkpt>
   <trkpt lat="52.9972360" lon="-6.4334270">
    <ele>279.2</ele>
    <time>2025-07-19T15:14:19Z</time>
   </trkpt>
   <trkpt lat="52.9972110" lon="-6.4333350">
    <ele>278.9</ele>
    <time>2025-07-19T15:14:24Z</time>
   </trkpt>
   <trkpt lat="52.9971810" lon="-6.4332330">
    <ele>278.4</ele>
    <time>2025-07-19T15:14:29Z</time>
   </trkpt>
   <trkpt lat="52.9971490" lon="-6.4331650">
    <ele>278.1</ele>
    <time>2025-07-19T15:14:35Z</time>
   </trkpt>
   <trkpt lat="52.9971080" lon="-6.4330900">
    <ele>278.2</ele>
    <time>2025-07-19T15:14:40Z</time>
   </trkpt>
   <trkpt lat="52.9970790" lon="-6.4330290">
    <ele>278.0</ele>
    <time>2025-07-19T15:17:02Z</time>
   </trkpt>
   <trkpt lat="52.9970240" lon="-6.4329220">
    <ele>278.0</ele>
    <time>2025-07-19T15:17:08Z</time>
   </trkpt>
   <trkpt lat="52.9970000" lon="-6.4328340">
    <ele>277.7</ele>
    <time>2025-07-19T15:17:14Z</time>
   </trkpt>
   <trkpt lat="52.9969660" lon="-6.4327790">
    <ele>277.5</ele>
    <time>2025-07-19T15:17:49Z</time>
   </trkpt>
   <trkpt lat="52.9969160" lon="-6.4326770">
    <ele>276.9</ele>
    <time>2025-07-19T15:17:55Z</time>
   </trkpt>
   <trkpt lat="52.9968730" lon="-6.4325550">
    <ele>275.8</ele>
    <time>2025-07-19T15:18:00Z</time>
   </trkpt>
   <trkpt lat="52.9968320" lon="-6.4324750">
    <ele>275.1</ele>
    <time>2025-07-19T15:18:05Z</time>
   </trkpt>
   <trkpt lat="52.9968300" lon="-6.4323930">
    <ele>273.8</ele>
    <time>2025-07-19T15:18:11Z</time>
   </trkpt>
   <trkpt lat="52.9967710" lon="-6.4323430">
    <ele>273.1</ele>
    <time>2025-07-19T15:18:16Z</time>
   </trkpt>
   <trkpt lat="52.9967400" lon="-6.4322570">
    <ele>272.5</ele>
    <time>2025-07-19T15:18:21Z</time>
   </trkpt>
   <trkpt lat="52.9967000" lon="-6.4321670">
    <ele>271.4</ele>
    <time>2025-07-19T15:18:26Z</time>
   </trkpt>
   <trkpt lat="52.9966560" lon="-6.4320890">
    <ele>270.5</ele>
    <time>2025-07-19T15:18:31Z</time>
   </trkpt>
   <trkpt lat="52.9966130" lon="-6.4320280">
    <ele>269.9</ele>
    <time>2025-07-19T15:18:37Z</time>
   </trkpt>
   <trkpt lat="52.9965810" lon="-6.4319490">
    <ele>269.3</ele>
    <time>2025-07-19T15:18:42Z</time>
   </trkpt>
   <trkpt lat="52.9965520" lon="-6.4318480">
    <ele>268.4</ele>
    <time>2025-07-19T15:18:47Z</time>
   </trkpt>
   <trkpt lat="52.9965350" lon="-6.4317350">
    <ele>267.3</ele>
    <time>2025-07-19T15:18:52Z</time>
   </trkpt>
   <trkpt lat="52.9965060" lon="-6.4316520">
    <ele>266.1</ele>
    <time>2025-07-19T15:18:58Z</time>
   </trkpt>
   <trkpt lat="52.9964700" lon="-6.4315740">
    <ele>265.7</ele>
    <time>2025-07-19T15:19:03Z</time>
   </trkpt>
   <trkpt lat="52.9964290" lon="-6.4314870">
    <ele>265.4</ele>
    <time>2025-07-19T15:19:08Z</time>
   </trkpt>
   <trkpt lat="52.9963610" lon="-6.4314140">
    <ele>265.9</ele>
    <time>2025-07-19T15:19:14Z</time>
   </trkpt>
   <trkpt lat="52.9963260" lon="-6.4313020">
    <ele>266.1</ele>
    <time>2025-07-19T15:19:19Z</time>
   </trkpt>
   <trkpt lat="52.9963110" lon="-6.4311980">
    <ele>265.5</ele>
    <time>2025-07-19T15:19:24Z</time>
   </trkpt>
   <trkpt lat="52.9962780" lon="-6.4311330">
    <ele>265.0</ele>
    <time>2025-07-19T15:19:29Z</time>
   </trkpt>
   <trkpt lat="52.9962440" lon="-6.4310800">
    <ele>264.9</ele>
    <time>2025-07-19T15:19:35Z</time>
   </trkpt>
   <trkpt lat="52.9962060" lon="-6.4309830">
    <ele>264.7</ele>
    <time>2025-07-19T15:19:40Z</time>
   </trkpt>
   <trkpt lat="52.9961680" lon="-6.4309050">
    <ele>264.5</ele>
    <time>2025-07-19T15:19:45Z</time>
   </trkpt>
   <trkpt lat="52.9961200" lon="-6.4308110">
    <ele>264.1</ele>
    <time>2025-07-19T15:19:50Z</time>
   </trkpt>
   <trkpt lat="52.9960660" lon="-6.4307390">
    <ele>264.0</ele>
    <time>2025-07-19T15:19:55Z</time>
   </trkpt>
   <trkpt lat="52.9960270" lon="-6.4306680">
    <ele>263.8</ele>
    <time>2025-07-19T15:20:01Z</time>
   </trkpt>
   <trkpt lat="52.9960030" lon="-6.4305690">
    <ele>262.8</ele>
    <time>2025-07-19T15:20:06Z</time>
   </trkpt>
   <trkpt lat="52.9959770" lon="-6.4305010">
    <ele>261.6</ele>
    <time>2025-07-19T15:20:11Z</time>
   </trkpt>
   <trkpt lat="52.9959220" lon="-6.4304240">
    <ele>260.7</ele>
    <time>2025-07-19T15:20:16Z</time>
   </trkpt>
   <trkpt lat="52.9958620" lon="-6.4303420">
    <ele>259.6</ele>
    <time>2025-07-19T15:20:22Z</time>
   </trkpt>
   <trkpt lat="52.9958230" lon="-6.4302760">
    <ele>258.8</ele>
    <time>2025-07-19T15:20:27Z</time>
   </trkpt>
   <trkpt lat="52.9958000" lon="-6.4302000">
    <ele>257.6</ele>
    <time>2025-07-19T15:20:32Z</time>
   </trkpt>
   <trkpt lat="52.9957670" lon="-6.4301200">
    <ele>256.3</ele>
    <time>2025-07-19T15:20:38Z</time>
   </trkpt>
   <trkpt lat="52.9957350" lon="-6.4300320">
    <ele>255.1</ele>
    <time>2025-07-19T15:20:43Z</time>
   </trkpt>
   <trkpt lat="52.9957220" lon="-6.4299320">
    <ele>253.7</ele>
    <time>2025-07-19T15:20:48Z</time>
   </trkpt>
   <trkpt lat="52.9956810" lon="-6.4298960">
    <ele>252.6</ele>
    <time>2025-07-19T15:20:59Z</time>
   </trkpt>
   <trkpt lat="52.9956120" lon="-6.4297960">
    <ele>252.5</ele>
    <time>2025-07-19T15:21:05Z</time>
   </trkpt>
   <trkpt lat="52.9955630" lon="-6.4297170">
    <ele>252.6</ele>
    <time>2025-07-19T15:21:10Z</time>
   </trkpt>
   <trkpt lat="52.9955200" lon="-6.4296190">
    <ele>252.4</ele>
    <time>2025-07-19T15:21:15Z</time>
   </trkpt>
   <trkpt lat="52.9954890" lon="-6.4295220">
    <ele>251.9</ele>
    <time>2025-07-19T15:21:20Z</time>
   </trkpt>
   <trkpt lat="52.9954710" lon="-6.4294190">
    <ele>250.7</ele>
    <time>2025-07-19T15:21:25Z</time>
   </trkpt>
   <trkpt lat="52.9954370" lon="-6.4293490">
    <ele>249.9</ele>
    <time>2025-07-19T15:21:31Z</time>
   </trkpt>
   <trkpt lat="52.9953890" lon="-6.4292870">
    <ele>249.7</ele>
    <time>2025-07-19T15:21:36Z</time>
   </trkpt>
   <trkpt lat="52.9953390" lon="-6.4291990">
    <ele>249.6</ele>
    <time>2025-07-19T15:21:41Z</time>
   </trkpt>
   <trkpt lat="52.9953070" lon="-6.4291360">
    <ele>249.4</ele>
    <time>2025-07-19T15:21:46Z</time>
   </trkpt>
   <trkpt lat="52.9952590" lon="-6.4290810">
    <ele>249.6</ele>
    <time>2025-07-19T15:21:52Z</time>
   </trkpt>
   <trkpt lat="52.9952230" lon="-6.4289990">
    <ele>249.3</ele>
    <time>2025-07-19T15:21:57Z</time>
   </trkpt>
   <trkpt lat="52.9951940" lon="-6.4289170">
    <ele>248.6</ele>
    <time>2025-07-19T15:22:02Z</time>
   </trkpt>
   <trkpt lat="52.9951580" lon="-6.4288380">
    <ele>247.7</ele>
    <time>2025-07-19T15:22:07Z</time>
   </trkpt>
   <trkpt lat="52.9951110" lon="-6.4287640">
    <ele>246.9</ele>
    <time>2025-07-19T15:22:13Z</time>
   </trkpt>
   <trkpt lat="52.9950890" lon="-6.4286930">
    <ele>245.1</ele>
    <time>2025-07-19T15:22:36Z</time>
   </trkpt>
   <trkpt lat="52.9950610" lon="-6.4286200">
    <ele>244.4</ele>
    <time>2025-07-19T15:22:44Z</time>
   </trkpt>
   <trkpt lat="52.9949690" lon="-6.4284480">
    <ele>243.0</ele>
    <time>2025-07-19T15:22:49Z</time>
   </trkpt>
   <trkpt lat="52.9949240" lon="-6.4283470">
    <ele>241.2</ele>
    <time>2025-07-19T15:22:54Z</time>
   </trkpt>
   <trkpt lat="52.9949020" lon="-6.4282600">
    <ele>240.0</ele>
    <time>2025-07-19T15:22:59Z</time>
   </trkpt>
   <trkpt lat="52.9948550" lon="-6.4281670">
    <ele>238.8</ele>
    <time>2025-07-19T15:23:05Z</time>
   </trkpt>
   <trkpt lat="52.9948130" lon="-6.4280980">
    <ele>238.2</ele>
    <time>2025-07-19T15:23:10Z</time>
   </trkpt>
   <trkpt lat="52.9948020" lon="-6.4280220">
    <ele>237.4</ele>
    <time>2025-07-19T15:23:15Z</time>
   </trkpt>
   <trkpt lat="52.9947700" lon="-6.4279680">
    <ele>236.9</ele>
    <time>2025-07-19T15:23:21Z</time>
   </trkpt>
   <trkpt lat="52.9947520" lon="-6.4278850">
    <ele>236.2</ele>
    <time>2025-07-19T15:23:27Z</time>
   </trkpt>
   <trkpt lat="52.9947170" lon="-6.4277770">
    <ele>235.3</ele>
    <time>2025-07-19T15:23:32Z</time>
   </trkpt>
   <trkpt lat="52.9946810" lon="-6.4276750">
    <ele>234.5</ele>
    <time>2025-07-19T15:23:37Z</time>
   </trkpt>
   <trkpt lat="52.9946400" lon="-6.4275990">
    <ele>233.9</ele>
    <time>2025-07-19T15:23:42Z</time>
   </trkpt>
   <trkpt lat="52.9946270" lon="-6.4275150">
    <ele>233.3</ele>
    <time>2025-07-19T15:23:48Z</time>
   </trkpt>
   <trkpt lat="52.9946050" lon="-6.4274210">
    <ele>232.4</ele>
    <time>2025-07-19T15:23:53Z</time>
   </trkpt>
   <trkpt lat="52.9945540" lon="-6.4273460">
    <ele>231.8</ele>
    <time>2025-07-19T15:23:58Z</time>
   </trkpt>
   <trkpt lat="52.9945310" lon="-6.4272760">
    <ele>231.4</ele>
    <time>2025-07-19T15:24:03Z</time>
   </trkpt>
   <trkpt lat="52.9944830" lon="-6.4272150">
    <ele>231.1</ele>
    <time>2025-07-19T15:24:09Z</time>
   </trkpt>
   <trkpt lat="52.9944370" lon="-6.4271350">
    <ele>230.8</ele>
    <time>2025-07-19T15:24:14Z</time>
   </trkpt>
   <trkpt lat="52.9944000" lon="-6.4270360">
    <ele>230.1</ele>
    <time>2025-07-19T15:24:19Z</time>
   </trkpt>
   <trkpt lat="52.9943470" lon="-6.4269570">
    <ele>229.2</ele>
    <time>2025-07-19T15:24:24Z</time>
   </trkpt>
   <trkpt lat="52.9943150" lon="-6.4268730">
    <ele>228.2</ele>
    <time>2025-07-19T15:24:30Z</time>
   </trkpt>
   <trkpt lat="52.9942950" lon="-6.4267800">
    <ele>226.8</ele>
    <time>2025-07-19T15:24:35Z</time>
   </trkpt>
   <trkpt lat="52.9942340" lon="-6.4267120">
    <ele>225.8</ele>
    <time>2025-07-19T15:24:40Z</time>
   </trkpt>
   <trkpt lat="52.9941860" lon="-6.4266370">
    <ele>225.0</ele>
    <time>2025-07-19T15:24:46Z</time>
   </trkpt>
   <trkpt lat="52.9941590" lon="-6.4265740">
    <ele>223.6</ele>
    <time>2025-07-19T15:25:03Z</time>
   </trkpt>
   <trkpt lat="52.9941100" lon="-6.4264140">
    <ele>222.4</ele>
    <time>2025-07-19T15:25:08Z</time>
   </trkpt>
   <trkpt lat="52.9940670" lon="-6.4263240">
    <ele>221.2</ele>
    <time>2025-07-19T15:25:13Z</time>
   </trkpt>
   <trkpt lat="52.9940220" lon="-6.4262670">
    <ele>220.5</ele>
    <time>2025-07-19T15:25:19Z</time>
   </trkpt>
   <trkpt lat="52.9939810" lon="-6.4261960">
    <ele>220.1</ele>
    <time>2025-07-19T15:25:24Z</time>
   </trkpt>
   <trkpt lat="52.9939650" lon="-6.4260880">
    <ele>219.3</ele>
    <time>2025-07-19T15:25:29Z</time>
   </trkpt>
   <trkpt lat="52.9939220" lon="-6.4260010">
    <ele>218.5</ele>
    <time>2025-07-19T15:25:35Z</time>
   </trkpt>
   <trkpt lat="52.9938850" lon="-6.4259050">
    <ele>217.9</ele>
    <time>2025-07-19T15:25:40Z</time>
   </trkpt>
   <trkpt lat="52.9938510" lon="-6.4258340">
    <ele>217.3</ele>
    <time>2025-07-19T15:25:57Z</time>
   </trkpt>
   <trkpt lat="52.9937960" lon="-6.4257200">
    <ele>217.2</ele>
    <time>2025-07-19T15:26:03Z</time>
   </trkpt>
   <trkpt lat="52.9937630" lon="-6.4256290">
    <ele>216.8</ele>
    <time>2025-07-19T15:26:08Z</time>
   </trkpt>
   <trkpt lat="52.9937110" lon="-6.4255260">
    <ele>216.3</ele>
    <time>2025-07-19T15:26:14Z</time>
   </trkpt>
   <trkpt lat="52.9936660" lon="-6.4254270">
    <ele>215.8</ele>
    <time>2025-07-19T15:26:19Z</time>
   </trkpt>
   <trkpt lat="52.9936290" lon="-6.4253390">
    <ele>215.0</ele>
    <time>2025-07-19T15:26:24Z</time>
   </trkpt>
   <trkpt lat="52.9935880" lon="-6.4252770">
    <ele>214.3</ele>
    <time>2025-07-19T15:26:30Z</time>
   </trkpt>
   <trkpt lat="52.9935500" lon="-6.4252010">
    <ele>213.7</ele>
    <time>2025-07-19T15:26:35Z</time>
   </trkpt>
   <trkpt lat="52.9935200" lon="-6.4251320">
    <ele>212.9</ele>
    <time>2025-07-19T15:26:41Z</time>
   </trkpt>
   <trkpt lat="52.9935040" lon="-6.4250360">
    <ele>211.8</ele>
    <time>2025-07-19T15:26:46Z</time>
   </trkpt>
   <trkpt lat="52.9934720" lon="-6.4249290">
    <ele>210.5</ele>
    <time>2025-07-19T15:26:51Z</time>
   </trkpt>
   <trkpt lat="52.9934320" lon="-6.4248430">
    <ele>209.2</ele>
    <time>2025-07-19T15:26:57Z</time>
   </trkpt>
   <trkpt lat="52.9933950" lon="-6.4247700">
    <ele>208.2</ele>
    <time>2025-07-19T15:27:02Z</time>
   </trkpt>
   <trkpt lat="52.9933490" lon="-6.4247250">
    <ele>207.4</ele>
    <time>2025-07-19T15:27:08Z</time>
   </trkpt>
   <trkpt lat="52.9933170" lon="-6.4246670">
    <ele>206.5</ele>
    <time>2025-07-19T15:27:15Z</time>
   </trkpt>
   <trkpt lat="52.9932740" lon="-6.4245930">
    <ele>205.9</ele>
    <time>2025-07-19T15:27:20Z</time>
   </trkpt>
   <trkpt lat="52.9932380" lon="-6.4244960">
    <ele>204.9</ele>
    <time>2025-07-19T15:27:26Z</time>
   </trkpt>
   <trkpt lat="52.9931890" lon="-6.4244070">
    <ele>204.0</ele>
    <time>2025-07-19T15:27:31Z</time>
   </trkpt>
   <trkpt lat="52.9931630" lon="-6.4243440">
    <ele>202.9</ele>
    <time>2025-07-19T15:27:39Z</time>
   </trkpt>
   <trkpt lat="52.9931160" lon="-6.4242730">
    <ele>202.4</ele>
    <time>2025-07-19T15:27:44Z</time>
   </trkpt>
   <trkpt lat="52.9930680" lon="-6.4241700">
    <ele>201.6</ele>
    <time>2025-07-19T15:27:49Z</time>
   </trkpt>
   <trkpt lat="52.9930250" lon="-6.4240900">
    <ele>201.0</ele>
    <time>2025-07-19T15:27:54Z</time>
   </trkpt>
   <trkpt lat="52.9929760" lon="-6.4240360">
    <ele>200.6</ele>
    <time>2025-07-19T15:28:00Z</time>
   </trkpt>
   <trkpt lat="52.9929180" lon="-6.4239770">
    <ele>200.4</ele>
    <time>2025-07-19T15:28:05Z</time>
   </trkpt>
   <trkpt lat="52.9929070" lon="-6.4239020">
    <ele>200.0</ele>
    <time>2025-07-19T15:28:13Z</time>
   </trkpt>
   <trkpt lat="52.9928450" lon="-6.4238780">
    <ele>199.8</ele>
    <time>2025-07-19T15:28:19Z</time>
   </trkpt>
   <trkpt lat="52.9928820" lon="-6.4239220">
    <ele>200.1</ele>
    <time>2025-07-19T15:29:45Z</time>
   </trkpt>
   <trkpt lat="52.9928490" lon="-6.4238680">
    <ele>199.9</ele>
    <time>2025-07-19T15:30:39Z</time>
   </trkpt>
   <trkpt lat="52.9927590" lon="-6.4237710">
    <ele>199.6</ele>
    <time>2025-07-19T15:30:45Z</time>
   </trkpt>
   <trkpt lat="52.9926900" lon="-6.4236810">
    <ele>199.1</ele>
    <time>2025-07-19T15:30:50Z</time>
   </trkpt>
   <trkpt lat="52.9926300" lon="-6.4236280">
    <ele>198.8</ele>
    <time>2025-07-19T15:30:55Z</time>
   </trkpt>
   <trkpt lat="52.9925490" lon="-6.4235900">
    <ele>198.7</ele>
    <time>2025-07-19T15:31:01Z</time>
   </trkpt>
   <trkpt lat="52.9924850" lon="-6.4235500">
    <ele>198.7</ele>
    <time>2025-07-19T15:31:06Z</time>
   </trkpt>
   <trkpt lat="52.9924260" lon="-6.4235370">
    <ele>199.0</ele>
    <time>2025-07-19T15:31:12Z</time>
   </trkpt>
   <trkpt lat="52.9923430" lon="-6.4234830">
    <ele>199.2</ele>
    <time>2025-07-19T15:31:17Z</time>
   </trkpt>
   <trkpt lat="52.9922540" lon="-6.4234660">
    <ele>200.1</ele>
    <time>2025-07-19T15:31:22Z</time>
   </trkpt>
   <trkpt lat="52.9922000" lon="-6.4233980">
    <ele>200.7</ele>
    <time>2025-07-19T15:31:28Z</time>
   </trkpt>
   <trkpt lat="52.9921720" lon="-6.4233200">
    <ele>200.5</ele>
    <time>2025-07-19T15:31:33Z</time>
   </trkpt>
   <trkpt lat="52.9921560" lon="-6.4232070">
    <ele>199.6</ele>
    <time>2025-07-19T15:31:39Z</time>
   </trkpt>
   <trkpt lat="52.9921200" lon="-6.4230830">
    <ele>198.5</ele>
    <time>2025-07-19T15:31:44Z</time>
   </trkpt>
   <trkpt lat="52.9920780" lon="-6.4229620">
    <ele>197.4</ele>
    <time>2025-07-19T15:31:50Z</time>
   </trkpt>
   <trkpt lat="52.9920350" lon="-6.4228710">
    <ele>196.7</ele>
    <time>2025-07-19T15:31:55Z</time>
   </trkpt>
   <trkpt lat="52.9919710" lon="-6.4227870">
    <ele>196.4</ele>
    <time>2025-07-19T15:32:00Z</time>
   </trkpt>
   <trkpt lat="52.9919190" lon="-6.4227030">
    <ele>196.1</ele>
    <time>2025-07-19T15:32:06Z</time>
   </trkpt>
   <trkpt lat="52.9918670" lon="-6.4226300">
    <ele>196.0</ele>
    <time>2025-07-19T15:32:11Z</time>
   </trkpt>
   <trkpt lat="52.9918380" lon="-6.4225190">
    <ele>195.4</ele>
    <time>2025-07-19T15:32:17Z</time>
   </trkpt>
   <trkpt lat="52.9918020" lon="-6.4223920">
    <ele>194.5</ele>
    <time>2025-07-19T15:32:22Z</time>
   </trkpt>
   <trkpt lat="52.9917430" lon="-6.4222760">
    <ele>193.9</ele>
    <time>2025-07-19T15:32:27Z</time>
   </trkpt>
   <trkpt lat="52.9917020" lon="-6.4221700">
    <ele>193.2</ele>
    <time>2025-07-19T15:32:33Z</time>
   </trkpt>
   <trkpt lat="52.9916660" lon="-6.4221020">
    <ele>192.9</ele>
    <time>2025-07-19T15:32:38Z</time>
   </trkpt>
   <trkpt lat="52.9916320" lon="-6.4220030">
    <ele>192.5</ele>
    <time>2025-07-19T15:32:44Z</time>
   </trkpt>
   <trkpt lat="52.9915980" lon="-6.4219040">
    <ele>192.1</ele>
    <time>2025-07-19T15:32:49Z</time>
   </trkpt>
   <trkpt lat="52.9915760" lon="-6.4217950">
    <ele>191.6</ele>
    <time>2025-07-19T15:32:55Z</time>
   </trkpt>
   <trkpt lat="52.9915440" lon="-6.4216850">
    <ele>191.0</ele>
    <time>2025-07-19T15:33:00Z</time>
   </trkpt>
   <trkpt lat="52.9915060" lon="-6.4216460">
    <ele>190.7</ele>
    <time>2025-07-19T15:33:20Z</time>
   </trkpt>
   <trkpt lat="52.9914370" lon="-6.4214800">
    <ele>190.4</ele>
    <time>2025-07-19T15:33:25Z</time>
   </trkpt>
   <trkpt lat="52.9913960" lon="-6.4213570">
    <ele>189.8</ele>
    <time>2025-07-19T15:33:30Z</time>
   </trkpt>
   <trkpt lat="52.9913320" lon="-6.4212580">
    <ele>189.4</ele>
    <time>2025-07-19T15:33:36Z</time>
   </trkpt>
   <trkpt lat="52.9912970" lon="-6.4211680">
    <ele>188.9</ele>
    <time>2025-07-19T15:33:41Z</time>
   </trkpt>
   <trkpt lat="52.9912550" lon="-6.4210840">
    <ele>188.5</ele>
    <time>2025-07-19T15:33:46Z</time>
   </trkpt>
   <trkpt lat="52.9912200" lon="-6.4210250">
    <ele>188.0</ele>
    <time>2025-07-19T15:34:00Z</time>
   </trkpt>
   <trkpt lat="52.9911350" lon="-6.4209120">
    <ele>187.9</ele>
    <time>2025-07-19T15:34:06Z</time>
   </trkpt>
   <trkpt lat="52.9910770" lon="-6.4207920">
    <ele>187.7</ele>
    <time>2025-07-19T15:34:12Z</time>
   </trkpt>
   <trkpt lat="52.9910370" lon="-6.4207060">
    <ele>187.3</ele>
    <time>2025-07-19T15:34:17Z</time>
   </trkpt>
   <trkpt lat="52.9909930" lon="-6.4206040">
    <ele>186.9</ele>
    <time>2025-07-19T15:34:22Z</time>
   </trkpt>
   <trkpt lat="52.9909470" lon="-6.4205010">
    <ele>186.4</ele>
    <time>2025-07-19T15:34:27Z</time>
   </trkpt>
   <trkpt lat="52.9909060" lon="-6.4204250">
    <ele>186.0</ele>
    <time>2025-07-19T15:34:32Z</time>
   </trkpt>
   <trkpt lat="52.9908610" lon="-6.4203220">
    <ele>185.6</ele>
    <time>2025-07-19T15:34:37Z</time>
   </trkpt>
   <trkpt lat="52.9908170" lon="-6.4202300">
    <ele>185.1</ele>
    <time>2025-07-19T15:34:43Z</time>
   </trkpt>
   <trkpt lat="52.9907650" lon="-6.4201390">
    <ele>184.7</ele>
    <time>2025-07-19T15:34:48Z</time>
   </trkpt>
   <trkpt lat="52.9907050" lon="-6.4200540">
    <ele>184.5</ele>
    <time>2025-07-19T15:34:54Z</time>
   </trkpt>
   <trkpt lat="52.9906420" lon="-6.4199590">
    <ele>184.5</ele>
    <time>2025-07-19T15:34:59Z</time>
   </trkpt>
   <trkpt lat="52.9905940" lon="-6.4198630">
    <ele>184.5</ele>
    <time>2025-07-19T15:35:04Z</time>
   </trkpt>
   <trkpt lat="52.9905450" lon="-6.4197490">
    <ele>184.3</ele>
    <time>2025-07-19T15:35:10Z</time>
   </trkpt>
   <trkpt lat="52.9904910" lon="-6.4196370">
    <ele>184.0</ele>
    <time>2025-07-19T15:35:15Z</time>
   </trkpt>
   <trkpt lat="52.9904410" lon="-6.4195740">
    <ele>184.0</ele>
    <time>2025-07-19T15:35:21Z</time>
   </trkpt>
   <trkpt lat="52.9903770" lon="-6.4195030">
    <ele>184.3</ele>
    <time>2025-07-19T15:35:26Z</time>
   </trkpt>
   <trkpt lat="52.9903180" lon="-6.4194190">
    <ele>184.6</ele>
    <time>2025-07-19T15:35:31Z</time>
   </trkpt>
   <trkpt lat="52.9902760" lon="-6.4192830">
    <ele>184.3</ele>
    <time>2025-07-19T15:35:37Z</time>
   </trkpt>
   <trkpt lat="52.9902380" lon="-6.4191900">
    <ele>183.6</ele>
    <time>2025-07-19T15:35:42Z</time>
   </trkpt>
   <trkpt lat="52.9901990" lon="-6.4190970">
    <ele>183.1</ele>
    <time>2025-07-19T15:35:47Z</time>
   </trkpt>
   <trkpt lat="52.9901400" lon="-6.4189850">
    <ele>182.5</ele>
    <time>2025-07-19T15:35:53Z</time>
   </trkpt>
   <trkpt lat="52.9900820" lon="-6.4189060">
    <ele>182.0</ele>
    <time>2025-07-19T15:35:58Z</time>
   </trkpt>
   <trkpt lat="52.9900440" lon="-6.4187990">
    <ele>181.2</ele>
    <time>2025-07-19T15:36:04Z</time>
   </trkpt>
   <trkpt lat="52.9900370" lon="-6.4187250">
    <ele>180.4</ele>
    <time>2025-07-19T15:36:09Z</time>
   </trkpt>
   <trkpt lat="52.9899900" lon="-6.4186810">
    <ele>179.6</ele>
    <time>2025-07-19T15:36:16Z</time>
   </trkpt>
   <trkpt lat="52.9899530" lon="-6.4186370">
    <ele>179.2</ele>
    <time>2025-07-19T15:36:30Z</time>
   </trkpt>
   <trkpt lat="52.9898800" lon="-6.4185130">
    <ele>178.3</ele>
    <time>2025-07-19T15:36:35Z</time>
   </trkpt>
   <trkpt lat="52.9898180" lon="-6.4184130">
    <ele>177.6</ele>
    <time>2025-07-19T15:36:41Z</time>
   </trkpt>
   <trkpt lat="52.9897800" lon="-6.4183190">
    <ele>176.8</ele>
    <time>2025-07-19T15:36:46Z</time>
   </trkpt>
   <trkpt lat="52.9897430" lon="-6.4182510">
    <ele>176.3</ele>
    <time>2025-07-19T15:36:51Z</time>
   </trkpt>
   <trkpt lat="52.9897080" lon="-6.4181630">
    <ele>175.8</ele>
    <time>2025-07-19T15:36:56Z</time>
   </trkpt>
   <trkpt lat="52.9896680" lon="-6.4180610">
    <ele>175.2</ele>
    <time>2025-07-19T15:37:02Z</time>
   </trkpt>
   <trkpt lat="52.9896290" lon="-6.4179810">
    <ele>174.9</ele>
    <time>2025-07-19T15:37:07Z</time>
   </trkpt>
   <trkpt lat="52.9895980" lon="-6.4178840">
    <ele>174.4</ele>
    <time>2025-07-19T15:37:12Z</time>
   </trkpt>
   <trkpt lat="52.9895410" lon="-6.4177920">
    <ele>174.2</ele>
    <time>2025-07-19T15:37:17Z</time>
   </trkpt>
   <trkpt lat="52.9895020" lon="-6.4177070">
    <ele>174.0</ele>
    <time>2025-07-19T15:37:23Z</time>
   </trkpt>
   <trkpt lat="52.9894530" lon="-6.4176210">
    <ele>173.9</ele>
    <time>2025-07-19T15:37:28Z</time>
   </trkpt>
   <trkpt lat="52.9894050" lon="-6.4175300">
    <ele>173.8</ele>
    <time>2025-07-19T15:37:34Z</time>
   </trkpt>
   <trkpt lat="52.9893640" lon="-6.4174420">
    <ele>173.6</ele>
    <time>2025-07-19T15:37:39Z</time>
   </trkpt>
   <trkpt lat="52.9893230" lon="-6.4173550">
    <ele>173.4</ele>
    <time>2025-07-19T15:37:44Z</time>
   </trkpt>
   <trkpt lat="52.9892830" lon="-6.4172640">
    <ele>172.9</ele>
    <time>2025-07-19T15:37:49Z</time>
   </trkpt>
   <trkpt lat="52.9892260" lon="-6.4171680">
    <ele>172.5</ele>
    <time>2025-07-19T15:37:55Z</time>
   </trkpt>
   <trkpt lat="52.9891710" lon="-6.4170790">
    <ele>172.0</ele>
    <time>2025-07-19T15:38:00Z</time>
   </trkpt>
   <trkpt lat="52.9891070" lon="-6.4169970">
    <ele>171.5</ele>
    <time>2025-07-19T15:38:06Z</time>
   </trkpt>
   <trkpt lat="52.9890620" lon="-6.4168890">
    <ele>170.8</ele>
    <time>2025-07-19T15:38:11Z</time>
   </trkpt>
   <trkpt lat="52.9890010" lon="-6.4167880">
    <ele>170.1</ele>
    <time>2025-07-19T15:38:17Z</time>
   </trkpt>
   <trkpt lat="52.9889510" lon="-6.4167280">
    <ele>169.7</ele>
    <time>2025-07-19T15:38:22Z</time>
   </trkpt>
   <trkpt lat="52.9889110" lon="-6.4166540">
    <ele>169.4</ele>
    <time>2025-07-19T15:38:28Z</time>
   </trkpt>
   <trkpt lat="52.9888720" lon="-6.4165980">
    <ele>169.1</ele>
    <time>2025-07-19T15:38:33Z</time>
   </trkpt>
   <trkpt lat="52.9888220" lon="-6.4165250">
    <ele>168.9</ele>
    <time>2025-07-19T15:38:38Z</time>
   </trkpt>
   <trkpt lat="52.9887770" lon="-6.4164190">
    <ele>168.6</ele>
    <time>2025-07-19T15:38:43Z</time>
   </trkpt>
   <trkpt lat="52.9887340" lon="-6.4163250">
    <ele>168.4</ele>
    <time>2025-07-19T15:38:49Z</time>
   </trkpt>
   <trkpt lat="52.9887030" lon="-6.4162220">
    <ele>168.1</ele>
    <time>2025-07-19T15:38:54Z</time>
   </trkpt>
   <trkpt lat="52.9886830" lon="-6.4161410">
    <ele>167.9</ele>
    <time>2025-07-19T15:38:59Z</time>
   </trkpt>
   <trkpt lat="52.9886520" lon="-6.4160410">
    <ele>167.7</ele>
    <time>2025-07-19T15:39:04Z</time>
   </trkpt>
   <trkpt lat="52.9886270" lon="-6.4159470">
    <ele>167.5</ele>
    <time>2025-07-19T15:39:09Z</time>
   </trkpt>
   <trkpt lat="52.9886310" lon="-6.4158580">
    <ele>167.3</ele>
    <time>2025-07-19T15:39:15Z</time>
   </trkpt>
   <trkpt lat="52.9886100" lon="-6.4157640">
    <ele>167.0</ele>
    <time>2025-07-19T15:39:20Z</time>
   </trkpt>
   <trkpt lat="52.9886070" lon="-6.4156500">
    <ele>166.8</ele>
    <time>2025-07-19T15:39:25Z</time>
   </trkpt>
   <trkpt lat="52.9886090" lon="-6.4155520">
    <ele>166.5</ele>
    <time>2025-07-19T15:39:30Z</time>
   </trkpt>
   <trkpt lat="52.9885850" lon="-6.4154510">
    <ele>166.3</ele>
    <time>2025-07-19T15:39:35Z</time>
   </trkpt>
   <trkpt lat="52.9885790" lon="-6.4153400">
    <ele>166.2</ele>
    <time>2025-07-19T15:39:41Z</time>
   </trkpt>
   <trkpt lat="52.9885580" lon="-6.4152290">
    <ele>166.1</ele>
    <time>2025-07-19T15:39:46Z</time>
   </trkpt>
   <trkpt lat="52.9885050" lon="-6.4151360">
    <ele>166.2</ele>
    <time>2025-07-19T15:39:51Z</time>
   </trkpt>
   <trkpt lat="52.9884570" lon="-6.4150650">
    <ele>166.4</ele>
    <time>2025-07-19T15:39:57Z</time>
   </trkpt>
   <trkpt lat="52.9884230" lon="-6.4149590">
    <ele>166.5</ele>
    <time>2025-07-19T15:40:02Z</time>
   </trkpt>
   <trkpt lat="52.9884130" lon="-6.4148590">
    <ele>166.5</ele>
    <time>2025-07-19T15:40:07Z</time>
   </trkpt>
   <trkpt lat="52.9883890" lon="-6.4147650">
    <ele>166.5</ele>
    <time>2025-07-19T15:40:12Z</time>
   </trkpt>
   <trkpt lat="52.9883890" lon="-6.4146850">
    <ele>166.5</ele>
    <time>2025-07-19T15:40:41Z</time>
   </trkpt>
   <trkpt lat="52.9883870" lon="-6.4145610">
    <ele>166.5</ele>
    <time>2025-07-19T15:40:47Z</time>
   </trkpt>
   <trkpt lat="52.9883540" lon="-6.4145000">
    <ele>166.4</ele>
    <time>2025-07-19T15:40:52Z</time>
   </trkpt>
   <trkpt lat="52.9883240" lon="-6.4144140">
    <ele>166.3</ele>
    <time>2025-07-19T15:40:58Z</time>
   </trkpt>
   <trkpt lat="52.9883300" lon="-6.4143380">
    <ele>166.3</ele>
    <time>2025-07-19T15:41:06Z</time>
   </trkpt>
   <trkpt lat="52.9883660" lon="-6.4142860">
    <ele>166.2</ele>
    <time>2025-07-19T15:41:14Z</time>
   </trkpt>
   <trkpt lat="52.9884090" lon="-6.4142340">
    <ele>166.3</ele>
    <time>2025-07-19T15:41:20Z</time>
   </trkpt>
   <trkpt lat="52.9884360" lon="-6.4141650">
    <ele>166.4</ele>
    <time>2025-07-19T15:41:30Z</time>
   </trkpt>
   <trkpt lat="52.9884230" lon="-6.4139980">
    <ele>166.3</ele>
    <time>2025-07-19T15:41:36Z</time>
   </trkpt>
   <trkpt lat="52.9883990" lon="-6.4138950">
    <ele>166.2</ele>
    <time>2025-07-19T15:41:41Z</time>
   </trkpt>
   <trkpt lat="52.9883580" lon="-6.4138110">
    <ele>165.9</ele>
    <time>2025-07-19T15:41:46Z</time>
   </trkpt>
   <trkpt lat="52.9883160" lon="-6.4137260">
    <ele>165.5</ele>
    <time>2025-07-19T15:41:52Z</time>
   </trkpt>
   <trkpt lat="52.9882740" lon="-6.4136600">
    <ele>165.1</ele>
    <time>2025-07-19T15:41:57Z</time>
   </trkpt>
   <trkpt lat="52.9882350" lon="-6.4135890">
    <ele>164.8</ele>
    <time>2025-07-19T15:42:02Z</time>
   </trkpt>
   <trkpt lat="52.9881860" lon="-6.4135170">
    <ele>164.5</ele>
    <time>2025-07-19T15:42:08Z</time>
   </trkpt>
   <trkpt lat="52.9881530" lon="-6.4134430">
    <ele>164.3</ele>
    <time>2025-07-19T15:42:13Z</time>
   </trkpt>
   <trkpt lat="52.9881190" lon="-6.4133780">
    <ele>164.2</ele>
    <time>2025-07-19T15:42:19Z</time>
   </trkpt>
   <trkpt lat="52.9881280" lon="-6.4133030">
    <ele>164.1</ele>
    <time>2025-07-19T15:42:25Z</time>
   </trkpt>
   <trkpt lat="52.9881670" lon="-6.4132660">
    <ele>164.0</ele>
    <time>2025-07-19T15:42:32Z</time>
   </trkpt>
   <trkpt lat="52.9881970" lon="-6.4132000">
    <ele>164.1</ele>
    <time>2025-07-19T15:42:37Z</time>
   </trkpt>
   <trkpt lat="52.9881560" lon="-6.4131210">
    <ele>164.1</ele>
    <time>2025-07-19T15:42:43Z</time>
   </trkpt>
   <trkpt lat="52.9880760" lon="-6.4130810">
    <ele>164.1</ele>
    <time>2025-07-19T15:42:48Z</time>
   </trkpt>
   <trkpt lat="52.9880310" lon="-6.4129550">
    <ele>164.0</ele>
    <time>2025-07-19T15:42:53Z</time>
   </trkpt>
   <trkpt lat="52.9880160" lon="-6.4128780">
    <ele>163.9</ele>
    <time>2025-07-19T15:42:59Z</time>
   </trkpt>
   <trkpt lat="52.9879800" lon="-6.4128170">
    <ele>163.9</ele>
    <time>2025-07-19T15:43:22Z</time>
   </trkpt>
   <trkpt lat="52.9879520" lon="-6.4126860">
    <ele>163.8</ele>
    <time>2025-07-19T15:43:27Z</time>
   </trkpt>
  </trkseg>
 </trk>
</gpx>
